﻿<?xml version="1.0" encoding="utf-8"?><gpx creator="Garmin Desktop App" version="1.1" xsi:schemaLocation="http://www.topografix.com/GPX/1/1 http://www.topografix.com/GPX/1/1/gpx.xsd http://www.garmin.com/xmlschemas/WaypointExtension/v1 http://www8.garmin.com/xmlschemas/WaypointExtensionv1.xsd http://www.garmin.com/xmlschemas/TrackPointExtension/v1 http://www.garmin.com/xmlschemas/TrackPointExtensionv1.xsd http://www.garmin.com/xmlschemas/GpxExtensions/v3 http://www8.garmin.com/xmlschemas/GpxExtensionsv3.xsd http://www.garmin.com/xmlschemas/ActivityExtension/v1 http://www8.garmin.com/xmlschemas/ActivityExtensionv1.xsd http://www.garmin.com/xmlschemas/AdventuresExtensions/v1 http://www8.garmin.com/xmlschemas/AdventuresExtensionv1.xsd http://www.garmin.com/xmlschemas/PressureExtension/v1 http://www.garmin.com/xmlschemas/PressureExtensionv1.xsd http://www.garmin.com/xmlschemas/TripExtensions/v1 http://www.garmin.com/xmlschemas/TripExtensionsv1.xsd http://www.garmin.com/xmlschemas/TripMetaDataExtensions/v1 http://www.garmin.com/xmlschemas/TripMetaDataExtensionsv1.xsd http://www.garmin.com/xmlschemas/ViaPointTransportationModeExtensions/v1 http://www.garmin.com/xmlschemas/ViaPointTransportationModeExtensionsv1.xsd http://www.garmin.com/xmlschemas/CreationTimeExtension/v1 http://www.garmin.com/xmlschemas/CreationTimeExtensionsv1.xsd http://www.garmin.com/xmlschemas/AccelerationExtension/v1 http://www.garmin.com/xmlschemas/AccelerationExtensionv1.xsd http://www.garmin.com/xmlschemas/PowerExtension/v1 http://www.garmin.com/xmlschemas/PowerExtensionv1.xsd http://www.garmin.com/xmlschemas/VideoExtension/v1 http://www.garmin.com/xmlschemas/VideoExtensionv1.xsd" xmlns="http://www.topografix.com/GPX/1/1" xmlns:xsi="http://www.w3.org/2001/XMLSchema-instance" xmlns:wptx1="http://www.garmin.com/xmlschemas/WaypointExtension/v1" xmlns:gpxtrx="http://www.garmin.com/xmlschemas/GpxExtensions/v3" xmlns:gpxtpx="http://www.garmin.com/xmlschemas/TrackPointExtension/v1" xmlns:gpxx="http://www.garmin.com/xmlschemas/GpxExtensions/v3" xmlns:trp="http://www.garmin.com/xmlschemas/TripExtensions/v1" xmlns:adv="http://www.garmin.com/xmlschemas/AdventuresExtensions/v1" xmlns:prs="http://www.garmin.com/xmlschemas/PressureExtension/v1" xmlns:tmd="http://www.garmin.com/xmlschemas/TripMetaDataExtensions/v1" xmlns:vptm="http://www.garmin.com/xmlschemas/ViaPointTransportationModeExtensions/v1" xmlns:ctx="http://www.garmin.com/xmlschemas/CreationTimeExtension/v1" xmlns:gpxacc="http://www.garmin.com/xmlschemas/AccelerationExtension/v1" xmlns:gpxpx="http://www.garmin.com/xmlschemas/PowerExtension/v1" xmlns:vidx1="http://www.garmin.com/xmlschemas/VideoExtension/v1">

  <metadata>
    <link href="http://www.garmin.com">
      <text>Garmin International</text>
    </link>
    <time>2018-10-22T15:43:48Z</time>
    <bounds maxlat="60.840754033997655" maxlon="6.332513010129333" minlat="60.773362023755908" minlon="6.251233024522662" />
  </metadata>

  <trk>
    <name>Kvitanosi 102018</name>
    <extensions>
      <gpxx:TrackExtension>
        <gpxx:DisplayColor>DarkGray</gpxx:DisplayColor>
      </gpxx:TrackExtension>
    </extensions>
    <trkseg>
      <trkpt lat="60.829002019017935" lon="6.283748019486666">
        <ele>585.10000000000002</ele>
        <time>2018-10-19T07:33:57Z</time>
      </trkpt>
      <trkpt lat="60.829039989039302" lon="6.283873999491334">
        <ele>586.05999999999995</ele>
        <time>2018-10-19T07:34:10Z</time>
      </trkpt>
      <trkpt lat="60.829151971265674" lon="6.284193014726043">
        <ele>587.98000000000002</ele>
        <time>2018-10-19T07:34:29Z</time>
      </trkpt>
      <trkpt lat="60.829149959608912" lon="6.284193014726043">
        <ele>588.46000000000004</ele>
        <time>2018-10-19T07:34:35Z</time>
      </trkpt>
      <trkpt lat="60.829039989039302" lon="6.28414599224925">
        <ele>590.87</ele>
        <time>2018-10-19T07:34:47Z</time>
      </trkpt>
      <trkpt lat="60.829020040109754" lon="6.284108022227883">
        <ele>591.35000000000002</ele>
        <time>2018-10-19T07:34:58Z</time>
      </trkpt>
      <trkpt lat="60.829019034281373" lon="6.284105004742742">
        <ele>591.83000000000004</ele>
        <time>2018-10-19T07:35:29Z</time>
      </trkpt>
      <trkpt lat="60.829022973775864" lon="6.284141968935728">
        <ele>592.30999999999995</ele>
        <time>2018-10-19T07:35:50Z</time>
      </trkpt>
      <trkpt lat="60.829005036503077" lon="6.28416501916945">
        <ele>592.78999999999996</ele>
        <time>2018-10-19T07:35:53Z</time>
      </trkpt>
      <trkpt lat="60.828959019854665" lon="6.28425202332437">
        <ele>595.19000000000005</ele>
        <time>2018-10-19T07:36:03Z</time>
      </trkpt>
      <trkpt lat="60.828964971005917" lon="6.284384038299322">
        <ele>598.55999999999995</ele>
        <time>2018-10-19T07:36:11Z</time>
      </trkpt>
      <trkpt lat="60.828891964629292" lon="6.284417985007167">
        <ele>600.96000000000004</ele>
        <time>2018-10-19T07:36:18Z</time>
      </trkpt>
      <trkpt lat="60.828791968524456" lon="6.284416979178786">
        <ele>603.85000000000002</ele>
        <time>2018-10-19T07:36:25Z</time>
      </trkpt>
      <trkpt lat="60.828625001013279" lon="6.284370040521026">
        <ele>605.28999999999996</ele>
        <time>2018-10-19T07:36:34Z</time>
      </trkpt>
      <trkpt lat="60.828428026288748" lon="6.284323018044233">
        <ele>605.28999999999996</ele>
        <time>2018-10-19T07:36:42Z</time>
      </trkpt>
      <trkpt lat="60.828373041003942" lon="6.284335004165769">
        <ele>605.76999999999998</ele>
        <time>2018-10-19T07:36:48Z</time>
      </trkpt>
      <trkpt lat="60.828371029347181" lon="6.284344978630543">
        <ele>606.25</ele>
        <time>2018-10-19T07:36:51Z</time>
      </trkpt>
      <trkpt lat="60.828406987711787" lon="6.284387977793813">
        <ele>607.21000000000004</ele>
        <time>2018-10-19T07:36:55Z</time>
      </trkpt>
      <trkpt lat="60.828453004360199" lon="6.284522004425526">
        <ele>608.64999999999998</ele>
        <time>2018-10-19T07:36:59Z</time>
      </trkpt>
      <trkpt lat="60.828366000205278" lon="6.284585958346725">
        <ele>611.05999999999995</ele>
        <time>2018-10-19T07:37:06Z</time>
      </trkpt>
      <trkpt lat="60.828372035175562" lon="6.284597022458911">
        <ele>611.53999999999996</ele>
        <time>2018-10-19T07:37:08Z</time>
      </trkpt>
      <trkpt lat="60.828387960791588" lon="6.284633986651897">
        <ele>612.01999999999998</ele>
        <time>2018-10-19T07:37:11Z</time>
      </trkpt>
      <trkpt lat="60.828301962465048" lon="6.284600039944053">
        <ele>613.94000000000005</ele>
        <time>2018-10-19T07:37:16Z</time>
      </trkpt>
      <trkpt lat="60.828100964426994" lon="6.284493003040552">
        <ele>614.41999999999996</ele>
        <time>2018-10-19T07:37:24Z</time>
      </trkpt>
      <trkpt lat="60.827986970543861" lon="6.284557040780783">
        <ele>614.41999999999996</ele>
        <time>2018-10-19T07:37:30Z</time>
      </trkpt>
      <trkpt lat="60.827847998589277" lon="6.284605991095305">
        <ele>615.86000000000001</ele>
        <time>2018-10-19T07:37:37Z</time>
      </trkpt>
      <trkpt lat="60.827763006091118" lon="6.284597022458911">
        <ele>617.77999999999997</ele>
        <time>2018-10-19T07:37:43Z</time>
      </trkpt>
      <trkpt lat="60.827547004446387" lon="6.284504989162087">
        <ele>617.29999999999995</ele>
        <time>2018-10-19T07:37:52Z</time>
      </trkpt>
      <trkpt lat="60.827386993914843" lon="6.284450003877282">
        <ele>616.34000000000003</ele>
        <time>2018-10-19T07:37:59Z</time>
      </trkpt>
      <trkpt lat="60.82733997143805" lon="6.284404993057251">
        <ele>615.38</ele>
        <time>2018-10-19T07:38:05Z</time>
      </trkpt>
      <trkpt lat="60.827268976718187" lon="6.284385966137052">
        <ele>615.38</ele>
        <time>2018-10-19T07:38:22Z</time>
      </trkpt>
      <trkpt lat="60.827170992270112" lon="6.28433802165091">
        <ele>616.34000000000003</ele>
        <time>2018-10-19T07:38:30Z</time>
      </trkpt>
      <trkpt lat="60.827094968408346" lon="6.284329975023866">
        <ele>615.86000000000001</ele>
        <time>2018-10-19T07:38:36Z</time>
      </trkpt>
      <trkpt lat="60.827089017257094" lon="6.284322012215853">
        <ele>615.38</ele>
        <time>2018-10-19T07:38:37Z</time>
      </trkpt>
      <trkpt lat="60.827032020315528" lon="6.284264009445906">
        <ele>615.38</ele>
        <time>2018-10-19T07:38:41Z</time>
      </trkpt>
      <trkpt lat="60.826850971207023" lon="6.284146998077631">
        <ele>615.86000000000001</ele>
        <time>2018-10-19T07:38:49Z</time>
      </trkpt>
      <trkpt lat="60.826829010620713" lon="6.284169964492321">
        <ele>615.86000000000001</ele>
        <time>2018-10-19T07:38:50Z</time>
      </trkpt>
      <trkpt lat="60.82680000923574" lon="6.284408010542393">
        <ele>615.86000000000001</ele>
        <time>2018-10-19T07:38:57Z</time>
      </trkpt>
      <trkpt lat="60.826718034222722" lon="6.284485040232539">
        <ele>614.41999999999996</ele>
        <time>2018-10-19T07:39:02Z</time>
      </trkpt>
      <trkpt lat="60.826639998704195" lon="6.284481016919017">
        <ele>612.01999999999998</ele>
        <time>2018-10-19T07:39:07Z</time>
      </trkpt>
      <trkpt lat="60.826606974005699" lon="6.284495014697313">
        <ele>611.05999999999995</ele>
        <time>2018-10-19T07:39:10Z</time>
      </trkpt>
      <trkpt lat="60.826471019536257" lon="6.284515969455242">
        <ele>608.16999999999996</ele>
        <time>2018-10-19T07:39:16Z</time>
      </trkpt>
      <trkpt lat="60.826418967917562" lon="6.284558968618512">
        <ele>605.28999999999996</ele>
        <time>2018-10-19T07:39:20Z</time>
      </trkpt>
      <trkpt lat="60.826383009552956" lon="6.28459501080215">
        <ele>603.85000000000002</ele>
        <time>2018-10-19T07:39:23Z</time>
      </trkpt>
      <trkpt lat="60.826336992904544" lon="6.284652007743716">
        <ele>601.91999999999996</ele>
        <time>2018-10-19T07:39:26Z</time>
      </trkpt>
      <trkpt lat="60.826296005398035" lon="6.28470498137176">
        <ele>600</ele>
        <time>2018-10-19T07:39:29Z</time>
      </trkpt>
      <trkpt lat="60.826254012063146" lon="6.284750998020172">
        <ele>598.08000000000004</ele>
        <time>2018-10-19T07:39:32Z</time>
      </trkpt>
      <trkpt lat="60.826119985431433" lon="6.284798020496965">
        <ele>594.71000000000004</ele>
        <time>2018-10-19T07:39:38Z</time>
      </trkpt>
      <trkpt lat="60.826126020401716" lon="6.284863986074925">
        <ele>594.71000000000004</ele>
        <time>2018-10-19T07:39:39Z</time>
      </trkpt>
      <trkpt lat="60.826044967398047" lon="6.285039000213146">
        <ele>593.26999999999998</ele>
        <time>2018-10-19T07:39:47Z</time>
      </trkpt>
      <trkpt lat="60.82598302513361" lon="6.285295989364386">
        <ele>593.26999999999998</ele>
        <time>2018-10-19T07:39:55Z</time>
      </trkpt>
      <trkpt lat="60.825973972678185" lon="6.285662027075887">
        <ele>595.19000000000005</ele>
        <time>2018-10-19T07:40:04Z</time>
      </trkpt>
      <trkpt lat="60.825929967686534" lon="6.285945000126958">
        <ele>596.14999999999998</ele>
        <time>2018-10-19T07:40:12Z</time>
      </trkpt>
      <trkpt lat="60.825873976573348" lon="6.286253035068512">
        <ele>596.14999999999998</ele>
        <time>2018-10-19T07:40:19Z</time>
      </trkpt>
      <trkpt lat="60.825821002945304" lon="6.286485968157649">
        <ele>598.55999999999995</ele>
        <time>2018-10-19T07:40:27Z</time>
      </trkpt>
      <trkpt lat="60.825710026547313" lon="6.286685960367322">
        <ele>598.08000000000004</ele>
        <time>2018-10-19T07:40:35Z</time>
      </trkpt>
      <trkpt lat="60.825579017400742" lon="6.286933980882168">
        <ele>597.60000000000002</ele>
        <time>2018-10-19T07:40:45Z</time>
      </trkpt>
      <trkpt lat="60.825514979660511" lon="6.287133973091841">
        <ele>599.03999999999996</ele>
        <time>2018-10-19T07:40:51Z</time>
      </trkpt>
      <trkpt lat="60.82546996884048" lon="6.287232963368297">
        <ele>601.91999999999996</ele>
        <time>2018-10-19T07:40:57Z</time>
      </trkpt>
      <trkpt lat="60.825441973283887" lon="6.287334971129894">
        <ele>603.36000000000001</ele>
        <time>2018-10-19T07:41:01Z</time>
      </trkpt>
      <trkpt lat="60.82538103684783" lon="6.287442008033395">
        <ele>604.80999999999995</ele>
        <time>2018-10-19T07:41:06Z</time>
      </trkpt>
      <trkpt lat="60.825347006320953" lon="6.287604030221701">
        <ele>606.73000000000002</ele>
        <time>2018-10-19T07:41:12Z</time>
      </trkpt>
      <trkpt lat="60.825248016044497" lon="6.287772003561258">
        <ele>607.21000000000004</ele>
        <time>2018-10-19T07:41:19Z</time>
      </trkpt>
      <trkpt lat="60.82518900744617" lon="6.287938971072435">
        <ele>609.13</ele>
        <time>2018-10-19T07:41:26Z</time>
      </trkpt>
      <trkpt lat="60.825096974149346" lon="6.288201995193958">
        <ele>608.64999999999998</ele>
        <time>2018-10-19T07:41:34Z</time>
      </trkpt>
      <trkpt lat="60.825028996914625" lon="6.288326969370246">
        <ele>608.16999999999996</ele>
        <time>2018-10-19T07:41:39Z</time>
      </trkpt>
      <trkpt lat="60.824950961396098" lon="6.288550011813641">
        <ele>610.09000000000003</ele>
        <time>2018-10-19T07:41:47Z</time>
      </trkpt>
      <trkpt lat="60.824819030240178" lon="6.288769030943513">
        <ele>607.21000000000004</ele>
        <time>2018-10-19T07:41:56Z</time>
      </trkpt>
      <trkpt lat="60.824734037742019" lon="6.289043035358191">
        <ele>607.21000000000004</ele>
        <time>2018-10-19T07:42:05Z</time>
      </trkpt>
      <trkpt lat="60.824629012495279" lon="6.289156023412943">
        <ele>607.69000000000005</ele>
        <time>2018-10-19T07:42:12Z</time>
      </trkpt>
      <trkpt lat="60.824525998905301" lon="6.289294995367527">
        <ele>607.69000000000005</ele>
        <time>2018-10-19T07:42:17Z</time>
      </trkpt>
      <trkpt lat="60.824451986700296" lon="6.289504040032625">
        <ele>608.16999999999996</ele>
        <time>2018-10-19T07:42:24Z</time>
      </trkpt>
      <trkpt lat="60.824407981708646" lon="6.289613004773855">
        <ele>609.13</ele>
        <time>2018-10-19T07:42:31Z</time>
      </trkpt>
      <trkpt lat="60.824400018900633" lon="6.289590960368514">
        <ele>609.61000000000001</ele>
        <time>2018-10-19T07:42:36Z</time>
      </trkpt>
      <trkpt lat="60.824399013072252" lon="6.289637982845306">
        <ele>610.09000000000003</ele>
        <time>2018-10-19T07:42:38Z</time>
      </trkpt>
      <trkpt lat="60.824293987825513" lon="6.289841998368502">
        <ele>611.05999999999995</ele>
        <time>2018-10-19T07:42:45Z</time>
      </trkpt>
      <trkpt lat="60.824276972562075" lon="6.289926990866661">
        <ele>610.57000000000005</ele>
        <time>2018-10-19T07:42:48Z</time>
      </trkpt>
      <trkpt lat="60.824284013360739" lon="6.290061017498374">
        <ele>610.57000000000005</ele>
        <time>2018-10-19T07:42:50Z</time>
      </trkpt>
      <trkpt lat="60.824188962578773" lon="6.290248017758131">
        <ele>610.57000000000005</ele>
        <time>2018-10-19T07:42:57Z</time>
      </trkpt>
      <trkpt lat="60.824196003377438" lon="6.290365029126406">
        <ele>612.5</ele>
        <time>2018-10-19T07:43:06Z</time>
      </trkpt>
      <trkpt lat="60.824211006984115" lon="6.290420014411211">
        <ele>615.38</ele>
        <time>2018-10-19T07:43:13Z</time>
      </trkpt>
      <trkpt lat="60.824241014197469" lon="6.290426971390843">
        <ele>618.25999999999999</ele>
        <time>2018-10-19T07:43:22Z</time>
      </trkpt>
      <trkpt lat="60.824197009205818" lon="6.290496960282326">
        <ele>620.66999999999996</ele>
        <time>2018-10-19T07:43:32Z</time>
      </trkpt>
      <trkpt lat="60.824180999770761" lon="6.290701981633902">
        <ele>624.50999999999999</ele>
        <time>2018-10-19T07:43:42Z</time>
      </trkpt>
      <trkpt lat="60.824148980900645" lon="6.290872972458601">
        <ele>626.44000000000005</ele>
        <time>2018-10-19T07:43:47Z</time>
      </trkpt>
      <trkpt lat="60.824129031971097" lon="6.290946984663606">
        <ele>628.36000000000001</ele>
        <time>2018-10-19T07:43:51Z</time>
      </trkpt>
      <trkpt lat="60.824092989787459" lon="6.291284020990133">
        <ele>628.84000000000003</ele>
        <time>2018-10-19T07:44:00Z</time>
      </trkpt>
      <trkpt lat="60.824041021987796" lon="6.291499016806483">
        <ele>627.39999999999998</ele>
        <time>2018-10-19T07:44:06Z</time>
      </trkpt>
      <trkpt lat="60.824019983410835" lon="6.291634971275926">
        <ele>627.39999999999998</ele>
        <time>2018-10-19T07:44:13Z</time>
      </trkpt>
      <trkpt lat="60.823978995904326" lon="6.291875028982759">
        <ele>628.36000000000001</ele>
        <time>2018-10-19T07:45:05Z</time>
      </trkpt>
      <trkpt lat="60.82398503087461" lon="6.292047025635839">
        <ele>630.75999999999999</ele>
        <time>2018-10-19T07:45:11Z</time>
      </trkpt>
      <trkpt lat="60.823980001732707" lon="6.292160013690591">
        <ele>633.16999999999996</ele>
        <time>2018-10-19T07:45:15Z</time>
      </trkpt>
      <trkpt lat="60.82396499812603" lon="6.29226503893733">
        <ele>634.61000000000001</ele>
        <time>2018-10-19T07:45:18Z</time>
      </trkpt>
      <trkpt lat="60.82396499812603" lon="6.292616995051503">
        <ele>636.52999999999997</ele>
        <time>2018-10-19T07:45:27Z</time>
      </trkpt>
      <trkpt lat="60.823969021439552" lon="6.292973980307579">
        <ele>637.49000000000001</ele>
        <time>2018-10-19T07:45:35Z</time>
      </trkpt>
      <trkpt lat="60.823951000347733" lon="6.293220994994044">
        <ele>637.97000000000003</ele>
        <time>2018-10-19T07:45:42Z</time>
      </trkpt>
      <trkpt lat="60.823935996741056" lon="6.293406989425421">
        <ele>641.82000000000005</ele>
        <time>2018-10-19T07:45:50Z</time>
      </trkpt>
      <trkpt lat="60.823940020054579" lon="6.293422998860478">
        <ele>641.82000000000005</ele>
        <time>2018-10-19T07:45:51Z</time>
      </trkpt>
      <trkpt lat="60.823943037539721" lon="6.293486030772328">
        <ele>642.77999999999997</ele>
        <time>2018-10-19T07:45:53Z</time>
      </trkpt>
      <trkpt lat="60.823969021439552" lon="6.293707983568311">
        <ele>646.13999999999999</ele>
        <time>2018-10-19T07:46:01Z</time>
      </trkpt>
      <trkpt lat="60.824064994230866" lon="6.293888026848435">
        <ele>648.07000000000005</ele>
        <time>2018-10-19T07:46:08Z</time>
      </trkpt>
      <trkpt lat="60.824170019477606" lon="6.293957009911537">
        <ele>650.47000000000003</ele>
        <time>2018-10-19T07:46:15Z</time>
      </trkpt>
      <trkpt lat="60.824182005599141" lon="6.293965978547931">
        <ele>651.42999999999995</ele>
        <time>2018-10-19T07:46:17Z</time>
      </trkpt>
      <trkpt lat="60.824201032519341" lon="6.29422296769917">
        <ele>653.35000000000002</ele>
        <time>2018-10-19T07:46:25Z</time>
      </trkpt>
      <trkpt lat="60.824198015034199" lon="6.294240988790989">
        <ele>653.35000000000002</ele>
        <time>2018-10-19T07:46:26Z</time>
      </trkpt>
      <trkpt lat="60.824221987277269" lon="6.294419020414352">
        <ele>657.20000000000005</ele>
        <time>2018-10-19T07:46:35Z</time>
      </trkpt>
      <trkpt lat="60.824216036126018" lon="6.294633010402322">
        <ele>659.12</ele>
        <time>2018-10-19T07:46:43Z</time>
      </trkpt>
      <trkpt lat="60.824199020862579" lon="6.294809030368924">
        <ele>659.60000000000002</ele>
        <time>2018-10-19T07:46:49Z</time>
      </trkpt>
      <trkpt lat="60.824170019477606" lon="6.295065013691783">
        <ele>662.00999999999999</ele>
        <time>2018-10-19T07:47:00Z</time>
      </trkpt>
      <trkpt lat="60.824162978678942" lon="6.295170038938522">
        <ele>664.40999999999997</ele>
        <time>2018-10-19T07:47:06Z</time>
      </trkpt>
      <trkpt lat="60.824174964800477" lon="6.295247990638018">
        <ele>665.85000000000002</ele>
        <time>2018-10-19T07:47:09Z</time>
      </trkpt>
      <trkpt lat="60.824198015034199" lon="6.295340023934841">
        <ele>669.22000000000003</ele>
        <time>2018-10-19T07:47:17Z</time>
      </trkpt>
      <trkpt lat="60.824213018640876" lon="6.295376988127828">
        <ele>671.62</ele>
        <time>2018-10-19T07:47:25Z</time>
      </trkpt>
      <trkpt lat="60.824159039184451" lon="6.295491987839341">
        <ele>673.53999999999996</ele>
        <time>2018-10-19T07:47:29Z</time>
      </trkpt>
      <trkpt lat="60.824171025305986" lon="6.295635988935828">
        <ele>675.94000000000005</ele>
        <time>2018-10-19T07:47:36Z</time>
      </trkpt>
      <trkpt lat="60.824099024757743" lon="6.295970007777214">
        <ele>676.41999999999996</ele>
        <time>2018-10-19T07:47:45Z</time>
      </trkpt>
      <trkpt lat="60.824070023372769" lon="6.296298997476697">
        <ele>675.46000000000004</ele>
        <time>2018-10-19T07:47:51Z</time>
      </trkpt>
      <trkpt lat="60.824087038636208" lon="6.296621030196548">
        <ele>674.5</ele>
        <time>2018-10-19T07:47:59Z</time>
      </trkpt>
      <trkpt lat="60.824040016159415" lon="6.296855974942446">
        <ele>674.01999999999998</ele>
        <time>2018-10-19T07:48:05Z</time>
      </trkpt>
      <trkpt lat="60.823953012004495" lon="6.297209020704031">
        <ele>674.5</ele>
        <time>2018-10-19T07:48:14Z</time>
      </trkpt>
      <trkpt lat="60.82394203171134" lon="6.297461986541748">
        <ele>676.90999999999997</ele>
        <time>2018-10-19T07:48:21Z</time>
      </trkpt>
      <trkpt lat="60.823919987305999" lon="6.297606993466616">
        <ele>678.35000000000002</ele>
        <time>2018-10-19T07:48:24Z</time>
      </trkpt>
      <trkpt lat="60.823903977870941" lon="6.297890972346067">
        <ele>678.83000000000004</ele>
        <time>2018-10-19T07:48:32Z</time>
      </trkpt>
      <trkpt lat="60.823895009234548" lon="6.29806699231267">
        <ele>680.26999999999998</ele>
        <time>2018-10-19T07:48:43Z</time>
      </trkpt>
      <trkpt lat="60.823808005079627" lon="6.298339990898967">
        <ele>679.78999999999996</ele>
        <time>2018-10-19T07:48:51Z</time>
      </trkpt>
      <trkpt lat="60.823794007301331" lon="6.298665963113308">
        <ele>680.26999999999998</ele>
        <time>2018-10-19T07:48:59Z</time>
      </trkpt>
      <trkpt lat="60.82368697039783" lon="6.298892023041844">
        <ele>681.23000000000002</ele>
        <time>2018-10-19T07:49:08Z</time>
      </trkpt>
      <trkpt lat="60.823614969849586" lon="6.299176001921296">
        <ele>681.71000000000004</ele>
        <time>2018-10-19T07:49:18Z</time>
      </trkpt>
      <trkpt lat="60.823573982343078" lon="6.299235010519624">
        <ele>681.71000000000004</ele>
        <time>2018-10-19T07:49:22Z</time>
      </trkpt>
      <trkpt lat="60.823439033702016" lon="6.299600964412093">
        <ele>681.71000000000004</ele>
        <time>2018-10-19T07:49:33Z</time>
      </trkpt>
      <trkpt lat="60.823430987074971" lon="6.29978503100574">
        <ele>682.19000000000005</ele>
        <time>2018-10-19T07:49:37Z</time>
      </trkpt>
      <trkpt lat="60.823459988459945" lon="6.299991980195046">
        <ele>681.23000000000002</ele>
        <time>2018-10-19T07:49:43Z</time>
      </trkpt>
      <trkpt lat="60.823440039530396" lon="6.300292974337935">
        <ele>679.78999999999996</ele>
        <time>2018-10-19T07:49:49Z</time>
      </trkpt>
      <trkpt lat="60.823415983468294" lon="6.30053797736764">
        <ele>679.30999999999995</ele>
        <time>2018-10-19T07:49:56Z</time>
      </trkpt>
      <trkpt lat="60.823379019275308" lon="6.300740987062454">
        <ele>678.83000000000004</ele>
        <time>2018-10-19T07:50:03Z</time>
      </trkpt>
      <trkpt lat="60.823359992355108" lon="6.300928993150592">
        <ele>678.35000000000002</ele>
        <time>2018-10-19T07:50:09Z</time>
      </trkpt>
      <trkpt lat="60.823322022333741" lon="6.301089003682137">
        <ele>680.75</ele>
        <time>2018-10-19T07:50:16Z</time>
      </trkpt>
      <trkpt lat="60.823309030383825" lon="6.30129000172019">
        <ele>679.78999999999996</ele>
        <time>2018-10-19T07:50:27Z</time>
      </trkpt>
      <trkpt lat="60.823354041203856" lon="6.301755029708147">
        <ele>679.78999999999996</ele>
        <time>2018-10-19T07:50:38Z</time>
      </trkpt>
      <trkpt lat="60.823438027873635" lon="6.301991986110807">
        <ele>678.35000000000002</ele>
        <time>2018-10-19T07:50:46Z</time>
      </trkpt>
      <trkpt lat="60.823438027873635" lon="6.302201030775905">
        <ele>677.87</ele>
        <time>2018-10-19T07:50:52Z</time>
      </trkpt>
      <trkpt lat="60.823459988459945" lon="6.30240797996521">
        <ele>676.90999999999997</ele>
        <time>2018-10-19T07:50:58Z</time>
      </trkpt>
      <trkpt lat="60.823455965146422" lon="6.302611995488405">
        <ele>677.38999999999999</ele>
        <time>2018-10-19T07:51:05Z</time>
      </trkpt>
      <trkpt lat="60.823444984853268" lon="6.302804024890065">
        <ele>676.41999999999996</ele>
        <time>2018-10-19T07:51:11Z</time>
      </trkpt>
      <trkpt lat="60.823409026488662" lon="6.302992030978203">
        <ele>676.41999999999996</ele>
        <time>2018-10-19T07:51:18Z</time>
      </trkpt>
      <trkpt lat="60.823417995125055" lon="6.303281038999558">
        <ele>676.90999999999997</ele>
        <time>2018-10-19T07:51:25Z</time>
      </trkpt>
      <trkpt lat="60.823439033702016" lon="6.303543979302049">
        <ele>678.83000000000004</ele>
        <time>2018-10-19T07:51:34Z</time>
      </trkpt>
      <trkpt lat="60.823479015380144" lon="6.303874980658293">
        <ele>677.87</ele>
        <time>2018-10-19T07:51:43Z</time>
      </trkpt>
      <trkpt lat="60.823569037020206" lon="6.304197013378143">
        <ele>676.90999999999997</ele>
        <time>2018-10-19T07:51:52Z</time>
      </trkpt>
      <trkpt lat="60.823587980121374" lon="6.3044030405581">
        <ele>677.87</ele>
        <time>2018-10-19T07:51:59Z</time>
      </trkpt>
      <trkpt lat="60.823584040626884" lon="6.304575959220529">
        <ele>679.30999999999995</ele>
        <time>2018-10-19T07:52:08Z</time>
      </trkpt>
      <trkpt lat="60.823551015928388" lon="6.304843006655574">
        <ele>680.75</ele>
        <time>2018-10-19T07:52:17Z</time>
      </trkpt>
      <trkpt lat="60.823538023978472" lon="6.305166967213154">
        <ele>684.12</ele>
        <time>2018-10-19T07:52:29Z</time>
      </trkpt>
      <trkpt lat="60.823500975966454" lon="6.305341981351376">
        <ele>686.03999999999996</ele>
        <time>2018-10-19T07:52:35Z</time>
      </trkpt>
      <trkpt lat="60.823469962924719" lon="6.305563012138009">
        <ele>687.96000000000004</ele>
        <time>2018-10-19T07:52:42Z</time>
      </trkpt>
      <trkpt lat="60.823448002338409" lon="6.30573601461947">
        <ele>690.36000000000001</ele>
        <time>2018-10-19T07:52:49Z</time>
      </trkpt>
      <trkpt lat="60.823358986526728" lon="6.305985040962696">
        <ele>693.73000000000002</ele>
        <time>2018-10-19T07:53:00Z</time>
      </trkpt>
      <trkpt lat="60.823282962664962" lon="6.306155025959015">
        <ele>697.09000000000003</ele>
        <time>2018-10-19T07:53:08Z</time>
      </trkpt>
      <trkpt lat="60.82317098043859" lon="6.306291986256838">
        <ele>698.04999999999995</ele>
        <time>2018-10-19T07:53:18Z</time>
      </trkpt>
      <trkpt lat="60.823152037337422" lon="6.306332973763347">
        <ele>698.52999999999997</ele>
        <time>2018-10-19T07:53:20Z</time>
      </trkpt>
      <trkpt lat="60.823122030124068" lon="6.306344959884882">
        <ele>699.01999999999998</ele>
        <time>2018-10-19T07:53:23Z</time>
      </trkpt>
      <trkpt lat="60.823038965463638" lon="6.306282011792064">
        <ele>702.38</ele>
        <time>2018-10-19T07:53:32Z</time>
      </trkpt>
      <trkpt lat="60.82295598462224" lon="6.306156031787396">
        <ele>705.25999999999999</ele>
        <time>2018-10-19T07:53:41Z</time>
      </trkpt>
      <trkpt lat="60.822924971580505" lon="6.30614597350359">
        <ele>706.23000000000002</ele>
        <time>2018-10-19T07:53:43Z</time>
      </trkpt>
      <trkpt lat="60.822868980467319" lon="6.30618603900075">
        <ele>708.14999999999998</ele>
        <time>2018-10-19T07:53:49Z</time>
      </trkpt>
      <trkpt lat="60.822830004617572" lon="6.30618997849524">
        <ele>709.59000000000003</ele>
        <time>2018-10-19T07:53:52Z</time>
      </trkpt>
      <trkpt lat="60.822750041261315" lon="6.306074978783727">
        <ele>711.50999999999999</ele>
        <time>2018-10-19T07:53:58Z</time>
      </trkpt>
      <trkpt lat="60.822651972994208" lon="6.306009013205767">
        <ele>713.44000000000005</ele>
        <time>2018-10-19T07:54:05Z</time>
      </trkpt>
      <trkpt lat="60.822649039328098" lon="6.306007001549006">
        <ele>713.91999999999996</ele>
        <time>2018-10-19T07:54:06Z</time>
      </trkpt>
      <trkpt lat="60.822530016303062" lon="6.305972971022129">
        <ele>715.36000000000001</ele>
        <time>2018-10-19T07:54:15Z</time>
      </trkpt>
      <trkpt lat="60.822413004934788" lon="6.305878004059196">
        <ele>715.84000000000003</ele>
        <time>2018-10-19T07:54:24Z</time>
      </trkpt>
      <trkpt lat="60.82239598967135" lon="6.305856965482235">
        <ele>716.32000000000005</ele>
        <time>2018-10-19T07:54:26Z</time>
      </trkpt>
      <trkpt lat="60.82228995859623" lon="6.305756969377399">
        <ele>716.79999999999995</ele>
        <time>2018-10-19T07:54:34Z</time>
      </trkpt>
      <trkpt lat="60.822240002453327" lon="6.305444994941354">
        <ele>716.79999999999995</ele>
        <time>2018-10-19T07:54:42Z</time>
      </trkpt>
      <trkpt lat="60.822238996624947" lon="6.305325971916318">
        <ele>716.79999999999995</ele>
        <time>2018-10-19T07:54:46Z</time>
      </trkpt>
      <trkpt lat="60.82211896777153" lon="6.305174008011818">
        <ele>717.27999999999997</ele>
        <time>2018-10-19T07:54:54Z</time>
      </trkpt>
      <trkpt lat="60.822126008570194" lon="6.304968986660242">
        <ele>716.79999999999995</ele>
        <time>2018-10-19T07:55:00Z</time>
      </trkpt>
      <trkpt lat="60.822063982486725" lon="6.304871002212167">
        <ele>717.27999999999997</ele>
        <time>2018-10-19T07:55:05Z</time>
      </trkpt>
      <trkpt lat="60.821956023573875" lon="6.304796990007162">
        <ele>717.27999999999997</ele>
        <time>2018-10-19T07:55:11Z</time>
      </trkpt>
      <trkpt lat="60.821829959750175" lon="6.304674027487636">
        <ele>717.27999999999997</ele>
        <time>2018-10-19T07:55:19Z</time>
      </trkpt>
      <trkpt lat="60.821712026372552" lon="6.304462971165776">
        <ele>715.84000000000003</ele>
        <time>2018-10-19T07:55:26Z</time>
      </trkpt>
      <trkpt lat="60.8215800113976" lon="6.304359035566449">
        <ele>714.39999999999998</ele>
        <time>2018-10-19T07:55:33Z</time>
      </trkpt>
      <trkpt lat="60.82149300724268" lon="6.30414898507297">
        <ele>714.88</ele>
        <time>2018-10-19T07:55:41Z</time>
      </trkpt>
      <trkpt lat="60.821394016966224" lon="6.303899958729744">
        <ele>714.39999999999998</ele>
        <time>2018-10-19T07:55:48Z</time>
      </trkpt>
      <trkpt lat="60.821229983121157" lon="6.303745983168483">
        <ele>712.95000000000005</ele>
        <time>2018-10-19T07:55:56Z</time>
      </trkpt>
      <trkpt lat="60.821048012003303" lon="6.303569041192532">
        <ele>711.02999999999997</ele>
        <time>2018-10-19T07:56:05Z</time>
      </trkpt>
      <trkpt lat="60.820893030613661" lon="6.303579015657306">
        <ele>711.50999999999999</ele>
        <time>2018-10-19T07:56:12Z</time>
      </trkpt>
      <trkpt lat="60.82074198871851" lon="6.303548002615571">
        <ele>710.54999999999995</ele>
        <time>2018-10-19T07:56:18Z</time>
      </trkpt>
      <trkpt lat="60.820564962923527" lon="6.30335203371942">
        <ele>709.59000000000003</ele>
        <time>2018-10-19T07:56:27Z</time>
      </trkpt>
      <trkpt lat="60.82042096182704" lon="6.303292019292712">
        <ele>708.63</ele>
        <time>2018-10-19T07:56:35Z</time>
      </trkpt>
      <trkpt lat="60.820327000692487" lon="6.303312974050641">
        <ele>707.19000000000005</ele>
        <time>2018-10-19T07:56:41Z</time>
      </trkpt>
      <trkpt lat="60.820167995989323" lon="6.303426967933774">
        <ele>706.71000000000004</ele>
        <time>2018-10-19T07:56:49Z</time>
      </trkpt>
      <trkpt lat="60.820002034306526" lon="6.303423028439283">
        <ele>707.19000000000005</ele>
        <time>2018-10-19T07:56:57Z</time>
      </trkpt>
      <trkpt lat="60.81990203820169" lon="6.303381035104394">
        <ele>708.14999999999998</ele>
        <time>2018-10-19T07:57:03Z</time>
      </trkpt>
      <trkpt lat="60.81977597437799" lon="6.303472984582186">
        <ele>709.11000000000001</ele>
        <time>2018-10-19T07:57:10Z</time>
      </trkpt>
      <trkpt lat="60.819643037393689" lon="6.303551020100713">
        <ele>709.11000000000001</ele>
        <time>2018-10-19T07:57:16Z</time>
      </trkpt>
      <trkpt lat="60.819530971348286" lon="6.303649004548788">
        <ele>710.07000000000005</ele>
        <time>2018-10-19T07:57:23Z</time>
      </trkpt>
      <trkpt lat="60.819506999105215" lon="6.303875986486673">
        <ele>711.50999999999999</ele>
        <time>2018-10-19T07:57:30Z</time>
      </trkpt>
      <trkpt lat="60.819465005770326" lon="6.304075978696346">
        <ele>713.44000000000005</ele>
        <time>2018-10-19T07:57:39Z</time>
      </trkpt>
      <trkpt lat="60.819426029920578" lon="6.304219979792833">
        <ele>713.91999999999996</ele>
        <time>2018-10-19T07:57:46Z</time>
      </trkpt>
      <trkpt lat="60.819427035748959" lon="6.304403962567449">
        <ele>714.88</ele>
        <time>2018-10-19T07:57:53Z</time>
      </trkpt>
      <trkpt lat="60.819457964971662" lon="6.30459800362587">
        <ele>716.79999999999995</ele>
        <time>2018-10-19T07:58:01Z</time>
      </trkpt>
      <trkpt lat="60.819447990506887" lon="6.304665980860591">
        <ele>718.24000000000001</ele>
        <time>2018-10-19T07:58:06Z</time>
      </trkpt>
      <trkpt lat="60.819402979686856" lon="6.30474703386426">
        <ele>720.15999999999997</ele>
        <time>2018-10-19T07:58:14Z</time>
      </trkpt>
      <trkpt lat="60.819308012723923" lon="6.304776035249233">
        <ele>722.57000000000005</ele>
        <time>2018-10-19T07:58:27Z</time>
      </trkpt>
      <trkpt lat="60.819236012175679" lon="6.304863039404154">
        <ele>723.52999999999997</ele>
        <time>2018-10-19T07:58:39Z</time>
      </trkpt>
      <trkpt lat="60.819222014397383" lon="6.304826997220516">
        <ele>724.00999999999999</ele>
        <time>2018-10-19T07:58:59Z</time>
      </trkpt>
      <trkpt lat="60.819206004962325" lon="6.304618958383799">
        <ele>724.00999999999999</ele>
        <time>2018-10-19T07:59:12Z</time>
      </trkpt>
      <trkpt lat="60.819185972213745" lon="6.304602026939392">
        <ele>724.97000000000003</ele>
        <time>2018-10-19T08:00:36Z</time>
      </trkpt>
      <trkpt lat="60.819031996652484" lon="6.304457020014525">
        <ele>724.97000000000003</ele>
        <time>2018-10-19T08:00:54Z</time>
      </trkpt>
      <trkpt lat="60.819021016359329" lon="6.304335985332727">
        <ele>724.97000000000003</ele>
        <time>2018-10-19T08:01:08Z</time>
      </trkpt>
      <trkpt lat="60.819028979167342" lon="6.304301032796502">
        <ele>724.49000000000001</ele>
        <time>2018-10-19T08:01:12Z</time>
      </trkpt>
      <trkpt lat="60.819077007472515" lon="6.304188966751099">
        <ele>724.00999999999999</ele>
        <time>2018-10-19T08:01:19Z</time>
      </trkpt>
      <trkpt lat="60.819139033555984" lon="6.304103974252939">
        <ele>723.04999999999995</ele>
        <time>2018-10-19T08:01:27Z</time>
      </trkpt>
      <trkpt lat="60.81917499192059" lon="6.303924014791846">
        <ele>720.64999999999998</ele>
        <time>2018-10-19T08:01:36Z</time>
      </trkpt>
      <trkpt lat="60.819283034652472" lon="6.303724022582173">
        <ele>717.27999999999997</ele>
        <time>2018-10-19T08:01:49Z</time>
      </trkpt>
      <trkpt lat="60.819309018552303" lon="6.303581027314067">
        <ele>715.36000000000001</ele>
        <time>2018-10-19T08:02:00Z</time>
      </trkpt>
      <trkpt lat="60.819284962490201" lon="6.303495028987527">
        <ele>714.39999999999998</ele>
        <time>2018-10-19T08:02:21Z</time>
      </trkpt>
      <trkpt lat="60.819193013012409" lon="6.30339402705431">
        <ele>712.95000000000005</ele>
        <time>2018-10-19T08:02:32Z</time>
      </trkpt>
      <trkpt lat="60.819112965837121" lon="6.303255977109075">
        <ele>711.99000000000001</ele>
        <time>2018-10-19T08:02:42Z</time>
      </trkpt>
      <trkpt lat="60.819071978330612" lon="6.303279027342796">
        <ele>711.50999999999999</ele>
        <time>2018-10-19T08:02:49Z</time>
      </trkpt>
      <trkpt lat="60.818999977782369" lon="6.303646992892027">
        <ele>711.99000000000001</ele>
        <time>2018-10-19T08:03:05Z</time>
      </trkpt>
      <trkpt lat="60.818967036902905" lon="6.303706001490355">
        <ele>711.99000000000001</ele>
        <time>2018-10-19T08:03:09Z</time>
      </trkpt>
      <trkpt lat="60.818913979455829" lon="6.303694015368819">
        <ele>711.50999999999999</ele>
        <time>2018-10-19T08:03:22Z</time>
      </trkpt>
      <trkpt lat="60.81887299194932" lon="6.303612040355802">
        <ele>709.59000000000003</ele>
        <time>2018-10-19T08:03:39Z</time>
      </trkpt>
      <trkpt lat="60.818867962807417" lon="6.303600976243615">
        <ele>710.07000000000005</ele>
        <time>2018-10-19T08:03:57Z</time>
      </trkpt>
      <trkpt lat="60.818870980292559" lon="6.303699966520071">
        <ele>710.54999999999995</ele>
        <time>2018-10-19T08:04:10Z</time>
      </trkpt>
      <trkpt lat="60.818822029978037" lon="6.303799040615559">
        <ele>710.54999999999995</ele>
        <time>2018-10-19T08:04:23Z</time>
      </trkpt>
      <trkpt lat="60.818793028593063" lon="6.30399702116847">
        <ele>711.99000000000001</ele>
        <time>2018-10-19T08:04:38Z</time>
      </trkpt>
      <trkpt lat="60.818739971145988" lon="6.30412601865828">
        <ele>712.47000000000003</ele>
        <time>2018-10-19T08:04:48Z</time>
      </trkpt>
      <trkpt lat="60.818714993074536" lon="6.304195001721382">
        <ele>712.95000000000005</ele>
        <time>2018-10-19T08:05:04Z</time>
      </trkpt>
      <trkpt lat="60.818628994747996" lon="6.304181003943086">
        <ele>710.07000000000005</ele>
        <time>2018-10-19T08:05:25Z</time>
      </trkpt>
      <trkpt lat="60.818613991141319" lon="6.304187960922718">
        <ele>710.07000000000005</ele>
        <time>2018-10-19T08:05:26Z</time>
      </trkpt>
      <trkpt lat="60.818488011136651" lon="6.304282005876303">
        <ele>710.54999999999995</ele>
        <time>2018-10-19T08:05:38Z</time>
      </trkpt>
      <trkpt lat="60.818478958681226" lon="6.304279994219542">
        <ele>710.07000000000005</ele>
        <time>2018-10-19T08:05:45Z</time>
      </trkpt>
      <trkpt lat="60.818450963124633" lon="6.304284017533064">
        <ele>710.07000000000005</ele>
        <time>2018-10-19T08:05:48Z</time>
      </trkpt>
      <trkpt lat="60.818392038345337" lon="6.304222997277975">
        <ele>711.02999999999997</ele>
        <time>2018-10-19T08:05:59Z</time>
      </trkpt>
      <trkpt lat="60.818364964798093" lon="6.304210005328059">
        <ele>711.50999999999999</ele>
        <time>2018-10-19T08:06:02Z</time>
      </trkpt>
      <trkpt lat="60.81838097423315" lon="6.304058041423559">
        <ele>711.99000000000001</ele>
        <time>2018-10-19T08:06:12Z</time>
      </trkpt>
      <trkpt lat="60.818412993103266" lon="6.304086036980152">
        <ele>711.99000000000001</ele>
        <time>2018-10-19T08:06:16Z</time>
      </trkpt>
      <trkpt lat="60.818453980609775" lon="6.304049994796515">
        <ele>710.54999999999995</ele>
        <time>2018-10-19T08:06:26Z</time>
      </trkpt>
      <trkpt lat="60.81846697255969" lon="6.304042031988502">
        <ele>710.54999999999995</ele>
        <time>2018-10-19T08:06:29Z</time>
      </trkpt>
      <trkpt lat="60.818560011684895" lon="6.303943041712046">
        <ele>710.07000000000005</ele>
        <time>2018-10-19T08:06:42Z</time>
      </trkpt>
      <trkpt lat="60.818566968664527" lon="6.303896019235253">
        <ele>710.07000000000005</ele>
        <time>2018-10-19T08:06:45Z</time>
      </trkpt>
      <trkpt lat="60.818643998354673" lon="6.303698038682342">
        <ele>710.07000000000005</ele>
        <time>2018-10-19T08:06:57Z</time>
      </trkpt>
      <trkpt lat="60.818651039153337" lon="6.303643975406885">
        <ele>710.07000000000005</ele>
        <time>2018-10-19T08:07:00Z</time>
      </trkpt>
      <trkpt lat="60.818694960325956" lon="6.303484970703721">
        <ele>710.07000000000005</ele>
        <time>2018-10-19T08:07:11Z</time>
      </trkpt>
      <trkpt lat="60.818699989467859" lon="6.303474996238947">
        <ele>710.07000000000005</ele>
        <time>2018-10-19T08:07:12Z</time>
      </trkpt>
      <trkpt lat="60.818704012781382" lon="6.303487988188863">
        <ele>709.59000000000003</ele>
        <time>2018-10-19T08:07:23Z</time>
      </trkpt>
      <trkpt lat="60.818717004731297" lon="6.303471978753805">
        <ele>709.59000000000003</ele>
        <time>2018-10-19T08:07:40Z</time>
      </trkpt>
      <trkpt lat="60.818736031651497" lon="6.303410958498716">
        <ele>709.59000000000003</ele>
        <time>2018-10-19T08:07:54Z</time>
      </trkpt>
      <trkpt lat="60.818752041086555" lon="6.303271986544132">
        <ele>710.07000000000005</ele>
        <time>2018-10-19T08:08:05Z</time>
      </trkpt>
      <trkpt lat="60.818756986409426" lon="6.303271986544132">
        <ele>710.07000000000005</ele>
        <time>2018-10-19T08:08:25Z</time>
      </trkpt>
      <trkpt lat="60.818757992237806" lon="6.303218007087708">
        <ele>710.54999999999995</ele>
        <time>2018-10-19T08:08:59Z</time>
      </trkpt>
      <trkpt lat="60.818801997229457" lon="6.303113987669349">
        <ele>710.54999999999995</ele>
        <time>2018-10-19T08:09:09Z</time>
      </trkpt>
      <trkpt lat="60.818770984187722" lon="6.303066965192556">
        <ele>711.02999999999997</ele>
        <time>2018-10-19T08:09:20Z</time>
      </trkpt>
      <trkpt lat="60.818791016936302" lon="6.303055984899402">
        <ele>711.02999999999997</ele>
        <time>2018-10-19T08:09:25Z</time>
      </trkpt>
      <trkpt lat="60.818789005279541" lon="6.302953977137804">
        <ele>711.50999999999999</ele>
        <time>2018-10-19T08:09:36Z</time>
      </trkpt>
      <trkpt lat="60.818780958652496" lon="6.302848029881716">
        <ele>711.99000000000001</ele>
        <time>2018-10-19T08:09:47Z</time>
      </trkpt>
      <trkpt lat="60.818778024986386" lon="6.302812993526459">
        <ele>711.99000000000001</ele>
        <time>2018-10-19T08:10:02Z</time>
      </trkpt>
      <trkpt lat="60.818776013329625" lon="6.302813999354839">
        <ele>711.99000000000001</ele>
        <time>2018-10-19T08:10:28Z</time>
      </trkpt>
      <trkpt lat="60.818774001672864" lon="6.30281500518322">
        <ele>712.47000000000003</ele>
        <time>2018-10-19T08:11:22Z</time>
      </trkpt>
      <trkpt lat="60.81874500028789" lon="6.302849035710096">
        <ele>713.44000000000005</ele>
        <time>2018-10-19T08:12:02Z</time>
      </trkpt>
      <trkpt lat="60.81865799613297" lon="6.302852975204587">
        <ele>714.88</ele>
        <time>2018-10-19T08:12:15Z</time>
      </trkpt>
      <trkpt lat="60.818525981158018" lon="6.302812993526459">
        <ele>717.27999999999997</ele>
        <time>2018-10-19T08:12:28Z</time>
      </trkpt>
      <trkpt lat="60.818484993651509" lon="6.302774017676711">
        <ele>717.75999999999999</ele>
        <time>2018-10-19T08:12:36Z</time>
      </trkpt>
      <trkpt lat="60.81850896589458" lon="6.302603026852012">
        <ele>718.24000000000001</ele>
        <time>2018-10-19T08:12:44Z</time>
      </trkpt>
      <trkpt lat="60.818476025015116" lon="6.302588023245335">
        <ele>718.24000000000001</ele>
        <time>2018-10-19T08:12:47Z</time>
      </trkpt>
      <trkpt lat="60.818390026688576" lon="6.302489032968879">
        <ele>720.15999999999997</ele>
        <time>2018-10-19T08:12:56Z</time>
      </trkpt>
      <trkpt lat="60.818320959806442" lon="6.30238501355052">
        <ele>722.57000000000005</ele>
        <time>2018-10-19T08:13:04Z</time>
      </trkpt>
      <trkpt lat="60.818247031420469" lon="6.302264984697104">
        <ele>724.00999999999999</ele>
        <time>2018-10-19T08:13:11Z</time>
      </trkpt>
      <trkpt lat="60.81820503808558" lon="6.302208993583918">
        <ele>724.97000000000003</ele>
        <time>2018-10-19T08:13:20Z</time>
      </trkpt>
      <trkpt lat="60.818158015608788" lon="6.302219973877072">
        <ele>724.97000000000003</ele>
        <time>2018-10-19T08:13:26Z</time>
      </trkpt>
      <trkpt lat="60.818027006462216" lon="6.302148979157209">
        <ele>727.37</ele>
        <time>2018-10-19T08:13:40Z</time>
      </trkpt>
      <trkpt lat="60.818001022562385" lon="6.302126012742519">
        <ele>727.86000000000001</ele>
        <time>2018-10-19T08:13:44Z</time>
      </trkpt>
      <trkpt lat="60.8179069776088" lon="6.302013024687767">
        <ele>730.74000000000001</ele>
        <time>2018-10-19T08:13:55Z</time>
      </trkpt>
      <trkpt lat="60.817813016474247" lon="6.301870029419661">
        <ele>733.62</ele>
        <time>2018-10-19T08:14:04Z</time>
      </trkpt>
      <trkpt lat="60.817797007039189" lon="6.301839016377926">
        <ele>734.10000000000002</ele>
        <time>2018-10-19T08:14:06Z</time>
      </trkpt>
      <trkpt lat="60.817731041461229" lon="6.301751006394625">
        <ele>736.99000000000001</ele>
        <time>2018-10-19T08:14:17Z</time>
      </trkpt>
      <trkpt lat="60.817729029804468" lon="6.301720999181271">
        <ele>737.95000000000005</ele>
        <time>2018-10-19T08:14:30Z</time>
      </trkpt>
      <trkpt lat="60.817731963470578" lon="6.301709013059735">
        <ele>737.95000000000005</ele>
        <time>2018-10-19T08:14:42Z</time>
      </trkpt>
      <trkpt lat="60.81769198179245" lon="6.301652016118169">
        <ele>738.42999999999995</ele>
        <time>2018-10-19T08:14:52Z</time>
      </trkpt>
      <trkpt lat="60.817655017599463" lon="6.301691997796297">
        <ele>739.38999999999999</ele>
        <time>2018-10-19T08:15:01Z</time>
      </trkpt>
      <trkpt lat="60.817616041749716" lon="6.301768021658063">
        <ele>740.35000000000002</ele>
        <time>2018-10-19T08:15:06Z</time>
      </trkpt>
      <trkpt lat="60.817549992352724" lon="6.301714964210987">
        <ele>741.78999999999996</ele>
        <time>2018-10-19T08:15:13Z</time>
      </trkpt>
      <trkpt lat="60.817472040653229" lon="6.30161102861166">
        <ele>742.75999999999999</ele>
        <time>2018-10-19T08:15:22Z</time>
      </trkpt>
      <trkpt lat="60.817418983206153" lon="6.301673976704478">
        <ele>742.75999999999999</ele>
        <time>2018-10-19T08:15:33Z</time>
      </trkpt>
      <trkpt lat="60.817400962114334" lon="6.301684034988284">
        <ele>741.78999999999996</ele>
        <time>2018-10-19T08:15:38Z</time>
      </trkpt>
      <trkpt lat="60.817311024293303" lon="6.301600970327854">
        <ele>739.87</ele>
        <time>2018-10-19T08:15:45Z</time>
      </trkpt>
      <trkpt lat="60.817331979051232" lon="6.301644975319505">
        <ele>740.83000000000004</ele>
        <time>2018-10-19T08:15:55Z</time>
      </trkpt>
      <trkpt lat="60.817310018464923" lon="6.301625026389957">
        <ele>740.83000000000004</ele>
        <time>2018-10-19T08:16:10Z</time>
      </trkpt>
      <trkpt lat="60.817213961854577" lon="6.30154799669981">
        <ele>741.30999999999995</ele>
        <time>2018-10-19T08:16:19Z</time>
      </trkpt>
      <trkpt lat="60.817171968519688" lon="6.301402989774942">
        <ele>742.75999999999999</ele>
        <time>2018-10-19T08:16:25Z</time>
      </trkpt>
      <trkpt lat="60.817087981849909" lon="6.301252031698823">
        <ele>744.67999999999995</ele>
        <time>2018-10-19T08:16:32Z</time>
      </trkpt>
      <trkpt lat="60.817029979079962" lon="6.301171984523535">
        <ele>745.15999999999997</ele>
        <time>2018-10-19T08:16:37Z</time>
      </trkpt>
      <trkpt lat="60.816949009895325" lon="6.301066037267447">
        <ele>745.15999999999997</ele>
        <time>2018-10-19T08:16:43Z</time>
      </trkpt>
      <trkpt lat="60.816835016012192" lon="6.301025971770287">
        <ele>746.12</ele>
        <time>2018-10-19T08:16:50Z</time>
      </trkpt>
      <trkpt lat="60.816732002422214" lon="6.3008819706738">
        <ele>747.08000000000004</ele>
        <time>2018-10-19T08:16:58Z</time>
      </trkpt>
      <trkpt lat="60.816628988832235" lon="6.300764959305525">
        <ele>749</ele>
        <time>2018-10-19T08:17:06Z</time>
      </trkpt>
      <trkpt lat="60.816572997719049" lon="6.300604026764631">
        <ele>749.49000000000001</ele>
        <time>2018-10-19T08:17:12Z</time>
      </trkpt>
      <trkpt lat="60.816494962200522" lon="6.300436975434423">
        <ele>750.45000000000005</ele>
        <time>2018-10-19T08:17:19Z</time>
      </trkpt>
      <trkpt lat="60.816444000229239" lon="6.300418032333255">
        <ele>750.45000000000005</ele>
        <time>2018-10-19T08:17:23Z</time>
      </trkpt>
      <trkpt lat="60.816353978589177" lon="6.300159031525254">
        <ele>750.45000000000005</ele>
        <time>2018-10-19T08:17:34Z</time>
      </trkpt>
      <trkpt lat="60.816327994689345" lon="6.300119971856475">
        <ele>751.40999999999997</ele>
        <time>2018-10-19T08:17:38Z</time>
      </trkpt>
      <trkpt lat="60.816216012462974" lon="6.30002299323678">
        <ele>752.85000000000002</ele>
        <time>2018-10-19T08:17:45Z</time>
      </trkpt>
      <trkpt lat="60.816129008308053" lon="6.299910005182028">
        <ele>753.80999999999995</ele>
        <time>2018-10-19T08:17:51Z</time>
      </trkpt>
      <trkpt lat="60.816121967509389" lon="6.299868011847138">
        <ele>754.28999999999996</ele>
        <time>2018-10-19T08:17:54Z</time>
      </trkpt>
      <trkpt lat="60.816040998324752" lon="6.299717975780368">
        <ele>755.25</ele>
        <time>2018-10-19T08:18:02Z</time>
      </trkpt>
      <trkpt lat="60.816022977232933" lon="6.299673970788717">
        <ele>755.73000000000002</ele>
        <time>2018-10-19T08:18:07Z</time>
      </trkpt>
      <trkpt lat="60.816056001931429" lon="6.299581015482545">
        <ele>755.73000000000002</ele>
        <time>2018-10-19T08:18:12Z</time>
      </trkpt>
      <trkpt lat="60.81595097668469" lon="6.299438020214438">
        <ele>757.65999999999997</ele>
        <time>2018-10-19T08:18:22Z</time>
      </trkpt>
      <trkpt lat="60.815943013876677" lon="6.299427961930633">
        <ele>757.17999999999995</ele>
        <time>2018-10-19T08:18:23Z</time>
      </trkpt>
      <trkpt lat="60.815873024985194" lon="6.299288989976049">
        <ele>757.65999999999997</ele>
        <time>2018-10-19T08:18:30Z</time>
      </trkpt>
      <trkpt lat="60.815823990851641" lon="6.299158986657858">
        <ele>758.13999999999999</ele>
        <time>2018-10-19T08:18:36Z</time>
      </trkpt>
      <trkpt lat="60.815801024436951" lon="6.299088997766376">
        <ele>758.62</ele>
        <time>2018-10-19T08:19:31Z</time>
      </trkpt>
      <trkpt lat="60.81579901278019" lon="6.299096960574389">
        <ele>758.62</ele>
        <time>2018-10-19T08:19:32Z</time>
      </trkpt>
      <trkpt lat="60.815763976424932" lon="6.299210032448173">
        <ele>758.62</ele>
        <time>2018-10-19T08:19:39Z</time>
      </trkpt>
      <trkpt lat="60.815653000026941" lon="6.299372976645827">
        <ele>758.13999999999999</ele>
        <time>2018-10-19T08:19:50Z</time>
      </trkpt>
      <trkpt lat="60.815639002248645" lon="6.299360990524292">
        <ele>757.65999999999997</ele>
        <time>2018-10-19T08:19:53Z</time>
      </trkpt>
      <trkpt lat="60.815579993650317" lon="6.299258982762694">
        <ele>757.65999999999997</ele>
        <time>2018-10-19T08:20:03Z</time>
      </trkpt>
      <trkpt lat="60.815419983118773" lon="6.299240039661527">
        <ele>758.13999999999999</ele>
        <time>2018-10-19T08:20:13Z</time>
      </trkpt>
      <trkpt lat="60.815308000892401" lon="6.29926803521812">
        <ele>758.62</ele>
        <time>2018-10-19T08:20:20Z</time>
      </trkpt>
      <trkpt lat="60.815258966758847" lon="6.299302987754345">
        <ele>760.05999999999995</ele>
        <time>2018-10-19T08:20:28Z</time>
      </trkpt>
      <trkpt lat="60.815229965373874" lon="6.299511026591063">
        <ele>760.05999999999995</ele>
        <time>2018-10-19T08:20:36Z</time>
      </trkpt>
      <trkpt lat="60.81515402533114" lon="6.299662990495563">
        <ele>761.01999999999998</ele>
        <time>2018-10-19T08:20:43Z</time>
      </trkpt>
      <trkpt lat="60.815131980925798" lon="6.29967899993062">
        <ele>761.5</ele>
        <time>2018-10-19T08:20:45Z</time>
      </trkpt>
      <trkpt lat="60.815027039498091" lon="6.299756029620767">
        <ele>762.46000000000004</ele>
        <time>2018-10-19T08:20:54Z</time>
      </trkpt>
      <trkpt lat="60.814957972615957" lon="6.299732979387045">
        <ele>763.89999999999998</ele>
        <time>2018-10-19T08:21:04Z</time>
      </trkpt>
      <trkpt lat="60.814955960959196" lon="6.299733985215426">
        <ele>763.89999999999998</ele>
        <time>2018-10-19T08:21:26Z</time>
      </trkpt>
      <trkpt lat="60.815002983435988" lon="6.299471966922283">
        <ele>762.46000000000004</ele>
        <time>2018-10-19T08:21:34Z</time>
      </trkpt>
      <trkpt lat="60.814989991486073" lon="6.29935503937304">
        <ele>760.53999999999996</ele>
        <time>2018-10-19T08:21:40Z</time>
      </trkpt>
      <trkpt lat="60.814988985657692" lon="6.299372976645827">
        <ele>760.05999999999995</ele>
        <time>2018-10-19T08:21:50Z</time>
      </trkpt>
      <trkpt lat="60.814964007586241" lon="6.299426034092903">
        <ele>760.53999999999996</ele>
        <time>2018-10-19T08:21:54Z</time>
      </trkpt>
      <trkpt lat="60.814925031736493" lon="6.299455035477877">
        <ele>761.01999999999998</ele>
        <time>2018-10-19T08:22:05Z</time>
      </trkpt>
      <trkpt lat="60.814869040623307" lon="6.299542039632797">
        <ele>762.46000000000004</ele>
        <time>2018-10-19T08:22:16Z</time>
      </trkpt>
      <trkpt lat="60.814863005653024" lon="6.299624014645815">
        <ele>763.41999999999996</ele>
        <time>2018-10-19T08:22:23Z</time>
      </trkpt>
      <trkpt lat="60.814783964306116" lon="6.29965603351593">
        <ele>764.38999999999999</ele>
        <time>2018-10-19T08:22:28Z</time>
      </trkpt>
      <trkpt lat="60.814716992899776" lon="6.299610016867518">
        <ele>763.41999999999996</ele>
        <time>2018-10-19T08:22:35Z</time>
      </trkpt>
      <trkpt lat="60.814682962372899" lon="6.299555031582713">
        <ele>761.5</ele>
        <time>2018-10-19T08:22:45Z</time>
      </trkpt>
      <trkpt lat="60.814614985138178" lon="6.299416981637478">
        <ele>761.5</ele>
        <time>2018-10-19T08:22:50Z</time>
      </trkpt>
      <trkpt lat="60.814591012895107" lon="6.29940097220242">
        <ele>760.05999999999995</ele>
        <time>2018-10-19T08:22:59Z</time>
      </trkpt>
      <trkpt lat="60.814636023715138" lon="6.299428967759013">
        <ele>760.05999999999995</ele>
        <time>2018-10-19T08:23:03Z</time>
      </trkpt>
      <trkpt lat="60.814768960699439" lon="6.299302987754345">
        <ele>760.53999999999996</ele>
        <time>2018-10-19T08:23:13Z</time>
      </trkpt>
      <trkpt lat="60.814768960699439" lon="6.299282032996416">
        <ele>760.53999999999996</ele>
        <time>2018-10-19T08:23:14Z</time>
      </trkpt>
      <trkpt lat="60.814741970971227" lon="6.299135014414787">
        <ele>758.62</ele>
        <time>2018-10-19T08:23:23Z</time>
      </trkpt>
      <trkpt lat="60.814741970971227" lon="6.299050021916628">
        <ele>758.13999999999999</ele>
        <time>2018-10-19T08:23:28Z</time>
      </trkpt>
      <trkpt lat="60.814733002334833" lon="6.298951031640172">
        <ele>757.17999999999995</ele>
        <time>2018-10-19T08:23:40Z</time>
      </trkpt>
      <trkpt lat="60.814728979021311" lon="6.298936028033495">
        <ele>756.69000000000005</ele>
        <time>2018-10-19T08:23:41Z</time>
      </trkpt>
      <trkpt lat="60.814711041748524" lon="6.29875497892499">
        <ele>754.28999999999996</ele>
        <time>2018-10-19T08:23:52Z</time>
      </trkpt>
      <trkpt lat="60.814700983464718" lon="6.298749027773738">
        <ele>754.28999999999996</ele>
        <time>2018-10-19T08:23:55Z</time>
      </trkpt>
      <trkpt lat="60.814624037593603" lon="6.298795966431499">
        <ele>753.33000000000004</ele>
        <time>2018-10-19T08:24:08Z</time>
      </trkpt>
      <trkpt lat="60.814580032601953" lon="6.298815999180079">
        <ele>752.37</ele>
        <time>2018-10-19T08:24:15Z</time>
      </trkpt>
      <trkpt lat="60.814556982368231" lon="6.298831002786756">
        <ele>751.40999999999997</ele>
        <time>2018-10-19T08:24:27Z</time>
      </trkpt>
      <trkpt lat="60.814494034275413" lon="6.298885988071561">
        <ele>751.40999999999997</ele>
        <time>2018-10-19T08:24:36Z</time>
      </trkpt>
      <trkpt lat="60.814472995698452" lon="6.298878025263548">
        <ele>751.88999999999999</ele>
        <time>2018-10-19T08:24:47Z</time>
      </trkpt>
      <trkpt lat="60.814466960728168" lon="6.298892023041844">
        <ele>752.37</ele>
        <time>2018-10-19T08:25:09Z</time>
      </trkpt>
      <trkpt lat="60.814451035112143" lon="6.298866039142013">
        <ele>752.37</ele>
        <time>2018-10-19T08:25:24Z</time>
      </trkpt>
      <trkpt lat="60.814398983493447" lon="6.298802001401782">
        <ele>751.88999999999999</ele>
        <time>2018-10-19T08:25:34Z</time>
      </trkpt>
      <trkpt lat="60.814384985715151" lon="6.298782974481583">
        <ele>751.88999999999999</ele>
        <time>2018-10-19T08:25:38Z</time>
      </trkpt>
      <trkpt lat="60.814343998208642" lon="6.298705022782087">
        <ele>752.85000000000002</ele>
        <time>2018-10-19T08:25:49Z</time>
      </trkpt>
      <trkpt lat="60.814333017915487" lon="6.298589017242193">
        <ele>754.76999999999998</ele>
        <time>2018-10-19T08:25:59Z</time>
      </trkpt>
      <trkpt lat="60.814279038459063" lon="6.298532020300627">
        <ele>756.21000000000004</ele>
        <time>2018-10-19T08:26:07Z</time>
      </trkpt>
      <trkpt lat="60.814279038459063" lon="6.29845499061048">
        <ele>756.21000000000004</ele>
        <time>2018-10-19T08:26:11Z</time>
      </trkpt>
      <trkpt lat="60.814365036785603" lon="6.29813002422452">
        <ele>756.21000000000004</ele>
        <time>2018-10-19T08:26:27Z</time>
      </trkpt>
      <trkpt lat="60.814372999593616" lon="6.29800102673471">
        <ele>756.69000000000005</ele>
        <time>2018-10-19T08:26:36Z</time>
      </trkpt>
      <trkpt lat="60.814342992380261" lon="6.297942018136382">
        <ele>757.17999999999995</ele>
        <time>2018-10-19T08:26:39Z</time>
      </trkpt>
      <trkpt lat="60.814351961016655" lon="6.297858031466603">
        <ele>760.05999999999995</ele>
        <time>2018-10-19T08:26:45Z</time>
      </trkpt>
      <trkpt lat="60.814308961853385" lon="6.297713024541736">
        <ele>761.5</ele>
        <time>2018-10-19T08:26:57Z</time>
      </trkpt>
      <trkpt lat="60.814264034852386" lon="6.297510014846921">
        <ele>763.89999999999998</ele>
        <time>2018-10-19T08:27:06Z</time>
      </trkpt>
      <trkpt lat="60.814250959083438" lon="6.2974420376122">
        <ele>765.35000000000002</ele>
        <time>2018-10-19T08:27:10Z</time>
      </trkpt>
      <trkpt lat="60.814257999882102" lon="6.297303987666965">
        <ele>768.71000000000004</ele>
        <time>2018-10-19T08:27:18Z</time>
      </trkpt>
      <trkpt lat="60.814266968518496" lon="6.297151017934084">
        <ele>771.60000000000002</ele>
        <time>2018-10-19T08:27:29Z</time>
      </trkpt>
      <trkpt lat="60.814262023195624" lon="6.297138025984168">
        <ele>772.55999999999995</ele>
        <time>2018-10-19T08:27:32Z</time>
      </trkpt>
      <trkpt lat="60.814263029024005" lon="6.297097960487008">
        <ele>773.03999999999996</ele>
        <time>2018-10-19T08:27:34Z</time>
      </trkpt>
      <trkpt lat="60.814251964911819" lon="6.296956976875663">
        <ele>776.39999999999998</ele>
        <time>2018-10-19T08:27:44Z</time>
      </trkpt>
      <trkpt lat="60.814239978790283" lon="6.296914983540773">
        <ele>776.88</ele>
        <time>2018-10-19T08:27:48Z</time>
      </trkpt>
      <trkpt lat="60.814249031245708" lon="6.296806018799543">
        <ele>779.28999999999996</ele>
        <time>2018-10-19T08:27:54Z</time>
      </trkpt>
      <trkpt lat="60.814248025417328" lon="6.296741981059313">
        <ele>780.25</ele>
        <time>2018-10-19T08:27:57Z</time>
      </trkpt>
      <trkpt lat="60.814248025417328" lon="6.296666041016579">
        <ele>782.16999999999996</ele>
        <time>2018-10-19T08:28:03Z</time>
      </trkpt>
      <trkpt lat="60.814236039295793" lon="6.296635027974844">
        <ele>783.13</ele>
        <time>2018-10-19T08:28:06Z</time>
      </trkpt>
      <trkpt lat="60.814245007932186" lon="6.296579958871007">
        <ele>784.57000000000005</ele>
        <time>2018-10-19T08:28:10Z</time>
      </trkpt>
      <trkpt lat="60.814300999045372" lon="6.296435035765171">
        <ele>787.46000000000004</ele>
        <time>2018-10-19T08:28:21Z</time>
      </trkpt>
      <trkpt lat="60.814304016530514" lon="6.296407040208578">
        <ele>787.94000000000005</ele>
        <time>2018-10-19T08:28:23Z</time>
      </trkpt>
      <trkpt lat="60.814334023743868" lon="6.296222973614931">
        <ele>790.82000000000005</ele>
        <time>2018-10-19T08:28:36Z</time>
      </trkpt>
      <trkpt lat="60.814375011250377" lon="6.296135969460011">
        <ele>792.25999999999999</ele>
        <time>2018-10-19T08:28:58Z</time>
      </trkpt>
      <trkpt lat="60.814372999593616" lon="6.296123983338475">
        <ele>793.22000000000003</ele>
        <time>2018-10-19T08:29:00Z</time>
      </trkpt>
      <trkpt lat="60.814332012087107" lon="6.296056006103754">
        <ele>795.63</ele>
        <time>2018-10-19T08:29:09Z</time>
      </trkpt>
      <trkpt lat="60.814328994601965" lon="6.296052988618612">
        <ele>796.11000000000001</ele>
        <time>2018-10-19T08:29:10Z</time>
      </trkpt>
      <trkpt lat="60.814219024032354" lon="6.295972019433975">
        <ele>798.02999999999997</ele>
        <time>2018-10-19T08:29:22Z</time>
      </trkpt>
      <trkpt lat="60.814165966585279" lon="6.295859031379223">
        <ele>799.47000000000003</ele>
        <time>2018-10-19T08:29:29Z</time>
      </trkpt>
      <trkpt lat="60.814121961593628" lon="6.295730033889413">
        <ele>802.36000000000001</ele>
        <time>2018-10-19T08:29:41Z</time>
      </trkpt>
      <trkpt lat="60.814121961593628" lon="6.295665996149182">
        <ele>803.79999999999995</ele>
        <time>2018-10-19T08:29:52Z</time>
      </trkpt>
      <trkpt lat="60.814121961593628" lon="6.295667001977563">
        <ele>803.79999999999995</ele>
        <time>2018-10-19T08:30:11Z</time>
      </trkpt>
      <trkpt lat="60.814190022647381" lon="6.295601036399603">
        <ele>805.72000000000003</ele>
        <time>2018-10-19T08:30:18Z</time>
      </trkpt>
      <trkpt lat="60.814216006547213" lon="6.295572035014629">
        <ele>805.72000000000003</ele>
        <time>2018-10-19T08:30:21Z</time>
      </trkpt>
      <trkpt lat="60.814208965748549" lon="6.295518977567554">
        <ele>806.67999999999995</ele>
        <time>2018-10-19T08:30:25Z</time>
      </trkpt>
      <trkpt lat="60.814224975183606" lon="6.295501962304115">
        <ele>807.63999999999999</ele>
        <time>2018-10-19T08:30:27Z</time>
      </trkpt>
      <trkpt lat="60.814204020425677" lon="6.295401966199279">
        <ele>809.09000000000003</ele>
        <time>2018-10-19T08:30:34Z</time>
      </trkpt>
      <trkpt lat="60.814181976020336" lon="6.29523198120296">
        <ele>811.00999999999999</ele>
        <time>2018-10-19T08:30:41Z</time>
      </trkpt>
      <trkpt lat="60.814242996275425" lon="6.295182025060058">
        <ele>813.40999999999997</ele>
        <time>2018-10-19T08:30:48Z</time>
      </trkpt>
      <trkpt lat="60.814304016530514" lon="6.295126033946872">
        <ele>816.77999999999997</ele>
        <time>2018-10-19T08:30:56Z</time>
      </trkpt>
      <trkpt lat="60.814347015693784" lon="6.295036012306809">
        <ele>818.70000000000005</ele>
        <time>2018-10-19T08:31:05Z</time>
      </trkpt>
      <trkpt lat="60.8143600076437" lon="6.295029977336526">
        <ele>819.17999999999995</ele>
        <time>2018-10-19T08:31:07Z</time>
      </trkpt>
      <trkpt lat="60.814391020685434" lon="6.294913971796632">
        <ele>821.58000000000004</ele>
        <time>2018-10-19T08:31:17Z</time>
      </trkpt>
      <trkpt lat="60.814411975443363" lon="6.294866027310491">
        <ele>823.99000000000001</ele>
        <time>2018-10-19T08:31:23Z</time>
      </trkpt>
      <trkpt lat="60.814452962949872" lon="6.294713979586959">
        <ele>827.35000000000002</ele>
        <time>2018-10-19T08:31:35Z</time>
      </trkpt>
      <trkpt lat="60.814492022618651" lon="6.294669974595308">
        <ele>829.75999999999999</ele>
        <time>2018-10-19T08:31:46Z</time>
      </trkpt>
      <trkpt lat="60.814525969326496" lon="6.294664023444057">
        <ele>830.24000000000001</ele>
        <time>2018-10-19T08:31:50Z</time>
      </trkpt>
      <trkpt lat="60.814567962661386" lon="6.294554974883795">
        <ele>832.15999999999997</ele>
        <time>2018-10-19T08:31:59Z</time>
      </trkpt>
      <trkpt lat="60.81457600928843" lon="6.294469982385635">
        <ele>834.55999999999995</ele>
        <time>2018-10-19T08:32:06Z</time>
      </trkpt>
      <trkpt lat="60.814567962661386" lon="6.294422037899494">
        <ele>835.51999999999998</ele>
        <time>2018-10-19T08:32:10Z</time>
      </trkpt>
      <trkpt lat="60.81459796987474" lon="6.294333022087812">
        <ele>837.92999999999995</ele>
        <time>2018-10-19T08:32:18Z</time>
      </trkpt>
      <trkpt lat="60.814622025936842" lon="6.294282982125878">
        <ele>840.33000000000004</ele>
        <time>2018-10-19T08:32:26Z</time>
      </trkpt>
      <trkpt lat="60.81459503620863" lon="6.294075027108192">
        <ele>843.21000000000004</ele>
        <time>2018-10-19T08:32:41Z</time>
      </trkpt>
      <trkpt lat="60.814581960439682" lon="6.294029010459781">
        <ele>844.17999999999995</ele>
        <time>2018-10-19T08:32:45Z</time>
      </trkpt>
      <trkpt lat="60.814514989033341" lon="6.293874029070139">
        <ele>845.13999999999999</ele>
        <time>2018-10-19T08:32:56Z</time>
      </trkpt>
      <trkpt lat="60.814508032053709" lon="6.293870005756617">
        <ele>845.13999999999999</ele>
        <time>2018-10-19T08:32:57Z</time>
      </trkpt>
      <trkpt lat="60.814443994313478" lon="6.293715024366975">
        <ele>847.53999999999996</ele>
        <time>2018-10-19T08:33:07Z</time>
      </trkpt>
      <trkpt lat="60.814419016242027" lon="6.293634977191687">
        <ele>849.46000000000004</ele>
        <time>2018-10-19T08:33:15Z</time>
      </trkpt>
      <trkpt lat="60.814464027062058" lon="6.293560964986682">
        <ele>850.89999999999998</ele>
        <time>2018-10-19T08:33:21Z</time>
      </trkpt>
      <trkpt lat="60.814478024840355" lon="6.293459963053465">
        <ele>852.35000000000002</ele>
        <time>2018-10-19T08:33:28Z</time>
      </trkpt>
      <trkpt lat="60.81442697905004" lon="6.293375976383686">
        <ele>855.23000000000002</ele>
        <time>2018-10-19T08:33:39Z</time>
      </trkpt>
      <trkpt lat="60.81438397988677" lon="6.293214960023761">
        <ele>857.14999999999998</ele>
        <time>2018-10-19T08:33:47Z</time>
      </trkpt>
      <trkpt lat="60.814352966845036" lon="6.293032988905907">
        <ele>860.03999999999996</ele>
        <time>2018-10-19T08:33:58Z</time>
      </trkpt>
      <trkpt lat="60.814338969066739" lon="6.29299501888454">
        <ele>861</ele>
        <time>2018-10-19T08:34:01Z</time>
      </trkpt>
      <trkpt lat="60.814314996823668" lon="6.29288898780942">
        <ele>861.96000000000004</ele>
        <time>2018-10-19T08:34:11Z</time>
      </trkpt>
      <trkpt lat="60.814311979338527" lon="6.292875995859504">
        <ele>862.44000000000005</ele>
        <time>2018-10-19T08:34:12Z</time>
      </trkpt>
      <trkpt lat="60.814305022358894" lon="6.292754039168358">
        <ele>865.79999999999995</ele>
        <time>2018-10-19T08:34:23Z</time>
      </trkpt>
      <trkpt lat="60.814270991832018" lon="6.292577013373375">
        <ele>868.21000000000004</ele>
        <time>2018-10-19T08:34:33Z</time>
      </trkpt>
      <trkpt lat="60.81427501514554" lon="6.292456984519959">
        <ele>871.09000000000003</ele>
        <time>2018-10-19T08:34:47Z</time>
      </trkpt>
      <trkpt lat="60.814273003488779" lon="6.292470982298255">
        <ele>871.09000000000003</ele>
        <time>2018-10-19T08:34:48Z</time>
      </trkpt>
      <trkpt lat="60.814213994890451" lon="6.292481040582061">
        <ele>870.13</ele>
        <time>2018-10-19T08:34:55Z</time>
      </trkpt>
      <trkpt lat="60.814193962141871" lon="6.292389007285237">
        <ele>868.69000000000005</ele>
        <time>2018-10-19T08:35:00Z</time>
      </trkpt>
      <trkpt lat="60.814190022647381" lon="6.292279036715627">
        <ele>868.69000000000005</ele>
        <time>2018-10-19T08:35:03Z</time>
      </trkpt>
      <trkpt lat="60.814132019877434" lon="6.292106034234166">
        <ele>869.16999999999996</ele>
        <time>2018-10-19T08:35:12Z</time>
      </trkpt>
      <trkpt lat="60.814091032370925" lon="6.292045013979077">
        <ele>869.64999999999998</ele>
        <time>2018-10-19T08:35:21Z</time>
      </trkpt>
      <trkpt lat="60.813998999074101" lon="6.291938982903957">
        <ele>872.04999999999995</ele>
        <time>2018-10-19T08:35:34Z</time>
      </trkpt>
      <trkpt lat="60.813982989639044" lon="6.291904030367732">
        <ele>872.52999999999997</ele>
        <time>2018-10-19T08:35:37Z</time>
      </trkpt>
      <trkpt lat="60.813971003517509" lon="6.291885003447533">
        <ele>872.52999999999997</ele>
        <time>2018-10-19T08:35:39Z</time>
      </trkpt>
      <trkpt lat="60.813862960785627" lon="6.291784001514316">
        <ele>873.5</ele>
        <time>2018-10-19T08:35:51Z</time>
      </trkpt>
      <trkpt lat="60.813830019906163" lon="6.291735973209143">
        <ele>874.46000000000004</ele>
        <time>2018-10-19T08:35:55Z</time>
      </trkpt>
      <trkpt lat="60.813864972442389" lon="6.291603958234191">
        <ele>873.98000000000002</ele>
        <time>2018-10-19T08:36:02Z</time>
      </trkpt>
      <trkpt lat="60.813863966614008" lon="6.29155701957643">
        <ele>874.46000000000004</ele>
        <time>2018-10-19T08:36:05Z</time>
      </trkpt>
      <trkpt lat="60.813857009634376" lon="6.291415030136704">
        <ele>878.29999999999995</ele>
        <time>2018-10-19T08:36:16Z</time>
      </trkpt>
      <trkpt lat="60.813850974664092" lon="6.291388962417841">
        <ele>879.25999999999999</ele>
        <time>2018-10-19T08:36:24Z</time>
      </trkpt>
      <trkpt lat="60.813908977434039" lon="6.291180001571775">
        <ele>878.29999999999995</ele>
        <time>2018-10-19T08:36:31Z</time>
      </trkpt>
      <trkpt lat="60.813948037102818" lon="6.291092997416854">
        <ele>877.82000000000005</ele>
        <time>2018-10-19T08:36:38Z</time>
      </trkpt>
      <trkpt lat="60.813936972990632" lon="6.290994007140398">
        <ele>879.74000000000001</ele>
        <time>2018-10-19T08:36:48Z</time>
      </trkpt>
      <trkpt lat="60.813924986869097" lon="6.290979003533721">
        <ele>880.22000000000003</ele>
        <time>2018-10-19T08:36:50Z</time>
      </trkpt>
      <trkpt lat="60.813815016299486" lon="6.29084900021553">
        <ele>881.66999999999996</ele>
        <time>2018-10-19T08:37:02Z</time>
      </trkpt>
      <trkpt lat="60.813793977722526" lon="6.290772976353765">
        <ele>882.14999999999998</ele>
        <time>2018-10-19T08:37:07Z</time>
      </trkpt>
      <trkpt lat="60.813799006864429" lon="6.290711034089327">
        <ele>882.14999999999998</ele>
        <time>2018-10-19T08:37:12Z</time>
      </trkpt>
      <trkpt lat="60.813822979107499" lon="6.290617994964123">
        <ele>883.11000000000001</ele>
        <time>2018-10-19T08:37:21Z</time>
      </trkpt>
      <trkpt lat="60.81380101852119" lon="6.290571978315711">
        <ele>884.07000000000005</ele>
        <time>2018-10-19T08:37:24Z</time>
      </trkpt>
      <trkpt lat="60.813805963844061" lon="6.290453039109707">
        <ele>886.95000000000005</ele>
        <time>2018-10-19T08:37:33Z</time>
      </trkpt>
      <trkpt lat="60.813856003805995" lon="6.290234019979835">
        <ele>889.84000000000003</ele>
        <time>2018-10-19T08:37:48Z</time>
      </trkpt>
      <trkpt lat="60.81380101852119" lon="6.290091024711728">
        <ele>892.72000000000003</ele>
        <time>2018-10-19T08:38:00Z</time>
      </trkpt>
      <trkpt lat="60.813811998814344" lon="6.290025981143117">
        <ele>893.20000000000005</ele>
        <time>2018-10-19T08:38:15Z</time>
      </trkpt>
      <trkpt lat="60.813848040997982" lon="6.289917016401887">
        <ele>894.15999999999997</ele>
        <time>2018-10-19T08:38:26Z</time>
      </trkpt>
      <trkpt lat="60.813852986320853" lon="6.289909975603223">
        <ele>895.12</ele>
        <time>2018-10-19T08:38:53Z</time>
      </trkpt>
      <trkpt lat="60.813871007412672" lon="6.289868988096714">
        <ele>892.72000000000003</ele>
        <time>2018-10-19T08:47:07Z</time>
      </trkpt>
      <trkpt lat="60.813864972442389" lon="6.289821965619922">
        <ele>893.20000000000005</ele>
        <time>2018-10-19T08:47:11Z</time>
      </trkpt>
      <trkpt lat="60.813857009634376" lon="6.289735967293382">
        <ele>894.63999999999999</ele>
        <time>2018-10-19T08:47:19Z</time>
      </trkpt>
      <trkpt lat="60.813859021291137" lon="6.289726998656988">
        <ele>895.12</ele>
        <time>2018-10-19T08:47:20Z</time>
      </trkpt>
      <trkpt lat="60.813886011019349" lon="6.28962398506701">
        <ele>897.52999999999997</ele>
        <time>2018-10-19T08:47:30Z</time>
      </trkpt>
      <trkpt lat="60.813889028504491" lon="6.289490964263678">
        <ele>899.45000000000005</ele>
        <time>2018-10-19T08:47:38Z</time>
      </trkpt>
      <trkpt lat="60.81382398493588" lon="6.289358027279377">
        <ele>900.88999999999999</ele>
        <time>2018-10-19T08:47:47Z</time>
      </trkpt>
      <trkpt lat="60.813832031562924" lon="6.289204973727465">
        <ele>903.29999999999995</ele>
        <time>2018-10-19T08:48:00Z</time>
      </trkpt>
      <trkpt lat="60.813837982714176" lon="6.289197010919452">
        <ele>903.29999999999995</ele>
        <time>2018-10-19T08:48:06Z</time>
      </trkpt>
      <trkpt lat="60.813916018232703" lon="6.289164992049336">
        <ele>905.22000000000003</ele>
        <time>2018-10-19T08:48:19Z</time>
      </trkpt>
      <trkpt lat="60.813928004354239" lon="6.289170021191239">
        <ele>905.22000000000003</ele>
        <time>2018-10-19T08:48:35Z</time>
      </trkpt>
      <trkpt lat="60.813920963555574" lon="6.289172032848001">
        <ele>905.70000000000005</ele>
        <time>2018-10-19T08:48:51Z</time>
      </trkpt>
      <trkpt lat="60.813913000747561" lon="6.289179995656014">
        <ele>905.22000000000003</ele>
        <time>2018-10-19T08:49:22Z</time>
      </trkpt>
      <trkpt lat="60.813847035169601" lon="6.289069019258022">
        <ele>903.77999999999997</ele>
        <time>2018-10-19T08:49:32Z</time>
      </trkpt>
      <trkpt lat="60.813793977722526" lon="6.289026020094752">
        <ele>902.82000000000005</ele>
        <time>2018-10-19T08:49:37Z</time>
      </trkpt>
      <trkpt lat="60.813760031014681" lon="6.288927029818296">
        <ele>901.85000000000002</ele>
        <time>2018-10-19T08:49:43Z</time>
      </trkpt>
      <trkpt lat="60.813730023801327" lon="6.288840025663376">
        <ele>900.40999999999997</ele>
        <time>2018-10-19T08:49:50Z</time>
      </trkpt>
      <trkpt lat="60.813581999391317" lon="6.288656964898109">
        <ele>897.52999999999997</ele>
        <time>2018-10-19T08:50:06Z</time>
      </trkpt>
      <trkpt lat="60.813487032428384" lon="6.288502989336848">
        <ele>896.57000000000005</ele>
        <time>2018-10-19T08:50:16Z</time>
      </trkpt>
      <trkpt lat="60.813412014394999" lon="6.288423025980592">
        <ele>896.09000000000003</ele>
        <time>2018-10-19T08:50:23Z</time>
      </trkpt>
      <trkpt lat="60.813363986089826" lon="6.288400981575251">
        <ele>895.12</ele>
        <time>2018-10-19T08:50:28Z</time>
      </trkpt>
      <trkpt lat="60.813214033842087" lon="6.288454961031675">
        <ele>894.63999999999999</ele>
        <time>2018-10-19T08:50:41Z</time>
      </trkpt>
      <trkpt lat="60.813053017482162" lon="6.288486979901791">
        <ele>894.15999999999997</ele>
        <time>2018-10-19T08:50:48Z</time>
      </trkpt>
      <trkpt lat="60.812909016385674" lon="6.288598040118814">
        <ele>893.67999999999995</ele>
        <time>2018-10-19T08:50:58Z</time>
      </trkpt>
      <trkpt lat="60.812852019444108" lon="6.288590999320149">
        <ele>893.67999999999995</ele>
        <time>2018-10-19T08:51:05Z</time>
      </trkpt>
      <trkpt lat="60.812779013067484" lon="6.288228984922171">
        <ele>892.72000000000003</ele>
        <time>2018-10-19T08:51:14Z</time>
      </trkpt>
      <trkpt lat="60.812717992812395" lon="6.288072997704148">
        <ele>892.72000000000003</ele>
        <time>2018-10-19T08:51:20Z</time>
      </trkpt>
      <trkpt lat="60.812611961737275" lon="6.288004014641047">
        <ele>893.20000000000005</ele>
        <time>2018-10-19T08:51:27Z</time>
      </trkpt>
      <trkpt lat="60.812493022531271" lon="6.287999991327524">
        <ele>895.12</ele>
        <time>2018-10-19T08:51:34Z</time>
      </trkpt>
      <trkpt lat="60.812418004497886" lon="6.287917010486126">
        <ele>896.09000000000003</ele>
        <time>2018-10-19T08:51:40Z</time>
      </trkpt>
      <trkpt lat="60.812366036698222" lon="6.287746019661427">
        <ele>898.49000000000001</ele>
        <time>2018-10-19T08:51:49Z</time>
      </trkpt>
      <trkpt lat="60.812300993129611" lon="6.287606041878462">
        <ele>899.92999999999995</ele>
        <time>2018-10-19T08:51:55Z</time>
      </trkpt>
      <trkpt lat="60.81223301589489" lon="6.287471009418368">
        <ele>901.85000000000002</ele>
        <time>2018-10-19T08:52:01Z</time>
      </trkpt>
      <trkpt lat="60.812181970104575" lon="6.287364978343248">
        <ele>903.29999999999995</ele>
        <time>2018-10-19T08:52:09Z</time>
      </trkpt>
      <trkpt lat="60.812071999534965" lon="6.287148976698518">
        <ele>905.22000000000003</ele>
        <time>2018-10-19T08:52:22Z</time>
      </trkpt>
      <trkpt lat="60.812058001756668" lon="6.287102038040757">
        <ele>905.70000000000005</ele>
        <time>2018-10-19T08:52:25Z</time>
      </trkpt>
      <trkpt lat="60.811988012865186" lon="6.286967005580664">
        <ele>908.10000000000002</ele>
        <time>2018-10-19T08:52:34Z</time>
      </trkpt>
      <trkpt lat="60.811929004266858" lon="6.286912020295858">
        <ele>909.53999999999996</ele>
        <time>2018-10-19T08:52:40Z</time>
      </trkpt>
      <trkpt lat="60.811785003170371" lon="6.286718985065818">
        <ele>912.90999999999997</ele>
        <time>2018-10-19T08:52:55Z</time>
      </trkpt>
      <trkpt lat="60.811659023165703" lon="6.286483034491539">
        <ele>915.78999999999996</ele>
        <time>2018-10-19T08:53:11Z</time>
      </trkpt>
      <trkpt lat="60.811571013182402" lon="6.286312965676189">
        <ele>918.67999999999995</ele>
        <time>2018-10-19T08:53:24Z</time>
      </trkpt>
      <trkpt lat="60.81154796294868" lon="6.286032004281879">
        <ele>920.12</ele>
        <time>2018-10-19T08:53:36Z</time>
      </trkpt>
      <trkpt lat="60.8115020301193" lon="6.285837041214109">
        <ele>922.03999999999996</ele>
        <time>2018-10-19T08:53:45Z</time>
      </trkpt>
      <trkpt lat="60.811354005709291" lon="6.285710977390409">
        <ele>923.96000000000004</ele>
        <time>2018-10-19T08:53:58Z</time>
      </trkpt>
      <trkpt lat="60.811275970190763" lon="6.28554199822247">
        <ele>924.45000000000005</ele>
        <time>2018-10-19T08:54:07Z</time>
      </trkpt>
      <trkpt lat="60.811187038198113" lon="6.285457005724311">
        <ele>925.88999999999999</ele>
        <time>2018-10-19T08:54:17Z</time>
      </trkpt>
      <trkpt lat="60.811064997687936" lon="6.285420041531324">
        <ele>925.88999999999999</ele>
        <time>2018-10-19T08:54:28Z</time>
      </trkpt>
      <trkpt lat="60.810545990243554" lon="6.285216026008129">
        <ele>923.48000000000002</ele>
        <time>2018-10-19T09:03:16Z</time>
      </trkpt>
      <trkpt lat="60.810481030493975" lon="6.284835990518332">
        <ele>921.08000000000004</ele>
        <time>2018-10-19T09:03:24Z</time>
      </trkpt>
      <trkpt lat="60.810393020510674" lon="6.284686038270593">
        <ele>919.63999999999999</ele>
        <time>2018-10-19T09:03:31Z</time>
      </trkpt>
      <trkpt lat="60.810255976393819" lon="6.284543965011835">
        <ele>918.20000000000005</ele>
        <time>2018-10-19T09:03:39Z</time>
      </trkpt>
      <trkpt lat="60.810090014711022" lon="6.284493003040552">
        <ele>915.78999999999996</ele>
        <time>2018-10-19T09:03:46Z</time>
      </trkpt>
      <trkpt lat="60.809988006949425" lon="6.284413961693645">
        <ele>913.38999999999999</ele>
        <time>2018-10-19T09:03:51Z</time>
      </trkpt>
      <trkpt lat="60.809845011681318" lon="6.284307008609176">
        <ele>910.99000000000001</ele>
        <time>2018-10-19T09:03:59Z</time>
      </trkpt>
      <trkpt lat="60.809765970334411" lon="6.284152027219534">
        <ele>908.10000000000002</ele>
        <time>2018-10-19T09:04:06Z</time>
      </trkpt>
      <trkpt lat="60.809731017798185" lon="6.283946000039578">
        <ele>905.22000000000003</ele>
        <time>2018-10-19T09:04:13Z</time>
      </trkpt>
      <trkpt lat="60.809726994484663" lon="6.283913981169462">
        <ele>905.22000000000003</ele>
        <time>2018-10-19T09:04:14Z</time>
      </trkpt>
      <trkpt lat="60.809687012806535" lon="6.283806022256613">
        <ele>902.82000000000005</ele>
        <time>2018-10-19T09:04:20Z</time>
      </trkpt>
      <trkpt lat="60.809662034735084" lon="6.283702002838254">
        <ele>900.88999999999999</ele>
        <time>2018-10-19T09:04:24Z</time>
      </trkpt>
      <trkpt lat="60.809640996158123" lon="6.283689010888338">
        <ele>899.45000000000005</ele>
        <time>2018-10-19T09:04:27Z</time>
      </trkpt>
      <trkpt lat="60.809617023915052" lon="6.283597983419895">
        <ele>897.52999999999997</ele>
        <time>2018-10-19T09:04:30Z</time>
      </trkpt>
      <trkpt lat="60.809589028358459" lon="6.283544003963471">
        <ele>895.61000000000001</ele>
        <time>2018-10-19T09:04:34Z</time>
      </trkpt>
      <trkpt lat="60.809542005881667" lon="6.283359015360475">
        <ele>892.24000000000001</ele>
        <time>2018-10-19T09:04:41Z</time>
      </trkpt>
      <trkpt lat="60.809507975354791" lon="6.283334959298372">
        <ele>890.79999999999995</ele>
        <time>2018-10-19T09:04:44Z</time>
      </trkpt>
      <trkpt lat="60.809468999505043" lon="6.283322973176837">
        <ele>889.36000000000001</ele>
        <time>2018-10-19T09:04:47Z</time>
      </trkpt>
      <trkpt lat="60.809453995898366" lon="6.283247033134103">
        <ele>887.42999999999995</ele>
        <time>2018-10-19T09:04:50Z</time>
      </trkpt>
      <trkpt lat="60.809456007555127" lon="6.283175032585859">
        <ele>885.99000000000001</ele>
        <time>2018-10-19T09:04:53Z</time>
      </trkpt>
      <trkpt lat="60.809427006170154" lon="6.283109989017248">
        <ele>882.63</ele>
        <time>2018-10-19T09:05:02Z</time>
      </trkpt>
      <trkpt lat="60.809386018663645" lon="6.283035976812244">
        <ele>880.22000000000003</ele>
        <time>2018-10-19T09:05:08Z</time>
      </trkpt>
      <trkpt lat="60.809351988136768" lon="6.282933969050646">
        <ele>878.29999999999995</ele>
        <time>2018-10-19T09:05:12Z</time>
      </trkpt>
      <trkpt lat="60.809327010065317" lon="6.282876972109079">
        <ele>877.34000000000003</ele>
        <time>2018-10-19T09:05:15Z</time>
      </trkpt>
      <trkpt lat="60.809302031993866" lon="6.282865991815925">
        <ele>875.41999999999996</ele>
        <time>2018-10-19T09:05:18Z</time>
      </trkpt>
      <trkpt lat="60.809272024780512" lon="6.282842019572854">
        <ele>873.98000000000002</ele>
        <time>2018-10-19T09:05:21Z</time>
      </trkpt>
      <trkpt lat="60.809263978153467" lon="6.282780999317765">
        <ele>871.57000000000005</ele>
        <time>2018-10-19T09:05:25Z</time>
      </trkpt>
      <trkpt lat="60.80926800146699" lon="6.282736994326115">
        <ele>870.13</ele>
        <time>2018-10-19T09:05:28Z</time>
      </trkpt>
      <trkpt lat="60.809271018952131" lon="6.282736994326115">
        <ele>868.69000000000005</ele>
        <time>2018-10-19T09:05:31Z</time>
      </trkpt>
      <trkpt lat="60.809261966496706" lon="6.282727019861341">
        <ele>865.79999999999995</ele>
        <time>2018-10-19T09:05:56Z</time>
      </trkpt>
      <trkpt lat="60.809259032830596" lon="6.282716961577535">
        <ele>865.32000000000005</ele>
        <time>2018-10-19T09:07:48Z</time>
      </trkpt>
      <trkpt lat="60.809264983981848" lon="6.282706987112761">
        <ele>865.79999999999995</ele>
        <time>2018-10-19T09:07:57Z</time>
      </trkpt>
      <trkpt lat="60.80933396704495" lon="6.282449997961521">
        <ele>864.36000000000001</ele>
        <time>2018-10-19T09:08:05Z</time>
      </trkpt>
      <trkpt lat="60.809338996186852" lon="6.282353019341826">
        <ele>862.91999999999996</ele>
        <time>2018-10-19T09:08:09Z</time>
      </trkpt>
      <trkpt lat="60.809318963438272" lon="6.282270038500428">
        <ele>861</ele>
        <time>2018-10-19T09:08:12Z</time>
      </trkpt>
      <trkpt lat="60.809316029772162" lon="6.282170964404941">
        <ele>858.11000000000001</ele>
        <time>2018-10-19T09:08:15Z</time>
      </trkpt>
      <trkpt lat="60.809318041428924" lon="6.282145986333489">
        <ele>858.11000000000001</ele>
        <time>2018-10-19T09:08:16Z</time>
      </trkpt>
      <trkpt lat="60.809306977316737" lon="6.282066022977233">
        <ele>855.71000000000004</ele>
        <time>2018-10-19T09:08:19Z</time>
      </trkpt>
      <trkpt lat="60.809287028387189" lon="6.281937025487423">
        <ele>853.78999999999996</ele>
        <time>2018-10-19T09:08:22Z</time>
      </trkpt>
      <trkpt lat="60.809223996475339" lon="6.281794030219317">
        <ele>850.41999999999996</ele>
        <time>2018-10-19T09:08:25Z</time>
      </trkpt>
      <trkpt lat="60.809203963726759" lon="6.281744996085763">
        <ele>850.41999999999996</ele>
        <time>2018-10-19T09:08:26Z</time>
      </trkpt>
      <trkpt lat="60.809130035340786" lon="6.281628990545869">
        <ele>847.05999999999995</ele>
        <time>2018-10-19T09:08:29Z</time>
      </trkpt>
      <trkpt lat="60.80899097956717" lon="6.281340988352895">
        <ele>843.69000000000005</ele>
        <time>2018-10-19T09:08:34Z</time>
      </trkpt>
      <trkpt lat="60.808309027925134" lon="6.280837990343571">
        <ele>839.85000000000002</ele>
        <time>2018-10-19T09:19:53Z</time>
      </trkpt>
      <trkpt lat="60.808212971314788" lon="6.28077101893723">
        <ele>841.76999999999998</ele>
        <time>2018-10-19T09:20:02Z</time>
      </trkpt>
      <trkpt lat="60.808126972988248" lon="6.280604973435402">
        <ele>842.25</ele>
        <time>2018-10-19T09:20:09Z</time>
      </trkpt>
      <trkpt lat="60.808070981875062" lon="6.280488967895508">
        <ele>842.25</ele>
        <time>2018-10-19T09:20:14Z</time>
      </trkpt>
      <trkpt lat="60.807951036840677" lon="6.280300039798021">
        <ele>842.25</ele>
        <time>2018-10-19T09:20:22Z</time>
      </trkpt>
      <trkpt lat="60.807878030464053" lon="6.280137011781335">
        <ele>841.76999999999998</ele>
        <time>2018-10-19T09:20:29Z</time>
      </trkpt>
      <trkpt lat="60.80785296857357" lon="6.279917992651463">
        <ele>840.80999999999995</ele>
        <time>2018-10-19T09:20:36Z</time>
      </trkpt>
      <trkpt lat="60.807778034359217" lon="6.279834005981684">
        <ele>840.33000000000004</ele>
        <time>2018-10-19T09:20:43Z</time>
      </trkpt>
      <trkpt lat="60.807740986347198" lon="6.279843980446458">
        <ele>840.33000000000004</ele>
        <time>2018-10-19T09:20:47Z</time>
      </trkpt>
      <trkpt lat="60.80763797275722" lon="6.279901983216405">
        <ele>839.37</ele>
        <time>2018-10-19T09:20:54Z</time>
      </trkpt>
      <trkpt lat="60.807520961388946" lon="6.2799989618361">
        <ele>837.92999999999995</ele>
        <time>2018-10-19T09:21:01Z</time>
      </trkpt>
      <trkpt lat="60.807440998032689" lon="6.279863007366657">
        <ele>837.92999999999995</ele>
        <time>2018-10-19T09:21:06Z</time>
      </trkpt>
      <trkpt lat="60.807384001091123" lon="6.279619010165334">
        <ele>838.40999999999997</ele>
        <time>2018-10-19T09:21:13Z</time>
      </trkpt>
      <trkpt lat="60.807327004149556" lon="6.279429998248816">
        <ele>837.92999999999995</ele>
        <time>2018-10-19T09:21:19Z</time>
      </trkpt>
      <trkpt lat="60.807301020249724" lon="6.279238974675536">
        <ele>837.45000000000005</ele>
        <time>2018-10-19T09:21:26Z</time>
      </trkpt>
      <trkpt lat="60.807259026914835" lon="6.278996989130974">
        <ele>837.92999999999995</ele>
        <time>2018-10-19T09:21:33Z</time>
      </trkpt>
      <trkpt lat="60.807160036638379" lon="6.278863968327642">
        <ele>837.92999999999995</ele>
        <time>2018-10-19T09:21:40Z</time>
      </trkpt>
      <trkpt lat="60.807016035541892" lon="6.278793979436159">
        <ele>837.92999999999995</ele>
        <time>2018-10-19T09:21:48Z</time>
      </trkpt>
      <trkpt lat="60.806907992810011" lon="6.278833961114287">
        <ele>838.88999999999999</ele>
        <time>2018-10-19T09:21:55Z</time>
      </trkpt>
      <trkpt lat="60.806811014190316" lon="6.278995983302593">
        <ele>838.88999999999999</ele>
        <time>2018-10-19T09:22:02Z</time>
      </trkpt>
      <trkpt lat="60.806724010035396" lon="6.279205027967691">
        <ele>838.88999999999999</ele>
        <time>2018-10-19T09:22:09Z</time>
      </trkpt>
      <trkpt lat="60.806614961475134" lon="6.27939403988421">
        <ele>838.88999999999999</ele>
        <time>2018-10-19T09:22:16Z</time>
      </trkpt>
      <trkpt lat="60.806488981470466" lon="6.279535023495555">
        <ele>838.88999999999999</ele>
        <time>2018-10-19T09:22:24Z</time>
      </trkpt>
      <trkpt lat="60.806373981758952" lon="6.279566958546639">
        <ele>839.37</ele>
        <time>2018-10-19T09:22:30Z</time>
      </trkpt>
      <trkpt lat="60.806285971775651" lon="6.2796760071069">
        <ele>839.37</ele>
        <time>2018-10-19T09:22:36Z</time>
      </trkpt>
      <trkpt lat="60.80623802728951" lon="6.279684975743294">
        <ele>839.85000000000002</ele>
        <time>2018-10-19T09:22:40Z</time>
      </trkpt>
      <trkpt lat="60.806171977892518" lon="6.279721017926931">
        <ele>840.33000000000004</ele>
        <time>2018-10-19T09:22:46Z</time>
      </trkpt>
      <trkpt lat="60.806059995666146" lon="6.279830988496542">
        <ele>840.33000000000004</ele>
        <time>2018-10-19T09:22:53Z</time>
      </trkpt>
      <trkpt lat="60.805968968197703" lon="6.279978007078171">
        <ele>840.80999999999995</ele>
        <time>2018-10-19T09:23:00Z</time>
      </trkpt>
      <trkpt lat="60.80589503981173" lon="6.280058976262808">
        <ele>840.80999999999995</ele>
        <time>2018-10-19T09:23:06Z</time>
      </trkpt>
      <trkpt lat="60.805881964042783" lon="6.28010499291122">
        <ele>842.25</ele>
        <time>2018-10-19T09:23:11Z</time>
      </trkpt>
      <trkpt lat="60.80587500706315" lon="6.280164001509547">
        <ele>843.69000000000005</ele>
        <time>2018-10-19T09:23:14Z</time>
      </trkpt>
      <trkpt lat="60.805828990414739" lon="6.280181016772986">
        <ele>844.65999999999997</ele>
        <time>2018-10-19T09:23:18Z</time>
      </trkpt>
      <trkpt lat="60.805760007351637" lon="6.28016802482307">
        <ele>847.53999999999996</ele>
        <time>2018-10-19T09:23:24Z</time>
      </trkpt>
      <trkpt lat="60.805662022903562" lon="6.280081020668149">
        <ele>849.46000000000004</ele>
        <time>2018-10-19T09:23:30Z</time>
      </trkpt>
      <trkpt lat="60.805475022643805" lon="6.279994016513228">
        <ele>850.89999999999998</ele>
        <time>2018-10-19T09:23:41Z</time>
      </trkpt>
      <trkpt lat="60.805367985740304" lon="6.279937019571662">
        <ele>853.30999999999995</ele>
        <time>2018-10-19T09:23:49Z</time>
      </trkpt>
      <trkpt lat="60.805256003513932" lon="6.279923021793366">
        <ele>855.23000000000002</ele>
        <time>2018-10-19T09:23:57Z</time>
      </trkpt>
      <trkpt lat="60.805172016844153" lon="6.279886979609728">
        <ele>857.14999999999998</ele>
        <time>2018-10-19T09:24:04Z</time>
      </trkpt>
      <trkpt lat="60.805072020739317" lon="6.279854038730264">
        <ele>860.51999999999998</ele>
        <time>2018-10-19T09:24:12Z</time>
      </trkpt>
      <trkpt lat="60.80499398522079" lon="6.279908018186688">
        <ele>861.96000000000004</ele>
        <time>2018-10-19T09:24:20Z</time>
      </trkpt>
      <trkpt lat="60.804898012429476" lon="6.279857978224754">
        <ele>862.91999999999996</ele>
        <time>2018-10-19T09:24:26Z</time>
      </trkpt>
      <trkpt lat="60.804796004667878" lon="6.279750019311905">
        <ele>863.88</ele>
        <time>2018-10-19T09:24:33Z</time>
      </trkpt>
      <trkpt lat="60.804688967764378" lon="6.279657986015081">
        <ele>864.84000000000003</ele>
        <time>2018-10-19T09:24:40Z</time>
      </trkpt>
      <trkpt lat="60.804575979709625" lon="6.279556984081864">
        <ele>866.28999999999996</ele>
        <time>2018-10-19T09:24:47Z</time>
      </trkpt>
      <trkpt lat="60.804508002474904" lon="6.279438966885209">
        <ele>867.73000000000002</ele>
        <time>2018-10-19T09:24:53Z</time>
      </trkpt>
      <trkpt lat="60.804484030231833" lon="6.279422035440803">
        <ele>868.21000000000004</ele>
        <time>2018-10-19T09:24:55Z</time>
      </trkpt>
      <trkpt lat="60.80437196418643" lon="6.279361015185714">
        <ele>869.64999999999998</ele>
        <time>2018-10-19T09:25:03Z</time>
      </trkpt>
      <trkpt lat="60.804281020537019" lon="6.279279962182045">
        <ele>871.57000000000005</ele>
        <time>2018-10-19T09:25:11Z</time>
      </trkpt>
      <trkpt lat="60.804202985018492" lon="6.2791389785707">
        <ele>873.98000000000002</ele>
        <time>2018-10-19T09:25:19Z</time>
      </trkpt>
      <trkpt lat="60.804158980026841" lon="6.278997994959354">
        <ele>875.41999999999996</ele>
        <time>2018-10-19T09:25:25Z</time>
      </trkpt>
      <trkpt lat="60.804053032770753" lon="6.278829015791416">
        <ele>876.38</ele>
        <time>2018-10-19T09:25:34Z</time>
      </trkpt>
      <trkpt lat="60.803954964503646" lon="6.278733965009451">
        <ele>879.25999999999999</ele>
        <time>2018-10-19T09:25:46Z</time>
      </trkpt>
      <trkpt lat="60.803879024460912" lon="6.278716027736664">
        <ele>882.14999999999998</ele>
        <time>2018-10-19T09:25:54Z</time>
      </trkpt>
      <trkpt lat="60.803867960348725" lon="6.278710998594761">
        <ele>884.07000000000005</ele>
        <time>2018-10-19T09:26:00Z</time>
      </trkpt>
      <trkpt lat="60.803856980055571" lon="6.278819041326642">
        <ele>885.02999999999997</ele>
        <time>2018-10-19T09:26:05Z</time>
      </trkpt>
      <trkpt lat="60.803772993385792" lon="6.278758021071553">
        <ele>887.42999999999995</ele>
        <time>2018-10-19T09:26:14Z</time>
      </trkpt>
      <trkpt lat="60.803643995895982" lon="6.278609996661544">
        <ele>889.36000000000001</ele>
        <time>2018-10-19T09:26:24Z</time>
      </trkpt>
      <trkpt lat="60.803632009774446" lon="6.278578983619809">
        <ele>889.84000000000003</ele>
        <time>2018-10-19T09:26:26Z</time>
      </trkpt>
      <trkpt lat="60.803589010611176" lon="6.278534978628159">
        <ele>891.27999999999997</ele>
        <time>2018-10-19T09:26:31Z</time>
      </trkpt>
      <trkpt lat="60.803510975092649" lon="6.278427019715309">
        <ele>893.20000000000005</ele>
        <time>2018-10-19T09:26:39Z</time>
      </trkpt>
      <trkpt lat="60.803410978987813" lon="6.278219986706972">
        <ele>895.61000000000001</ele>
        <time>2018-10-19T09:26:49Z</time>
      </trkpt>
      <trkpt lat="60.803405027836561" lon="6.278206994757056">
        <ele>895.61000000000001</ele>
        <time>2018-10-19T09:26:50Z</time>
      </trkpt>
      <trkpt lat="60.803315006196499" lon="6.278104986995459">
        <ele>897.04999999999995</ele>
        <time>2018-10-19T09:26:57Z</time>
      </trkpt>
      <trkpt lat="60.803310982882977" lon="6.278077997267246">
        <ele>897.52999999999997</ele>
        <time>2018-10-19T09:26:59Z</time>
      </trkpt>
      <trkpt lat="60.803238982334733" lon="6.277864007279277">
        <ele>900.40999999999997</ele>
        <time>2018-10-19T09:27:10Z</time>
      </trkpt>
      <trkpt lat="60.803162036463618" lon="6.277684969827533">
        <ele>902.33000000000004</ele>
        <time>2018-10-19T09:27:19Z</time>
      </trkpt>
      <trkpt lat="60.803105961531401" lon="6.277566030621529">
        <ele>903.77999999999997</ele>
        <time>2018-10-19T09:27:26Z</time>
      </trkpt>
      <trkpt lat="60.803030021488667" lon="6.277375007048249">
        <ele>905.70000000000005</ele>
        <time>2018-10-19T09:27:34Z</time>
      </trkpt>
      <trkpt lat="60.80295299179852" lon="6.277239974588156">
        <ele>907.13999999999999</ele>
        <time>2018-10-19T09:27:42Z</time>
      </trkpt>
      <trkpt lat="60.802884008735418" lon="6.277110977098346">
        <ele>908.10000000000002</ele>
        <time>2018-10-19T09:27:50Z</time>
      </trkpt>
      <trkpt lat="60.80280396156013" lon="6.277098990976811">
        <ele>909.53999999999996</ele>
        <time>2018-10-19T09:28:00Z</time>
      </trkpt>
      <trkpt lat="60.802757022902369" lon="6.277072001248598">
        <ele>910.50999999999999</ele>
        <time>2018-10-19T09:28:14Z</time>
      </trkpt>
      <trkpt lat="60.80276096239686" lon="6.277063032612205">
        <ele>910.50999999999999</ele>
        <time>2018-10-19T09:28:28Z</time>
      </trkpt>
      <trkpt lat="60.802755011245608" lon="6.277040988206863">
        <ele>910.99000000000001</ele>
        <time>2018-10-19T09:28:40Z</time>
      </trkpt>
      <trkpt lat="60.802711006253958" lon="6.2769890204072">
        <ele>910.02999999999997</ele>
        <time>2018-10-19T09:28:53Z</time>
      </trkpt>
      <trkpt lat="60.802621990442276" lon="6.27677402459085">
        <ele>911.95000000000005</ele>
        <time>2018-10-19T09:29:08Z</time>
      </trkpt>
      <trkpt lat="60.802554013207555" lon="6.276691965758801">
        <ele>913.38999999999999</ele>
        <time>2018-10-19T09:29:14Z</time>
      </trkpt>
      <trkpt lat="60.802509002387524" lon="6.276627006009221">
        <ele>915.30999999999995</ele>
        <time>2018-10-19T09:29:20Z</time>
      </trkpt>
      <trkpt lat="60.802452005445957" lon="6.276499014347792">
        <ele>918.20000000000005</ele>
        <time>2018-10-19T09:29:27Z</time>
      </trkpt>
      <trkpt lat="60.80237396992743" lon="6.276369011029601">
        <ele>920.60000000000002</ele>
        <time>2018-10-19T09:29:36Z</time>
      </trkpt>
      <trkpt lat="60.802319990471005" lon="6.276234984397888">
        <ele>922.03999999999996</ele>
        <time>2018-10-19T09:29:44Z</time>
      </trkpt>
      <trkpt lat="60.802312027662992" lon="6.276201959699392">
        <ele>923.96000000000004</ele>
        <time>2018-10-19T09:29:51Z</time>
      </trkpt>
      <trkpt lat="60.802301969379187" lon="6.276187039911747">
        <ele>924.45000000000005</ele>
        <time>2018-10-19T09:29:53Z</time>
      </trkpt>
      <trkpt lat="60.802207002416253" lon="6.276049995794892">
        <ele>927.80999999999995</ele>
        <time>2018-10-19T09:30:06Z</time>
      </trkpt>
      <trkpt lat="60.802128966897726" lon="6.275994004681706">
        <ele>928.76999999999998</ele>
        <time>2018-10-19T09:30:15Z</time>
      </trkpt>
      <trkpt lat="60.802139025181532" lon="6.275870036333799">
        <ele>930.21000000000004</ele>
        <time>2018-10-19T09:30:25Z</time>
      </trkpt>
      <trkpt lat="60.802121004089713" lon="6.275866013020277">
        <ele>930.69000000000005</ele>
        <time>2018-10-19T09:30:27Z</time>
      </trkpt>
      <trkpt lat="60.80207297578454" lon="6.275819996371865">
        <ele>931.64999999999998</ele>
        <time>2018-10-19T09:30:33Z</time>
      </trkpt>
      <trkpt lat="60.802079010754824" lon="6.275686975568533">
        <ele>933.58000000000004</ele>
        <time>2018-10-19T09:30:43Z</time>
      </trkpt>
      <trkpt lat="60.802035005763173" lon="6.275586979463697">
        <ele>936.94000000000005</ele>
        <time>2018-10-19T09:30:53Z</time>
      </trkpt>
      <trkpt lat="60.802009021863341" lon="6.275554960593581">
        <ele>937.89999999999998</ele>
        <time>2018-10-19T09:30:57Z</time>
      </trkpt>
      <trkpt lat="60.801908019930124" lon="6.275435015559197">
        <ele>939.83000000000004</ele>
        <time>2018-10-19T09:31:11Z</time>
      </trkpt>
      <trkpt lat="60.80189703963697" lon="6.275301994755864">
        <ele>942.71000000000004</ele>
        <time>2018-10-19T09:31:21Z</time>
      </trkpt>
      <trkpt lat="60.801820009946823" lon="6.27522898837924">
        <ele>946.07000000000005</ele>
        <time>2018-10-19T09:31:31Z</time>
      </trkpt>
      <trkpt lat="60.801719008013606" lon="6.275119017809629">
        <ele>947.51999999999998</ele>
        <time>2018-10-19T09:31:42Z</time>
      </trkpt>
      <trkpt lat="60.801636027172208" lon="6.274964036419988">
        <ele>950.39999999999998</ele>
        <time>2018-10-19T09:31:53Z</time>
      </trkpt>
      <trkpt lat="60.801560003310442" lon="6.274864040315151">
        <ele>953.76999999999998</ele>
        <time>2018-10-19T09:32:03Z</time>
      </trkpt>
      <trkpt lat="60.801442991942167" lon="6.274706963449717">
        <ele>955.69000000000005</ele>
        <time>2018-10-19T09:32:16Z</time>
      </trkpt>
      <trkpt lat="60.801393035799265" lon="6.274631023406982">
        <ele>957.61000000000001</ele>
        <time>2018-10-19T09:32:24Z</time>
      </trkpt>
      <trkpt lat="60.801263032481074" lon="6.274462966248393">
        <ele>960.49000000000001</ele>
        <time>2018-10-19T09:32:37Z</time>
      </trkpt>
      <trkpt lat="60.801248028874397" lon="6.274436982348561">
        <ele>960.98000000000002</ele>
        <time>2018-10-19T09:32:40Z</time>
      </trkpt>
      <trkpt lat="60.801260014995933" lon="6.274357018992305">
        <ele>962.41999999999996</ele>
        <time>2018-10-19T09:32:45Z</time>
      </trkpt>
      <trkpt lat="60.801193965598941" lon="6.274288035929203">
        <ele>964.34000000000003</ele>
        <time>2018-10-19T09:32:51Z</time>
      </trkpt>
      <trkpt lat="60.801191031932831" lon="6.27428200095892">
        <ele>964.34000000000003</ele>
        <time>2018-10-19T09:32:52Z</time>
      </trkpt>
      <trkpt lat="60.801101010292768" lon="6.274088965728879">
        <ele>968.17999999999995</ele>
        <time>2018-10-19T09:33:07Z</time>
      </trkpt>
      <trkpt lat="60.801032027229667" lon="6.273925015702844">
        <ele>971.07000000000005</ele>
        <time>2018-10-19T09:33:19Z</time>
      </trkpt>
      <trkpt lat="60.800948962569237" lon="6.273854020982981">
        <ele>972.50999999999999</ele>
        <time>2018-10-19T09:33:29Z</time>
      </trkpt>
      <trkpt lat="60.800914010033011" lon="6.273817978799343">
        <ele>974.42999999999995</ele>
        <time>2018-10-19T09:33:34Z</time>
      </trkpt>
      <trkpt lat="60.800894983112812" lon="6.273806998506188">
        <ele>974.42999999999995</ele>
        <time>2018-10-19T09:33:36Z</time>
      </trkpt>
      <trkpt lat="60.800853995606303" lon="6.273697027936578">
        <ele>977.32000000000005</ele>
        <time>2018-10-19T09:33:46Z</time>
      </trkpt>
      <trkpt lat="60.800817031413317" lon="6.273619998246431">
        <ele>979.72000000000003</ele>
        <time>2018-10-19T09:33:52Z</time>
      </trkpt>
      <trkpt lat="60.800833962857723" lon="6.27357398159802">
        <ele>980.20000000000005</ele>
        <time>2018-10-19T09:33:56Z</time>
      </trkpt>
      <trkpt lat="60.800800016149879" lon="6.273461999371648">
        <ele>984.04999999999995</ele>
        <time>2018-10-19T09:34:05Z</time>
      </trkpt>
      <trkpt lat="60.800729021430016" lon="6.27335898578167">
        <ele>986.45000000000005</ele>
        <time>2018-10-19T09:34:14Z</time>
      </trkpt>
      <trkpt lat="60.800727009773254" lon="6.273282961919904">
        <ele>987.40999999999997</ele>
        <time>2018-10-19T09:34:19Z</time>
      </trkpt>
      <trkpt lat="60.800689039751887" lon="6.273130998015404">
        <ele>990.77999999999997</ele>
        <time>2018-10-19T09:34:28Z</time>
      </trkpt>
      <trkpt lat="60.800647968426347" lon="6.272968975827098">
        <ele>994.62</ele>
        <time>2018-10-19T09:34:37Z</time>
      </trkpt>
      <trkpt lat="60.800584014505148" lon="6.272859005257487">
        <ele>997.50999999999999</ele>
        <time>2018-10-19T09:34:48Z</time>
      </trkpt>
      <trkpt lat="60.800505978986621" lon="6.27279999665916">
        <ele>999.90999999999997</ele>
        <time>2018-10-19T09:35:03Z</time>
      </trkpt>
      <trkpt lat="60.800516959279776" lon="6.272688014432788">
        <ele>1002.79</ele>
        <time>2018-10-19T09:35:16Z</time>
      </trkpt>
      <trkpt lat="60.80050497315824" lon="6.27265197224915">
        <ele>1004.72</ele>
        <time>2018-10-19T09:35:29Z</time>
      </trkpt>
      <trkpt lat="60.800506984815001" lon="6.27265197224915">
        <ele>1005.2</ele>
        <time>2018-10-19T09:35:55Z</time>
      </trkpt>
      <trkpt lat="60.800513019785285" lon="6.27264903858304">
        <ele>1004.72</ele>
        <time>2018-10-19T09:36:16Z</time>
      </trkpt>
      <trkpt lat="60.800489969551563" lon="6.272635962814093">
        <ele>1004.72</ele>
        <time>2018-10-19T09:36:26Z</time>
      </trkpt>
      <trkpt lat="60.80043900758028" lon="6.27256496809423">
        <ele>1005.6799999999999</ele>
        <time>2018-10-19T09:36:35Z</time>
      </trkpt>
      <trkpt lat="60.800397014245391" lon="6.272445023059845">
        <ele>1008.08</ele>
        <time>2018-10-19T09:36:45Z</time>
      </trkpt>
      <trkpt lat="60.800342028960586" lon="6.272296998649836">
        <ele>1010.96</ele>
        <time>2018-10-19T09:36:54Z</time>
      </trkpt>
      <trkpt lat="60.800344962626696" lon="6.272227009758353">
        <ele>1012.41</ele>
        <time>2018-10-19T09:36:58Z</time>
      </trkpt>
      <trkpt lat="60.800278997048736" lon="6.272079991176724">
        <ele>1015.77</ele>
        <time>2018-10-19T09:37:11Z</time>
      </trkpt>
      <trkpt lat="60.800254018977284" lon="6.271988041698933">
        <ele>1018.65</ele>
        <time>2018-10-19T09:37:19Z</time>
      </trkpt>
      <trkpt lat="60.800182018429041" lon="6.271887961775065">
        <ele>1021.54</ele>
        <time>2018-10-19T09:37:32Z</time>
      </trkpt>
      <trkpt lat="60.800130972638726" lon="6.271823002025485">
        <ele>1023.9400000000001</ele>
        <time>2018-10-19T09:37:41Z</time>
      </trkpt>
      <trkpt lat="60.800087973475456" lon="6.271752007305622">
        <ele>1026.8299999999999</ele>
        <time>2018-10-19T09:37:52Z</time>
      </trkpt>
      <trkpt lat="60.800120998173952" lon="6.271659974008799">
        <ele>1029.23</ele>
        <time>2018-10-19T09:38:01Z</time>
      </trkpt>
      <trkpt lat="60.800143964588642" lon="6.271524019539356">
        <ele>1031.6300000000001</ele>
        <time>2018-10-19T09:38:10Z</time>
      </trkpt>
      <trkpt lat="60.80016097985208" lon="6.271455036476255">
        <ele>1032.1099999999999</ele>
        <time>2018-10-19T09:38:14Z</time>
      </trkpt>
      <trkpt lat="60.800161985680461" lon="6.271285973489285">
        <ele>1035</ele>
        <time>2018-10-19T09:38:25Z</time>
      </trkpt>
      <trkpt lat="60.800156034529209" lon="6.271271975710988">
        <ele>1035.48</ele>
        <time>2018-10-19T09:38:26Z</time>
      </trkpt>
      <trkpt lat="60.800126027315855" lon="6.271198969334364">
        <ele>1036.9200000000001</ele>
        <time>2018-10-19T09:38:31Z</time>
      </trkpt>
      <trkpt lat="60.800084033980966" lon="6.271069971844554">
        <ele>1039.3199999999999</ele>
        <time>2018-10-19T09:38:40Z</time>
      </trkpt>
      <trkpt lat="60.800025025382638" lon="6.27093099988997">
        <ele>1041.73</ele>
        <time>2018-10-19T09:38:51Z</time>
      </trkpt>
      <trkpt lat="60.799912037327886" lon="6.270791022107005">
        <ele>1043.6500000000001</ele>
        <time>2018-10-19T09:39:05Z</time>
      </trkpt>
      <trkpt lat="60.799843976274133" lon="6.270619025453925">
        <ele>1046.05</ele>
        <time>2018-10-19T09:39:17Z</time>
      </trkpt>
      <trkpt lat="60.799838025122881" lon="6.270620031282306">
        <ele>1046.05</ele>
        <time>2018-10-19T09:39:18Z</time>
      </trkpt>
      <trkpt lat="60.799740962684155" lon="6.270562028512359">
        <ele>1048.9400000000001</ele>
        <time>2018-10-19T09:39:30Z</time>
      </trkpt>
      <trkpt lat="60.799691006541252" lon="6.27047804184258">
        <ele>1050.8599999999999</ele>
        <time>2018-10-19T09:39:37Z</time>
      </trkpt>
      <trkpt lat="60.799633003771305" lon="6.270399000495672">
        <ele>1052.3</ele>
        <time>2018-10-19T09:39:44Z</time>
      </trkpt>
      <trkpt lat="60.799580030143261" lon="6.270294981077313">
        <ele>1055.1800000000001</ele>
        <time>2018-10-19T09:39:53Z</time>
      </trkpt>
      <trkpt lat="60.799584975466132" lon="6.270259022712708">
        <ele>1057.1099999999999</ele>
        <time>2018-10-19T09:39:59Z</time>
      </trkpt>
      <trkpt lat="60.799542982131243" lon="6.270210994407535">
        <ele>1059.51</ele>
        <time>2018-10-19T09:40:08Z</time>
      </trkpt>
      <trkpt lat="60.799495037645102" lon="6.270133964717388">
        <ele>1060.95</ele>
        <time>2018-10-19T09:40:18Z</time>
      </trkpt>
      <trkpt lat="60.799425970762968" lon="6.270058024674654">
        <ele>1062.3900000000001</ele>
        <time>2018-10-19T09:40:31Z</time>
      </trkpt>
      <trkpt lat="60.79938699491322" lon="6.270006978884339">
        <ele>1062.8699999999999</ele>
        <time>2018-10-19T09:40:38Z</time>
      </trkpt>
      <trkpt lat="60.799317006021738" lon="6.269952999427915">
        <ele>1065.28</ele>
        <time>2018-10-19T09:40:46Z</time>
      </trkpt>
      <trkpt lat="60.799189014360309" lon="6.269842023029923">
        <ele>1067.2</ele>
        <time>2018-10-19T09:41:02Z</time>
      </trkpt>
      <trkpt lat="60.799125982448459" lon="6.269669020548463">
        <ele>1069.1199999999999</ele>
        <time>2018-10-19T09:41:16Z</time>
      </trkpt>
      <trkpt lat="60.799061022698879" lon="6.269548991695046">
        <ele>1072.49</ele>
        <time>2018-10-19T09:41:27Z</time>
      </trkpt>
      <trkpt lat="60.7989770360291" lon="6.269463999196887">
        <ele>1072.97</ele>
        <time>2018-10-19T09:41:41Z</time>
      </trkpt>
      <trkpt lat="60.79893697053194" lon="6.269368026405573">
        <ele>1075.3699999999999</ele>
        <time>2018-10-19T09:41:51Z</time>
      </trkpt>
      <trkpt lat="60.798924984410405" lon="6.269365008920431">
        <ele>1075.3699999999999</ele>
        <time>2018-10-19T09:41:52Z</time>
      </trkpt>
      <trkpt lat="60.798882991075516" lon="6.269269036129117">
        <ele>1076.8099999999999</ele>
        <time>2018-10-19T09:42:04Z</time>
      </trkpt>
      <trkpt lat="60.798888020217419" lon="6.26925696618855">
        <ele>1077.78</ele>
        <time>2018-10-19T09:42:23Z</time>
      </trkpt>
      <trkpt lat="60.798835968598723" lon="6.269208015874028">
        <ele>1079.22</ele>
        <time>2018-10-19T09:42:52Z</time>
      </trkpt>
      <trkpt lat="60.798753993585706" lon="6.269146995618939">
        <ele>1080.6600000000001</ele>
        <time>2018-10-19T09:43:04Z</time>
      </trkpt>
      <trkpt lat="60.798734966665506" lon="6.269129980355501">
        <ele>1081.1400000000001</ele>
        <time>2018-10-19T09:43:07Z</time>
      </trkpt>
      <trkpt lat="60.798706971108913" lon="6.269050016999245">
        <ele>1082.5799999999999</ele>
        <time>2018-10-19T09:43:14Z</time>
      </trkpt>
      <trkpt lat="60.798639999702573" lon="6.268962007015944">
        <ele>1085.95</ele>
        <time>2018-10-19T09:43:25Z</time>
      </trkpt>
      <trkpt lat="60.798618039116263" lon="6.268937028944492">
        <ele>1087.3900000000001</ele>
        <time>2018-10-19T09:43:30Z</time>
      </trkpt>
      <trkpt lat="60.798637988045812" lon="6.268852036446333">
        <ele>1089.3099999999999</ele>
        <time>2018-10-19T09:43:40Z</time>
      </trkpt>
      <trkpt lat="60.798617033287883" lon="6.268779030069709">
        <ele>1091.71</ele>
        <time>2018-10-19T09:43:49Z</time>
      </trkpt>
      <trkpt lat="60.798571016639471" lon="6.268641985952854">
        <ele>1094.5999999999999</ele>
        <time>2018-10-19T09:44:05Z</time>
      </trkpt>
      <trkpt lat="60.798520976677537" lon="6.26861097291112">
        <ele>1095.0799999999999</ele>
        <time>2018-10-19T09:44:20Z</time>
      </trkpt>
      <trkpt lat="60.798517037183046" lon="6.268593035638332">
        <ele>1095.0799999999999</ele>
        <time>2018-10-19T09:44:42Z</time>
      </trkpt>
      <trkpt lat="60.798500021919608" lon="6.268590018153191">
        <ele>1095.0799999999999</ele>
        <time>2018-10-19T09:46:03Z</time>
      </trkpt>
      <trkpt lat="60.798494992777705" lon="6.268588006496429">
        <ele>1094.5999999999999</ele>
        <time>2018-10-19T09:46:08Z</time>
      </trkpt>
      <trkpt lat="60.798434978350997" lon="6.268495973199606">
        <ele>1095.5599999999999</ele>
        <time>2018-10-19T09:46:18Z</time>
      </trkpt>
      <trkpt lat="60.798434978350997" lon="6.268497984856367">
        <ele>1096.04</ele>
        <time>2018-10-19T09:46:20Z</time>
      </trkpt>
      <trkpt lat="60.798401031643152" lon="6.268474012613297">
        <ele>1096.04</ele>
        <time>2018-10-19T09:46:25Z</time>
      </trkpt>
      <trkpt lat="60.798347974196076" lon="6.268304027616978">
        <ele>1097.96</ele>
        <time>2018-10-19T09:46:38Z</time>
      </trkpt>
      <trkpt lat="60.798277985304594" lon="6.268226997926831">
        <ele>1099.4000000000001</ele>
        <time>2018-10-19T09:46:48Z</time>
      </trkpt>
      <trkpt lat="60.798215037211776" lon="6.268147034570575">
        <ele>1099.4000000000001</ele>
        <time>2018-10-19T09:47:01Z</time>
      </trkpt>
      <trkpt lat="60.798167008906603" lon="6.267929021269083">
        <ele>1101.8099999999999</ele>
        <time>2018-10-19T09:47:16Z</time>
      </trkpt>
      <trkpt lat="60.798121998086572" lon="6.267827013507485">
        <ele>1102.77</ele>
        <time>2018-10-19T09:47:23Z</time>
      </trkpt>
      <trkpt lat="60.798078998923302" lon="6.267819972708821">
        <ele>1103.73</ele>
        <time>2018-10-19T09:47:27Z</time>
      </trkpt>
      <trkpt lat="60.797965005040169" lon="6.267783008515835">
        <ele>1105.6500000000001</ele>
        <time>2018-10-19T09:47:40Z</time>
      </trkpt>
      <trkpt lat="60.797847993671894" lon="6.267782002687454">
        <ele>1107.5799999999999</ele>
        <time>2018-10-19T09:47:54Z</time>
      </trkpt>
      <trkpt lat="60.797683037817478" lon="6.267816033214331">
        <ele>1109.02</ele>
        <time>2018-10-19T09:48:09Z</time>
      </trkpt>
      <trkpt lat="60.797542976215482" lon="6.267660968005657">
        <ele>1111.4200000000001</ele>
        <time>2018-10-19T09:48:25Z</time>
      </trkpt>
      <trkpt lat="60.79749695956707" lon="6.26760195940733">
        <ele>1112.8599999999999</ele>
        <time>2018-10-19T09:48:31Z</time>
      </trkpt>
      <trkpt lat="60.797441974282265" lon="6.267586033791304">
        <ele>1114.3099999999999</ele>
        <time>2018-10-19T09:48:38Z</time>
      </trkpt>
      <trkpt lat="60.797368967905641" lon="6.267466004937887">
        <ele>1115.75</ele>
        <time>2018-10-19T09:48:49Z</time>
      </trkpt>
      <trkpt lat="60.797262014821172" lon="6.26742803491652">
        <ele>1116.71</ele>
        <time>2018-10-19T09:49:00Z</time>
      </trkpt>
      <trkpt lat="60.797221027314663" lon="6.267413031309843">
        <ele>1117.1900000000001</ele>
        <time>2018-10-19T09:49:05Z</time>
      </trkpt>
      <trkpt lat="60.797160007059574" lon="6.267438009381294">
        <ele>1118.6300000000001</ele>
        <time>2018-10-19T09:49:12Z</time>
      </trkpt>
      <trkpt lat="60.797033021226525" lon="6.267353016883135">
        <ele>1120.0699999999999</ele>
        <time>2018-10-19T09:49:28Z</time>
      </trkpt>
      <trkpt lat="60.796960014849901" lon="6.267272969707847">
        <ele>1122</ele>
        <time>2018-10-19T09:49:39Z</time>
      </trkpt>
      <trkpt lat="60.796826994046569" lon="6.26714900135994">
        <ele>1123.9200000000001</ele>
        <time>2018-10-19T09:49:54Z</time>
      </trkpt>
      <trkpt lat="60.796705037355423" lon="6.267088986933231">
        <ele>1124.8800000000001</ele>
        <time>2018-10-19T09:50:09Z</time>
      </trkpt>
      <trkpt lat="60.796602023765445" lon="6.267014974728227">
        <ele>1126.8</ele>
        <time>2018-10-19T09:50:20Z</time>
      </trkpt>
      <trkpt lat="60.796561036258936" lon="6.266975998878479">
        <ele>1127.28</ele>
        <time>2018-10-19T09:50:25Z</time>
      </trkpt>
      <trkpt lat="60.796471014618874" lon="6.266921013593674">
        <ele>1128.24</ele>
        <time>2018-10-19T09:50:37Z</time>
      </trkpt>
      <trkpt lat="60.796440001577139" lon="6.26682898029685">
        <ele>1129.6900000000001</ele>
        <time>2018-10-19T09:50:43Z</time>
      </trkpt>
      <trkpt lat="60.796345034614205" lon="6.266629993915558">
        <ele>1132.5699999999999</ele>
        <time>2018-10-19T09:50:56Z</time>
      </trkpt>
      <trkpt lat="60.796192986890674" lon="6.266556987538934">
        <ele>1133.05</ele>
        <time>2018-10-19T09:51:10Z</time>
      </trkpt>
      <trkpt lat="60.796171026304364" lon="6.266524968668819">
        <ele>1134.01</ele>
        <time>2018-10-19T09:51:12Z</time>
      </trkpt>
      <trkpt lat="60.796092990785837" lon="6.266377028077841">
        <ele>1134.01</ele>
        <time>2018-10-19T09:51:18Z</time>
      </trkpt>
      <trkpt lat="60.796016966924071" lon="6.266230009496212">
        <ele>1134.01</ele>
        <time>2018-10-19T09:51:25Z</time>
      </trkpt>
      <trkpt lat="60.795939015224576" lon="6.266013002023101">
        <ele>1134.01</ele>
        <time>2018-10-19T09:51:35Z</time>
      </trkpt>
      <trkpt lat="60.795931974425912" lon="6.265785014256835">
        <ele>1134.49</ele>
        <time>2018-10-19T09:51:42Z</time>
      </trkpt>
      <trkpt lat="60.795888975262642" lon="6.265535987913609">
        <ele>1136.4200000000001</ele>
        <time>2018-10-19T09:51:55Z</time>
      </trkpt>
      <trkpt lat="60.795829966664314" lon="6.265482008457184">
        <ele>1139.3</ele>
        <time>2018-10-19T09:52:02Z</time>
      </trkpt>
      <trkpt lat="60.795715972781181" lon="6.265317974612117">
        <ele>1141.22</ele>
        <time>2018-10-19T09:52:14Z</time>
      </trkpt>
      <trkpt lat="60.795684959739447" lon="6.265190988779068">
        <ele>1142.1800000000001</ele>
        <time>2018-10-19T09:52:24Z</time>
      </trkpt>
      <trkpt lat="60.795637015253305" lon="6.265110019594431">
        <ele>1144.5899999999999</ele>
        <time>2018-10-19T09:52:30Z</time>
      </trkpt>
      <trkpt lat="60.79554196447134" lon="6.265047993510962">
        <ele>1144.5899999999999</ele>
        <time>2018-10-19T09:52:39Z</time>
      </trkpt>
      <trkpt lat="60.795438028872013" lon="6.264941040426493">
        <ele>1144.1099999999999</ele>
        <time>2018-10-19T09:52:49Z</time>
      </trkpt>
      <trkpt lat="60.795319005846977" lon="6.264805002138019">
        <ele>1146.03</ele>
        <time>2018-10-19T09:53:01Z</time>
      </trkpt>
      <trkpt lat="60.795297967270017" lon="6.264769965782762">
        <ele>1146.99</ele>
        <time>2018-10-19T09:53:04Z</time>
      </trkpt>
      <trkpt lat="60.795253040269017" lon="6.264690002426505">
        <ele>1148.4300000000001</ele>
        <time>2018-10-19T09:53:13Z</time>
      </trkpt>
      <trkpt lat="60.795155977830291" lon="6.264610039070249">
        <ele>1148.4300000000001</ele>
        <time>2018-10-19T09:53:23Z</time>
      </trkpt>
      <trkpt lat="60.7951520383358" lon="6.264589000493288">
        <ele>1147.47</ele>
        <time>2018-10-19T09:53:38Z</time>
      </trkpt>
      <trkpt lat="60.795143991708755" lon="6.264570979401469">
        <ele>1147.47</ele>
        <time>2018-10-19T09:54:02Z</time>
      </trkpt>
      <trkpt lat="60.795091018080711" lon="6.264510964974761">
        <ele>1147.47</ele>
        <time>2018-10-19T09:54:21Z</time>
      </trkpt>
      <trkpt lat="60.795035026967525" lon="6.264342991635203">
        <ele>1147.47</ele>
        <time>2018-10-19T09:54:32Z</time>
      </trkpt>
      <trkpt lat="60.794971995055676" lon="6.264192033559084">
        <ele>1148.4300000000001</ele>
        <time>2018-10-19T09:54:43Z</time>
      </trkpt>
      <trkpt lat="60.794908041134477" lon="6.264030011370778">
        <ele>1148.4300000000001</ele>
        <time>2018-10-19T09:54:54Z</time>
      </trkpt>
      <trkpt lat="60.79478700645268" lon="6.263847034424543">
        <ele>1150.8399999999999</ele>
        <time>2018-10-19T09:55:07Z</time>
      </trkpt>
      <trkpt lat="60.794733026996255" lon="6.26360303722322">
        <ele>1152.28</ele>
        <time>2018-10-19T09:55:18Z</time>
      </trkpt>
      <trkpt lat="60.794751970097423" lon="6.263446966186166">
        <ele>1152.28</ele>
        <time>2018-10-19T09:55:25Z</time>
      </trkpt>
      <trkpt lat="60.794644011184573" lon="6.263244962319732">
        <ele>1154.2</ele>
        <time>2018-10-19T09:55:39Z</time>
      </trkpt>
      <trkpt lat="60.794580979272723" lon="6.263163993135095">
        <ele>1154.6800000000001</ele>
        <time>2018-10-19T09:55:46Z</time>
      </trkpt>
      <trkpt lat="60.79440001398325" lon="6.263106996193528">
        <ele>1158.05</ele>
        <time>2018-10-19T09:56:04Z</time>
      </trkpt>
      <trkpt lat="60.79427202232182" lon="6.263045975938439">
        <ele>1159.49</ele>
        <time>2018-10-19T09:56:16Z</time>
      </trkpt>
      <trkpt lat="60.794094996526837" lon="6.262945979833603">
        <ele>1160.45</ele>
        <time>2018-10-19T09:56:32Z</time>
      </trkpt>
      <trkpt lat="60.793890981003642" lon="6.262828968465328">
        <ele>1159.01</ele>
        <time>2018-10-19T09:56:50Z</time>
      </trkpt>
      <trkpt lat="60.793726025149226" lon="6.262904992327094">
        <ele>1160.9300000000001</ele>
        <time>2018-10-19T09:57:05Z</time>
      </trkpt>
      <trkpt lat="60.793711021542549" lon="6.262921001762152">
        <ele>1160.9300000000001</ele>
        <time>2018-10-19T09:57:07Z</time>
      </trkpt>
      <trkpt lat="60.793641032651067" lon="6.263004988431931">
        <ele>1162.3699999999999</ele>
        <time>2018-10-19T09:57:18Z</time>
      </trkpt>
      <trkpt lat="60.793596021831036" lon="6.263020997866988">
        <ele>1163.3299999999999</ele>
        <time>2018-10-19T09:57:24Z</time>
      </trkpt>
      <trkpt lat="60.79354296438396" lon="6.263072965666652">
        <ele>1164.29</ele>
        <time>2018-10-19T09:57:29Z</time>
      </trkpt>
      <trkpt lat="60.793463001027703" lon="6.263248985633254">
        <ele>1165.74</ele>
        <time>2018-10-19T09:57:36Z</time>
      </trkpt>
      <trkpt lat="60.79341203905642" lon="6.263398015871644">
        <ele>1168.6199999999999</ele>
        <time>2018-10-19T09:57:45Z</time>
      </trkpt>
      <trkpt lat="60.793298967182636" lon="6.263550985604525">
        <ele>1169.0999999999999</ele>
        <time>2018-10-19T09:57:56Z</time>
      </trkpt>
      <trkpt lat="60.793228978291154" lon="6.263619968667626">
        <ele>1169.5799999999999</ele>
        <time>2018-10-19T09:58:06Z</time>
      </trkpt>
      <trkpt lat="60.79311003908515" lon="6.26356003805995">
        <ele>1171.02</ele>
        <time>2018-10-19T09:58:16Z</time>
      </trkpt>
      <trkpt lat="60.793097969144583" lon="6.263563977554441">
        <ele>1171.02</ele>
        <time>2018-10-19T09:58:28Z</time>
      </trkpt>
      <trkpt lat="60.793097969144583" lon="6.263563977554441">
        <ele>1171.02</ele>
        <time>2018-10-19T09:58:31Z</time>
      </trkpt>
      <trkpt lat="60.792994033545256" lon="6.26326197758317">
        <ele>1171.02</ele>
        <time>2018-10-19T09:58:47Z</time>
      </trkpt>
      <trkpt lat="60.792970983311534" lon="6.263181008398533">
        <ele>1171.02</ele>
        <time>2018-10-19T09:58:51Z</time>
      </trkpt>
      <trkpt lat="60.792903006076813" lon="6.263115964829922">
        <ele>1171.98</ele>
        <time>2018-10-19T09:59:04Z</time>
      </trkpt>
      <trkpt lat="60.792906023561954" lon="6.263111019507051">
        <ele>1172.47</ele>
        <time>2018-10-19T09:59:59Z</time>
      </trkpt>
      <trkpt lat="60.792910968884826" lon="6.263111019507051">
        <ele>1171.98</ele>
        <time>2018-10-19T10:00:35Z</time>
      </trkpt>
      <trkpt lat="60.792860006913543" lon="6.262969030067325">
        <ele>1172.47</ele>
        <time>2018-10-19T10:01:18Z</time>
      </trkpt>
      <trkpt lat="60.792827988043427" lon="6.262800972908735">
        <ele>1172.47</ele>
        <time>2018-10-19T10:01:24Z</time>
      </trkpt>
      <trkpt lat="60.792849026620388" lon="6.26259402371943">
        <ele>1172.95</ele>
        <time>2018-10-19T10:01:32Z</time>
      </trkpt>
      <trkpt lat="60.792881967499852" lon="6.262397971004248">
        <ele>1173.4300000000001</ele>
        <time>2018-10-19T10:01:39Z</time>
      </trkpt>
      <trkpt lat="60.79289898276329" lon="6.262299986556172">
        <ele>1173.9100000000001</ele>
        <time>2018-10-19T10:01:45Z</time>
      </trkpt>
      <trkpt lat="60.792899988591671" lon="6.262257993221283">
        <ele>1175.3499999999999</ele>
        <time>2018-10-19T10:01:49Z</time>
      </trkpt>
      <trkpt lat="60.792775014415383" lon="6.26207803376019">
        <ele>1175.8299999999999</ele>
        <time>2018-10-19T10:01:58Z</time>
      </trkpt>
      <trkpt lat="60.792733021080494" lon="6.262012990191579">
        <ele>1175.3499999999999</ele>
        <time>2018-10-19T10:02:01Z</time>
      </trkpt>
      <trkpt lat="60.79266001470387" lon="6.261808974668384">
        <ele>1174.8699999999999</ele>
        <time>2018-10-19T10:02:09Z</time>
      </trkpt>
      <trkpt lat="60.792648028582335" lon="6.261726999655366">
        <ele>1175.3499999999999</ele>
        <time>2018-10-19T10:02:13Z</time>
      </trkpt>
      <trkpt lat="60.792603017762303" lon="6.261601019650698">
        <ele>1174.8699999999999</ele>
        <time>2018-10-19T10:02:19Z</time>
      </trkpt>
      <trkpt lat="60.792564963921905" lon="6.261380994692445">
        <ele>1174.3900000000001</ele>
        <time>2018-10-19T10:02:29Z</time>
      </trkpt>
      <trkpt lat="60.792498998343945" lon="6.261054016649723">
        <ele>1173.9100000000001</ele>
        <time>2018-10-19T10:02:40Z</time>
      </trkpt>
      <trkpt lat="60.792423980310559" lon="6.260945973917842">
        <ele>1172.95</ele>
        <time>2018-10-19T10:02:49Z</time>
      </trkpt>
      <trkpt lat="60.792340999469161" lon="6.261016968637705">
        <ele>1170.54</ele>
        <time>2018-10-19T10:02:57Z</time>
      </trkpt>
      <trkpt lat="60.792332030832767" lon="6.260944968089461">
        <ele>1169.0999999999999</ele>
        <time>2018-10-19T10:03:01Z</time>
      </trkpt>
      <trkpt lat="60.792327001690865" lon="6.260831980034709">
        <ele>1167.1800000000001</ele>
        <time>2018-10-19T10:03:07Z</time>
      </trkpt>
      <trkpt lat="60.792239997535944" lon="6.260609021410346">
        <ele>1165.26</ele>
        <time>2018-10-19T10:03:20Z</time>
      </trkpt>
      <trkpt lat="60.792222982272506" lon="6.2605129648">
        <ele>1164.77</ele>
        <time>2018-10-19T10:03:25Z</time>
      </trkpt>
      <trkpt lat="60.792131032794714" lon="6.260331999510527">
        <ele>1163.3299999999999</ele>
        <time>2018-10-19T10:03:36Z</time>
      </trkpt>
      <trkpt lat="60.792109994217753" lon="6.260109962895513">
        <ele>1161.8900000000001</ele>
        <time>2018-10-19T10:03:46Z</time>
      </trkpt>
      <trkpt lat="60.79210102558136" lon="6.259885998442769">
        <ele>1160.9300000000001</ele>
        <time>2018-10-19T10:03:54Z</time>
      </trkpt>
      <trkpt lat="60.792095996439457" lon="6.259606964886189">
        <ele>1160.9300000000001</ele>
        <time>2018-10-19T10:04:03Z</time>
      </trkpt>
      <trkpt lat="60.792132960632443" lon="6.259482996538281">
        <ele>1160.45</ele>
        <time>2018-10-19T10:04:09Z</time>
      </trkpt>
      <trkpt lat="60.792203033342957" lon="6.259409990161657">
        <ele>1159.97</ele>
        <time>2018-10-19T10:04:16Z</time>
      </trkpt>
      <trkpt lat="60.792291965335608" lon="6.259355004876852">
        <ele>1159.49</ele>
        <time>2018-10-19T10:04:24Z</time>
      </trkpt>
      <trkpt lat="60.792458010837436" lon="6.259302031248808">
        <ele>1159.49</ele>
        <time>2018-10-19T10:04:37Z</time>
      </trkpt>
      <trkpt lat="60.792492963373661" lon="6.259287027642131">
        <ele>1159.01</ele>
        <time>2018-10-19T10:04:39Z</time>
      </trkpt>
      <trkpt lat="60.792583990842104" lon="6.259235981851816">
        <ele>1158.05</ele>
        <time>2018-10-19T10:04:45Z</time>
      </trkpt>
      <trkpt lat="60.792632019147277" lon="6.259198011830449">
        <ele>1157.5599999999999</ele>
        <time>2018-10-19T10:04:49Z</time>
      </trkpt>
      <trkpt lat="60.792659008875489" lon="6.259201029315591">
        <ele>1158.05</ele>
        <time>2018-10-19T10:04:51Z</time>
      </trkpt>
      <trkpt lat="60.792706031352282" lon="6.259185019880533">
        <ele>1158.05</ele>
        <time>2018-10-19T10:04:55Z</time>
      </trkpt>
      <trkpt lat="60.792788006365299" lon="6.259201029315591">
        <ele>1158.53</ele>
        <time>2018-10-19T10:05:00Z</time>
      </trkpt>
      <trkpt lat="60.792886996641755" lon="6.259042024612427">
        <ele>1158.05</ele>
        <time>2018-10-19T10:05:10Z</time>
      </trkpt>
      <trkpt lat="60.792888002470136" lon="6.25902802683413">
        <ele>1158.05</ele>
        <time>2018-10-19T10:05:11Z</time>
      </trkpt>
      <trkpt lat="60.792877022176981" lon="6.258948985487223">
        <ele>1158.05</ele>
        <time>2018-10-19T10:05:15Z</time>
      </trkpt>
      <trkpt lat="60.792957991361618" lon="6.25877296552062">
        <ele>1159.01</ele>
        <time>2018-10-19T10:05:28Z</time>
      </trkpt>
      <trkpt lat="60.793030997738242" lon="6.258654026314616">
        <ele>1160.9300000000001</ele>
        <time>2018-10-19T10:05:39Z</time>
      </trkpt>
      <trkpt lat="60.793057987466455" lon="6.258605998009443">
        <ele>1161.8900000000001</ele>
        <time>2018-10-19T10:05:43Z</time>
      </trkpt>
      <trkpt lat="60.79315303824842" lon="6.25846903771162">
        <ele>1165.26</ele>
        <time>2018-10-19T10:05:55Z</time>
      </trkpt>
      <trkpt lat="60.793153960257769" lon="6.258422015234828">
        <ele>1165.74</ele>
        <time>2018-10-19T10:05:57Z</time>
      </trkpt>
      <trkpt lat="60.793173993006349" lon="6.258274996653199">
        <ele>1167.1800000000001</ele>
        <time>2018-10-19T10:06:04Z</time>
      </trkpt>
      <trkpt lat="60.793216992169619" lon="6.258195033296943">
        <ele>1167.6600000000001</ele>
        <time>2018-10-19T10:06:08Z</time>
      </trkpt>
      <trkpt lat="60.793280024081469" lon="6.258119009435177">
        <ele>1168.1400000000001</ele>
        <time>2018-10-19T10:06:15Z</time>
      </trkpt>
      <trkpt lat="60.79326300881803" lon="6.257918011397123">
        <ele>1170.54</ele>
        <time>2018-10-19T10:06:25Z</time>
      </trkpt>
      <trkpt lat="60.793235013261437" lon="6.257835030555725">
        <ele>1171.98</ele>
        <time>2018-10-19T10:06:31Z</time>
      </trkpt>
      <trkpt lat="60.793204000219703" lon="6.257670996710658">
        <ele>1174.3900000000001</ele>
        <time>2018-10-19T10:06:39Z</time>
      </trkpt>
      <trkpt lat="60.793249011039734" lon="6.257543005049229">
        <ele>1175.8299999999999</ele>
        <time>2018-10-19T10:06:45Z</time>
      </trkpt>
      <trkpt lat="60.793260997161269" lon="6.257432028651238">
        <ele>1176.3099999999999</ele>
        <time>2018-10-19T10:06:51Z</time>
      </trkpt>
      <trkpt lat="60.793251022696495" lon="6.257341001182795">
        <ele>1176.79</ele>
        <time>2018-10-19T10:06:55Z</time>
      </trkpt>
      <trkpt lat="60.793179022148252" lon="6.257166992872953">
        <ele>1178.71</ele>
        <time>2018-10-19T10:07:05Z</time>
      </trkpt>
      <trkpt lat="60.793079026043415" lon="6.257061967626214">
        <ele>1180.1600000000001</ele>
        <time>2018-10-19T10:07:15Z</time>
      </trkpt>
      <trkpt lat="60.793053964152932" lon="6.256945040076971">
        <ele>1180.6400000000001</ele>
        <time>2018-10-19T10:07:22Z</time>
      </trkpt>
      <trkpt lat="60.793145997449756" lon="6.256809001788497">
        <ele>1179.6700000000001</ele>
        <time>2018-10-19T10:07:31Z</time>
      </trkpt>
      <trkpt lat="60.793171981349587" lon="6.256785029545426">
        <ele>1179.6700000000001</ele>
        <time>2018-10-19T10:07:33Z</time>
      </trkpt>
      <trkpt lat="60.7931989710778" lon="6.256654020398855">
        <ele>1181.5999999999999</ele>
        <time>2018-10-19T10:07:43Z</time>
      </trkpt>
      <trkpt lat="60.793197965249419" lon="6.256604986265302">
        <ele>1183.04</ele>
        <time>2018-10-19T10:07:46Z</time>
      </trkpt>
      <trkpt lat="60.79319603741169" lon="6.256387978792191">
        <ele>1185.9200000000001</ele>
        <time>2018-10-19T10:07:56Z</time>
      </trkpt>
      <trkpt lat="60.793138034641743" lon="6.256162002682686">
        <ele>1189.29</ele>
        <time>2018-10-19T10:08:08Z</time>
      </trkpt>
      <trkpt lat="60.793046001344919" lon="6.255962010473013">
        <ele>1191.6900000000001</ele>
        <time>2018-10-19T10:08:21Z</time>
      </trkpt>
      <trkpt lat="60.792944999411702" lon="6.255808034911752">
        <ele>1193.6099999999999</ele>
        <time>2018-10-19T10:08:31Z</time>
      </trkpt>
      <trkpt lat="60.792840979993343" lon="6.255736034363508">
        <ele>1195.0599999999999</ele>
        <time>2018-10-19T10:08:40Z</time>
      </trkpt>
      <trkpt lat="60.792757999151945" lon="6.255576023831964">
        <ele>1198.4200000000001</ele>
        <time>2018-10-19T10:08:50Z</time>
      </trkpt>
      <trkpt lat="60.792693039402366" lon="6.255492959171534">
        <ele>1199.3800000000001</ele>
        <time>2018-10-19T10:08:57Z</time>
      </trkpt>
      <trkpt lat="60.792530011385679" lon="6.255339989438653">
        <ele>1202.27</ele>
        <time>2018-10-19T10:09:14Z</time>
      </trkpt>
      <trkpt lat="60.792492963373661" lon="6.255266983062029">
        <ele>1203.23</ele>
        <time>2018-10-19T10:09:20Z</time>
      </trkpt>
      <trkpt lat="60.792406965047121" lon="6.255067996680737">
        <ele>1203.71</ele>
        <time>2018-10-19T10:09:35Z</time>
      </trkpt>
      <trkpt lat="60.792322978377342" lon="6.254983004182577">
        <ele>1204.1900000000001</ele>
        <time>2018-10-19T10:09:48Z</time>
      </trkpt>
      <trkpt lat="60.792311998084188" lon="6.254981998354197">
        <ele>1204.6700000000001</ele>
        <time>2018-10-19T10:09:59Z</time>
      </trkpt>
      <trkpt lat="60.792201021686196" lon="6.25496699474752">
        <ele>1206.1099999999999</ele>
        <time>2018-10-19T10:10:11Z</time>
      </trkpt>
      <trkpt lat="60.79216699115932" lon="6.254921983927488">
        <ele>1207.0699999999999</ele>
        <time>2018-10-19T10:10:16Z</time>
      </trkpt>
      <trkpt lat="60.79210203140974" lon="6.254719980061054">
        <ele>1209</ele>
        <time>2018-10-19T10:10:30Z</time>
      </trkpt>
      <trkpt lat="60.791914025321603" lon="6.254673041403294">
        <ele>1209.96</ele>
        <time>2018-10-19T10:10:45Z</time>
      </trkpt>
      <trkpt lat="60.791810005903244" lon="6.254670023918152">
        <ele>1210.9200000000001</ele>
        <time>2018-10-19T10:10:54Z</time>
      </trkpt>
      <trkpt lat="60.791580006480217" lon="6.254567010328174">
        <ele>1211.8800000000001</ele>
        <time>2018-10-19T10:11:12Z</time>
      </trkpt>
      <trkpt lat="60.791422007605433" lon="6.254486041143537">
        <ele>1214.28</ele>
        <time>2018-10-19T10:11:26Z</time>
      </trkpt>
      <trkpt lat="60.791381020098925" lon="6.254443963989615">
        <ele>1215.24</ele>
        <time>2018-10-19T10:11:31Z</time>
      </trkpt>
      <trkpt lat="60.791255040094256" lon="6.254359977319837">
        <ele>1216.21</ele>
        <time>2018-10-19T10:11:40Z</time>
      </trkpt>
      <trkpt lat="60.791156971827149" lon="6.254343967884779">
        <ele>1217.1700000000001</ele>
        <time>2018-10-19T10:11:46Z</time>
      </trkpt>
      <trkpt lat="60.791060999035835" lon="6.254212036728859">
        <ele>1218.1300000000001</ele>
        <time>2018-10-19T10:11:54Z</time>
      </trkpt>
      <trkpt lat="60.790957985445857" lon="6.254163002595305">
        <ele>1219.0899999999999</ele>
        <time>2018-10-19T10:12:01Z</time>
      </trkpt>
      <trkpt lat="60.790836028754711" lon="6.254030987620354">
        <ele>1220.53</ele>
        <time>2018-10-19T10:12:11Z</time>
      </trkpt>
      <trkpt lat="60.790700996294618" lon="6.253959992900491">
        <ele>1223.4200000000001</ele>
        <time>2018-10-19T10:12:26Z</time>
      </trkpt>
      <trkpt lat="60.790635030716658" lon="6.253921017050743">
        <ele>1223.9000000000001</ele>
        <time>2018-10-19T10:12:30Z</time>
      </trkpt>
      <trkpt lat="60.790552971884608" lon="6.253733010962606">
        <ele>1224.3800000000001</ele>
        <time>2018-10-19T10:12:38Z</time>
      </trkpt>
      <trkpt lat="60.790427997708321" lon="6.253675008192658">
        <ele>1224.8599999999999</ele>
        <time>2018-10-19T10:12:49Z</time>
      </trkpt>
      <trkpt lat="60.790277039632201" lon="6.253580963239074">
        <ele>1225.8199999999999</ele>
        <time>2018-10-19T10:13:03Z</time>
      </trkpt>
      <trkpt lat="60.790156004950404" lon="6.253576017916203">
        <ele>1225.3399999999999</ele>
        <time>2018-10-19T10:13:11Z</time>
      </trkpt>
      <trkpt lat="60.790086016058922" lon="6.253787996247411">
        <ele>1224.8599999999999</ele>
        <time>2018-10-19T10:13:17Z</time>
      </trkpt>
      <trkpt lat="60.789999011904001" lon="6.253880029544234">
        <ele>1225.3399999999999</ele>
        <time>2018-10-19T10:13:23Z</time>
      </trkpt>
      <trkpt lat="60.789899015799165" lon="6.253886986523867">
        <ele>1226.3</ele>
        <time>2018-10-19T10:13:29Z</time>
      </trkpt>
      <trkpt lat="60.789783010259271" lon="6.253902995958924">
        <ele>1225.3399999999999</ele>
        <time>2018-10-19T10:13:35Z</time>
      </trkpt>
      <trkpt lat="60.789712015539408" lon="6.253761006519198">
        <ele>1225.3399999999999</ele>
        <time>2018-10-19T10:13:41Z</time>
      </trkpt>
      <trkpt lat="60.789508000016212" lon="6.253740973770618">
        <ele>1224.8599999999999</ele>
        <time>2018-10-19T10:13:53Z</time>
      </trkpt>
      <trkpt lat="60.789411021396518" lon="6.25374399125576">
        <ele>1225.8199999999999</ele>
        <time>2018-10-19T10:13:59Z</time>
      </trkpt>
      <trkpt lat="60.789318988099694" lon="6.253712978214026">
        <ele>1226.3</ele>
        <time>2018-10-19T10:14:05Z</time>
      </trkpt>
      <trkpt lat="60.789195019751787" lon="6.253757989034057">
        <ele>1226.3</ele>
        <time>2018-10-19T10:14:11Z</time>
      </trkpt>
      <trkpt lat="60.789011958986521" lon="6.253787996247411">
        <ele>1227.26</ele>
        <time>2018-10-19T10:14:21Z</time>
      </trkpt>
      <trkpt lat="60.788887990638614" lon="6.253787996247411">
        <ele>1226.3</ele>
        <time>2018-10-19T10:14:29Z</time>
      </trkpt>
      <trkpt lat="60.788780031725764" lon="6.253797970712185">
        <ele>1225.8199999999999</ele>
        <time>2018-10-19T10:14:35Z</time>
      </trkpt>
      <trkpt lat="60.788641981780529" lon="6.253821020945907">
        <ele>1225.8199999999999</ele>
        <time>2018-10-19T10:14:43Z</time>
      </trkpt>
      <trkpt lat="60.788525976240635" lon="6.253887992352247">
        <ele>1224.8599999999999</ele>
        <time>2018-10-19T10:14:50Z</time>
      </trkpt>
      <trkpt lat="60.788478031754494" lon="6.253956975415349">
        <ele>1224.8599999999999</ele>
        <time>2018-10-19T10:14:55Z</time>
      </trkpt>
      <trkpt lat="60.788331013172865" lon="6.254042973741889">
        <ele>1225.3399999999999</ele>
        <time>2018-10-19T10:15:05Z</time>
      </trkpt>
      <trkpt lat="60.78819002956152" lon="6.254073986783624">
        <ele>1224.3800000000001</ele>
        <time>2018-10-19T10:15:14Z</time>
      </trkpt>
      <trkpt lat="60.788109982386231" lon="6.254110028967261">
        <ele>1223.4200000000001</ele>
        <time>2018-10-19T10:15:19Z</time>
      </trkpt>
      <trkpt lat="60.787987019866705" lon="6.254210025072098">
        <ele>1222.9300000000001</ele>
        <time>2018-10-19T10:15:26Z</time>
      </trkpt>
      <trkpt lat="60.787861961871386" lon="6.254242965951562">
        <ele>1220.53</ele>
        <time>2018-10-19T10:15:33Z</time>
      </trkpt>
      <trkpt lat="60.787857016548514" lon="6.254243971779943">
        <ele>1220.05</ele>
        <time>2018-10-19T10:15:34Z</time>
      </trkpt>
      <trkpt lat="60.787779986858368" lon="6.254197033122182">
        <ele>1220.05</ele>
        <time>2018-10-19T10:16:07Z</time>
      </trkpt>
      <trkpt lat="60.787663981318474" lon="6.254122015088797">
        <ele>1220.05</ele>
        <time>2018-10-19T10:16:15Z</time>
      </trkpt>
      <trkpt lat="60.78756901435554" lon="6.254077004268765">
        <ele>1219.0899999999999</ele>
        <time>2018-10-19T10:16:23Z</time>
      </trkpt>
      <trkpt lat="60.787452002987266" lon="6.253947000950575">
        <ele>1219.0899999999999</ele>
        <time>2018-10-19T10:16:35Z</time>
      </trkpt>
      <trkpt lat="60.787299033254385" lon="6.25397901982069">
        <ele>1218.6099999999999</ele>
        <time>2018-10-19T10:16:44Z</time>
      </trkpt>
      <trkpt lat="60.787210017442703" lon="6.253986982628703">
        <ele>1219.5699999999999</ele>
        <time>2018-10-19T10:16:50Z</time>
      </trkpt>
      <trkpt lat="60.787119995802641" lon="6.253949012607336">
        <ele>1219.5699999999999</ele>
        <time>2018-10-19T10:16:55Z</time>
      </trkpt>
      <trkpt lat="60.78698898665607" lon="6.253868965432048">
        <ele>1219.5699999999999</ele>
        <time>2018-10-19T10:17:07Z</time>
      </trkpt>
      <trkpt lat="60.786958979442716" lon="6.253793025389314">
        <ele>1219.0899999999999</ele>
        <time>2018-10-19T10:17:11Z</time>
      </trkpt>
      <trkpt lat="60.786951016634703" lon="6.253672996535897">
        <ele>1217.6500000000001</ele>
        <time>2018-10-19T10:17:17Z</time>
      </trkpt>
      <trkpt lat="60.786852026358247" lon="6.253492031246424">
        <ele>1218.6099999999999</ele>
        <time>2018-10-19T10:17:25Z</time>
      </trkpt>
      <trkpt lat="60.786740966141224" lon="6.253416007384658">
        <ele>1219.0899999999999</ele>
        <time>2018-10-19T10:17:32Z</time>
      </trkpt>
      <trkpt lat="60.78658003360033" lon="6.253410978242755">
        <ele>1221.01</ele>
        <time>2018-10-19T10:17:43Z</time>
      </trkpt>
      <trkpt lat="60.786463022232056" lon="6.253397986292839">
        <ele>1222.9300000000001</ele>
        <time>2018-10-19T10:17:51Z</time>
      </trkpt>
      <trkpt lat="60.786382975056767" lon="6.253318022936583">
        <ele>1224.8599999999999</ele>
        <time>2018-10-19T10:17:58Z</time>
      </trkpt>
      <trkpt lat="60.78632497228682" lon="6.253239987418056">
        <ele>1226.78</ele>
        <time>2018-10-19T10:18:04Z</time>
      </trkpt>
      <trkpt lat="60.786247020587325" lon="6.253177039325237">
        <ele>1229.1800000000001</ele>
        <time>2018-10-19T10:18:11Z</time>
      </trkpt>
      <trkpt lat="60.786164039745927" lon="6.25318399630487">
        <ele>1232.0699999999999</ele>
        <time>2018-10-19T10:18:20Z</time>
      </trkpt>
      <trkpt lat="60.785992965102196" lon="6.25309900380671">
        <ele>1234.47</ele>
        <time>2018-10-19T10:18:35Z</time>
      </trkpt>
      <trkpt lat="60.785839995369315" lon="6.253114007413387">
        <ele>1234.95</ele>
        <time>2018-10-19T10:18:48Z</time>
      </trkpt>
      <trkpt lat="60.785694988444448" lon="6.253046030178666">
        <ele>1236.8699999999999</ele>
        <time>2018-10-19T10:19:01Z</time>
      </trkpt>
      <trkpt lat="60.785605972632766" lon="6.252980986610055">
        <ele>1237.8299999999999</ele>
        <time>2018-10-19T10:19:08Z</time>
      </trkpt>
      <trkpt lat="60.785543024539948" lon="6.252959026023746">
        <ele>1237.8299999999999</ele>
        <time>2018-10-19T10:19:14Z</time>
      </trkpt>
      <trkpt lat="60.78550798818469" lon="6.252955002710223">
        <ele>1238.8</ele>
        <time>2018-10-19T10:19:18Z</time>
      </trkpt>
      <trkpt lat="60.785413021221757" lon="6.252811001613736">
        <ele>1240.72</ele>
        <time>2018-10-19T10:19:28Z</time>
      </trkpt>
      <trkpt lat="60.785367004573345" lon="6.252793986350298">
        <ele>1240.24</ele>
        <time>2018-10-19T10:19:31Z</time>
      </trkpt>
      <trkpt lat="60.785273965448141" lon="6.252674041315913">
        <ele>1240.24</ele>
        <time>2018-10-19T10:19:39Z</time>
      </trkpt>
      <trkpt lat="60.785252004861832" lon="6.252644034102559">
        <ele>1241.2</ele>
        <time>2018-10-19T10:19:42Z</time>
      </trkpt>
      <trkpt lat="60.78518402762711" lon="6.252579996362329">
        <ele>1244.5599999999999</ele>
        <time>2018-10-19T10:19:49Z</time>
      </trkpt>
      <trkpt lat="60.785144967958331" lon="6.252544037997723">
        <ele>1246.49</ele>
        <time>2018-10-19T10:19:54Z</time>
      </trkpt>
      <trkpt lat="60.785117978230119" lon="6.252533979713917">
        <ele>1247.9300000000001</ele>
        <time>2018-10-19T10:19:57Z</time>
      </trkpt>
      <trkpt lat="60.784999961033463" lon="6.252486035227776">
        <ele>1248.8900000000001</ele>
        <time>2018-10-19T10:20:10Z</time>
      </trkpt>
      <trkpt lat="60.784967020153999" lon="6.252470025792718">
        <ele>1250.8099999999999</ele>
        <time>2018-10-19T10:20:16Z</time>
      </trkpt>
      <trkpt lat="60.784871969372034" lon="6.252430966123939">
        <ele>1254.1800000000001</ele>
        <time>2018-10-19T10:20:31Z</time>
      </trkpt>
      <trkpt lat="60.784835005179048" lon="6.252388972789049">
        <ele>1255.1400000000001</ele>
        <time>2018-10-19T10:20:36Z</time>
      </trkpt>
      <trkpt lat="60.784741966053843" lon="6.252357037737966">
        <ele>1256.5799999999999</ele>
        <time>2018-10-19T10:20:46Z</time>
      </trkpt>
      <trkpt lat="60.78458396717906" lon="6.252419985830784">
        <ele>1258.98</ele>
        <time>2018-10-19T10:21:00Z</time>
      </trkpt>
      <trkpt lat="60.784492017701268" lon="6.252424009144306">
        <ele>1258.02</ele>
        <time>2018-10-19T10:21:07Z</time>
      </trkpt>
      <trkpt lat="60.784386992454529" lon="6.25245301052928">
        <ele>1258.5</ele>
        <time>2018-10-19T10:21:14Z</time>
      </trkpt>
      <trkpt lat="60.784314991906285" lon="6.252442030236125">
        <ele>1261.8699999999999</ele>
        <time>2018-10-19T10:21:27Z</time>
      </trkpt>
      <trkpt lat="60.784246008843184" lon="6.252449993044138">
        <ele>1263.79</ele>
        <time>2018-10-19T10:21:38Z</time>
      </trkpt>
      <trkpt lat="60.784228993579745" lon="6.252434989437461">
        <ele>1265.23</ele>
        <time>2018-10-19T10:21:54Z</time>
      </trkpt>
      <trkpt lat="60.784209966659546" lon="6.252404982224107">
        <ele>1265.71</ele>
        <time>2018-10-19T10:21:58Z</time>
      </trkpt>
      <trkpt lat="60.784139977768064" lon="6.252391990274191">
        <ele>1268.1199999999999</ele>
        <time>2018-10-19T10:22:05Z</time>
      </trkpt>
      <trkpt lat="60.784060014411807" lon="6.252375980839133">
        <ele>1271.48</ele>
        <time>2018-10-19T10:22:15Z</time>
      </trkpt>
      <trkpt lat="60.783929005265236" lon="6.252375980839133">
        <ele>1273.8800000000001</ele>
        <time>2018-10-19T10:22:29Z</time>
      </trkpt>
      <trkpt lat="60.783855998888612" lon="6.252371035516262">
        <ele>1275.8099999999999</ele>
        <time>2018-10-19T10:22:40Z</time>
      </trkpt>
      <trkpt lat="60.783724989742041" lon="6.252349996939302">
        <ele>1277.25</ele>
        <time>2018-10-19T10:22:57Z</time>
      </trkpt>
      <trkpt lat="60.783675033599138" lon="6.252315966412425">
        <ele>1274.8499999999999</ele>
        <time>2018-10-19T10:23:07Z</time>
      </trkpt>
      <trkpt lat="60.783670004457235" lon="6.252271039411426">
        <ele>1273.4000000000001</ele>
        <time>2018-10-19T10:23:17Z</time>
      </trkpt>
      <trkpt lat="60.783671010285616" lon="6.252268021926284">
        <ele>1274.3599999999999</ele>
        <time>2018-10-19T10:23:42Z</time>
      </trkpt>
      <trkpt lat="60.783662963658571" lon="6.252179006114602">
        <ele>1272.9200000000001</ele>
        <time>2018-10-19T10:23:47Z</time>
      </trkpt>
      <trkpt lat="60.783631028607488" lon="6.25213198363781">
        <ele>1271.96</ele>
        <time>2018-10-19T10:23:52Z</time>
      </trkpt>
      <trkpt lat="60.783515023067594" lon="6.252164002507925">
        <ele>1268.5999999999999</ele>
        <time>2018-10-19T10:24:02Z</time>
      </trkpt>
      <trkpt lat="60.783401029184461" lon="6.252280008047819">
        <ele>1269.0799999999999</ele>
        <time>2018-10-19T10:24:13Z</time>
      </trkpt>
      <trkpt lat="60.783226015046239" lon="6.252351002767682">
        <ele>1269.0799999999999</ele>
        <time>2018-10-19T10:24:29Z</time>
      </trkpt>
      <trkpt lat="60.783029962331057" lon="6.252405988052487">
        <ele>1270.04</ele>
        <time>2018-10-19T10:24:46Z</time>
      </trkpt>
      <trkpt lat="60.782888978719711" lon="6.252327030524612">
        <ele>1271.48</ele>
        <time>2018-10-19T10:24:59Z</time>
      </trkpt>
      <trkpt lat="60.782739026471972" lon="6.252340022474527">
        <ele>1273.4000000000001</ele>
        <time>2018-10-19T10:25:14Z</time>
      </trkpt>
      <trkpt lat="60.782642969861627" lon="6.252383021637797">
        <ele>1277.25</ele>
        <time>2018-10-19T10:25:24Z</time>
      </trkpt>
      <trkpt lat="60.782523024827242" lon="6.252397019416094">
        <ele>1280.1300000000001</ele>
        <time>2018-10-19T10:25:36Z</time>
      </trkpt>
      <trkpt lat="60.782445995137095" lon="6.252381009981036">
        <ele>1281.0899999999999</ele>
        <time>2018-10-19T10:25:45Z</time>
      </trkpt>
      <trkpt lat="60.782366031780839" lon="6.252352008596063">
        <ele>1280.1300000000001</ele>
        <time>2018-10-19T10:25:52Z</time>
      </trkpt>
      <trkpt lat="60.782339964061975" lon="6.252355026081204">
        <ele>1279.1700000000001</ele>
        <time>2018-10-19T10:25:55Z</time>
      </trkpt>
      <trkpt lat="60.782230999320745" lon="6.252339016646147">
        <ele>1281.0899999999999</ele>
        <time>2018-10-19T10:26:08Z</time>
      </trkpt>
      <trkpt lat="60.782153969630599" lon="6.252274978905916">
        <ele>1284.46</ele>
        <time>2018-10-19T10:26:19Z</time>
      </trkpt>
      <trkpt lat="60.78213301487267" lon="6.252280008047819">
        <ele>1285.4200000000001</ele>
        <time>2018-10-19T10:26:22Z</time>
      </trkpt>
      <trkpt lat="60.782057996839285" lon="6.252146987244487">
        <ele>1287.8199999999999</ele>
        <time>2018-10-19T10:26:34Z</time>
      </trkpt>
      <trkpt lat="60.782052967697382" lon="6.252138018608093">
        <ele>1287.8199999999999</ele>
        <time>2018-10-19T10:26:35Z</time>
      </trkpt>
      <trkpt lat="60.78202597796917" lon="6.251965016126633">
        <ele>1287.8199999999999</ele>
        <time>2018-10-19T10:26:44Z</time>
      </trkpt>
      <trkpt lat="60.782014997676015" lon="6.251969961449504">
        <ele>1288.3</ele>
        <time>2018-10-19T10:26:45Z</time>
      </trkpt>
      <trkpt lat="60.781979039311409" lon="6.251912964507937">
        <ele>1289.75</ele>
        <time>2018-10-19T10:26:49Z</time>
      </trkpt>
      <trkpt lat="60.781844006851315" lon="6.251863008365035">
        <ele>1291.6700000000001</ele>
        <time>2018-10-19T10:27:02Z</time>
      </trkpt>
      <trkpt lat="60.781798996031284" lon="6.251857979223132">
        <ele>1291.1900000000001</ele>
        <time>2018-10-19T10:27:10Z</time>
      </trkpt>
      <trkpt lat="60.78174602240324" lon="6.251844987273216">
        <ele>1290.71</ele>
        <time>2018-10-19T10:27:14Z</time>
      </trkpt>
      <trkpt lat="60.78157402575016" lon="6.251771980896592">
        <ele>1293.1099999999999</ele>
        <time>2018-10-19T10:27:30Z</time>
      </trkpt>
      <trkpt lat="60.781563967466354" lon="6.251762006431818">
        <ele>1293.5899999999999</ele>
        <time>2018-10-19T10:27:31Z</time>
      </trkpt>
      <trkpt lat="60.781437987461686" lon="6.25168296508491">
        <ele>1296.48</ele>
        <time>2018-10-19T10:27:44Z</time>
      </trkpt>
      <trkpt lat="60.781330028548837" lon="6.2515729945153">
        <ele>1298.8800000000001</ele>
        <time>2018-10-19T10:27:57Z</time>
      </trkpt>
      <trkpt lat="60.781236989423633" lon="6.251489007845521">
        <ele>1300.8</ele>
        <time>2018-10-19T10:28:08Z</time>
      </trkpt>
      <trkpt lat="60.781231038272381" lon="6.251494036987424">
        <ele>1300.3199999999999</ele>
        <time>2018-10-19T10:28:09Z</time>
      </trkpt>
      <trkpt lat="60.78114403411746" lon="6.251446008682251">
        <ele>1301.28</ele>
        <time>2018-10-19T10:28:20Z</time>
      </trkpt>
      <trkpt lat="60.781029034405947" lon="6.251398986205459">
        <ele>1304.6500000000001</ele>
        <time>2018-10-19T10:28:33Z</time>
      </trkpt>
      <trkpt lat="60.78101696446538" lon="6.25138096511364">
        <ele>1305.1300000000001</ele>
        <time>2018-10-19T10:28:35Z</time>
      </trkpt>
      <trkpt lat="60.780859971418977" lon="6.251264037564397">
        <ele>1306.0899999999999</ele>
        <time>2018-10-19T10:28:51Z</time>
      </trkpt>
      <trkpt lat="60.780847985297441" lon="6.251270994544029">
        <ele>1305.6099999999999</ele>
        <time>2018-10-19T10:28:53Z</time>
      </trkpt>
      <trkpt lat="60.78082300722599" lon="6.25135799869895">
        <ele>1304.1700000000001</ele>
        <time>2018-10-19T10:28:59Z</time>
      </trkpt>
      <trkpt lat="60.780766010284424" lon="6.251369984820485">
        <ele>1304.6500000000001</ele>
        <time>2018-10-19T10:29:05Z</time>
      </trkpt>
      <trkpt lat="60.780723011121154" lon="6.251379959285259">
        <ele>1304.6500000000001</ele>
        <time>2018-10-19T10:29:09Z</time>
      </trkpt>
      <trkpt lat="60.78058697283268" lon="6.25138096511364">
        <ele>1307.05</ele>
        <time>2018-10-19T10:29:24Z</time>
      </trkpt>
      <trkpt lat="60.780456969514489" lon="6.251389011740685">
        <ele>1310.4100000000001</ele>
        <time>2018-10-19T10:29:38Z</time>
      </trkpt>
      <trkpt lat="60.780333001166582" lon="6.251409966498613">
        <ele>1312.8199999999999</ele>
        <time>2018-10-19T10:29:47Z</time>
      </trkpt>
      <trkpt lat="60.780325960367918" lon="6.251396974548698">
        <ele>1312.8199999999999</ele>
        <time>2018-10-19T10:29:48Z</time>
      </trkpt>
      <trkpt lat="60.780251026153564" lon="6.251409966498613">
        <ele>1314.74</ele>
        <time>2018-10-19T10:29:56Z</time>
      </trkpt>
      <trkpt lat="60.780139965936542" lon="6.251405021175742">
        <ele>1318.0999999999999</ele>
        <time>2018-10-19T10:30:07Z</time>
      </trkpt>
      <trkpt lat="60.780009962618351" lon="6.251394040882587">
        <ele>1320.99</ele>
        <time>2018-10-19T10:30:21Z</time>
      </trkpt>
      <trkpt lat="60.779992025345564" lon="6.251387000083923">
        <ele>1321.95</ele>
        <time>2018-10-19T10:30:23Z</time>
      </trkpt>
      <trkpt lat="60.779936034232378" lon="6.251375013962388">
        <ele>1324.3499999999999</ele>
        <time>2018-10-19T10:30:29Z</time>
      </trkpt>
      <trkpt lat="60.77976998873055" lon="6.251451037824154">
        <ele>1326.28</ele>
        <time>2018-10-19T10:30:46Z</time>
      </trkpt>
      <trkpt lat="60.77974702231586" lon="6.251448020339012">
        <ele>1328.2</ele>
        <time>2018-10-19T10:30:49Z</time>
      </trkpt>
      <trkpt lat="60.77970402315259" lon="6.251475010067225">
        <ele>1329.6400000000001</ele>
        <time>2018-10-19T10:30:54Z</time>
      </trkpt>
      <trkpt lat="60.779538983479142" lon="6.25152999535203">
        <ele>1332.04</ele>
        <time>2018-10-19T10:31:09Z</time>
      </trkpt>
      <trkpt lat="60.779364975169301" lon="6.251513985916972">
        <ele>1333.01</ele>
        <time>2018-10-19T10:31:23Z</time>
      </trkpt>
      <trkpt lat="60.779224997386336" lon="6.251466041430831">
        <ele>1336.3699999999999</ele>
        <time>2018-10-19T10:31:38Z</time>
      </trkpt>
      <trkpt lat="60.77916800044477" lon="6.251437962055206">
        <ele>1339.25</ele>
        <time>2018-10-19T10:31:45Z</time>
      </trkpt>
      <trkpt lat="60.779037997126579" lon="6.251413989812136">
        <ele>1342.6199999999999</ele>
        <time>2018-10-19T10:31:59Z</time>
      </trkpt>
      <trkpt lat="60.778912017121911" lon="6.251379959285259">
        <ele>1345.5</ele>
        <time>2018-10-19T10:32:14Z</time>
      </trkpt>
      <trkpt lat="60.778873963281512" lon="6.251379959285259">
        <ele>1348.3900000000001</ele>
        <time>2018-10-19T10:32:19Z</time>
      </trkpt>
      <trkpt lat="60.778768016025424" lon="6.25142396427691">
        <ele>1349.3499999999999</ele>
        <time>2018-10-19T10:32:35Z</time>
      </trkpt>
      <trkpt lat="60.778658967465162" lon="6.251447014510632">
        <ele>1352.23</ele>
        <time>2018-10-19T10:32:46Z</time>
      </trkpt>
      <trkpt lat="60.778558971360326" lon="6.251447014510632">
        <ele>1355.5999999999999</ele>
        <time>2018-10-19T10:32:57Z</time>
      </trkpt>
      <trkpt lat="60.778461992740631" lon="6.251360010355711">
        <ele>1358.48</ele>
        <time>2018-10-19T10:33:10Z</time>
      </trkpt>
      <trkpt lat="60.778412958607078" lon="6.251350035890937">
        <ele>1361.8399999999999</ele>
        <time>2018-10-19T10:33:15Z</time>
      </trkpt>
      <trkpt lat="60.778368031606078" lon="6.251340983435512">
        <ele>1360.4000000000001</ele>
        <time>2018-10-19T10:33:20Z</time>
      </trkpt>
      <trkpt lat="60.778223024681211" lon="6.251303013414145">
        <ele>1363.29</ele>
        <time>2018-10-19T10:33:38Z</time>
      </trkpt>
      <trkpt lat="60.778165021911263" lon="6.25129203312099">
        <ele>1364.25</ele>
        <time>2018-10-19T10:33:44Z</time>
      </trkpt>
      <trkpt lat="60.778098972514272" lon="6.251283986493945">
        <ele>1365.6900000000001</ele>
        <time>2018-10-19T10:33:52Z</time>
      </trkpt>
      <trkpt lat="60.778030995279551" lon="6.251311982050538">
        <ele>1365.6900000000001</ele>
        <time>2018-10-19T10:34:03Z</time>
      </trkpt>
      <trkpt lat="60.777953965589404" lon="6.251276023685932">
        <ele>1367.1300000000001</ele>
        <time>2018-10-19T10:34:12Z</time>
      </trkpt>
      <trkpt lat="60.777888000011444" lon="6.251248028129339">
        <ele>1368.5699999999999</ele>
        <time>2018-10-19T10:34:21Z</time>
      </trkpt>
      <trkpt lat="60.777762020006776" lon="6.251258002594113">
        <ele>1370.5</ele>
        <time>2018-10-19T10:34:34Z</time>
      </trkpt>
      <trkpt lat="60.77766302973032" lon="6.251253979280591">
        <ele>1373.8599999999999</ele>
        <time>2018-10-19T10:34:46Z</time>
      </trkpt>
      <trkpt lat="60.777552975341678" lon="6.251242998987436">
        <ele>1375.3</ele>
        <time>2018-10-19T10:34:59Z</time>
      </trkpt>
      <trkpt lat="60.777545012533665" lon="6.251245010644198">
        <ele>1375.3</ele>
        <time>2018-10-19T10:35:00Z</time>
      </trkpt>
      <trkpt lat="60.777463959529996" lon="6.2512949667871">
        <ele>1375.78</ele>
        <time>2018-10-19T10:35:07Z</time>
      </trkpt>
      <trkpt lat="60.777361029759049" lon="6.251293960958719">
        <ele>1378.6700000000001</ele>
        <time>2018-10-19T10:35:19Z</time>
      </trkpt>
      <trkpt lat="60.777236977592111" lon="6.251263031736016">
        <ele>1379.1500000000001</ele>
        <time>2018-10-19T10:35:33Z</time>
      </trkpt>
      <trkpt lat="60.777179980650544" lon="6.251233024522662">
        <ele>1382.51</ele>
        <time>2018-10-19T10:35:40Z</time>
      </trkpt>
      <trkpt lat="60.777047965675592" lon="6.251318017020822">
        <ele>1383.96</ele>
        <time>2018-10-19T10:35:55Z</time>
      </trkpt>
      <trkpt lat="60.776983005926013" lon="6.251320028677583">
        <ele>1386.8399999999999</ele>
        <time>2018-10-19T10:36:03Z</time>
      </trkpt>
      <trkpt lat="60.776844033971429" lon="6.251391023397446">
        <ele>1385.8800000000001</ele>
        <time>2018-10-19T10:36:18Z</time>
      </trkpt>
      <trkpt lat="60.776831964030862" lon="6.251399992033839">
        <ele>1386.3599999999999</ele>
        <time>2018-10-19T10:36:20Z</time>
      </trkpt>
      <trkpt lat="60.776711013168097" lon="6.251517003402114">
        <ele>1386.3599999999999</ele>
        <time>2018-10-19T10:36:34Z</time>
      </trkpt>
      <trkpt lat="60.776612022891641" lon="6.251695035025477">
        <ele>1387.8</ele>
        <time>2018-10-19T10:36:48Z</time>
      </trkpt>
      <trkpt lat="60.776511020958424" lon="6.251709032803774">
        <ele>1390.6800000000001</ele>
        <time>2018-10-19T10:36:59Z</time>
      </trkpt>
      <trkpt lat="60.776466010138392" lon="6.251712972298265">
        <ele>1394.05</ele>
        <time>2018-10-19T10:37:06Z</time>
      </trkpt>
      <trkpt lat="60.776378000155091" lon="6.251681037247181">
        <ele>1395.01</ele>
        <time>2018-10-19T10:37:16Z</time>
      </trkpt>
      <trkpt lat="60.776292001828551" lon="6.251526977866888">
        <ele>1395.01</ele>
        <time>2018-10-19T10:37:28Z</time>
      </trkpt>
      <trkpt lat="60.77622695825994" lon="6.251452965661883">
        <ele>1394.05</ele>
        <time>2018-10-19T10:37:37Z</time>
      </trkpt>
      <trkpt lat="60.7761599868536" lon="6.251428993418813">
        <ele>1396.9300000000001</ele>
        <time>2018-10-19T10:37:45Z</time>
      </trkpt>
      <trkpt lat="60.77611698769033" lon="6.25142203643918">
        <ele>1398.3699999999999</ele>
        <time>2018-10-19T10:37:49Z</time>
      </trkpt>
      <trkpt lat="60.776107013225555" lon="6.25142396427691">
        <ele>1398.8599999999999</ele>
        <time>2018-10-19T10:37:50Z</time>
      </trkpt>
      <trkpt lat="60.776084968820214" lon="6.25142396427691">
        <ele>1399.8199999999999</ele>
        <time>2018-10-19T10:37:52Z</time>
      </trkpt>
      <trkpt lat="60.775926969945431" lon="6.251403009518981">
        <ele>1402.22</ele>
        <time>2018-10-19T10:38:09Z</time>
      </trkpt>
      <trkpt lat="60.775846000760794" lon="6.251409966498613">
        <ele>1404.1400000000001</ele>
        <time>2018-10-19T10:38:18Z</time>
      </trkpt>
      <trkpt lat="60.775752039626241" lon="6.251474004238844">
        <ele>1406.0699999999999</ele>
        <time>2018-10-19T10:38:32Z</time>
      </trkpt>
      <trkpt lat="60.775698982179165" lon="6.251656981185079">
        <ele>1405.5799999999999</ele>
        <time>2018-10-19T10:38:44Z</time>
      </trkpt>
      <trkpt lat="60.775551963597536" lon="6.251675002276897">
        <ele>1405.0999999999999</ele>
        <time>2018-10-19T10:38:58Z</time>
      </trkpt>
      <trkpt lat="60.775440987199545" lon="6.251697968691587">
        <ele>1404.1400000000001</ele>
        <time>2018-10-19T10:39:09Z</time>
      </trkpt>
      <trkpt lat="60.775411985814571" lon="6.251694029197097">
        <ele>1405.5799999999999</ele>
        <time>2018-10-19T10:39:12Z</time>
      </trkpt>
      <trkpt lat="60.775376027449965" lon="6.251690005883575">
        <ele>1407.51</ele>
        <time>2018-10-19T10:39:16Z</time>
      </trkpt>
      <trkpt lat="60.775348031893373" lon="6.251706015318632">
        <ele>1408.95</ele>
        <time>2018-10-19T10:39:19Z</time>
      </trkpt>
      <trkpt lat="60.775232026353478" lon="6.25176502391696">
        <ele>1410.8699999999999</ele>
        <time>2018-10-19T10:39:31Z</time>
      </trkpt>
      <trkpt lat="60.775135969743133" lon="6.251800982281566">
        <ele>1409.4300000000001</ele>
        <time>2018-10-19T10:39:43Z</time>
      </trkpt>
      <trkpt lat="60.775088025256991" lon="6.251858985051513">
        <ele>1410.8699999999999</ele>
        <time>2018-10-19T10:39:52Z</time>
      </trkpt>
      <trkpt lat="60.775018036365509" lon="6.251864014193416">
        <ele>1410.8699999999999</ele>
        <time>2018-10-19T10:40:00Z</time>
      </trkpt>
      <trkpt lat="60.774909993633628" lon="6.251926962286234">
        <ele>1412.79</ele>
        <time>2018-10-19T10:40:16Z</time>
      </trkpt>
      <trkpt lat="60.774928014725447" lon="6.25200399197638">
        <ele>1413.28</ele>
        <time>2018-10-19T10:40:22Z</time>
      </trkpt>
      <trkpt lat="60.774922985583544" lon="6.252040034160018">
        <ele>1414.24</ele>
        <time>2018-10-19T10:40:25Z</time>
      </trkpt>
      <trkpt lat="60.774885015562177" lon="6.252136006951332">
        <ele>1416.6400000000001</ele>
        <time>2018-10-19T10:40:35Z</time>
      </trkpt>
      <trkpt lat="60.774872023612261" lon="6.252147993072867">
        <ele>1417.5999999999999</ele>
        <time>2018-10-19T10:40:37Z</time>
      </trkpt>
      <trkpt lat="60.774769010022283" lon="6.252254024147987">
        <ele>1419.04</ele>
        <time>2018-10-19T10:40:49Z</time>
      </trkpt>
      <trkpt lat="60.774745037779212" lon="6.252269027754664">
        <ele>1419.52</ele>
        <time>2018-10-19T10:40:52Z</time>
      </trkpt>
      <trkpt lat="60.774673037230968" lon="6.252323007211089">
        <ele>1421.45</ele>
        <time>2018-10-19T10:41:03Z</time>
      </trkpt>
      <trkpt lat="60.774608999490738" lon="6.252314960584045">
        <ele>1423.8499999999999</ele>
        <time>2018-10-19T10:41:14Z</time>
      </trkpt>
      <trkpt lat="60.774589972570539" lon="6.252315966412425">
        <ele>1425.29</ele>
        <time>2018-10-19T10:41:17Z</time>
      </trkpt>
      <trkpt lat="60.774542028084397" lon="6.252302974462509">
        <ele>1428.1800000000001</ele>
        <time>2018-10-19T10:41:24Z</time>
      </trkpt>
      <trkpt lat="60.774514032527804" lon="6.252300962805748">
        <ele>1429.6199999999999</ele>
        <time>2018-10-19T10:41:27Z</time>
      </trkpt>
      <trkpt lat="60.774447983130813" lon="6.252308003604412">
        <ele>1432.5</ele>
        <time>2018-10-19T10:41:35Z</time>
      </trkpt>
      <trkpt lat="60.774360978975892" lon="6.252380004152656">
        <ele>1431.54</ele>
        <time>2018-10-19T10:41:44Z</time>
      </trkpt>
      <trkpt lat="60.774313034489751" lon="6.252382015809417">
        <ele>1432.02</ele>
        <time>2018-10-19T10:41:50Z</time>
      </trkpt>
      <trkpt lat="60.774256037548184" lon="6.25239098444581">
        <ele>1431.54</ele>
        <time>2018-10-19T10:41:57Z</time>
      </trkpt>
      <trkpt lat="60.774212032556534" lon="6.252463990822434">
        <ele>1429.6199999999999</ele>
        <time>2018-10-19T10:42:02Z</time>
      </trkpt>
      <trkpt lat="60.774222007021308" lon="6.252552000805736">
        <ele>1429.6199999999999</ele>
        <time>2018-10-19T10:42:07Z</time>
      </trkpt>
      <trkpt lat="60.774191999807954" lon="6.252617966383696">
        <ele>1427.7</ele>
        <time>2018-10-19T10:42:12Z</time>
      </trkpt>
      <trkpt lat="60.77418202534318" lon="6.252662977203727">
        <ele>1426.73</ele>
        <time>2018-10-19T10:42:14Z</time>
      </trkpt>
      <trkpt lat="60.774187976494431" lon="6.252717962488532">
        <ele>1427.7</ele>
        <time>2018-10-19T10:42:23Z</time>
      </trkpt>
      <trkpt lat="60.774166015908122" lon="6.252747969701886">
        <ele>1429.6199999999999</ele>
        <time>2018-10-19T10:42:30Z</time>
      </trkpt>
      <trkpt lat="60.77413902617991" lon="6.252731960266829">
        <ele>1432.5</ele>
        <time>2018-10-19T10:42:46Z</time>
      </trkpt>
      <trkpt lat="60.77413902617991" lon="6.252731960266829">
        <ele>1433.9400000000001</ele>
        <time>2018-10-19T10:43:26Z</time>
      </trkpt>
      <trkpt lat="60.774123016744852" lon="6.252745036035776">
        <ele>1433.46</ele>
        <time>2018-10-19T10:43:50Z</time>
      </trkpt>
      <trkpt lat="60.774125028401613" lon="6.252742018550634">
        <ele>1432.5</ele>
        <time>2018-10-19T10:44:01Z</time>
      </trkpt>
      <trkpt lat="60.774072976782918" lon="6.252750987187028">
        <ele>1432.5</ele>
        <time>2018-10-19T10:44:16Z</time>
      </trkpt>
      <trkpt lat="60.77405696734786" lon="6.252780994400382">
        <ele>1432.02</ele>
        <time>2018-10-19T10:44:18Z</time>
      </trkpt>
      <trkpt lat="60.773939033970237" lon="6.252847965806723">
        <ele>1429.1400000000001</ele>
        <time>2018-10-19T10:44:28Z</time>
      </trkpt>
      <trkpt lat="60.773921012878418" lon="6.252845032140613">
        <ele>1428.1800000000001</ele>
        <time>2018-10-19T10:44:30Z</time>
      </trkpt>
      <trkpt lat="60.773854963481426" lon="6.252858024090529">
        <ele>1429.1400000000001</ele>
        <time>2018-10-19T10:44:42Z</time>
      </trkpt>
      <trkpt lat="60.773856975138187" lon="6.252851989120245">
        <ele>1429.6199999999999</ele>
        <time>2018-10-19T10:45:12Z</time>
      </trkpt>
      <trkpt lat="60.773844989016652" lon="6.252856012433767">
        <ele>1429.1400000000001</ele>
        <time>2018-10-19T10:45:17Z</time>
      </trkpt>
      <trkpt lat="60.773822022601962" lon="6.252852994948626">
        <ele>1427.7</ele>
        <time>2018-10-19T10:45:22Z</time>
      </trkpt>
      <trkpt lat="60.773820010945201" lon="6.252867998555303">
        <ele>1426.73</ele>
        <time>2018-10-19T10:45:24Z</time>
      </trkpt>
      <trkpt lat="60.773770976811647" lon="6.252941004931927">
        <ele>1423.3699999999999</ele>
        <time>2018-10-19T10:45:28Z</time>
      </trkpt>
      <trkpt lat="60.773767037317157" lon="6.253025997430086">
        <ele>1423.3699999999999</ele>
        <time>2018-10-19T10:45:35Z</time>
      </trkpt>
      <trkpt lat="60.773834008723497" lon="6.253131022676826">
        <ele>1420.97</ele>
        <time>2018-10-19T10:45:43Z</time>
      </trkpt>
      <trkpt lat="60.773856975138187" lon="6.253116019070149">
        <ele>1420.49</ele>
        <time>2018-10-19T10:45:45Z</time>
      </trkpt>
      <trkpt lat="60.7738839648664" lon="6.253123981878161">
        <ele>1420</ele>
        <time>2018-10-19T10:45:47Z</time>
      </trkpt>
      <trkpt lat="60.773950014263391" lon="6.253201011568308">
        <ele>1418.5599999999999</ele>
        <time>2018-10-19T10:45:53Z</time>
      </trkpt>
      <trkpt lat="60.773898968473077" lon="6.253461018204689">
        <ele>1417.1199999999999</ele>
        <time>2018-10-19T10:46:04Z</time>
      </trkpt>
      <trkpt lat="60.773847000673413" lon="6.253511980175972">
        <ele>1419.04</ele>
        <time>2018-10-19T10:46:11Z</time>
      </trkpt>
      <trkpt lat="60.773781035095453" lon="6.253514997661114">
        <ele>1419.52</ele>
        <time>2018-10-19T10:46:22Z</time>
      </trkpt>
      <trkpt lat="60.773720014840364" lon="6.253579035401344">
        <ele>1421.9300000000001</ele>
        <time>2018-10-19T10:46:33Z</time>
      </trkpt>
      <trkpt lat="60.773642985150218" lon="6.253600995987654">
        <ele>1421.45</ele>
        <time>2018-10-19T10:46:45Z</time>
      </trkpt>
      <trkpt lat="60.773632004857063" lon="6.253631003201008">
        <ele>1421.45</ele>
        <time>2018-10-19T10:46:54Z</time>
      </trkpt>
      <trkpt lat="60.773578025400639" lon="6.253684982657433">
        <ele>1423.8499999999999</ele>
        <time>2018-10-19T10:47:03Z</time>
      </trkpt>
      <trkpt lat="60.773523962125182" lon="6.253724964335561">
        <ele>1425.29</ele>
        <time>2018-10-19T10:47:15Z</time>
      </trkpt>
      <trkpt lat="60.7735610101372" lon="6.253832001239061">
        <ele>1426.73</ele>
        <time>2018-10-19T10:47:24Z</time>
      </trkpt>
      <trkpt lat="60.773555980995297" lon="6.253855973482132">
        <ele>1427.21</ele>
        <time>2018-10-19T10:47:26Z</time>
      </trkpt>
      <trkpt lat="60.773527985438704" lon="6.253950018435717">
        <ele>1427.7</ele>
        <time>2018-10-19T10:47:37Z</time>
      </trkpt>
      <trkpt lat="60.773503007367253" lon="6.25402201898396">
        <ele>1428.6600000000001</ele>
        <time>2018-10-19T10:47:44Z</time>
      </trkpt>
      <trkpt lat="60.773463025689125" lon="6.254011960700154">
        <ele>1430.0999999999999</ele>
        <time>2018-10-19T10:47:53Z</time>
      </trkpt>
      <trkpt lat="60.773393036797643" lon="6.254025958478451">
        <ele>1431.54</ele>
        <time>2018-10-19T10:48:05Z</time>
      </trkpt>
      <trkpt lat="60.773362023755908" lon="6.254034005105496">
        <ele>1433.46</ele>
        <time>2018-10-19T10:48:15Z</time>
      </trkpt>
      <trkpt lat="60.773376021534204" lon="6.254095025360584">
        <ele>1434.9100000000001</ele>
        <time>2018-10-19T10:48:24Z</time>
      </trkpt>
      <trkpt lat="60.773399993777275" lon="6.254178006201983">
        <ele>1437.3099999999999</ele>
        <time>2018-10-19T10:48:33Z</time>
      </trkpt>
      <trkpt lat="60.773469982668757" lon="6.254189992323518">
        <ele>1435.3900000000001</ele>
        <time>2018-10-19T10:48:42Z</time>
      </trkpt>
      <trkpt lat="60.773551035672426" lon="6.254189992323518">
        <ele>1437.3099999999999</ele>
        <time>2018-10-19T10:48:55Z</time>
      </trkpt>
      <trkpt lat="60.773598980158567" lon="6.254187980666757">
        <ele>1437.79</ele>
        <time>2018-10-19T10:49:07Z</time>
      </trkpt>
      <trkpt lat="60.773650025948882" lon="6.254181023687124">
        <ele>1438.75</ele>
        <time>2018-10-19T10:49:16Z</time>
      </trkpt>
      <trkpt lat="60.773713979870081" lon="6.25417297706008">
        <ele>1440.6700000000001</ele>
        <time>2018-10-19T10:49:27Z</time>
      </trkpt>
      <trkpt lat="60.773761002346873" lon="6.254186974838376">
        <ele>1442.5999999999999</ele>
        <time>2018-10-19T10:49:34Z</time>
      </trkpt>
      <trkpt lat="60.773758990690112" lon="6.254209019243717">
        <ele>1445.96</ele>
        <time>2018-10-19T10:49:36Z</time>
      </trkpt>
      <trkpt lat="60.773758990690112" lon="6.254212036728859">
        <ele>1445.96</ele>
        <time>2018-10-19T10:49:37Z</time>
      </trkpt>
      <trkpt lat="60.77375496737659" lon="6.254212958738208">
        <ele>1449.3199999999999</ele>
        <time>2018-10-19T10:49:39Z</time>
      </trkpt>
      <trkpt lat="60.773753961548209" lon="6.254212958738208">
        <ele>1449.3199999999999</ele>
        <time>2018-10-19T10:49:40Z</time>
      </trkpt>
      <trkpt lat="60.773761002346873" lon="6.254188986495137">
        <ele>1448.3599999999999</ele>
        <time>2018-10-19T10:50:04Z</time>
      </trkpt>
      <trkpt lat="60.773792015388608" lon="6.254186974838376">
        <ele>1445.48</ele>
        <time>2018-10-19T10:50:12Z</time>
      </trkpt>
      <trkpt lat="60.773796960711479" lon="6.25419300980866">
        <ele>1446.9200000000001</ele>
        <time>2018-10-19T10:50:18Z</time>
      </trkpt>
      <trkpt lat="60.77379603870213" lon="6.25419300980866">
        <ele>1448.8399999999999</ele>
        <time>2018-10-19T10:50:21Z</time>
      </trkpt>
      <trkpt lat="60.77379603870213" lon="6.254190998151898">
        <ele>1447.4000000000001</ele>
        <time>2018-10-19T10:51:53Z</time>
      </trkpt>
      <trkpt lat="60.773787992075086" lon="6.254204995930195">
        <ele>1446.9200000000001</ele>
        <time>2018-10-19T10:53:24Z</time>
      </trkpt>
      <trkpt lat="60.773782040923834" lon="6.254210025072098">
        <ele>1446.9200000000001</ele>
        <time>2018-10-19T10:53:25Z</time>
      </trkpt>
      <trkpt lat="60.773744992911816" lon="6.254242965951562">
        <ele>1447.8800000000001</ele>
        <time>2018-10-19T10:53:36Z</time>
      </trkpt>
      <trkpt lat="60.773727977648377" lon="6.254233997315168">
        <ele>1446.9200000000001</ele>
        <time>2018-10-19T10:53:42Z</time>
      </trkpt>
      <trkpt lat="60.773725965991616" lon="6.254231985658407">
        <ele>1445.48</ele>
        <time>2018-10-19T10:53:43Z</time>
      </trkpt>
      <trkpt lat="60.773708028718829" lon="6.254213964566588">
        <ele>1444.04</ele>
        <time>2018-10-19T10:53:45Z</time>
      </trkpt>
      <trkpt lat="60.773667963221669" lon="6.254199966788292">
        <ele>1441.6300000000001</ele>
        <time>2018-10-19T10:53:49Z</time>
      </trkpt>
      <trkpt lat="60.773670980706811" lon="6.254200972616673">
        <ele>1439.71</ele>
        <time>2018-10-19T10:54:10Z</time>
      </trkpt>
      <trkpt lat="60.773609960451722" lon="6.254226034507155">
        <ele>1438.75</ele>
        <time>2018-10-19T10:54:15Z</time>
      </trkpt>
      <trkpt lat="60.773465959355235" lon="6.254219999536872">
        <ele>1436.8299999999999</ele>
        <time>2018-10-19T10:54:25Z</time>
      </trkpt>
      <trkpt lat="60.773383984342217" lon="6.254224022850394">
        <ele>1434.9100000000001</ele>
        <time>2018-10-19T10:54:32Z</time>
      </trkpt>
      <trkpt lat="60.773391025140882" lon="6.254204995930195">
        <ele>1434.4200000000001</ele>
        <time>2018-10-19T10:55:07Z</time>
      </trkpt>
      <trkpt lat="60.77336797490716" lon="6.254152022302151">
        <ele>1434.9100000000001</ele>
        <time>2018-10-19T10:55:21Z</time>
      </trkpt>
      <trkpt lat="60.773366969078779" lon="6.254083961248398">
        <ele>1432.5</ele>
        <time>2018-10-19T10:55:31Z</time>
      </trkpt>
      <trkpt lat="60.773374009877443" lon="6.254036016762257">
        <ele>1431.54</ele>
        <time>2018-10-19T10:55:39Z</time>
      </trkpt>
      <trkpt lat="60.773405022919178" lon="6.254032999277115">
        <ele>1430.0999999999999</ele>
        <time>2018-10-19T10:55:43Z</time>
      </trkpt>
      <trkpt lat="60.773523040115833" lon="6.253994023427367">
        <ele>1426.73</ele>
        <time>2018-10-19T10:55:55Z</time>
      </trkpt>
      <trkpt lat="60.773564027622342" lon="6.253866031765938">
        <ele>1424.8099999999999</ele>
        <time>2018-10-19T10:56:03Z</time>
      </trkpt>
      <trkpt lat="60.773538965731859" lon="6.253768969327211">
        <ele>1424.8099999999999</ele>
        <time>2018-10-19T10:56:11Z</time>
      </trkpt>
      <trkpt lat="60.77351700514555" lon="6.253726975992322">
        <ele>1422.8900000000001</ele>
        <time>2018-10-19T10:56:18Z</time>
      </trkpt>
      <trkpt lat="60.7735610101372" lon="6.253693029284477">
        <ele>1420.49</ele>
        <time>2018-10-19T10:56:24Z</time>
      </trkpt>
      <trkpt lat="60.773632004857063" lon="6.253642989322543">
        <ele>1418.5599999999999</ele>
        <time>2018-10-19T10:56:33Z</time>
      </trkpt>
      <trkpt lat="60.773638961836696" lon="6.253612982109189">
        <ele>1417.5999999999999</ele>
        <time>2018-10-19T10:56:37Z</time>
      </trkpt>
      <trkpt lat="60.773744992911816" lon="6.253525977954269">
        <ele>1416.6400000000001</ele>
        <time>2018-10-19T10:56:46Z</time>
      </trkpt>
      <trkpt lat="60.773759996518493" lon="6.253537964075804">
        <ele>1416.6400000000001</ele>
        <time>2018-10-19T10:56:48Z</time>
      </trkpt>
      <trkpt lat="60.773833002895117" lon="6.253471998497844">
        <ele>1414.24</ele>
        <time>2018-10-19T10:56:54Z</time>
      </trkpt>
      <trkpt lat="60.773849012330174" lon="6.25346596352756">
        <ele>1413.76</ele>
        <time>2018-10-19T10:56:55Z</time>
      </trkpt>
      <trkpt lat="60.773941967636347" lon="6.253417013213038">
        <ele>1411.8299999999999</ele>
        <time>2018-10-19T10:57:01Z</time>
      </trkpt>
      <trkpt lat="60.773983960971236" lon="6.25344199128449">
        <ele>1410.8699999999999</ele>
        <time>2018-10-19T10:57:03Z</time>
      </trkpt>
      <trkpt lat="60.774068031460047" lon="6.253556990996003">
        <ele>1409.9100000000001</ele>
        <time>2018-10-19T10:57:09Z</time>
      </trkpt>
      <trkpt lat="60.774229969829321" lon="6.253723036497831">
        <ele>1409.4300000000001</ele>
        <time>2018-10-19T10:57:19Z</time>
      </trkpt>
      <trkpt lat="60.77429099008441" lon="6.253753965720534">
        <ele>1407.51</ele>
        <time>2018-10-19T10:57:30Z</time>
      </trkpt>
      <trkpt lat="60.774447983130813" lon="6.253888998180628">
        <ele>1406.0699999999999</ele>
        <time>2018-10-19T10:57:40Z</time>
      </trkpt>
      <trkpt lat="60.774602964520454" lon="6.254003997892141">
        <ele>1406.0699999999999</ele>
        <time>2018-10-19T10:57:54Z</time>
      </trkpt>
      <trkpt lat="60.774798011407256" lon="6.254142969846726">
        <ele>1404.1400000000001</ele>
        <time>2018-10-19T10:58:11Z</time>
      </trkpt>
      <trkpt lat="60.774803040549159" lon="6.254159985110164">
        <ele>1403.6600000000001</ele>
        <time>2018-10-19T10:58:19Z</time>
      </trkpt>
      <trkpt lat="60.774775967001915" lon="6.254379004240036">
        <ele>1404.1400000000001</ele>
        <time>2018-10-19T10:58:33Z</time>
      </trkpt>
      <trkpt lat="60.774788036942482" lon="6.254418985918164">
        <ele>1404.1400000000001</ele>
        <time>2018-10-19T10:58:45Z</time>
      </trkpt>
      <trkpt lat="60.774777978658676" lon="6.25447397120297">
        <ele>1406.55</ele>
        <time>2018-10-19T10:58:57Z</time>
      </trkpt>
      <trkpt lat="60.774750988930464" lon="6.254498027265072">
        <ele>1409.4300000000001</ele>
        <time>2018-10-19T10:59:07Z</time>
      </trkpt>
      <trkpt lat="60.774747971445322" lon="6.254500960931182">
        <ele>1409.9100000000001</ele>
        <time>2018-10-19T10:59:23Z</time>
      </trkpt>
      <trkpt lat="60.774717964231968" lon="6.254535997286439">
        <ele>1410.8699999999999</ele>
        <time>2018-10-19T11:00:39Z</time>
      </trkpt>
      <trkpt lat="60.774711007252336" lon="6.25453700311482">
        <ele>1411.3499999999999</ele>
        <time>2018-10-19T11:00:42Z</time>
      </trkpt>
      <trkpt lat="60.774682005867362" lon="6.254518982023001">
        <ele>1411.8299999999999</ele>
        <time>2018-10-19T11:00:46Z</time>
      </trkpt>
      <trkpt lat="60.774645041674376" lon="6.254511019214988">
        <ele>1412.79</ele>
        <time>2018-10-19T11:00:49Z</time>
      </trkpt>
      <trkpt lat="60.774622997269034" lon="6.254508001729846">
        <ele>1415.2</ele>
        <time>2018-10-19T11:00:52Z</time>
      </trkpt>
      <trkpt lat="60.774595001712441" lon="6.254520993679762">
        <ele>1416.6400000000001</ele>
        <time>2018-10-19T11:00:56Z</time>
      </trkpt>
      <trkpt lat="60.774477990344167" lon="6.254592994228005">
        <ele>1417.5999999999999</ele>
        <time>2018-10-19T11:01:11Z</time>
      </trkpt>
      <trkpt lat="60.774475978687406" lon="6.254617972299457">
        <ele>1417.1199999999999</ele>
        <time>2018-10-19T11:01:13Z</time>
      </trkpt>
      <trkpt lat="60.77446298673749" lon="6.254761973395944">
        <ele>1414.24</ele>
        <time>2018-10-19T11:01:20Z</time>
      </trkpt>
      <trkpt lat="60.774500034749508" lon="6.25492500141263">
        <ele>1410.3900000000001</ele>
        <time>2018-10-19T11:01:30Z</time>
      </trkpt>
      <trkpt lat="60.774509003385901" lon="6.254928018897772">
        <ele>1410.3900000000001</ele>
        <time>2018-10-19T11:01:31Z</time>
      </trkpt>
      <trkpt lat="60.774621991440654" lon="6.255020974203944">
        <ele>1407.51</ele>
        <time>2018-10-19T11:01:40Z</time>
      </trkpt>
      <trkpt lat="60.774696003645658" lon="6.255166986957192">
        <ele>1404.1400000000001</ele>
        <time>2018-10-19T11:01:48Z</time>
      </trkpt>
      <trkpt lat="60.774696003645658" lon="6.255193976685405">
        <ele>1404.1400000000001</ele>
        <time>2018-10-19T11:01:49Z</time>
      </trkpt>
      <trkpt lat="60.77474101446569" lon="6.255307970568538">
        <ele>1401.26</ele>
        <time>2018-10-19T11:01:57Z</time>
      </trkpt>
      <trkpt lat="60.774769010022283" lon="6.255342001095414">
        <ele>1401.26</ele>
        <time>2018-10-19T11:01:59Z</time>
      </trkpt>
      <trkpt lat="60.774879986420274" lon="6.255361028015614">
        <ele>1398.8599999999999</ele>
        <time>2018-10-19T11:02:07Z</time>
      </trkpt>
      <trkpt lat="60.77499900944531" lon="6.255412995815277">
        <ele>1395.97</ele>
        <time>2018-10-19T11:02:17Z</time>
      </trkpt>
      <trkpt lat="60.775071009993553" lon="6.255464963614941">
        <ele>1392.1300000000001</ele>
        <time>2018-10-19T11:02:26Z</time>
      </trkpt>
      <trkpt lat="60.775081990286708" lon="6.255465969443321">
        <ele>1392.1300000000001</ele>
        <time>2018-10-19T11:02:27Z</time>
      </trkpt>
      <trkpt lat="60.775174023583531" lon="6.255453983321786">
        <ele>1389.24</ele>
        <time>2018-10-19T11:02:34Z</time>
      </trkpt>
      <trkpt lat="60.775267984718084" lon="6.255453983321786">
        <ele>1385.4000000000001</ele>
        <time>2018-10-19T11:02:43Z</time>
      </trkpt>
      <trkpt lat="60.775276031345129" lon="6.255460018292069">
        <ele>1385.4000000000001</ele>
        <time>2018-10-19T11:02:44Z</time>
      </trkpt>
      <trkpt lat="60.775346020236611" lon="6.255559008568525">
        <ele>1382.03</ele>
        <time>2018-10-19T11:02:53Z</time>
      </trkpt>
      <trkpt lat="60.775354988873005" lon="6.255585998296738">
        <ele>1381.55</ele>
        <time>2018-10-19T11:02:55Z</time>
      </trkpt>
      <trkpt lat="60.775401005521417" lon="6.255716001614928">
        <ele>1379.6300000000001</ele>
        <time>2018-10-19T11:03:02Z</time>
      </trkpt>
      <trkpt lat="60.775426989421248" lon="6.255792025476694">
        <ele>1377.71</ele>
        <time>2018-10-19T11:03:13Z</time>
      </trkpt>
      <trkpt lat="60.775552969425917" lon="6.255875006318092">
        <ele>1374.3399999999999</ele>
        <time>2018-10-19T11:03:28Z</time>
      </trkpt>
      <trkpt lat="60.775598986074328" lon="6.25593401491642">
        <ele>1372.4200000000001</ele>
        <time>2018-10-19T11:03:39Z</time>
      </trkpt>
      <trkpt lat="60.775660006329417" lon="6.255992017686367">
        <ele>1369.05</ele>
        <time>2018-10-19T11:03:50Z</time>
      </trkpt>
      <trkpt lat="60.775732006877661" lon="6.256034011021256">
        <ele>1366.1700000000001</ele>
        <time>2018-10-19T11:04:03Z</time>
      </trkpt>
      <trkpt lat="60.775779029354453" lon="6.256107017397881">
        <ele>1362.8099999999999</ele>
        <time>2018-10-19T11:04:16Z</time>
      </trkpt>
      <trkpt lat="60.775743992999196" lon="6.256159991025925">
        <ele>1360.8800000000001</ele>
        <time>2018-10-19T11:04:23Z</time>
      </trkpt>
      <trkpt lat="60.775700993835926" lon="6.256267027929425">
        <ele>1360.4000000000001</ele>
        <time>2018-10-19T11:04:41Z</time>
      </trkpt>
      <trkpt lat="60.775701999664307" lon="6.256277002394199">
        <ele>1360.4000000000001</ele>
        <time>2018-10-19T11:04:42Z</time>
      </trkpt>
      <trkpt lat="60.775721026584506" lon="6.256332993507385">
        <ele>1359.4400000000001</ele>
        <time>2018-10-19T11:04:45Z</time>
      </trkpt>
      <trkpt lat="60.775746004655957" lon="6.256385967135429">
        <ele>1358</ele>
        <time>2018-10-19T11:04:48Z</time>
      </trkpt>
      <trkpt lat="60.77579596079886" lon="6.256483029574156">
        <ele>1355.1199999999999</ele>
        <time>2018-10-19T11:04:56Z</time>
      </trkpt>
      <trkpt lat="60.775835020467639" lon="6.256517982110381">
        <ele>1354.1500000000001</ele>
        <time>2018-10-19T11:05:11Z</time>
      </trkpt>
      <trkpt lat="60.775842983275652" lon="6.256525022909045">
        <ele>1353.1900000000001</ele>
        <time>2018-10-19T11:05:12Z</time>
      </trkpt>
      <trkpt lat="60.775861004367471" lon="6.256544971838594">
        <ele>1352.71</ele>
        <time>2018-10-19T11:05:14Z</time>
      </trkpt>
      <trkpt lat="60.775885982438922" lon="6.256571039557457">
        <ele>1351.27</ele>
        <time>2018-10-19T11:05:17Z</time>
      </trkpt>
      <trkpt lat="60.77592495828867" lon="6.256606997922063">
        <ele>1348.8699999999999</ele>
        <time>2018-10-19T11:05:21Z</time>
      </trkpt>
      <trkpt lat="60.775982961058617" lon="6.256658965721726">
        <ele>1345.5</ele>
        <time>2018-10-19T11:05:31Z</time>
      </trkpt>
      <trkpt lat="60.776044987142086" lon="6.256721997633576">
        <ele>1342.1400000000001</ele>
        <time>2018-10-19T11:05:43Z</time>
      </trkpt>
      <trkpt lat="60.776081029325724" lon="6.256748987361789">
        <ele>1340.7</ele>
        <time>2018-10-19T11:05:57Z</time>
      </trkpt>
      <trkpt lat="60.776132997125387" lon="6.256795004010201">
        <ele>1338.29</ele>
        <time>2018-10-19T11:06:12Z</time>
      </trkpt>
      <trkpt lat="60.776172978803515" lon="6.256898017600179">
        <ele>1335.4100000000001</ele>
        <time>2018-10-19T11:06:25Z</time>
      </trkpt>
      <trkpt lat="60.776200974360108" lon="6.257020980119705">
        <ele>1332.04</ele>
        <time>2018-10-19T11:06:35Z</time>
      </trkpt>
      <trkpt lat="60.776199968531728" lon="6.257074037566781">
        <ele>1331.0799999999999</ele>
        <time>2018-10-19T11:06:38Z</time>
      </trkpt>
      <trkpt lat="60.77620399184525" lon="6.257143020629883">
        <ele>1331.0799999999999</ele>
        <time>2018-10-19T11:06:50Z</time>
      </trkpt>
      <trkpt lat="60.776217989623547" lon="6.257337983697653">
        <ele>1332.04</ele>
        <time>2018-10-19T11:07:02Z</time>
      </trkpt>
      <trkpt lat="60.776214972138405" lon="6.257430016994476">
        <ele>1332.04</ele>
        <time>2018-10-19T11:07:13Z</time>
      </trkpt>
      <trkpt lat="60.776201980188489" lon="6.257506962865591">
        <ele>1334.9300000000001</ele>
        <time>2018-10-19T11:07:23Z</time>
      </trkpt>
      <trkpt lat="60.776196029037237" lon="6.257539987564087">
        <ele>1336.3699999999999</ele>
        <time>2018-10-19T11:07:29Z</time>
      </trkpt>
      <trkpt lat="60.776192005723715" lon="6.257695974782109">
        <ele>1335.4100000000001</ele>
        <time>2018-10-19T11:07:40Z</time>
      </trkpt>
      <trkpt lat="60.776254031807184" lon="6.257908958941698">
        <ele>1336.3699999999999</ele>
        <time>2018-10-19T11:07:54Z</time>
      </trkpt>
      <trkpt lat="60.776293007656932" lon="6.257996968924999">
        <ele>1334.45</ele>
        <time>2018-10-19T11:08:04Z</time>
      </trkpt>
      <trkpt lat="60.776367019861937" lon="6.258015995845199">
        <ele>1332.04</ele>
        <time>2018-10-19T11:08:15Z</time>
      </trkpt>
      <trkpt lat="60.776454024016857" lon="6.25806201249361">
        <ele>1329.1600000000001</ele>
        <time>2018-10-19T11:08:27Z</time>
      </trkpt>
      <trkpt lat="60.776516972109675" lon="6.25814700499177">
        <ele>1326.28</ele>
        <time>2018-10-19T11:08:36Z</time>
      </trkpt>
      <trkpt lat="60.776586961001158" lon="6.258284971117973">
        <ele>1324.3499999999999</ele>
        <time>2018-10-19T11:08:47Z</time>
      </trkpt>
      <trkpt lat="60.776609005406499" lon="6.258322019129992">
        <ele>1324.3499999999999</ele>
        <time>2018-10-19T11:08:51Z</time>
      </trkpt>
      <trkpt lat="60.776643035933375" lon="6.258436013013125">
        <ele>1323.3900000000001</ele>
        <time>2018-10-19T11:09:00Z</time>
      </trkpt>
      <trkpt lat="60.776644041761756" lon="6.258452022448182">
        <ele>1323.8699999999999</ele>
        <time>2018-10-19T11:09:01Z</time>
      </trkpt>
      <trkpt lat="60.776669019833207" lon="6.258584959432483">
        <ele>1324.3499999999999</ele>
        <time>2018-10-19T11:09:12Z</time>
      </trkpt>
      <trkpt lat="60.776731967926025" lon="6.258695013821125">
        <ele>1323.3900000000001</ele>
        <time>2018-10-19T11:09:20Z</time>
      </trkpt>
      <trkpt lat="60.776829030364752" lon="6.258804984390736">
        <ele>1320.51</ele>
        <time>2018-10-19T11:09:29Z</time>
      </trkpt>
      <trkpt lat="60.776841016486287" lon="6.258824011310935">
        <ele>1320.03</ele>
        <time>2018-10-19T11:09:31Z</time>
      </trkpt>
      <trkpt lat="60.776872029528022" lon="6.259034983813763">
        <ele>1320.03</ele>
        <time>2018-10-19T11:09:42Z</time>
      </trkpt>
      <trkpt lat="60.776942018419504" lon="6.259225001558662">
        <ele>1321.95</ele>
        <time>2018-10-19T11:09:54Z</time>
      </trkpt>
      <trkpt lat="60.776975965127349" lon="6.259357016533613">
        <ele>1320.51</ele>
        <time>2018-10-19T11:10:05Z</time>
      </trkpt>
      <trkpt lat="60.776991974562407" lon="6.2595010176301">
        <ele>1317.6199999999999</ele>
        <time>2018-10-19T11:10:14Z</time>
      </trkpt>
      <trkpt lat="60.776997003704309" lon="6.259604031220079">
        <ele>1316.1800000000001</ele>
        <time>2018-10-19T11:10:19Z</time>
      </trkpt>
      <trkpt lat="60.776989040896297" lon="6.259642001241446">
        <ele>1314.26</ele>
        <time>2018-10-19T11:10:22Z</time>
      </trkpt>
      <trkpt lat="60.776987029239535" lon="6.259665973484516">
        <ele>1312.8199999999999</ele>
        <time>2018-10-19T11:10:25Z</time>
      </trkpt>
      <trkpt lat="60.776985017582774" lon="6.259751971811056">
        <ele>1310.4100000000001</ele>
        <time>2018-10-19T11:10:35Z</time>
      </trkpt>
      <trkpt lat="60.777013013139367" lon="6.259847022593021">
        <ele>1307.53</ele>
        <time>2018-10-19T11:10:46Z</time>
      </trkpt>
      <trkpt lat="60.777042014524341" lon="6.259962022304535">
        <ele>1303.6900000000001</ele>
        <time>2018-10-19T11:10:57Z</time>
      </trkpt>
      <trkpt lat="60.777047965675592" lon="6.259965039789677">
        <ele>1303.6900000000001</ele>
        <time>2018-10-19T11:10:58Z</time>
      </trkpt>
      <trkpt lat="60.777050983160734" lon="6.260066041722894">
        <ele>1301.28</ele>
        <time>2018-10-19T11:11:09Z</time>
      </trkpt>
      <trkpt lat="60.777035979554057" lon="6.260164026170969">
        <ele>1298.4000000000001</ele>
        <time>2018-10-19T11:11:19Z</time>
      </trkpt>
      <trkpt lat="60.777050983160734" lon="6.260373992845416">
        <ele>1297.4400000000001</ele>
        <time>2018-10-19T11:11:30Z</time>
      </trkpt>
      <trkpt lat="60.777076967060566" lon="6.260514976456761">
        <ele>1296.48</ele>
        <time>2018-10-19T11:11:38Z</time>
      </trkpt>
      <trkpt lat="60.777072021737695" lon="6.260774983093143">
        <ele>1295.03</ele>
        <time>2018-10-19T11:11:48Z</time>
      </trkpt>
      <trkpt lat="60.777130024507642" lon="6.261009005829692">
        <ele>1294.55</ele>
        <time>2018-10-19T11:12:00Z</time>
      </trkpt>
      <trkpt lat="60.777116026729345" lon="6.26119801774621">
        <ele>1293.5899999999999</ele>
        <time>2018-10-19T11:12:09Z</time>
      </trkpt>
      <trkpt lat="60.777054000645876" lon="6.261356016620994">
        <ele>1292.6300000000001</ele>
        <time>2018-10-19T11:12:18Z</time>
      </trkpt>
      <trkpt lat="60.776952998712659" lon="6.261484008282423">
        <ele>1293.1099999999999</ele>
        <time>2018-10-19T11:12:29Z</time>
      </trkpt>
      <trkpt lat="60.776921985670924" lon="6.261504041031003">
        <ele>1295.51</ele>
        <time>2018-10-19T11:12:36Z</time>
      </trkpt>
      <trkpt lat="60.776903964579105" lon="6.261608982458711">
        <ele>1297.4400000000001</ele>
        <time>2018-10-19T11:12:45Z</time>
      </trkpt>
      <trkpt lat="60.776902958750725" lon="6.261730017140508">
        <ele>1296.96</ele>
        <time>2018-10-19T11:12:53Z</time>
      </trkpt>
      <trkpt lat="60.776964984834194" lon="6.261751977726817">
        <ele>1295.03</ele>
        <time>2018-10-19T11:13:00Z</time>
      </trkpt>
      <trkpt lat="60.776968002319336" lon="6.261752983555198">
        <ele>1294.55</ele>
        <time>2018-10-19T11:13:01Z</time>
      </trkpt>
      <trkpt lat="60.776989962905645" lon="6.261723982170224">
        <ele>1293.5899999999999</ele>
        <time>2018-10-19T11:13:04Z</time>
      </trkpt>
      <trkpt lat="60.777058023959398" lon="6.261809980496764">
        <ele>1291.6700000000001</ele>
        <time>2018-10-19T11:13:12Z</time>
      </trkpt>
      <trkpt lat="60.777075961232185" lon="6.261807968840003">
        <ele>1291.6700000000001</ele>
        <time>2018-10-19T11:13:14Z</time>
      </trkpt>
      <trkpt lat="60.777193978428841" lon="6.261811992153525">
        <ele>1291.1900000000001</ele>
        <time>2018-10-19T11:13:24Z</time>
      </trkpt>
      <trkpt lat="60.777200013399124" lon="6.261808974668384">
        <ele>1291.6700000000001</ele>
        <time>2018-10-19T11:13:29Z</time>
      </trkpt>
      <trkpt lat="60.777228008955717" lon="6.26184300519526">
        <ele>1292.1500000000001</ele>
        <time>2018-10-19T11:13:33Z</time>
      </trkpt>
      <trkpt lat="60.777236977592111" lon="6.261878963559866">
        <ele>1291.6700000000001</ele>
        <time>2018-10-19T11:13:35Z</time>
      </trkpt>
      <trkpt lat="60.777253992855549" lon="6.261912994086742">
        <ele>1291.1900000000001</ele>
        <time>2018-10-19T11:13:38Z</time>
      </trkpt>
      <trkpt lat="60.777359018102288" lon="6.261986000463367">
        <ele>1289.27</ele>
        <time>2018-10-19T11:13:49Z</time>
      </trkpt>
      <trkpt lat="60.7774050347507" lon="6.262012990191579">
        <ele>1288.78</ele>
        <time>2018-10-19T11:13:53Z</time>
      </trkpt>
      <trkpt lat="60.777462031692266" lon="6.262019025161862">
        <ele>1289.27</ele>
        <time>2018-10-19T11:13:59Z</time>
      </trkpt>
      <trkpt lat="60.777546018362045" lon="6.262081973254681">
        <ele>1288.78</ele>
        <time>2018-10-19T11:14:05Z</time>
      </trkpt>
      <trkpt lat="60.777593962848186" lon="6.262074010446668">
        <ele>1289.75</ele>
        <time>2018-10-19T11:14:11Z</time>
      </trkpt>
      <trkpt lat="60.777697982266545" lon="6.261955993250012">
        <ele>1289.27</ele>
        <time>2018-10-19T11:14:23Z</time>
      </trkpt>
      <trkpt lat="60.77772899530828" lon="6.261955993250012">
        <ele>1288.78</ele>
        <time>2018-10-19T11:14:37Z</time>
      </trkpt>
      <trkpt lat="60.777757996693254" lon="6.261915005743504">
        <ele>1288.78</ele>
        <time>2018-10-19T11:14:47Z</time>
      </trkpt>
      <trkpt lat="60.77779202722013" lon="6.261861026287079">
        <ele>1286.8599999999999</ele>
        <time>2018-10-19T11:14:54Z</time>
      </trkpt>
      <trkpt lat="60.777840977534652" lon="6.261829007416964">
        <ele>1286.8599999999999</ele>
        <time>2018-10-19T11:15:00Z</time>
      </trkpt>
      <trkpt lat="60.777896968647838" lon="6.261814003810287">
        <ele>1286.3800000000001</ele>
        <time>2018-10-19T11:15:10Z</time>
      </trkpt>
      <trkpt lat="60.777951031923294" lon="6.261789025738835">
        <ele>1285.9000000000001</ele>
        <time>2018-10-19T11:15:20Z</time>
      </trkpt>
      <trkpt lat="60.777950026094913" lon="6.261780979111791">
        <ele>1285.9000000000001</ele>
        <time>2018-10-19T11:15:24Z</time>
      </trkpt>
      <trkpt lat="60.777991013601422" lon="6.26171400770545">
        <ele>1284.46</ele>
        <time>2018-10-19T11:15:28Z</time>
      </trkpt>
      <trkpt lat="60.778028983622789" lon="6.261676037684083">
        <ele>1283.02</ele>
        <time>2018-10-19T11:15:32Z</time>
      </trkpt>
      <trkpt lat="60.778125040233135" lon="6.261726999655366">
        <ele>1283.98</ele>
        <time>2018-10-19T11:15:41Z</time>
      </trkpt>
      <trkpt lat="60.778152029961348" lon="6.261744014918804">
        <ele>1283.02</ele>
        <time>2018-10-19T11:15:47Z</time>
      </trkpt>
      <trkpt lat="60.778156975284219" lon="6.26160403713584">
        <ele>1282.0599999999999</ele>
        <time>2018-10-19T11:15:59Z</time>
      </trkpt>
      <trkpt lat="60.778157981112599" lon="6.26160403713584">
        <ele>1281.0899999999999</ele>
        <time>2018-10-19T11:16:01Z</time>
      </trkpt>
      <trkpt lat="60.778133003041148" lon="6.261789025738835">
        <ele>1283.98</ele>
        <time>2018-10-19T11:16:11Z</time>
      </trkpt>
      <trkpt lat="60.77809302136302" lon="6.261765975505114">
        <ele>1284.9400000000001</ele>
        <time>2018-10-19T11:16:17Z</time>
      </trkpt>
      <trkpt lat="60.778009034693241" lon="6.261917017400265">
        <ele>1283.02</ele>
        <time>2018-10-19T11:16:26Z</time>
      </trkpt>
      <trkpt lat="60.777924964204431" lon="6.262113992124796">
        <ele>1283.5</ele>
        <time>2018-10-19T11:16:40Z</time>
      </trkpt>
      <trkpt lat="60.77792102470994" lon="6.262131007388234">
        <ele>1283.5</ele>
        <time>2018-10-19T11:16:41Z</time>
      </trkpt>
      <trkpt lat="60.777937034144998" lon="6.262243995442987">
        <ele>1284.46</ele>
        <time>2018-10-19T11:16:48Z</time>
      </trkpt>
      <trkpt lat="60.778034012764692" lon="6.262468965724111">
        <ele>1282.54</ele>
        <time>2018-10-19T11:17:01Z</time>
      </trkpt>
      <trkpt lat="60.778061002492905" lon="6.262545995414257">
        <ele>1282.0599999999999</ele>
        <time>2018-10-19T11:17:06Z</time>
      </trkpt>
      <trkpt lat="60.778094027191401" lon="6.262725032866001">
        <ele>1280.1300000000001</ele>
        <time>2018-10-19T11:17:18Z</time>
      </trkpt>
      <trkpt lat="60.778087992221117" lon="6.262749005109072">
        <ele>1279.1700000000001</ele>
        <time>2018-10-19T11:17:25Z</time>
      </trkpt>
      <trkpt lat="60.778152029961348" lon="6.262844977900386">
        <ele>1277.73</ele>
        <time>2018-10-19T11:17:39Z</time>
      </trkpt>
      <trkpt lat="60.778180025517941" lon="6.262887977063656">
        <ele>1275.8099999999999</ele>
        <time>2018-10-19T11:17:46Z</time>
      </trkpt>
      <trkpt lat="60.778209026902914" lon="6.262925025075674">
        <ele>1274.3599999999999</ele>
        <time>2018-10-19T11:17:51Z</time>
      </trkpt>
      <trkpt lat="60.778297036886215" lon="6.263085035607219">
        <ele>1271.96</ele>
        <time>2018-10-19T11:18:00Z</time>
      </trkpt>
      <trkpt lat="60.778349004685879" lon="6.263230964541435">
        <ele>1272.4400000000001</ele>
        <time>2018-10-19T11:18:10Z</time>
      </trkpt>
      <trkpt lat="60.778306005522609" lon="6.263302965089679">
        <ele>1273.4000000000001</ele>
        <time>2018-10-19T11:18:19Z</time>
      </trkpt>
      <trkpt lat="60.778349004685879" lon="6.263291984796524">
        <ele>1272.4400000000001</ele>
        <time>2018-10-19T11:18:22Z</time>
      </trkpt>
      <trkpt lat="60.778409019112587" lon="6.263327021151781">
        <ele>1270.52</ele>
        <time>2018-10-19T11:18:25Z</time>
      </trkpt>
      <trkpt lat="60.778470961377025" lon="6.263529025018215">
        <ele>1269.5599999999999</ele>
        <time>2018-10-19T11:18:32Z</time>
      </trkpt>
      <trkpt lat="60.7785240188241" lon="6.263661962002516">
        <ele>1267.1600000000001</ele>
        <time>2018-10-19T11:18:42Z</time>
      </trkpt>
      <trkpt lat="60.778543967753649" lon="6.263699010014534">
        <ele>1266.1900000000001</ele>
        <time>2018-10-19T11:18:46Z</time>
      </trkpt>
      <trkpt lat="60.778618985787034" lon="6.263787019997835">
        <ele>1264.27</ele>
        <time>2018-10-19T11:18:55Z</time>
      </trkpt>
      <trkpt lat="60.778690986335278" lon="6.263860026374459">
        <ele>1261.8699999999999</ele>
        <time>2018-10-19T11:19:02Z</time>
      </trkpt>
      <trkpt lat="60.778703978285193" lon="6.263886010274291">
        <ele>1259.46</ele>
        <time>2018-10-19T11:19:05Z</time>
      </trkpt>
      <trkpt lat="60.778710013255477" lon="6.263896990567446">
        <ele>1257.54</ele>
        <time>2018-10-19T11:19:25Z</time>
      </trkpt>
      <trkpt lat="60.778768016025424" lon="6.264018025249243">
        <ele>1254.6600000000001</ele>
        <time>2018-10-19T11:19:32Z</time>
      </trkpt>
      <trkpt lat="60.778798023238778" lon="6.264051971957088">
        <ele>1251.29</ele>
        <time>2018-10-19T11:19:40Z</time>
      </trkpt>
      <trkpt lat="60.778783019632101" lon="6.264052977785468">
        <ele>1250.3299999999999</ele>
        <time>2018-10-19T11:19:47Z</time>
      </trkpt>
      <trkpt lat="60.77876097522676" lon="6.26407602801919">
        <ele>1251.77</ele>
        <time>2018-10-19T11:19:49Z</time>
      </trkpt>
      <trkpt lat="60.778757035732269" lon="6.264110980555415">
        <ele>1252.25</ele>
        <time>2018-10-19T11:19:55Z</time>
      </trkpt>
      <trkpt lat="60.77878201380372" lon="6.264125984162092">
        <ele>1250.8099999999999</ele>
        <time>2018-10-19T11:19:59Z</time>
      </trkpt>
      <trkpt lat="60.778806991875172" lon="6.264152973890305">
        <ele>1247.9300000000001</ele>
        <time>2018-10-19T11:20:03Z</time>
      </trkpt>
      <trkpt lat="60.77880397439003" lon="6.264269985258579">
        <ele>1244.5599999999999</ele>
        <time>2018-10-19T11:20:12Z</time>
      </trkpt>
      <trkpt lat="60.778810009360313" lon="6.264391019940376">
        <ele>1241.6800000000001</ele>
        <time>2018-10-19T11:20:21Z</time>
      </trkpt>
      <trkpt lat="60.778850996866822" lon="6.264475006610155">
        <ele>1239.28</ele>
        <time>2018-10-19T11:20:27Z</time>
      </trkpt>
      <trkpt lat="60.778901958838105" lon="6.264655971899629">
        <ele>1235.9100000000001</ele>
        <time>2018-10-19T11:20:38Z</time>
      </trkpt>
      <trkpt lat="60.778982006013393" lon="6.264841966331005">
        <ele>1233.51</ele>
        <time>2018-10-19T11:20:47Z</time>
      </trkpt>
      <trkpt lat="60.779060963541269" lon="6.265030978247523">
        <ele>1231.5899999999999</ele>
        <time>2018-10-19T11:20:55Z</time>
      </trkpt>
      <trkpt lat="60.779078984633088" lon="6.26506601460278">
        <ele>1229.1800000000001</ele>
        <time>2018-10-19T11:20:59Z</time>
      </trkpt>
      <trkpt lat="60.779091976583004" lon="6.265070037916303">
        <ele>1228.7</ele>
        <time>2018-10-19T11:21:02Z</time>
      </trkpt>
      <trkpt lat="60.77914796769619" lon="6.265070037916303">
        <ele>1224.8599999999999</ele>
        <time>2018-10-19T11:21:10Z</time>
      </trkpt>
      <trkpt lat="60.779164982959628" lon="6.265084035694599">
        <ele>1223.9000000000001</ele>
        <time>2018-10-19T11:21:12Z</time>
      </trkpt>
      <trkpt lat="60.779213011264801" lon="6.265120999887586">
        <ele>1221.49</ele>
        <time>2018-10-19T11:21:16Z</time>
      </trkpt>
      <trkpt lat="60.779248969629407" lon="6.265154024586082">
        <ele>1219.5699999999999</ele>
        <time>2018-10-19T11:21:19Z</time>
      </trkpt>
      <trkpt lat="60.779265984892845" lon="6.265215966850519">
        <ele>1218.1300000000001</ele>
        <time>2018-10-19T11:21:22Z</time>
      </trkpt>
      <trkpt lat="60.779283000156283" lon="6.265277992933989">
        <ele>1216.6900000000001</ele>
        <time>2018-10-19T11:21:25Z</time>
      </trkpt>
      <trkpt lat="60.779302027076483" lon="6.26530297100544">
        <ele>1215.24</ele>
        <time>2018-10-19T11:21:27Z</time>
      </trkpt>
      <trkpt lat="60.779376039281487" lon="6.26545200124383">
        <ele>1215.24</ele>
        <time>2018-10-19T11:21:37Z</time>
      </trkpt>
      <trkpt lat="60.779437981545925" lon="6.26558200456202">
        <ele>1213.3199999999999</ele>
        <time>2018-10-19T11:21:42Z</time>
      </trkpt>
      <trkpt lat="60.779418032616377" lon="6.265673032030463">
        <ele>1211.8800000000001</ele>
        <time>2018-10-19T11:21:45Z</time>
      </trkpt>
      <trkpt lat="60.779451979324222" lon="6.265745032578707">
        <ele>1209.96</ele>
        <time>2018-10-19T11:21:51Z</time>
      </trkpt>
      <trkpt lat="60.779462959617376" lon="6.265760958194733">
        <ele>1208.51</ele>
        <time>2018-10-19T11:21:53Z</time>
      </trkpt>
      <trkpt lat="60.779495984315872" lon="6.265764981508255">
        <ele>1208.03</ele>
        <time>2018-10-19T11:21:55Z</time>
      </trkpt>
      <trkpt lat="60.779550969600677" lon="6.265933960676193">
        <ele>1204.6700000000001</ele>
        <time>2018-10-19T11:22:04Z</time>
      </trkpt>
      <trkpt lat="60.779568990692496" lon="6.266017025336623">
        <ele>1204.1900000000001</ele>
        <time>2018-10-19T11:22:13Z</time>
      </trkpt>
      <trkpt lat="60.779664041474462" lon="6.266287006437779">
        <ele>1201.3</ele>
        <time>2018-10-19T11:22:24Z</time>
      </trkpt>
      <trkpt lat="60.779735036194324" lon="6.266421033069491">
        <ele>1199.3800000000001</ele>
        <time>2018-10-19T11:22:29Z</time>
      </trkpt>
      <trkpt lat="60.779765965417027" lon="6.266489010304213">
        <ele>1198.4200000000001</ele>
        <time>2018-10-19T11:22:31Z</time>
      </trkpt>
      <trkpt lat="60.779810976237059" lon="6.266579031944275">
        <ele>1196.02</ele>
        <time>2018-10-19T11:22:34Z</time>
      </trkpt>
      <trkpt lat="60.779893035069108" lon="6.266755973920226">
        <ele>1193.6099999999999</ele>
        <time>2018-10-19T11:22:40Z</time>
      </trkpt>
      <trkpt lat="60.779991019517183" lon="6.266965018585324">
        <ele>1191.21</ele>
        <time>2018-10-19T11:22:47Z</time>
      </trkpt>
      <trkpt lat="60.78002798371017" lon="6.267022015526891">
        <ele>1190.73</ele>
        <time>2018-10-19T11:22:50Z</time>
      </trkpt>
      <trkpt lat="60.780097972601652" lon="6.267098961398006">
        <ele>1190.25</ele>
        <time>2018-10-19T11:22:57Z</time>
      </trkpt>
      <trkpt lat="60.780152035877109" lon="6.267242040485144">
        <ele>1187.8499999999999</ele>
        <time>2018-10-19T11:23:03Z</time>
      </trkpt>
      <trkpt lat="60.780249014496803" lon="6.267483020201325">
        <ele>1184.96</ele>
        <time>2018-10-19T11:23:12Z</time>
      </trkpt>
      <trkpt lat="60.780269969254732" lon="6.26762199215591">
        <ele>1184.96</ele>
        <time>2018-10-19T11:23:21Z</time>
      </trkpt>
      <trkpt lat="60.780271980911493" lon="6.267624003812671">
        <ele>1184.48</ele>
        <time>2018-10-19T11:23:23Z</time>
      </trkpt>
      <trkpt lat="60.780295031145215" lon="6.26762199215591">
        <ele>1184.48</ele>
        <time>2018-10-19T11:23:25Z</time>
      </trkpt>
      <trkpt lat="60.780333001166582" lon="6.26772802323103">
        <ele>1183.04</ele>
        <time>2018-10-19T11:23:33Z</time>
      </trkpt>
      <trkpt lat="60.780381029471755" lon="6.267744032666087">
        <ele>1182.0799999999999</ele>
        <time>2018-10-19T11:23:42Z</time>
      </trkpt>
      <trkpt lat="60.780406007543206" lon="6.26772802323103">
        <ele>1181.1199999999999</ele>
        <time>2018-10-19T11:23:44Z</time>
      </trkpt>
      <trkpt lat="60.780441965907812" lon="6.267759958282113">
        <ele>1180.1600000000001</ele>
        <time>2018-10-19T11:23:47Z</time>
      </trkpt>
      <trkpt lat="60.780442971736193" lon="6.267895996570587">
        <ele>1180.1600000000001</ele>
        <time>2018-10-19T11:23:53Z</time>
      </trkpt>
      <trkpt lat="60.780467027798295" lon="6.267935978248715">
        <ele>1179.1900000000001</ele>
        <time>2018-10-19T11:23:56Z</time>
      </trkpt>
      <trkpt lat="60.780518995597959" lon="6.26796598546207">
        <ele>1178.23</ele>
        <time>2018-10-19T11:24:00Z</time>
      </trkpt>
      <trkpt lat="60.780554031953216" lon="6.268004961311817">
        <ele>1176.3099999999999</ele>
        <time>2018-10-19T11:24:03Z</time>
      </trkpt>
      <trkpt lat="60.78058403916657" lon="6.268047038465738">
        <ele>1173.4300000000001</ele>
        <time>2018-10-19T11:24:06Z</time>
      </trkpt>
      <trkpt lat="60.780595019459724" lon="6.26805298961699">
        <ele>1173.4300000000001</ele>
        <time>2018-10-19T11:24:07Z</time>
      </trkpt>
      <trkpt lat="60.780640030279756" lon="6.268068999052048">
        <ele>1171.98</ele>
        <time>2018-10-19T11:24:20Z</time>
      </trkpt>
      <trkpt lat="60.780640030279756" lon="6.268067993223667">
        <ele>1171.5</ele>
        <time>2018-10-19T11:24:26Z</time>
      </trkpt>
      <trkpt lat="60.780728040263057" lon="6.268061036244035">
        <ele>1169.5799999999999</ele>
        <time>2018-10-19T11:24:33Z</time>
      </trkpt>
      <trkpt lat="60.78075997531414" lon="6.268055001273751">
        <ele>1168.6199999999999</ele>
        <time>2018-10-19T11:24:45Z</time>
      </trkpt>
      <trkpt lat="60.780767016112804" lon="6.26807201653719">
        <ele>1168.1400000000001</ele>
        <time>2018-10-19T11:25:26Z</time>
      </trkpt>
      <trkpt lat="60.780797023326159" lon="6.268119039013982">
        <ele>1168.1400000000001</ele>
        <time>2018-10-19T11:25:35Z</time>
      </trkpt>
      <trkpt lat="60.780777996405959" lon="6.268195984885097">
        <ele>1167.1800000000001</ele>
        <time>2018-10-19T11:25:39Z</time>
      </trkpt>
      <trkpt lat="60.7808449678123" lon="6.268291035667062">
        <ele>1164.77</ele>
        <time>2018-10-19T11:25:44Z</time>
      </trkpt>
      <trkpt lat="60.780897019430995" lon="6.268321964889765">
        <ele>1162.8499999999999</ele>
        <time>2018-10-19T11:25:47Z</time>
      </trkpt>
      <trkpt lat="60.780978994444013" lon="6.268379967659712">
        <ele>1159.49</ele>
        <time>2018-10-19T11:25:53Z</time>
      </trkpt>
      <trkpt lat="60.780988968908787" lon="6.268379967659712">
        <ele>1159.49</ele>
        <time>2018-10-19T11:25:54Z</time>
      </trkpt>
      <trkpt lat="60.781042026355863" lon="6.268398994579911">
        <ele>1158.05</ele>
        <time>2018-10-19T11:26:06Z</time>
      </trkpt>
      <trkpt lat="60.781031968072057" lon="6.268421960994601">
        <ele>1158.53</ele>
        <time>2018-10-19T11:26:24Z</time>
      </trkpt>
      <trkpt lat="60.781071027740836" lon="6.268556993454695">
        <ele>1156.1199999999999</ele>
        <time>2018-10-19T11:26:32Z</time>
      </trkpt>
      <trkpt lat="60.781108997762203" lon="6.26861097291112">
        <ele>1153.72</ele>
        <time>2018-10-19T11:26:36Z</time>
      </trkpt>
      <trkpt lat="60.781174041330814" lon="6.268760003149509">
        <ele>1149.8699999999999</ele>
        <time>2018-10-19T11:26:44Z</time>
      </trkpt>
      <trkpt lat="60.78118996694684" lon="6.268815994262695">
        <ele>1147.95</ele>
        <time>2018-10-19T11:26:47Z</time>
      </trkpt>
      <trkpt lat="60.781214023008943" lon="6.268848013132811">
        <ele>1146.03</ele>
        <time>2018-10-19T11:26:50Z</time>
      </trkpt>
      <trkpt lat="60.781276971101761" lon="6.268925964832306">
        <ele>1143.1400000000001</ele>
        <time>2018-10-19T11:26:58Z</time>
      </trkpt>
      <trkpt lat="60.781333968043327" lon="6.269055968150497">
        <ele>1140.74</ele>
        <time>2018-10-19T11:27:06Z</time>
      </trkpt>
      <trkpt lat="60.781373027712107" lon="6.269073989242315">
        <ele>1138.8199999999999</ele>
        <time>2018-10-19T11:27:09Z</time>
      </trkpt>
      <trkpt lat="60.781439999118447" lon="6.269174991175532">
        <ele>1137.8599999999999</ele>
        <time>2018-10-19T11:27:18Z</time>
      </trkpt>
      <trkpt lat="60.781477969139814" lon="6.269183959811926">
        <ele>1136.4200000000001</ele>
        <time>2018-10-19T11:27:30Z</time>
      </trkpt>
      <trkpt lat="60.781538989394903" lon="6.269302982836962">
        <ele>1136.4200000000001</ele>
        <time>2018-10-19T11:27:41Z</time>
      </trkpt>
      <trkpt lat="60.781642002984881" lon="6.269529964774847">
        <ele>1134.97</ele>
        <time>2018-10-19T11:27:56Z</time>
      </trkpt>
      <trkpt lat="60.781661029905081" lon="6.269533988088369">
        <ele>1133.53</ele>
        <time>2018-10-19T11:28:11Z</time>
      </trkpt>
      <trkpt lat="60.781661029905081" lon="6.26953499391675">
        <ele>1133.53</ele>
        <time>2018-10-19T11:28:52Z</time>
      </trkpt>
      <trkpt lat="60.781663963571191" lon="6.269537005573511">
        <ele>1133.05</ele>
        <time>2018-10-19T11:30:00Z</time>
      </trkpt>
      <trkpt lat="60.7816600240767" lon="6.269552009180188">
        <ele>1133.05</ele>
        <time>2018-10-19T11:31:25Z</time>
      </trkpt>
      <trkpt lat="60.781637979671359" lon="6.269603976979852">
        <ele>1132.5699999999999</ele>
        <time>2018-10-19T11:31:29Z</time>
      </trkpt>
      <trkpt lat="60.781604032963514" lon="6.269678995013237">
        <ele>1129.21</ele>
        <time>2018-10-19T11:31:45Z</time>
      </trkpt>
      <trkpt lat="60.781604032963514" lon="6.269678995013237">
        <ele>1129.21</ele>
        <time>2018-10-19T11:32:05Z</time>
      </trkpt>
      <trkpt lat="60.781572014093399" lon="6.270035980269313">
        <ele>1126.3199999999999</ele>
        <time>2018-10-19T11:32:19Z</time>
      </trkpt>
      <trkpt lat="60.781556004658341" lon="6.270173024386168">
        <ele>1123.9200000000001</ele>
        <time>2018-10-19T11:32:23Z</time>
      </trkpt>
      <trkpt lat="60.781577965244651" lon="6.270325994119048">
        <ele>1122</ele>
        <time>2018-10-19T11:32:29Z</time>
      </trkpt>
      <trkpt lat="60.781605038791895" lon="6.270518023520708">
        <ele>1120.55</ele>
        <time>2018-10-19T11:32:38Z</time>
      </trkpt>
      <trkpt lat="60.781625993549824" lon="6.270745005458593">
        <ele>1117.1900000000001</ele>
        <time>2018-10-19T11:32:47Z</time>
      </trkpt>
      <trkpt lat="60.781669998541474" lon="6.270967964082956">
        <ele>1116.23</ele>
        <time>2018-10-19T11:32:57Z</time>
      </trkpt>
      <trkpt lat="60.781634040176868" lon="6.271098973229528">
        <ele>1114.79</ele>
        <time>2018-10-19T11:33:02Z</time>
      </trkpt>
      <trkpt lat="60.78159598633647" lon="6.27112696878612">
        <ele>1112.3800000000001</ele>
        <time>2018-10-19T11:33:08Z</time>
      </trkpt>
      <trkpt lat="60.781563967466354" lon="6.271097967401147">
        <ele>1110.46</ele>
        <time>2018-10-19T11:33:11Z</time>
      </trkpt>
      <trkpt lat="60.781519040465355" lon="6.271036025136709">
        <ele>1111.9000000000001</ele>
        <time>2018-10-19T11:33:14Z</time>
      </trkpt>
      <trkpt lat="60.781479980796576" lon="6.271001994609833">
        <ele>1115.27</ele>
        <time>2018-10-19T11:33:17Z</time>
      </trkpt>
      <trkpt lat="60.781474029645324" lon="6.270995959639549">
        <ele>1115.27</ele>
        <time>2018-10-19T11:33:18Z</time>
      </trkpt>
      <trkpt lat="60.781383002176881" lon="6.270981039851904">
        <ele>1118.6300000000001</ele>
        <time>2018-10-19T11:33:27Z</time>
      </trkpt>
      <trkpt lat="60.781375039368868" lon="6.270972993224859">
        <ele>1118.6300000000001</ele>
        <time>2018-10-19T11:33:28Z</time>
      </trkpt>
      <trkpt lat="60.781239001080394" lon="6.270909961313009">
        <ele>1119.1099999999999</ele>
        <time>2018-10-19T11:33:41Z</time>
      </trkpt>
      <trkpt lat="60.781140010803938" lon="6.271029990166426">
        <ele>1118.1500000000001</ele>
        <time>2018-10-19T11:33:47Z</time>
      </trkpt>
      <trkpt lat="60.781068010255694" lon="6.271073995158076">
        <ele>1115.27</ele>
        <time>2018-10-19T11:33:51Z</time>
      </trkpt>
      <trkpt lat="60.781019981950521" lon="6.271085981279612">
        <ele>1112.8599999999999</ele>
        <time>2018-10-19T11:33:54Z</time>
      </trkpt>
      <trkpt lat="60.780980000272393" lon="6.271097967401147">
        <ele>1110.9400000000001</ele>
        <time>2018-10-19T11:33:57Z</time>
      </trkpt>
      <trkpt lat="60.7809520047158" lon="6.271170973777771">
        <ele>1107.5799999999999</ele>
        <time>2018-10-19T11:34:00Z</time>
      </trkpt>
      <trkpt lat="60.780940018594265" lon="6.271194024011493">
        <ele>1107.5799999999999</ele>
        <time>2018-10-19T11:34:01Z</time>
      </trkpt>
      <trkpt lat="60.780895007774234" lon="6.271226964890957">
        <ele>1105.1700000000001</ele>
        <time>2018-10-19T11:34:04Z</time>
      </trkpt>
      <trkpt lat="60.780874975025654" lon="6.271426035091281">
        <ele>1102.77</ele>
        <time>2018-10-19T11:34:08Z</time>
      </trkpt>
      <trkpt lat="60.780872963368893" lon="6.271530976518989">
        <ele>1101.3299999999999</ele>
        <time>2018-10-19T11:34:11Z</time>
      </trkpt>
      <trkpt lat="60.780835999175906" lon="6.271770028397441">
        <ele>1100.3699999999999</ele>
        <time>2018-10-19T11:34:21Z</time>
      </trkpt>
      <trkpt lat="60.780833987519145" lon="6.271824007853866">
        <ele>1099.8900000000001</ele>
        <time>2018-10-19T11:34:24Z</time>
      </trkpt>
      <trkpt lat="60.780919985845685" lon="6.27207001671195">
        <ele>1097.48</ele>
        <time>2018-10-19T11:34:35Z</time>
      </trkpt>
      <trkpt lat="60.780984023585916" lon="6.272246036678553">
        <ele>1096.04</ele>
        <time>2018-10-19T11:34:40Z</time>
      </trkpt>
      <trkpt lat="60.780939012765884" lon="6.27232801169157">
        <ele>1094.5999999999999</ele>
        <time>2018-10-19T11:34:44Z</time>
      </trkpt>
      <trkpt lat="60.78092803247273" lon="6.272324994206429">
        <ele>1094.5999999999999</ele>
        <time>2018-10-19T11:34:45Z</time>
      </trkpt>
      <trkpt lat="60.78082300722599" lon="6.272459020838141">
        <ele>1092.2</ele>
        <time>2018-10-19T11:34:54Z</time>
      </trkpt>
      <trkpt lat="60.780760981142521" lon="6.27249900251627">
        <ele>1089.3099999999999</ele>
        <time>2018-10-19T11:35:00Z</time>
      </trkpt>
      <trkpt lat="60.78078000806272" lon="6.272644009441137">
        <ele>1086.4300000000001</ele>
        <time>2018-10-19T11:35:06Z</time>
      </trkpt>
      <trkpt lat="60.780829964205623" lon="6.27282103523612">
        <ele>1084.5</ele>
        <time>2018-10-19T11:35:12Z</time>
      </trkpt>
      <trkpt lat="60.78078000806272" lon="6.27297199331224">
        <ele>1083.54</ele>
        <time>2018-10-19T11:35:19Z</time>
      </trkpt>
      <trkpt lat="60.78071597032249" lon="6.273137032985687">
        <ele>1086.9100000000001</ele>
        <time>2018-10-19T11:35:31Z</time>
      </trkpt>
      <trkpt lat="60.780642963945866" lon="6.273258989676833">
        <ele>1087.8699999999999</ele>
        <time>2018-10-19T11:35:38Z</time>
      </trkpt>
      <trkpt lat="60.780641958117485" lon="6.273426041007042">
        <ele>1087.3900000000001</ele>
        <time>2018-10-19T11:35:46Z</time>
      </trkpt>
      <trkpt lat="60.780555037781596" lon="6.273622009903193">
        <ele>1087.8699999999999</ele>
        <time>2018-10-19T11:35:56Z</time>
      </trkpt>
      <trkpt lat="60.780517989769578" lon="6.273793000727892">
        <ele>1087.3900000000001</ele>
        <time>2018-10-19T11:36:03Z</time>
      </trkpt>
      <trkpt lat="60.780498962849379" lon="6.274006990715861">
        <ele>1086.4300000000001</ele>
        <time>2018-10-19T11:36:11Z</time>
      </trkpt>
      <trkpt lat="60.780455963686109" lon="6.274243025109172">
        <ele>1086.9100000000001</ele>
        <time>2018-10-19T11:36:23Z</time>
      </trkpt>
      <trkpt lat="60.780416987836361" lon="6.274403035640717">
        <ele>1087.3900000000001</ele>
        <time>2018-10-19T11:36:30Z</time>
      </trkpt>
      <trkpt lat="60.780355967581272" lon="6.27456002868712">
        <ele>1086.9100000000001</ele>
        <time>2018-10-19T11:36:37Z</time>
      </trkpt>
      <trkpt lat="60.780378011986613" lon="6.274701012298465">
        <ele>1086.9100000000001</ele>
        <time>2018-10-19T11:36:49Z</time>
      </trkpt>
      <trkpt lat="60.780402990058064" lon="6.27479799091816">
        <ele>1085.95</ele>
        <time>2018-10-19T11:36:54Z</time>
      </trkpt>
      <trkpt lat="60.780385974794626" lon="6.274892035871744">
        <ele>1084.5</ele>
        <time>2018-10-19T11:37:01Z</time>
      </trkpt>
      <trkpt lat="60.780383041128516" lon="6.275033019483089">
        <ele>1083.0599999999999</ele>
        <time>2018-10-19T11:37:07Z</time>
      </trkpt>
      <trkpt lat="60.780426962301135" lon="6.275203004479408">
        <ele>1081.6199999999999</ele>
        <time>2018-10-19T11:37:14Z</time>
      </trkpt>
      <trkpt lat="60.780475996434689" lon="6.275434009730816">
        <ele>1081.6199999999999</ele>
        <time>2018-10-19T11:37:22Z</time>
      </trkpt>
      <trkpt lat="60.780472978949547" lon="6.275462005287409">
        <ele>1082.5799999999999</ele>
        <time>2018-10-19T11:37:24Z</time>
      </trkpt>
      <trkpt lat="60.7805410400033" lon="6.27565898001194">
        <ele>1084.02</ele>
        <time>2018-10-19T11:37:35Z</time>
      </trkpt>
      <trkpt lat="60.780571969226003" lon="6.275709019973874">
        <ele>1084.02</ele>
        <time>2018-10-19T11:37:39Z</time>
      </trkpt>
      <trkpt lat="60.780640030279756" lon="6.275758976116777">
        <ele>1082.0999999999999</ele>
        <time>2018-10-19T11:37:45Z</time>
      </trkpt>
      <trkpt lat="60.78065000474453" lon="6.275756964460015">
        <ele>1081.1400000000001</ele>
        <time>2018-10-19T11:37:46Z</time>
      </trkpt>
      <trkpt lat="60.780753018334508" lon="6.275945976376534">
        <ele>1078.26</ele>
        <time>2018-10-19T11:37:54Z</time>
      </trkpt>
      <trkpt lat="60.78075997531414" lon="6.276125013828278">
        <ele>1078.74</ele>
        <time>2018-10-19T11:37:59Z</time>
      </trkpt>
      <trkpt lat="60.780771039426327" lon="6.276290975511074">
        <ele>1081.6199999999999</ele>
        <time>2018-10-19T11:38:07Z</time>
      </trkpt>
      <trkpt lat="60.780767016112804" lon="6.276414021849632">
        <ele>1083.54</ele>
        <time>2018-10-19T11:38:15Z</time>
      </trkpt>
      <trkpt lat="60.780815966427326" lon="6.276633040979505">
        <ele>1084.99</ele>
        <time>2018-10-19T11:38:24Z</time>
      </trkpt>
      <trkpt lat="60.780913028866053" lon="6.276819035410881">
        <ele>1081.6199999999999</ele>
        <time>2018-10-19T11:38:36Z</time>
      </trkpt>
      <trkpt lat="60.780969019979239" lon="6.277101002633572">
        <ele>1079.22</ele>
        <time>2018-10-19T11:38:45Z</time>
      </trkpt>
      <trkpt lat="60.781044038012624" lon="6.277320021763444">
        <ele>1077.78</ele>
        <time>2018-10-19T11:38:51Z</time>
      </trkpt>
      <trkpt lat="60.781130958348513" lon="6.277435021474958">
        <ele>1077.29</ele>
        <time>2018-10-19T11:38:56Z</time>
      </trkpt>
      <trkpt lat="60.781200025230646" lon="6.277496963739395">
        <ele>1076.8099999999999</ele>
        <time>2018-10-19T11:39:02Z</time>
      </trkpt>
      <trkpt lat="60.781266996636987" lon="6.277750013396144">
        <ele>1076.3299999999999</ele>
        <time>2018-10-19T11:39:10Z</time>
      </trkpt>
      <trkpt lat="60.781278982758522" lon="6.277995016425848">
        <ele>1076.3299999999999</ele>
        <time>2018-10-19T11:39:18Z</time>
      </trkpt>
      <trkpt lat="60.781422983855009" lon="6.278210012242198">
        <ele>1077.29</ele>
        <time>2018-10-19T11:39:29Z</time>
      </trkpt>
      <trkpt lat="60.781502025201917" lon="6.278329035267234">
        <ele>1078.74</ele>
        <time>2018-10-19T11:39:36Z</time>
      </trkpt>
      <trkpt lat="60.78151099383831" lon="6.278700018301606">
        <ele>1077.78</ele>
        <time>2018-10-19T11:39:46Z</time>
      </trkpt>
      <trkpt lat="60.781504958868027" lon="6.278813006356359">
        <ele>1077.29</ele>
        <time>2018-10-19T11:39:51Z</time>
      </trkpt>
      <trkpt lat="60.781501019373536" lon="6.278810994699597">
        <ele>1076.8099999999999</ele>
        <time>2018-10-19T11:40:23Z</time>
      </trkpt>
      <trkpt lat="60.781499007716775" lon="6.278829015791416">
        <ele>1075.3699999999999</ele>
        <time>2018-10-19T11:40:30Z</time>
      </trkpt>
      <trkpt lat="60.781507976353168" lon="6.278841001912952">
        <ele>1076.8099999999999</ele>
        <time>2018-10-19T11:40:38Z</time>
      </trkpt>
      <trkpt lat="60.781522979959846" lon="6.278871009126306">
        <ele>1076.8099999999999</ele>
        <time>2018-10-19T11:40:50Z</time>
      </trkpt>
      <trkpt lat="60.781527003273368" lon="6.278866985812783">
        <ele>1076.8099999999999</ele>
        <time>2018-10-19T11:41:13Z</time>
      </trkpt>
      <trkpt lat="60.781517028808594" lon="6.278894981369376">
        <ele>1077.78</ele>
        <time>2018-10-19T11:41:34Z</time>
      </trkpt>
      <trkpt lat="60.781504036858678" lon="6.278919959440827">
        <ele>1077.29</ele>
        <time>2018-10-19T11:41:45Z</time>
      </trkpt>
      <trkpt lat="60.781506970524788" lon="6.278943009674549">
        <ele>1077.78</ele>
        <time>2018-10-19T11:41:55Z</time>
      </trkpt>
      <trkpt lat="60.781658012419939" lon="6.279136966913939">
        <ele>1077.78</ele>
        <time>2018-10-19T11:42:06Z</time>
      </trkpt>
      <trkpt lat="60.78178801573813" lon="6.279292032122612">
        <ele>1077.78</ele>
        <time>2018-10-19T11:42:12Z</time>
      </trkpt>
      <trkpt lat="60.781864039599895" lon="6.279449025169015">
        <ele>1077.78</ele>
        <time>2018-10-19T11:42:18Z</time>
      </trkpt>
      <trkpt lat="60.781936962157488" lon="6.279621021822095">
        <ele>1079.7</ele>
        <time>2018-10-19T11:42:25Z</time>
      </trkpt>
      <trkpt lat="60.7819829788059" lon="6.279771979898214">
        <ele>1081.6199999999999</ele>
        <time>2018-10-19T11:42:33Z</time>
      </trkpt>
      <trkpt lat="60.782033018767834" lon="6.279949005693197">
        <ele>1083.54</ele>
        <time>2018-10-19T11:42:45Z</time>
      </trkpt>
      <trkpt lat="60.782078029587865" lon="6.280103987082839">
        <ele>1084.02</ele>
        <time>2018-10-19T11:42:50Z</time>
      </trkpt>
      <trkpt lat="60.782123962417245" lon="6.280236002057791">
        <ele>1084.5</ele>
        <time>2018-10-19T11:42:56Z</time>
      </trkpt>
      <trkpt lat="60.782209960743785" lon="6.280369022861123">
        <ele>1086.9100000000001</ele>
        <time>2018-10-19T11:43:06Z</time>
      </trkpt>
      <trkpt lat="60.782267041504383" lon="6.280441023409367">
        <ele>1089.79</ele>
        <time>2018-10-19T11:43:10Z</time>
      </trkpt>
      <trkpt lat="60.78228103928268" lon="6.280460972338915">
        <ele>1089.79</ele>
        <time>2018-10-19T11:43:11Z</time>
      </trkpt>
      <trkpt lat="60.782315991818905" lon="6.280487040057778">
        <ele>1091.71</ele>
        <time>2018-10-19T11:43:13Z</time>
      </trkpt>
      <trkpt lat="60.782415987923741" lon="6.280593993142247">
        <ele>1093.6400000000001</ele>
        <time>2018-10-19T11:43:21Z</time>
      </trkpt>
      <trkpt lat="60.782502992078662" lon="6.280688960105181">
        <ele>1094.5999999999999</ele>
        <time>2018-10-19T11:43:27Z</time>
      </trkpt>
      <trkpt lat="60.782511038705707" lon="6.28083698451519">
        <ele>1097</ele>
        <time>2018-10-19T11:43:36Z</time>
      </trkpt>
      <trkpt lat="60.782569041475654" lon="6.281019039452076">
        <ele>1096.52</ele>
        <time>2018-10-19T11:43:46Z</time>
      </trkpt>
      <trkpt lat="60.782630983740091" lon="6.281196987256408">
        <ele>1097</ele>
        <time>2018-10-19T11:43:55Z</time>
      </trkpt>
      <trkpt lat="60.782658979296684" lon="6.281224982813001">
        <ele>1095.5599999999999</ele>
        <time>2018-10-19T11:44:02Z</time>
      </trkpt>
      <trkpt lat="60.782719999551773" lon="6.28113797865808">
        <ele>1093.6400000000001</ele>
        <time>2018-10-19T11:44:08Z</time>
      </trkpt>
      <trkpt lat="60.782752018421888" lon="6.281086010858417">
        <ele>1093.1600000000001</ele>
        <time>2018-10-19T11:44:13Z</time>
      </trkpt>
      <trkpt lat="60.782786970958114" lon="6.281095985323191">
        <ele>1094.5999999999999</ele>
        <time>2018-10-19T11:44:16Z</time>
      </trkpt>
      <trkpt lat="60.782808009535074" lon="6.281126998364925">
        <ele>1097</ele>
        <time>2018-10-19T11:44:26Z</time>
      </trkpt>
      <trkpt lat="60.782808009535074" lon="6.281125992536545">
        <ele>1095.5599999999999</ele>
        <time>2018-10-19T11:45:07Z</time>
      </trkpt>
      <trkpt lat="60.782818989828229" lon="6.281099002808332">
        <ele>1097.48</ele>
        <time>2018-10-19T11:47:02Z</time>
      </trkpt>
      <trkpt lat="60.782847991213202" lon="6.281232023611665">
        <ele>1097.48</ele>
        <time>2018-10-19T11:47:26Z</time>
      </trkpt>
      <trkpt lat="60.782914962619543" lon="6.28135297447443">
        <ele>1097</ele>
        <time>2018-10-19T11:47:34Z</time>
      </trkpt>
      <trkpt lat="60.782990986481309" lon="6.281463028863072">
        <ele>1094.1199999999999</ele>
        <time>2018-10-19T11:47:39Z</time>
      </trkpt>
      <trkpt lat="60.783008001744747" lon="6.281474009156227">
        <ele>1094.1199999999999</ele>
        <time>2018-10-19T11:47:40Z</time>
      </trkpt>
      <trkpt lat="60.783053012564778" lon="6.281490018591285">
        <ele>1091.71</ele>
        <time>2018-10-19T11:47:43Z</time>
      </trkpt>
      <trkpt lat="60.783100035041571" lon="6.281527988612652">
        <ele>1089.79</ele>
        <time>2018-10-19T11:47:46Z</time>
      </trkpt>
      <trkpt lat="60.783145967870951" lon="6.281581968069077">
        <ele>1088.3499999999999</ele>
        <time>2018-10-19T11:47:49Z</time>
      </trkpt>
      <trkpt lat="60.783210005611181" lon="6.281652040779591">
        <ele>1085.95</ele>
        <time>2018-10-19T11:47:53Z</time>
      </trkpt>
      <trkpt lat="60.783230038359761" lon="6.28167299553752">
        <ele>1084.99</ele>
        <time>2018-10-19T11:47:54Z</time>
      </trkpt>
      <trkpt lat="60.783265996724367" lon="6.281654974445701">
        <ele>1084.5</ele>
        <time>2018-10-19T11:47:56Z</time>
      </trkpt>
      <trkpt lat="60.783344032242894" lon="6.28165296278894">
        <ele>1083.54</ele>
        <time>2018-10-19T11:47:59Z</time>
      </trkpt>
      <trkpt lat="60.78342298977077" lon="6.281695039942861">
        <ele>1082.0999999999999</ele>
        <time>2018-10-19T11:48:02Z</time>
      </trkpt>
      <trkpt lat="60.783618036657572" lon="6.281767962500453">
        <ele>1080.1800000000001</ele>
        <time>2018-10-19T11:48:10Z</time>
      </trkpt>
      <trkpt lat="60.783729013055563" lon="6.281807022169232">
        <ele>1079.22</ele>
        <time>2018-10-19T11:48:16Z</time>
      </trkpt>
      <trkpt lat="60.783844012767076" lon="6.281787995249033">
        <ele>1077.29</ele>
        <time>2018-10-19T11:48:20Z</time>
      </trkpt>
      <trkpt lat="60.783887011930346" lon="6.281787995249033">
        <ele>1076.8099999999999</ele>
        <time>2018-10-19T11:48:22Z</time>
      </trkpt>
      <trkpt lat="60.784052973613143" lon="6.281970972195268">
        <ele>1076.3299999999999</ele>
        <time>2018-10-19T11:48:29Z</time>
      </trkpt>
      <trkpt lat="60.78411097638309" lon="6.282098963856697">
        <ele>1075.8499999999999</ele>
        <time>2018-10-19T11:48:35Z</time>
      </trkpt>
      <trkpt lat="60.784183982759714" lon="6.282391995191574">
        <ele>1075.3699999999999</ele>
        <time>2018-10-19T11:48:41Z</time>
      </trkpt>
      <trkpt lat="60.784320021048188" lon="6.282601961866021">
        <ele>1074.8900000000001</ele>
        <time>2018-10-19T11:48:49Z</time>
      </trkpt>
      <trkpt lat="60.784451030194759" lon="6.282814024016261">
        <ele>1076.3299999999999</ele>
        <time>2018-10-19T11:48:57Z</time>
      </trkpt>
      <trkpt lat="60.784520013257861" lon="6.282973028719425">
        <ele>1075.3699999999999</ele>
        <time>2018-10-19T11:49:03Z</time>
      </trkpt>
      <trkpt lat="60.784641969949007" lon="6.283121975138784">
        <ele>1073.9300000000001</ele>
        <time>2018-10-19T11:49:10Z</time>
      </trkpt>
      <trkpt lat="60.784662002697587" lon="6.283148964866996">
        <ele>1073.9300000000001</ele>
        <time>2018-10-19T11:49:11Z</time>
      </trkpt>
      <trkpt lat="60.784781025722623" lon="6.283329008147121">
        <ele>1073.45</ele>
        <time>2018-10-19T11:49:18Z</time>
      </trkpt>
      <trkpt lat="60.784815978258848" lon="6.283373013138771">
        <ele>1073.45</ele>
        <time>2018-10-19T11:49:20Z</time>
      </trkpt>
      <trkpt lat="60.784935001283884" lon="6.283495975658298">
        <ele>1073.45</ele>
        <time>2018-10-19T11:49:26Z</time>
      </trkpt>
      <trkpt lat="60.785051006823778" lon="6.283679958432913">
        <ele>1073.45</ele>
        <time>2018-10-19T11:49:33Z</time>
      </trkpt>
      <trkpt lat="60.785157959908247" lon="6.283811973407865">
        <ele>1073.45</ele>
        <time>2018-10-19T11:49:39Z</time>
      </trkpt>
      <trkpt lat="60.785246975719929" lon="6.283861007541418">
        <ele>1073.45</ele>
        <time>2018-10-19T11:49:45Z</time>
      </trkpt>
      <trkpt lat="60.785322999581695" lon="6.283986987546086">
        <ele>1073.45</ele>
        <time>2018-10-19T11:49:51Z</time>
      </trkpt>
      <trkpt lat="60.785343032330275" lon="6.284010959789157">
        <ele>1073.45</ele>
        <time>2018-10-19T11:49:52Z</time>
      </trkpt>
      <trkpt lat="60.785462977364659" lon="6.283962009474635">
        <ele>1072.49</ele>
        <time>2018-10-19T11:49:59Z</time>
      </trkpt>
      <trkpt lat="60.785560039803386" lon="6.284023029729724">
        <ele>1073.9300000000001</ele>
        <time>2018-10-19T11:50:05Z</time>
      </trkpt>
      <trkpt lat="60.785651989281178" lon="6.284116990864277">
        <ele>1073.45</ele>
        <time>2018-10-19T11:50:11Z</time>
      </trkpt>
      <trkpt lat="60.785820968449116" lon="6.284269960597158">
        <ele>1073.9300000000001</ele>
        <time>2018-10-19T11:50:19Z</time>
      </trkpt>
      <trkpt lat="60.785906966775656" lon="6.28442401997745">
        <ele>1074.4100000000001</ele>
        <time>2018-10-19T11:50:25Z</time>
      </trkpt>
      <trkpt lat="60.786006040871143" lon="6.284556034952402">
        <ele>1075.3699999999999</ele>
        <time>2018-10-19T11:50:32Z</time>
      </trkpt>
      <trkpt lat="60.786141995340586" lon="6.284594004973769">
        <ele>1072.97</ele>
        <time>2018-10-19T11:50:39Z</time>
      </trkpt>
      <trkpt lat="60.786223970353603" lon="6.284548994153738">
        <ele>1072.49</ele>
        <time>2018-10-19T11:50:44Z</time>
      </trkpt>
      <trkpt lat="60.786252971738577" lon="6.284514041617513">
        <ele>1072.49</ele>
        <time>2018-10-19T11:50:46Z</time>
      </trkpt>
      <trkpt lat="60.786369983106852" lon="6.284656031057239">
        <ele>1073.9300000000001</ele>
        <time>2018-10-19T11:50:53Z</time>
      </trkpt>
      <trkpt lat="60.786489006131887" lon="6.284845964983106">
        <ele>1073.45</ele>
        <time>2018-10-19T11:51:01Z</time>
      </trkpt>
      <trkpt lat="60.786596965044737" lon="6.285097002983093">
        <ele>1073.45</ele>
        <time>2018-10-19T11:51:10Z</time>
      </trkpt>
      <trkpt lat="60.786610040813684" lon="6.285115024074912">
        <ele>1073.45</ele>
        <time>2018-10-19T11:51:11Z</time>
      </trkpt>
      <trkpt lat="60.78671095892787" lon="6.285203034058213">
        <ele>1072.01</ele>
        <time>2018-10-19T11:51:17Z</time>
      </trkpt>
      <trkpt lat="60.786767033860087" lon="6.285250978544354">
        <ele>1070.5699999999999</ele>
        <time>2018-10-19T11:51:20Z</time>
      </trkpt>
      <trkpt lat="60.786857977509499" lon="6.285356003791094">
        <ele>1070.0799999999999</ele>
        <time>2018-10-19T11:51:25Z</time>
      </trkpt>
      <trkpt lat="60.786978006362915" lon="6.285485001280904">
        <ele>1070.0799999999999</ele>
        <time>2018-10-19T11:51:33Z</time>
      </trkpt>
      <trkpt lat="60.787090994417667" lon="6.28560796380043">
        <ele>1070.5699999999999</ele>
        <time>2018-10-19T11:51:41Z</time>
      </trkpt>
      <trkpt lat="60.787103986367583" lon="6.285613998770714">
        <ele>1070.5699999999999</ele>
        <time>2018-10-19T11:51:42Z</time>
      </trkpt>
      <trkpt lat="60.787214040756226" lon="6.285635037347674">
        <ele>1070.0799999999999</ele>
        <time>2018-10-19T11:51:48Z</time>
      </trkpt>
      <trkpt lat="60.787229966372252" lon="6.285635037347674">
        <ele>1069.5999999999999</ele>
        <time>2018-10-19T11:51:49Z</time>
      </trkpt>
      <trkpt lat="60.787303978577256" lon="6.285609975457192">
        <ele>1070.0799999999999</ele>
        <time>2018-10-19T11:51:53Z</time>
      </trkpt>
      <trkpt lat="60.787450997158885" lon="6.285696979612112">
        <ele>1071.53</ele>
        <time>2018-10-19T11:52:01Z</time>
      </trkpt>
      <trkpt lat="60.787562979385257" lon="6.285877022892237">
        <ele>1073.9300000000001</ele>
        <time>2018-10-19T11:52:09Z</time>
      </trkpt>
      <trkpt lat="60.787563985213637" lon="6.286136023700237">
        <ele>1076.3299999999999</ele>
        <time>2018-10-19T11:52:17Z</time>
      </trkpt>
      <trkpt lat="60.787587035447359" lon="6.286214981228113">
        <ele>1077.29</ele>
        <time>2018-10-19T11:52:20Z</time>
      </trkpt>
      <trkpt lat="60.787625005468726" lon="6.286291005089879">
        <ele>1079.22</ele>
        <time>2018-10-19T11:52:23Z</time>
      </trkpt>
      <trkpt lat="60.787671022117138" lon="6.286404998973012">
        <ele>1081.6199999999999</ele>
        <time>2018-10-19T11:52:27Z</time>
      </trkpt>
      <trkpt lat="60.787773029878736" lon="6.286493008956313">
        <ele>1082.5799999999999</ele>
        <time>2018-10-19T11:52:35Z</time>
      </trkpt>
      <trkpt lat="60.78787000849843" lon="6.286585964262486">
        <ele>1083.0599999999999</ele>
        <time>2018-10-19T11:52:41Z</time>
      </trkpt>
      <trkpt lat="60.788015015423298" lon="6.286753015592694">
        <ele>1083.54</ele>
        <time>2018-10-19T11:52:49Z</time>
      </trkpt>
      <trkpt lat="60.788135966286063" lon="6.286818981170654">
        <ele>1082.5799999999999</ele>
        <time>2018-10-19T11:52:58Z</time>
      </trkpt>
      <trkpt lat="60.788308968767524" lon="6.286906991153956">
        <ele>1082.0999999999999</ele>
        <time>2018-10-19T11:53:06Z</time>
      </trkpt>
      <trkpt lat="60.788421034812927" lon="6.287049986422062">
        <ele>1082.0999999999999</ele>
        <time>2018-10-19T11:53:12Z</time>
      </trkpt>
      <trkpt lat="60.788494041189551" lon="6.287269005551934">
        <ele>1083.0599999999999</ele>
        <time>2018-10-19T11:53:18Z</time>
      </trkpt>
      <trkpt lat="60.788594959303737" lon="6.287546027451754">
        <ele>1084.02</ele>
        <time>2018-10-19T11:53:26Z</time>
      </trkpt>
      <trkpt lat="60.788682969287038" lon="6.287706959992647">
        <ele>1083.54</ele>
        <time>2018-10-19T11:53:32Z</time>
      </trkpt>
      <trkpt lat="60.788781959563494" lon="6.287825983017683">
        <ele>1083.54</ele>
        <time>2018-10-19T11:53:38Z</time>
      </trkpt>
      <trkpt lat="60.788883967325091" lon="6.287928996607661">
        <ele>1084.99</ele>
        <time>2018-10-19T11:53:45Z</time>
      </trkpt>
      <trkpt lat="60.788992010056973" lon="6.288074003532529">
        <ele>1086.4300000000001</ele>
        <time>2018-10-19T11:53:53Z</time>
      </trkpt>
      <trkpt lat="60.789080020040274" lon="6.288250023499131">
        <ele>1088.3499999999999</ele>
        <time>2018-10-19T11:54:00Z</time>
      </trkpt>
      <trkpt lat="60.789167024195194" lon="6.288505000993609">
        <ele>1088.3499999999999</ele>
        <time>2018-10-19T11:54:07Z</time>
      </trkpt>
      <trkpt lat="60.78926601447165" lon="6.288553029298782">
        <ele>1088.8299999999999</ele>
        <time>2018-10-19T11:54:14Z</time>
      </trkpt>
      <trkpt lat="60.789342960342765" lon="6.288656964898109">
        <ele>1090.27</ele>
        <time>2018-10-19T11:54:21Z</time>
      </trkpt>
      <trkpt lat="60.789511017501354" lon="6.28891596570611">
        <ele>1092.2</ele>
        <time>2018-10-19T11:54:36Z</time>
      </trkpt>
      <trkpt lat="60.789602966979146" lon="6.289098020642996">
        <ele>1093.1600000000001</ele>
        <time>2018-10-19T11:54:42Z</time>
      </trkpt>
      <trkpt lat="60.789683014154434" lon="6.289282003417611">
        <ele>1092.6800000000001</ele>
        <time>2018-10-19T11:54:49Z</time>
      </trkpt>
      <trkpt lat="60.789786027744412" lon="6.289449976757169">
        <ele>1093.6400000000001</ele>
        <time>2018-10-19T11:54:55Z</time>
      </trkpt>
      <trkpt lat="60.789883006364107" lon="6.289658015593886">
        <ele>1094.5999999999999</ele>
        <time>2018-10-19T11:55:03Z</time>
      </trkpt>
      <trkpt lat="60.78997403383255" lon="6.289775026962161">
        <ele>1094.5999999999999</ele>
        <time>2018-10-19T11:55:09Z</time>
      </trkpt>
      <trkpt lat="60.790116023272276" lon="6.289909975603223">
        <ele>1094.1199999999999</ele>
        <time>2018-10-19T11:55:17Z</time>
      </trkpt>
      <trkpt lat="60.790186012163758" lon="6.290116002783179">
        <ele>1094.1199999999999</ele>
        <time>2018-10-19T11:55:23Z</time>
      </trkpt>
      <trkpt lat="60.790219958871603" lon="6.290423031896353">
        <ele>1091.71</ele>
        <time>2018-10-19T11:55:30Z</time>
      </trkpt>
      <trkpt lat="60.790243009105325" lon="6.29067700356245">
        <ele>1092.2</ele>
        <time>2018-10-19T11:55:37Z</time>
      </trkpt>
      <trkpt lat="60.790228005498648" lon="6.290756966918707">
        <ele>1093.6400000000001</ele>
        <time>2018-10-19T11:55:40Z</time>
      </trkpt>
      <trkpt lat="60.790248038247228" lon="6.290909014642239">
        <ele>1096.04</ele>
        <time>2018-10-19T11:55:46Z</time>
      </trkpt>
      <trkpt lat="60.79032096080482" lon="6.291210008785129">
        <ele>1097.48</ele>
        <time>2018-10-19T11:55:55Z</time>
      </trkpt>
      <trkpt lat="60.790402013808489" lon="6.291357027366757">
        <ele>1099.8900000000001</ele>
        <time>2018-10-19T11:56:02Z</time>
      </trkpt>
      <trkpt lat="60.790449036285281" lon="6.291491976007819">
        <ele>1098.9200000000001</ele>
        <time>2018-10-19T11:56:08Z</time>
      </trkpt>
      <trkpt lat="60.790521958842874" lon="6.291652992367744">
        <ele>1100.3699999999999</ele>
        <time>2018-10-19T11:56:18Z</time>
      </trkpt>
      <trkpt lat="60.790580967441201" lon="6.291854996234179">
        <ele>1099.8900000000001</ele>
        <time>2018-10-19T11:56:26Z</time>
      </trkpt>
      <trkpt lat="60.790640981867909" lon="6.292027998715639">
        <ele>1098.9200000000001</ele>
        <time>2018-10-19T11:56:32Z</time>
      </trkpt>
      <trkpt lat="60.790792023763061" lon="6.292305020615459">
        <ele>1098.4400000000001</ele>
        <time>2018-10-19T11:56:49Z</time>
      </trkpt>
      <trkpt lat="60.790890008211136" lon="6.292466036975384">
        <ele>1098.4400000000001</ele>
        <time>2018-10-19T11:56:56Z</time>
      </trkpt>
      <trkpt lat="60.790965026244521" lon="6.292624035850167">
        <ele>1096.52</ele>
        <time>2018-10-19T11:57:03Z</time>
      </trkpt>
      <trkpt lat="60.791020011529326" lon="6.292894016951323">
        <ele>1096.04</ele>
        <time>2018-10-19T11:57:17Z</time>
      </trkpt>
      <trkpt lat="60.791072985157371" lon="6.293022008612752">
        <ele>1094.1199999999999</ele>
        <time>2018-10-19T11:57:24Z</time>
      </trkpt>
      <trkpt lat="60.791184967383742" lon="6.293329959735274">
        <ele>1091.23</ele>
        <time>2018-10-19T11:57:36Z</time>
      </trkpt>
      <trkpt lat="60.791158983483911" lon="6.293372036889195">
        <ele>1092.6800000000001</ele>
        <time>2018-10-19T11:57:45Z</time>
      </trkpt>
      <trkpt lat="60.791145991533995" lon="6.293364996090531">
        <ele>1094.1199999999999</ele>
        <time>2018-10-19T11:57:48Z</time>
      </trkpt>
      <trkpt lat="60.791074996814132" lon="6.293378993868828">
        <ele>1097.48</ele>
        <time>2018-10-19T11:58:00Z</time>
      </trkpt>
      <trkpt lat="60.7910490129143" lon="6.29342501051724">
        <ele>1099.4000000000001</ele>
        <time>2018-10-19T11:58:05Z</time>
      </trkpt>
      <trkpt lat="60.791084971278906" lon="6.293644029647112">
        <ele>1099.4000000000001</ele>
        <time>2018-10-19T11:58:16Z</time>
      </trkpt>
      <trkpt lat="60.791121013462543" lon="6.293873023241758">
        <ele>1097</ele>
        <time>2018-10-19T11:58:22Z</time>
      </trkpt>
      <trkpt lat="60.791099974885583" lon="6.294120959937573">
        <ele>1097.48</ele>
        <time>2018-10-19T11:58:32Z</time>
      </trkpt>
      <trkpt lat="60.791050018742681" lon="6.294260015711188">
        <ele>1097.96</ele>
        <time>2018-10-19T11:58:39Z</time>
      </trkpt>
      <trkpt lat="60.790918003767729" lon="6.294408040121198">
        <ele>1097</ele>
        <time>2018-10-19T11:58:51Z</time>
      </trkpt>
      <trkpt lat="60.790825970470905" lon="6.294532008469105">
        <ele>1095.0799999999999</ele>
        <time>2018-10-19T11:59:02Z</time>
      </trkpt>
      <trkpt lat="60.790751958265901" lon="6.294734012335539">
        <ele>1093.1600000000001</ele>
        <time>2018-10-19T11:59:11Z</time>
      </trkpt>
      <trkpt lat="60.790685992687941" lon="6.29484398290515">
        <ele>1093.1600000000001</ele>
        <time>2018-10-19T11:59:16Z</time>
      </trkpt>
      <trkpt lat="60.790577027946711" lon="6.294884970411658">
        <ele>1091.23</ele>
        <time>2018-10-19T11:59:25Z</time>
      </trkpt>
      <trkpt lat="60.790448030456901" lon="6.294949008151889">
        <ele>1089.79</ele>
        <time>2018-10-19T11:59:36Z</time>
      </trkpt>
      <trkpt lat="60.790411988273263" lon="6.294962000101805">
        <ele>1087.3900000000001</ele>
        <time>2018-10-19T11:59:45Z</time>
      </trkpt>
      <trkpt lat="60.790389021858573" lon="6.294968035072088">
        <ele>1088.3499999999999</ele>
        <time>2018-10-19T11:59:48Z</time>
      </trkpt>
      <trkpt lat="60.790347028523684" lon="6.294975997880101">
        <ele>1091.71</ele>
        <time>2018-10-19T11:59:51Z</time>
      </trkpt>
      <trkpt lat="60.790210990235209" lon="6.294979015365243">
        <ele>1090.27</ele>
        <time>2018-10-19T11:59:57Z</time>
      </trkpt>
      <trkpt lat="60.790195986628532" lon="6.294988989830017">
        <ele>1089.3099999999999</ele>
        <time>2018-10-19T11:59:59Z</time>
      </trkpt>
      <trkpt lat="60.790104959160089" lon="6.29495101980865">
        <ele>1088.3499999999999</ele>
        <time>2018-10-19T12:00:03Z</time>
      </trkpt>
      <trkpt lat="60.790072018280625" lon="6.294892011210322">
        <ele>1087.3900000000001</ele>
        <time>2018-10-19T12:00:06Z</time>
      </trkpt>
      <trkpt lat="60.790032958611846" lon="6.294814981520176">
        <ele>1086.4300000000001</ele>
        <time>2018-10-19T12:00:17Z</time>
      </trkpt>
      <trkpt lat="60.790030024945736" lon="6.294831996783614">
        <ele>1086.4300000000001</ele>
        <time>2018-10-19T12:00:20Z</time>
      </trkpt>
      <trkpt lat="60.789969004690647" lon="6.29486502148211">
        <ele>1084.5</ele>
        <time>2018-10-19T12:00:24Z</time>
      </trkpt>
      <trkpt lat="60.789951989427209" lon="6.294854963198304">
        <ele>1082.0999999999999</ele>
        <time>2018-10-19T12:00:26Z</time>
      </trkpt>
      <trkpt lat="60.789900021627545" lon="6.294841971248388">
        <ele>1080.6600000000001</ele>
        <time>2018-10-19T12:00:30Z</time>
      </trkpt>
      <trkpt lat="60.78984503634274" lon="6.294864015653729">
        <ele>1079.22</ele>
        <time>2018-10-19T12:00:33Z</time>
      </trkpt>
      <trkpt lat="60.789812011644244" lon="6.294851023703814">
        <ele>1078.26</ele>
        <time>2018-10-19T12:00:39Z</time>
      </trkpt>
      <trkpt lat="60.789780998602509" lon="6.29486502148211">
        <ele>1075.8499999999999</ele>
        <time>2018-10-19T12:00:46Z</time>
      </trkpt>
      <trkpt lat="60.789769012480974" lon="6.294882036745548">
        <ele>1074.4100000000001</ele>
        <time>2018-10-19T12:00:49Z</time>
      </trkpt>
      <trkpt lat="60.789692988619208" lon="6.294798972085118">
        <ele>1072.97</ele>
        <time>2018-10-19T12:00:59Z</time>
      </trkpt>
      <trkpt lat="60.789611013606191" lon="6.294772988185287">
        <ele>1071.05</ele>
        <time>2018-10-19T12:01:08Z</time>
      </trkpt>
      <trkpt lat="60.789601039141417" lon="6.294810958206654">
        <ele>1069.1199999999999</ele>
        <time>2018-10-19T12:01:12Z</time>
      </trkpt>
      <trkpt lat="60.789529960602522" lon="6.294868038967252">
        <ele>1066.72</ele>
        <time>2018-10-19T12:01:18Z</time>
      </trkpt>
      <trkpt lat="60.789542030543089" lon="6.294892011210322">
        <ele>1065.28</ele>
        <time>2018-10-19T12:01:20Z</time>
      </trkpt>
      <trkpt lat="60.789630962535739" lon="6.295170038938522">
        <ele>1062.3900000000001</ele>
        <time>2018-10-19T12:01:28Z</time>
      </trkpt>
      <trkpt lat="60.789667004719377" lon="6.295322002843022">
        <ele>1060.95</ele>
        <time>2018-10-19T12:01:31Z</time>
      </trkpt>
      <trkpt lat="60.789684019982815" lon="6.295556025579572">
        <ele>1060.95</ele>
        <time>2018-10-19T12:01:37Z</time>
      </trkpt>
      <trkpt lat="60.789749985560775" lon="6.295858025550842">
        <ele>1061.9100000000001</ele>
        <time>2018-10-19T12:01:45Z</time>
      </trkpt>
      <trkpt lat="60.78982500359416" lon="6.296065980568528">
        <ele>1060.95</ele>
        <time>2018-10-19T12:01:51Z</time>
      </trkpt>
      <trkpt lat="60.789875965565443" lon="6.296265972778201">
        <ele>1062.3900000000001</ele>
        <time>2018-10-19T12:01:56Z</time>
      </trkpt>
      <trkpt lat="60.789955006912351" lon="6.296493960544467">
        <ele>1063.8399999999999</ele>
        <time>2018-10-19T12:02:03Z</time>
      </trkpt>
      <trkpt lat="60.789998006075621" lon="6.296700993552804">
        <ele>1064.3199999999999</ele>
        <time>2018-10-19T12:02:09Z</time>
      </trkpt>
      <trkpt lat="60.790071012452245" lon="6.296925963833928">
        <ele>1064.3199999999999</ele>
        <time>2018-10-19T12:02:16Z</time>
      </trkpt>
      <trkpt lat="60.790188023820519" lon="6.297092009335756">
        <ele>1063.3599999999999</ele>
        <time>2018-10-19T12:02:22Z</time>
      </trkpt>
      <trkpt lat="60.790331019088626" lon="6.297295019030571">
        <ele>1060.95</ele>
        <time>2018-10-19T12:02:28Z</time>
      </trkpt>
      <trkpt lat="60.790503015741706" lon="6.29744497127831">
        <ele>1058.0699999999999</ele>
        <time>2018-10-19T12:02:36Z</time>
      </trkpt>
      <trkpt lat="60.79057602211833" lon="6.297607999294996">
        <ele>1059.03</ele>
        <time>2018-10-19T12:02:42Z</time>
      </trkpt>
      <trkpt lat="60.790664032101631" lon="6.297818971797824">
        <ele>1058.0699999999999</ele>
        <time>2018-10-19T12:02:48Z</time>
      </trkpt>
      <trkpt lat="60.790714994072914" lon="6.297903964295983">
        <ele>1056.6300000000001</ele>
        <time>2018-10-19T12:02:51Z</time>
      </trkpt>
      <trkpt lat="60.790767967700958" lon="6.297931037843227">
        <ele>1055.6700000000001</ele>
        <time>2018-10-19T12:02:53Z</time>
      </trkpt>
      <trkpt lat="60.790809039026499" lon="6.297943023964763">
        <ele>1054.7</ele>
        <time>2018-10-19T12:02:55Z</time>
      </trkpt>
      <trkpt lat="60.790949016809464" lon="6.29815399646759">
        <ele>1050.8599999999999</ele>
        <time>2018-10-19T12:03:03Z</time>
      </trkpt>
      <trkpt lat="60.790970977395773" lon="6.29817696288228">
        <ele>1050.8599999999999</ele>
        <time>2018-10-19T12:03:04Z</time>
      </trkpt>
      <trkpt lat="60.791017999872565" lon="6.298261033371091">
        <ele>1049.4200000000001</ele>
        <time>2018-10-19T12:03:07Z</time>
      </trkpt>
      <trkpt lat="60.791110033169389" lon="6.298436969518662">
        <ele>1048.9400000000001</ele>
        <time>2018-10-19T12:03:13Z</time>
      </trkpt>
      <trkpt lat="60.791214974597096" lon="6.298525985330343">
        <ele>1048.45</ele>
        <time>2018-10-19T12:03:18Z</time>
      </trkpt>
      <trkpt lat="60.791311031207442" lon="6.298665963113308">
        <ele>1046.53</ele>
        <time>2018-10-19T12:03:24Z</time>
      </trkpt>
      <trkpt lat="60.791369033977389" lon="6.298743998631835">
        <ele>1045.0899999999999</ele>
        <time>2018-10-19T12:03:27Z</time>
      </trkpt>
      <trkpt lat="60.791424019262195" lon="6.298812981694937">
        <ele>1043.6500000000001</ele>
        <time>2018-10-19T12:03:30Z</time>
      </trkpt>
      <trkpt lat="60.791486967355013" lon="6.298863021656871">
        <ele>1042.21</ele>
        <time>2018-10-19T12:03:33Z</time>
      </trkpt>
      <trkpt lat="60.791556034237146" lon="6.298898980021477">
        <ele>1040.28</ele>
        <time>2018-10-19T12:03:35Z</time>
      </trkpt>
      <trkpt lat="60.791629962623119" lon="6.298895040526986">
        <ele>1038.8399999999999</ele>
        <time>2018-10-19T12:03:39Z</time>
      </trkpt>
      <trkpt lat="60.791789973154664" lon="6.299001993611455">
        <ele>1036.4400000000001</ele>
        <time>2018-10-19T12:03:47Z</time>
      </trkpt>
      <trkpt lat="60.791848981752992" lon="6.299063013866544">
        <ele>1035.96</ele>
        <time>2018-10-19T12:03:51Z</time>
      </trkpt>
      <trkpt lat="60.791920982301235" lon="6.299066031351686">
        <ele>1035</ele>
        <time>2018-10-19T12:03:55Z</time>
      </trkpt>
      <trkpt lat="60.792040005326271" lon="6.299239033833146">
        <ele>1032.5899999999999</ele>
        <time>2018-10-19T12:04:02Z</time>
      </trkpt>
      <trkpt lat="60.792100019752979" lon="6.299231993034482">
        <ele>1031.1500000000001</ele>
        <time>2018-10-19T12:04:05Z</time>
      </trkpt>
      <trkpt lat="60.792199010029435" lon="6.29937800578773">
        <ele>1029.23</ele>
        <time>2018-10-19T12:04:11Z</time>
      </trkpt>
      <trkpt lat="60.792310992255807" lon="6.299552014097571">
        <ele>1025.8599999999999</ele>
        <time>2018-10-19T12:04:16Z</time>
      </trkpt>
      <trkpt lat="60.792435966432095" lon="6.299709007143974">
        <ele>1024.4200000000001</ele>
        <time>2018-10-19T12:04:22Z</time>
      </trkpt>
      <trkpt lat="60.792547026649117" lon="6.299834987148643">
        <ele>1023.9400000000001</ele>
        <time>2018-10-19T12:04:28Z</time>
      </trkpt>
      <trkpt lat="60.792688010260463" lon="6.300092982128263">
        <ele>1022.98</ele>
        <time>2018-10-19T12:04:35Z</time>
      </trkpt>
      <trkpt lat="60.792785994708538" lon="6.30025802180171">
        <ele>1022.02</ele>
        <time>2018-10-19T12:04:41Z</time>
      </trkpt>
      <trkpt lat="60.792871993035078" lon="6.300376038998365">
        <ele>1020.1</ele>
        <time>2018-10-19T12:04:45Z</time>
      </trkpt>
      <trkpt lat="60.792927984148264" lon="6.300471005961299">
        <ele>1018.65</ele>
        <time>2018-10-19T12:04:48Z</time>
      </trkpt>
      <trkpt lat="60.793067961931229" lon="6.300668986514211">
        <ele>1016.73</ele>
        <time>2018-10-19T12:04:55Z</time>
      </trkpt>
      <trkpt lat="60.793163012713194" lon="6.30079597234726">
        <ele>1015.77</ele>
        <time>2018-10-19T12:05:00Z</time>
      </trkpt>
      <trkpt lat="60.793276000767946" lon="6.300954977050424">
        <ele>1013.85</ele>
        <time>2018-10-19T12:05:05Z</time>
      </trkpt>
      <trkpt lat="60.79341103322804" lon="6.301177013665438">
        <ele>1013.37</ele>
        <time>2018-10-19T12:05:12Z</time>
      </trkpt>
      <trkpt lat="60.793506000190973" lon="6.301306011155248">
        <ele>1013.37</ele>
        <time>2018-10-19T12:05:17Z</time>
      </trkpt>
      <trkpt lat="60.793538019061089" lon="6.301538022235036">
        <ele>1012.89</ele>
        <time>2018-10-19T12:05:22Z</time>
      </trkpt>
      <trkpt lat="60.793616976588964" lon="6.301630977541208">
        <ele>1012.41</ele>
        <time>2018-10-19T12:05:27Z</time>
      </trkpt>
      <trkpt lat="60.793717978522182" lon="6.301770033314824">
        <ele>1011.9299999999999</ele>
        <time>2018-10-19T12:05:33Z</time>
      </trkpt>
      <trkpt lat="60.793812023475766" lon="6.302086031064391">
        <ele>1010.96</ele>
        <time>2018-10-19T12:05:41Z</time>
      </trkpt>
      <trkpt lat="60.793870026245713" lon="6.302262973040342">
        <ele>1010</ele>
        <time>2018-10-19T12:05:45Z</time>
      </trkpt>
      <trkpt lat="60.793975973501801" lon="6.302444022148848">
        <ele>1010</ele>
        <time>2018-10-19T12:05:53Z</time>
      </trkpt>
      <trkpt lat="60.794065995141864" lon="6.302688019350171">
        <ele>1008.5599999999999</ele>
        <time>2018-10-19T12:06:00Z</time>
      </trkpt>
      <trkpt lat="60.794166997075081" lon="6.302840989083052">
        <ele>1009.04</ele>
        <time>2018-10-19T12:06:06Z</time>
      </trkpt>
      <trkpt lat="60.794304963201284" lon="6.303008962422609">
        <ele>1006.64</ele>
        <time>2018-10-19T12:06:13Z</time>
      </trkpt>
      <trkpt lat="60.794431027024984" lon="6.303185988217592">
        <ele>1008.08</ele>
        <time>2018-10-19T12:06:20Z</time>
      </trkpt>
      <trkpt lat="60.79453001730144" lon="6.303248014301062">
        <ele>1008.08</ele>
        <time>2018-10-19T12:06:24Z</time>
      </trkpt>
      <trkpt lat="60.79468097537756" lon="6.303345998749137">
        <ele>1007.12</ele>
        <time>2018-10-19T12:06:31Z</time>
      </trkpt>
      <trkpt lat="60.79481097869575" lon="6.303444989025593">
        <ele>1005.6799999999999</ele>
        <time>2018-10-19T12:06:36Z</time>
      </trkpt>
      <trkpt lat="60.794984987005591" lon="6.303597036749125">
        <ele>1005.2</ele>
        <time>2018-10-19T12:06:45Z</time>
      </trkpt>
      <trkpt lat="60.795123958960176" lon="6.303670965135098">
        <ele>1005.6799999999999</ele>
        <time>2018-10-19T12:06:51Z</time>
      </trkpt>
      <trkpt lat="60.795199982821941" lon="6.30378101952374">
        <ele>1003.27</ele>
        <time>2018-10-19T12:07:01Z</time>
      </trkpt>
      <trkpt lat="60.795213980600238" lon="6.303785964846611">
        <ele>1001.83</ele>
        <time>2018-10-19T12:07:14Z</time>
      </trkpt>
      <trkpt lat="60.795220015570521" lon="6.303785964846611">
        <ele>1000.39</ele>
        <time>2018-10-19T12:07:57Z</time>
      </trkpt>
      <trkpt lat="60.795220015570521" lon="6.303784037008882">
        <ele>1000.39</ele>
        <time>2018-10-19T12:08:58Z</time>
      </trkpt>
      <trkpt lat="60.795254968106747" lon="6.303837010636926">
        <ele>998.47000000000003</ele>
        <time>2018-10-19T12:09:12Z</time>
      </trkpt>
      <trkpt lat="60.795343983918428" lon="6.303922003135085">
        <ele>996.05999999999995</ele>
        <time>2018-10-19T12:09:18Z</time>
      </trkpt>
      <trkpt lat="60.795402992516756" lon="6.303986040875316">
        <ele>994.13999999999999</ele>
        <time>2018-10-19T12:09:21Z</time>
      </trkpt>
      <trkpt lat="60.795460995286703" lon="6.304058963432908">
        <ele>992.70000000000005</ele>
        <time>2018-10-19T12:09:24Z</time>
      </trkpt>
      <trkpt lat="60.79553903080523" lon="6.304146973416209">
        <ele>991.25999999999999</ele>
        <time>2018-10-19T12:09:28Z</time>
      </trkpt>
      <trkpt lat="60.795565014705062" lon="6.304230960085988">
        <ele>989.80999999999995</ele>
        <time>2018-10-19T12:09:31Z</time>
      </trkpt>
      <trkpt lat="60.795600973069668" lon="6.304312013089657">
        <ele>988.85000000000002</ele>
        <time>2018-10-19T12:09:34Z</time>
      </trkpt>
      <trkpt lat="60.795708009973168" lon="6.304416032508016">
        <ele>985.49000000000001</ele>
        <time>2018-10-19T12:09:41Z</time>
      </trkpt>
      <trkpt lat="60.795773975551128" lon="6.304460959509015">
        <ele>984.04999999999995</ele>
        <time>2018-10-19T12:09:44Z</time>
      </trkpt>
      <trkpt lat="60.795822003856301" lon="6.304515022784472">
        <ele>982.60000000000002</ele>
        <time>2018-10-19T12:09:47Z</time>
      </trkpt>
      <trkpt lat="60.795888975262642" lon="6.304586017504334">
        <ele>980.67999999999995</ele>
        <time>2018-10-19T12:09:50Z</time>
      </trkpt>
      <trkpt lat="60.795963993296027" lon="6.304665980860591">
        <ele>978.27999999999997</ele>
        <time>2018-10-19T12:09:54Z</time>
      </trkpt>
      <trkpt lat="60.795996012166142" lon="6.304697999730706">
        <ele>976.84000000000003</ele>
        <time>2018-10-19T12:10:04Z</time>
      </trkpt>
      <trkpt lat="60.796086033806205" lon="6.304821968078613">
        <ele>975.88</ele>
        <time>2018-10-19T12:10:26Z</time>
      </trkpt>
      <trkpt lat="60.796161973848939" lon="6.30487997084856">
        <ele>972.50999999999999</ele>
        <time>2018-10-19T12:10:32Z</time>
      </trkpt>
      <trkpt lat="60.796170020475984" lon="6.304880976676941">
        <ele>972.50999999999999</ele>
        <time>2018-10-19T12:10:33Z</time>
      </trkpt>
      <trkpt lat="60.796217964962125" lon="6.304937973618507">
        <ele>970.11000000000001</ele>
        <time>2018-10-19T12:10:37Z</time>
      </trkpt>
      <trkpt lat="60.796264987438917" lon="6.305030006915331">
        <ele>968.66999999999996</ele>
        <time>2018-10-19T12:10:40Z</time>
      </trkpt>
      <trkpt lat="60.796296000480652" lon="6.30513402633369">
        <ele>967.22000000000003</ele>
        <time>2018-10-19T12:10:43Z</time>
      </trkpt>
      <trkpt lat="60.796360960230231" lon="6.305276015773416">
        <ele>964.82000000000005</ele>
        <time>2018-10-19T12:10:47Z</time>
      </trkpt>
      <trkpt lat="60.796409994363785" lon="6.305403001606464">
        <ele>962.41999999999996</ele>
        <time>2018-10-19T12:10:51Z</time>
      </trkpt>
      <trkpt lat="60.796499010175467" lon="6.305593019351363">
        <ele>959.04999999999995</ele>
        <time>2018-10-19T12:10:59Z</time>
      </trkpt>
      <trkpt lat="60.796542009338737" lon="6.305655967444181">
        <ele>958.09000000000003</ele>
        <time>2018-10-19T12:11:01Z</time>
      </trkpt>
      <trkpt lat="60.796590037643909" lon="6.305717993527651">
        <ele>956.64999999999998</ele>
        <time>2018-10-19T12:11:04Z</time>
      </trkpt>
      <trkpt lat="60.796633958816528" lon="6.305798040702939">
        <ele>954.73000000000002</ele>
        <time>2018-10-19T12:11:09Z</time>
      </trkpt>
      <trkpt lat="60.796703025698662" lon="6.305757975205779">
        <ele>953.27999999999997</ele>
        <time>2018-10-19T12:11:12Z</time>
      </trkpt>
      <trkpt lat="60.796736972406507" lon="6.305757975205779">
        <ele>952.32000000000005</ele>
        <time>2018-10-19T12:11:14Z</time>
      </trkpt>
      <trkpt lat="60.796826994046569" lon="6.305904993787408">
        <ele>950.39999999999998</ele>
        <time>2018-10-19T12:11:20Z</time>
      </trkpt>
      <trkpt lat="60.796887008473277" lon="6.305969031527638">
        <ele>948.96000000000004</ele>
        <time>2018-10-19T12:11:24Z</time>
      </trkpt>
      <trkpt lat="60.796927995979786" lon="6.306032985448837">
        <ele>947.03999999999996</ele>
        <time>2018-10-19T12:11:27Z</time>
      </trkpt>
      <trkpt lat="60.796950962394476" lon="6.306100962683559">
        <ele>945.59000000000003</ele>
        <time>2018-10-19T12:11:30Z</time>
      </trkpt>
      <trkpt lat="60.796988010406494" lon="6.306157959625125">
        <ele>943.19000000000005</ele>
        <time>2018-10-19T12:11:33Z</time>
      </trkpt>
      <trkpt lat="60.797071997076273" lon="6.306182015687227">
        <ele>941.75</ele>
        <time>2018-10-19T12:11:37Z</time>
      </trkpt>
      <trkpt lat="60.797123964875937" lon="6.306256027892232">
        <ele>940.30999999999995</ele>
        <time>2018-10-19T12:11:40Z</time>
      </trkpt>
      <trkpt lat="60.7971500325948" lon="6.306344959884882">
        <ele>936.94000000000005</ele>
        <time>2018-10-19T12:11:46Z</time>
      </trkpt>
      <trkpt lat="60.797156989574432" lon="6.306344037875533">
        <ele>936.94000000000005</ele>
        <time>2018-10-19T12:11:47Z</time>
      </trkpt>
      <trkpt lat="60.797237036749721" lon="6.30648996680975">
        <ele>934.53999999999996</ele>
        <time>2018-10-19T12:11:52Z</time>
      </trkpt>
      <trkpt lat="60.797326974570751" lon="6.306710997596383">
        <ele>931.16999999999996</ele>
        <time>2018-10-19T12:12:00Z</time>
      </trkpt>
      <trkpt lat="60.797339966520667" lon="6.306760031729937">
        <ele>930.21000000000004</ele>
        <time>2018-10-19T12:12:02Z</time>
      </trkpt>
      <trkpt lat="60.797395035624504" lon="6.306821973994374">
        <ele>928.28999999999996</ele>
        <time>2018-10-19T12:12:05Z</time>
      </trkpt>
      <trkpt lat="60.797450020909309" lon="6.306868996471167">
        <ele>926.37</ele>
        <time>2018-10-19T12:12:08Z</time>
      </trkpt>
      <trkpt lat="60.797490002587438" lon="6.306946026161313">
        <ele>924.92999999999995</ele>
        <time>2018-10-19T12:12:11Z</time>
      </trkpt>
      <trkpt lat="60.797525038942695" lon="6.307035963982344">
        <ele>923.48000000000002</ele>
        <time>2018-10-19T12:12:14Z</time>
      </trkpt>
      <trkpt lat="60.797579018399119" lon="6.307121040299535">
        <ele>922.03999999999996</ele>
        <time>2018-10-19T12:12:17Z</time>
      </trkpt>
      <trkpt lat="60.797644983977079" lon="6.307199997827411">
        <ele>920.60000000000002</ele>
        <time>2018-10-19T12:12:20Z</time>
      </trkpt>
      <trkpt lat="60.797718996182084" lon="6.307289013639092">
        <ele>917.72000000000003</ele>
        <time>2018-10-19T12:12:24Z</time>
      </trkpt>
      <trkpt lat="60.797775993123651" lon="6.307352967560291">
        <ele>915.30999999999995</ele>
        <time>2018-10-19T12:12:27Z</time>
      </trkpt>
      <trkpt lat="60.797829972580075" lon="6.307424968108535">
        <ele>913.87</ele>
        <time>2018-10-19T12:12:30Z</time>
      </trkpt>
      <trkpt lat="60.797858973965049" lon="6.307540973648429">
        <ele>911.95000000000005</ele>
        <time>2018-10-19T12:12:33Z</time>
      </trkpt>
      <trkpt lat="60.797896021977067" lon="6.307635018602014">
        <ele>910.50999999999999</ele>
        <time>2018-10-19T12:12:36Z</time>
      </trkpt>
      <trkpt lat="60.797908008098602" lon="6.30767097696662">
        <ele>909.53999999999996</ele>
        <time>2018-10-19T12:12:37Z</time>
      </trkpt>
      <trkpt lat="60.797910019755363" lon="6.307722022756934">
        <ele>908.58000000000004</ele>
        <time>2018-10-19T12:12:39Z</time>
      </trkpt>
      <trkpt lat="60.797956958413124" lon="6.307801986113191">
        <ele>906.17999999999995</ele>
        <time>2018-10-19T12:12:43Z</time>
      </trkpt>
      <trkpt lat="60.797994006425142" lon="6.307857977226377">
        <ele>904.74000000000001</ele>
        <time>2018-10-19T12:12:46Z</time>
      </trkpt>
      <trkpt lat="60.798039017245173" lon="6.307926038280129">
        <ele>902.82000000000005</ele>
        <time>2018-10-19T12:12:49Z</time>
      </trkpt>
      <trkpt lat="60.798074975609779" lon="6.308006001636386">
        <ele>901.37</ele>
        <time>2018-10-19T12:12:52Z</time>
      </trkpt>
      <trkpt lat="60.798101965337992" lon="6.308045983314514">
        <ele>899.45000000000005</ele>
        <time>2018-10-19T12:12:55Z</time>
      </trkpt>
      <trkpt lat="60.798137001693249" lon="6.308094011619687">
        <ele>897.52999999999997</ele>
        <time>2018-10-19T12:12:58Z</time>
      </trkpt>
      <trkpt lat="60.798185029998422" lon="6.308139022439718">
        <ele>895.12</ele>
        <time>2018-10-19T12:13:02Z</time>
      </trkpt>
      <trkpt lat="60.798238003626466" lon="6.308202976360917">
        <ele>893.67999999999995</ele>
        <time>2018-10-19T12:13:05Z</time>
      </trkpt>
      <trkpt lat="60.7982690166682" lon="6.308279000222683">
        <ele>892.24000000000001</ele>
        <time>2018-10-19T12:13:08Z</time>
      </trkpt>
      <trkpt lat="60.798282008618116" lon="6.308311019092798">
        <ele>890.32000000000005</ele>
        <time>2018-10-19T12:13:10Z</time>
      </trkpt>
      <trkpt lat="60.798328025266528" lon="6.308259973302484">
        <ele>887.42999999999995</ele>
        <time>2018-10-19T12:13:17Z</time>
      </trkpt>
      <trkpt lat="60.798327019438148" lon="6.308257961645722">
        <ele>886.95000000000005</ele>
        <time>2018-10-19T12:13:22Z</time>
      </trkpt>
      <trkpt lat="60.798331964761019" lon="6.30835703574121">
        <ele>885.50999999999999</ele>
        <time>2018-10-19T12:13:28Z</time>
      </trkpt>
      <trkpt lat="60.798384016379714" lon="6.308358041569591">
        <ele>884.07000000000005</ele>
        <time>2018-10-19T12:13:32Z</time>
      </trkpt>
      <trkpt lat="60.798448976129293" lon="6.30848603323102">
        <ele>881.66999999999996</ele>
        <time>2018-10-19T12:13:38Z</time>
      </trkpt>
      <trkpt lat="60.798466997221112" lon="6.308626011013985">
        <ele>879.25999999999999</ele>
        <time>2018-10-19T12:13:42Z</time>
      </trkpt>
      <trkpt lat="60.798477977514267" lon="6.308757020160556">
        <ele>876.86000000000001</ele>
        <time>2018-10-19T12:13:45Z</time>
      </trkpt>
      <trkpt lat="60.798487029969692" lon="6.30887302570045">
        <ele>874.94000000000005</ele>
        <time>2018-10-19T12:13:48Z</time>
      </trkpt>
      <trkpt lat="60.798470014706254" lon="6.308964975178242">
        <ele>873.00999999999999</ele>
        <time>2018-10-19T12:13:51Z</time>
      </trkpt>
      <trkpt lat="60.798470014706254" lon="6.309123979881406">
        <ele>870.61000000000001</ele>
        <time>2018-10-19T12:13:55Z</time>
      </trkpt>
      <trkpt lat="60.798495998606086" lon="6.309219030663371">
        <ele>869.16999999999996</ele>
        <time>2018-10-19T12:13:58Z</time>
      </trkpt>
      <trkpt lat="60.798535980284214" lon="6.309412987902761">
        <ele>865.79999999999995</ele>
        <time>2018-10-19T12:14:06Z</time>
      </trkpt>
      <trkpt lat="60.798542015254498" lon="6.309465039521456">
        <ele>864.84000000000003</ele>
        <time>2018-10-19T12:14:08Z</time>
      </trkpt>
      <trkpt lat="60.798561964184046" lon="6.309569980949163">
        <ele>863.39999999999998</ele>
        <time>2018-10-19T12:14:11Z</time>
      </trkpt>
      <trkpt lat="60.798583002761006" lon="6.309624966233969">
        <ele>861.96000000000004</ele>
        <time>2018-10-19T12:14:14Z</time>
      </trkpt>
      <trkpt lat="60.798649974167347" lon="6.309738960117102">
        <ele>858.59000000000003</ele>
        <time>2018-10-19T12:14:20Z</time>
      </trkpt>
      <trkpt lat="60.798658020794392" lon="6.309741977602243">
        <ele>859.08000000000004</ele>
        <time>2018-10-19T12:14:21Z</time>
      </trkpt>
      <trkpt lat="60.798671012744308" lon="6.309761004522443">
        <ele>857.14999999999998</ele>
        <time>2018-10-19T12:14:26Z</time>
      </trkpt>
      <trkpt lat="60.798672018572688" lon="6.309857983142138">
        <ele>856.19000000000005</ele>
        <time>2018-10-19T12:14:32Z</time>
      </trkpt>
      <trkpt lat="60.798681993037462" lon="6.31001103669405">
        <ele>853.78999999999996</ele>
        <time>2018-10-19T12:14:37Z</time>
      </trkpt>
      <trkpt lat="60.79867604188621" lon="6.310098962858319">
        <ele>851.87</ele>
        <time>2018-10-19T12:14:40Z</time>
      </trkpt>
      <trkpt lat="60.798680987209082" lon="6.310200970619917">
        <ele>850.41999999999996</ele>
        <time>2018-10-19T12:14:43Z</time>
      </trkpt>
      <trkpt lat="60.798736978322268" lon="6.310354024171829">
        <ele>847.53999999999996</ele>
        <time>2018-10-19T12:14:50Z</time>
      </trkpt>
      <trkpt lat="60.798805961385369" lon="6.310533983632922">
        <ele>844.65999999999997</ele>
        <time>2018-10-19T12:14:58Z</time>
      </trkpt>
      <trkpt lat="60.79884803853929" lon="6.310595003888011">
        <ele>842.73000000000002</ele>
        <time>2018-10-19T12:15:02Z</time>
      </trkpt>
      <trkpt lat="60.798852983862162" lon="6.310586035251617">
        <ele>842.25</ele>
        <time>2018-10-19T12:15:03Z</time>
      </trkpt>
      <trkpt lat="60.798874022439122" lon="6.310524009168148">
        <ele>840.80999999999995</ele>
        <time>2018-10-19T12:15:06Z</time>
      </trkpt>
      <trkpt lat="60.798952979966998" lon="6.310404986143112">
        <ele>839.37</ele>
        <time>2018-10-19T12:15:15Z</time>
      </trkpt>
      <trkpt lat="60.799023974686861" lon="6.310330973938108">
        <ele>838.88999999999999</ele>
        <time>2018-10-19T12:15:22Z</time>
      </trkpt>
      <trkpt lat="60.799195971339941" lon="6.31029199808836">
        <ele>836.48000000000002</ele>
        <time>2018-10-19T12:15:30Z</time>
      </trkpt>
      <trkpt lat="60.799282975494862" lon="6.31029300391674">
        <ele>836</ele>
        <time>2018-10-19T12:15:37Z</time>
      </trkpt>
      <trkpt lat="60.799475004896522" lon="6.310344971716404">
        <ele>836.96000000000004</ele>
        <time>2018-10-19T12:15:53Z</time>
      </trkpt>
      <trkpt lat="60.799545999616385" lon="6.310432981699705">
        <ele>836</ele>
        <time>2018-10-19T12:15:58Z</time>
      </trkpt>
      <trkpt lat="60.799676002934575" lon="6.310438010841608">
        <ele>833.12</ele>
        <time>2018-10-19T12:16:05Z</time>
      </trkpt>
      <trkpt lat="60.79968798905611" lon="6.310435999184847">
        <ele>832.63999999999999</ele>
        <time>2018-10-19T12:16:07Z</time>
      </trkpt>
      <trkpt lat="60.799791002646089" lon="6.310601038858295">
        <ele>831.20000000000005</ele>
        <time>2018-10-19T12:16:18Z</time>
      </trkpt>
      <trkpt lat="60.799823021516204" lon="6.310645965859294">
        <ele>830.72000000000003</ele>
        <time>2018-10-19T12:16:20Z</time>
      </trkpt>
      <trkpt lat="60.799918994307518" lon="6.310780998319387">
        <ele>829.26999999999998</ele>
        <time>2018-10-19T12:16:29Z</time>
      </trkpt>
      <trkpt lat="60.799983032047749" lon="6.310826009139419">
        <ele>827.83000000000004</ele>
        <time>2018-10-19T12:16:33Z</time>
      </trkpt>
      <trkpt lat="60.800097025930882" lon="6.31087101995945">
        <ele>826.87</ele>
        <time>2018-10-19T12:16:39Z</time>
      </trkpt>
      <trkpt lat="60.800260975956917" lon="6.311018038541079">
        <ele>824.95000000000005</ele>
        <time>2018-10-19T12:16:47Z</time>
      </trkpt>
      <trkpt lat="60.80030900426209" lon="6.311038993299007">
        <ele>824.95000000000005</ele>
        <time>2018-10-19T12:16:49Z</time>
      </trkpt>
      <trkpt lat="60.800433978438377" lon="6.311085009947419">
        <ele>825.42999999999995</ele>
        <time>2018-10-19T12:16:58Z</time>
      </trkpt>
      <trkpt lat="60.800521988421679" lon="6.311051985248923">
        <ele>824.47000000000003</ele>
        <time>2018-10-19T12:17:04Z</time>
      </trkpt>
      <trkpt lat="60.80067696981132" lon="6.310970010235906">
        <ele>822.54999999999995</ele>
        <time>2018-10-19T12:17:10Z</time>
      </trkpt>
      <trkpt lat="60.800784006714821" lon="6.311012003570795">
        <ele>821.58000000000004</ele>
        <time>2018-10-19T12:17:15Z</time>
      </trkpt>
      <trkpt lat="60.800901018083096" lon="6.310963975265622">
        <ele>822.05999999999995</ele>
        <time>2018-10-19T12:17:22Z</time>
      </trkpt>
      <trkpt lat="60.801069997251034" lon="6.310787033289671">
        <ele>820.62</ele>
        <time>2018-10-19T12:17:30Z</time>
      </trkpt>
      <trkpt lat="60.801087012514472" lon="6.310760965570808">
        <ele>820.13999999999999</ele>
        <time>2018-10-19T12:17:31Z</time>
      </trkpt>
      <trkpt lat="60.801206035539508" lon="6.310630962252617">
        <ele>819.65999999999997</ele>
        <time>2018-10-19T12:17:37Z</time>
      </trkpt>
      <trkpt lat="60.801282981410623" lon="6.310553010553122">
        <ele>818.70000000000005</ele>
        <time>2018-10-19T12:17:41Z</time>
      </trkpt>
      <trkpt lat="60.801394963636994" lon="6.310689970850945">
        <ele>818.22000000000003</ele>
        <time>2018-10-19T12:17:49Z</time>
      </trkpt>
      <trkpt lat="60.801494037732482" lon="6.310846963897348">
        <ele>817.74000000000001</ele>
        <time>2018-10-19T12:18:02Z</time>
      </trkpt>
      <trkpt lat="60.801568971946836" lon="6.310959029942751">
        <ele>818.70000000000005</ele>
        <time>2018-10-19T12:18:15Z</time>
      </trkpt>
      <trkpt lat="60.801585987210274" lon="6.310946960002184">
        <ele>819.17999999999995</ele>
        <time>2018-10-19T12:18:26Z</time>
      </trkpt>
      <trkpt lat="60.801629992201924" lon="6.310947965830565">
        <ele>819.17999999999995</ele>
        <time>2018-10-19T12:18:29Z</time>
      </trkpt>
      <trkpt lat="60.801639966666698" lon="6.311005968600512">
        <ele>818.22000000000003</ele>
        <time>2018-10-19T12:18:33Z</time>
      </trkpt>
      <trkpt lat="60.801657987758517" lon="6.311073023825884">
        <ele>817.25999999999999</ele>
        <time>2018-10-19T12:18:37Z</time>
      </trkpt>
      <trkpt lat="60.801686989143491" lon="6.311090039089322">
        <ele>816.77999999999997</ele>
        <time>2018-10-19T12:18:47Z</time>
      </trkpt>
      <trkpt lat="60.801687994971871" lon="6.311089033260942">
        <ele>816.77999999999997</ele>
        <time>2018-10-19T12:18:50Z</time>
      </trkpt>
      <trkpt lat="60.80179100856185" lon="6.311223981902003">
        <ele>816.77999999999997</ele>
        <time>2018-10-19T12:18:58Z</time>
      </trkpt>
      <trkpt lat="60.80189703963697" lon="6.311322972178459">
        <ele>817.74000000000001</ele>
        <time>2018-10-19T12:19:06Z</time>
      </trkpt>
      <trkpt lat="60.801952024921775" lon="6.311498992145062">
        <ele>819.65999999999997</ele>
        <time>2018-10-19T12:19:12Z</time>
      </trkpt>
      <trkpt lat="60.801995024085045" lon="6.311571998521686">
        <ele>821.10000000000002</ele>
        <time>2018-10-19T12:19:18Z</time>
      </trkpt>
      <trkpt lat="60.802014973014593" lon="6.311593959107995">
        <ele>821.10000000000002</ele>
        <time>2018-10-19T12:19:20Z</time>
      </trkpt>
      <trkpt lat="60.802175989374518" lon="6.311737960204482">
        <ele>822.54999999999995</ele>
        <time>2018-10-19T12:19:34Z</time>
      </trkpt>
      <trkpt lat="60.802355026826262" lon="6.311936024576426">
        <ele>822.05999999999995</ele>
        <time>2018-10-19T12:19:51Z</time>
      </trkpt>
      <trkpt lat="60.802426021546125" lon="6.311928983777762">
        <ele>820.13999999999999</ele>
        <time>2018-10-19T12:19:59Z</time>
      </trkpt>
      <trkpt lat="60.802560970187187" lon="6.311980029568076">
        <ele>817.25999999999999</ele>
        <time>2018-10-19T12:20:07Z</time>
      </trkpt>
      <trkpt lat="60.802644034847617" lon="6.31213903427124">
        <ele>816.77999999999997</ele>
        <time>2018-10-19T12:20:12Z</time>
      </trkpt>
      <trkpt lat="60.802764985710382" lon="6.312250010669231">
        <ele>816.77999999999997</ele>
        <time>2018-10-19T12:20:19Z</time>
      </trkpt>
      <trkpt lat="60.802918039262295" lon="6.312335003167391">
        <ele>813.88999999999999</ele>
        <time>2018-10-19T12:20:26Z</time>
      </trkpt>
      <trkpt lat="60.802945028990507" lon="6.312366016209126">
        <ele>813.88999999999999</ele>
        <time>2018-10-19T12:20:27Z</time>
      </trkpt>
      <trkpt lat="60.803132029250264" lon="6.312599033117294">
        <ele>811.49000000000001</ele>
        <time>2018-10-19T12:20:34Z</time>
      </trkpt>
      <trkpt lat="60.803212998434901" lon="6.31252502091229">
        <ele>810.52999999999997</ele>
        <time>2018-10-19T12:20:44Z</time>
      </trkpt>
      <trkpt lat="60.803388012573123" lon="6.312711015343666">
        <ele>810.52999999999997</ele>
        <time>2018-10-19T12:20:52Z</time>
      </trkpt>
      <trkpt lat="60.803512986749411" lon="6.312884017825127">
        <ele>810.52999999999997</ele>
        <time>2018-10-19T12:20:58Z</time>
      </trkpt>
      <trkpt lat="60.803639972582459" lon="6.313033970072866">
        <ele>809.57000000000005</ele>
        <time>2018-10-19T12:21:04Z</time>
      </trkpt>
      <trkpt lat="60.803713984787464" lon="6.313087027519941">
        <ele>809.09000000000003</ele>
        <time>2018-10-19T12:21:08Z</time>
      </trkpt>
      <trkpt lat="60.803859997540712" lon="6.313268998637795">
        <ele>809.57000000000005</ele>
        <time>2018-10-19T12:21:16Z</time>
      </trkpt>
      <trkpt lat="60.804017996415496" lon="6.313378969207406">
        <ele>811.97000000000003</ele>
        <time>2018-10-19T12:21:33Z</time>
      </trkpt>
      <trkpt lat="60.804152023047209" lon="6.313476031646133">
        <ele>810.52999999999997</ele>
        <time>2018-10-19T12:21:50Z</time>
      </trkpt>
      <trkpt lat="60.804210025817156" lon="6.313522970303893">
        <ele>809.57000000000005</ele>
        <time>2018-10-19T12:21:56Z</time>
      </trkpt>
      <trkpt lat="60.804241960868239" lon="6.313392966985703">
        <ele>809.57000000000005</ele>
        <time>2018-10-19T12:22:03Z</time>
      </trkpt>
      <trkpt lat="60.804279008880258" lon="6.313452981412411">
        <ele>809.09000000000003</ele>
        <time>2018-10-19T12:22:05Z</time>
      </trkpt>
      <trkpt lat="60.804356038570404" lon="6.313469996675849">
        <ele>809.57000000000005</ele>
        <time>2018-10-19T12:22:09Z</time>
      </trkpt>
      <trkpt lat="60.804491993039846" lon="6.313505033031106">
        <ele>810.04999999999995</ele>
        <time>2018-10-19T12:22:16Z</time>
      </trkpt>
      <trkpt lat="60.804610010236502" lon="6.313592037186027">
        <ele>811.00999999999999</ele>
        <time>2018-10-19T12:22:23Z</time>
      </trkpt>
      <trkpt lat="60.804629037156701" lon="6.313607040792704">
        <ele>811.49000000000001</ele>
        <time>2018-10-19T12:22:24Z</time>
      </trkpt>
      <trkpt lat="60.804702965542674" lon="6.313621960580349">
        <ele>811.97000000000003</ele>
        <time>2018-10-19T12:22:28Z</time>
      </trkpt>
      <trkpt lat="60.804874040186405" lon="6.31366403773427">
        <ele>813.40999999999997</ele>
        <time>2018-10-19T12:22:37Z</time>
      </trkpt>
      <trkpt lat="60.805001026019454" lon="6.313665965572">
        <ele>813.40999999999997</ele>
        <time>2018-10-19T12:22:44Z</time>
      </trkpt>
      <trkpt lat="60.805117031559348" lon="6.313747018575668">
        <ele>813.88999999999999</ele>
        <time>2018-10-19T12:22:50Z</time>
      </trkpt>
      <trkpt lat="60.805231025442481" lon="6.31387802772224">
        <ele>813.88999999999999</ele>
        <time>2018-10-19T12:22:58Z</time>
      </trkpt>
      <trkpt lat="60.805340996012092" lon="6.313866963610053">
        <ele>816.29999999999995</ele>
        <time>2018-10-19T12:23:07Z</time>
      </trkpt>
      <trkpt lat="60.805492037907243" lon="6.31383796222508">
        <ele>819.65999999999997</ele>
        <time>2018-10-19T12:23:21Z</time>
      </trkpt>
      <trkpt lat="60.80561600625515" lon="6.313914991915226">
        <ele>823.02999999999997</ele>
        <time>2018-10-19T12:23:32Z</time>
      </trkpt>
      <trkpt lat="60.805820021778345" lon="6.314070979133248">
        <ele>825.90999999999997</ele>
        <time>2018-10-19T12:23:52Z</time>
      </trkpt>
      <trkpt lat="60.805824967101216" lon="6.314215986058116">
        <ele>826.38999999999999</ele>
        <time>2018-10-19T12:24:09Z</time>
      </trkpt>
      <trkpt lat="60.805860003456473" lon="6.314183967188001">
        <ele>826.38999999999999</ele>
        <time>2018-10-19T12:24:29Z</time>
      </trkpt>
      <trkpt lat="60.805935021489859" lon="6.314119007438421">
        <ele>827.35000000000002</ele>
        <time>2018-10-19T12:24:41Z</time>
      </trkpt>
      <trkpt lat="60.806051027029753" lon="6.314197964966297">
        <ele>828.30999999999995</ele>
        <time>2018-10-19T12:24:49Z</time>
      </trkpt>
      <trkpt lat="60.806113975122571" lon="6.314153037965298">
        <ele>829.75999999999999</ele>
        <time>2018-10-19T12:24:54Z</time>
      </trkpt>
      <trkpt lat="60.806201985105872" lon="6.314144991338253">
        <ele>831.67999999999995</ele>
        <time>2018-10-19T12:25:07Z</time>
      </trkpt>
      <trkpt lat="60.806221012026072" lon="6.314148008823395">
        <ele>831.67999999999995</ele>
        <time>2018-10-19T12:25:13Z</time>
      </trkpt>
      <trkpt lat="60.806332994252443" lon="6.31422302685678">
        <ele>832.15999999999997</ele>
        <time>2018-10-19T12:25:24Z</time>
      </trkpt>
      <trkpt lat="60.806441958993673" lon="6.314297039061785">
        <ele>834.08000000000004</ele>
        <time>2018-10-19T12:25:34Z</time>
      </trkpt>
      <trkpt lat="60.806589983403683" lon="6.314452020451427">
        <ele>835.51999999999998</ele>
        <time>2018-10-19T12:25:50Z</time>
      </trkpt>
      <trkpt lat="60.806627031415701" lon="6.314495019614697">
        <ele>836.48000000000002</ele>
        <time>2018-10-19T12:25:54Z</time>
      </trkpt>
      <trkpt lat="60.806719986721873" lon="6.314670033752918">
        <ele>839.85000000000002</ele>
        <time>2018-10-19T12:26:07Z</time>
      </trkpt>
      <trkpt lat="60.806811014190316" lon="6.314887963235378">
        <ele>842.25</ele>
        <time>2018-10-19T12:26:22Z</time>
      </trkpt>
      <trkpt lat="60.806874968111515" lon="6.314943032339215">
        <ele>842.73000000000002</ele>
        <time>2018-10-19T12:26:29Z</time>
      </trkpt>
      <trkpt lat="60.806994996964931" lon="6.315016038715839">
        <ele>845.62</ele>
        <time>2018-10-19T12:26:43Z</time>
      </trkpt>
      <trkpt lat="60.807008994743228" lon="6.315016960725188">
        <ele>846.58000000000004</ele>
        <time>2018-10-19T12:26:45Z</time>
      </trkpt>
      <trkpt lat="60.807097004726529" lon="6.315013021230698">
        <ele>848.5</ele>
        <time>2018-10-19T12:26:56Z</time>
      </trkpt>
      <trkpt lat="60.807188032194972" lon="6.315085021778941">
        <ele>851.38</ele>
        <time>2018-10-19T12:27:08Z</time>
      </trkpt>
      <trkpt lat="60.80729003995657" lon="6.315158028155565">
        <ele>852.83000000000004</ele>
        <time>2018-10-19T12:27:18Z</time>
      </trkpt>
      <trkpt lat="60.807374026626348" lon="6.315387021750212">
        <ele>853.78999999999996</ele>
        <time>2018-10-19T12:27:30Z</time>
      </trkpt>
      <trkpt lat="60.807408979162574" lon="6.31542700342834">
        <ele>854.75</ele>
        <time>2018-10-19T12:27:33Z</time>
      </trkpt>
      <trkpt lat="60.807568989694118" lon="6.315587013959885">
        <ele>856.66999999999996</ele>
        <time>2018-10-19T12:27:48Z</time>
      </trkpt>
      <trkpt lat="60.807731011882424" lon="6.315721040591598">
        <ele>859.08000000000004</ele>
        <time>2018-10-19T12:28:03Z</time>
      </trkpt>
      <trkpt lat="60.807921029627323" lon="6.315970988944173">
        <ele>860.51999999999998</ele>
        <time>2018-10-19T12:28:21Z</time>
      </trkpt>
      <trkpt lat="60.808095037937164" lon="6.316192019730806">
        <ele>861.48000000000002</ele>
        <time>2018-10-19T12:28:35Z</time>
      </trkpt>
      <trkpt lat="60.80819402821362" lon="6.316356975585222">
        <ele>862.44000000000005</ele>
        <time>2018-10-19T12:28:41Z</time>
      </trkpt>
      <trkpt lat="60.808297963812947" lon="6.316449008882046">
        <ele>864.84000000000003</ele>
        <time>2018-10-19T12:28:50Z</time>
      </trkpt>
      <trkpt lat="60.80840801820159" lon="6.316580018028617">
        <ele>865.32000000000005</ele>
        <time>2018-10-19T12:29:00Z</time>
      </trkpt>
      <trkpt lat="60.808483036234975" lon="6.316917976364493">
        <ele>864.36000000000001</ele>
        <time>2018-10-19T12:29:13Z</time>
      </trkpt>
      <trkpt lat="60.808568028733134" lon="6.317140012979507">
        <ele>864.36000000000001</ele>
        <time>2018-10-19T12:29:25Z</time>
      </trkpt>
      <trkpt lat="60.808642962947488" lon="6.317343022674322">
        <ele>866.28999999999996</ele>
        <time>2018-10-19T12:29:37Z</time>
      </trkpt>
      <trkpt lat="60.808714963495731" lon="6.317423991858959">
        <ele>867.73000000000002</ele>
        <time>2018-10-19T12:29:45Z</time>
      </trkpt>
      <trkpt lat="60.808790987357497" lon="6.317421980202198">
        <ele>870.61000000000001</ele>
        <time>2018-10-19T12:29:57Z</time>
      </trkpt>
      <trkpt lat="60.808812025934458" lon="6.317435977980495">
        <ele>871.09000000000003</ele>
        <time>2018-10-19T12:30:02Z</time>
      </trkpt>
      <trkpt lat="60.808854019269347" lon="6.31748903542757">
        <ele>870.61000000000001</ele>
        <time>2018-10-19T12:30:15Z</time>
      </trkpt>
      <trkpt lat="60.808909004554152" lon="6.31757503375411">
        <ele>870.61000000000001</ele>
        <time>2018-10-19T12:30:27Z</time>
      </trkpt>
      <trkpt lat="60.809002965688705" lon="6.317676035687327">
        <ele>869.64999999999998</ele>
        <time>2018-10-19T12:30:36Z</time>
      </trkpt>
      <trkpt lat="60.809039007872343" lon="6.317664971575141">
        <ele>869.16999999999996</ele>
        <time>2018-10-19T12:30:38Z</time>
      </trkpt>
      <trkpt lat="60.809132969006896" lon="6.317551983520389">
        <ele>867.73000000000002</ele>
        <time>2018-10-19T12:30:45Z</time>
      </trkpt>
      <trkpt lat="60.809261966496706" lon="6.31727697327733">
        <ele>864.36000000000001</ele>
        <time>2018-10-19T12:30:53Z</time>
      </trkpt>
      <trkpt lat="60.809373026713729" lon="6.317118974402547">
        <ele>862.44000000000005</ele>
        <time>2018-10-19T12:30:59Z</time>
      </trkpt>
      <trkpt lat="60.809424994513392" lon="6.317073963582516">
        <ele>862.44000000000005</ele>
        <time>2018-10-19T12:31:02Z</time>
      </trkpt>
      <trkpt lat="60.809558015316725" lon="6.31708100438118">
        <ele>861.96000000000004</ele>
        <time>2018-10-19T12:31:08Z</time>
      </trkpt>
      <trkpt lat="60.809645019471645" lon="6.317110005766153">
        <ele>860.03999999999996</ele>
        <time>2018-10-19T12:31:12Z</time>
      </trkpt>
      <trkpt lat="60.809750966727734" lon="6.317131966352463">
        <ele>858.11000000000001</ele>
        <time>2018-10-19T12:31:18Z</time>
      </trkpt>
      <trkpt lat="60.809823973104358" lon="6.317240009084344">
        <ele>855.71000000000004</ele>
        <time>2018-10-19T12:31:24Z</time>
      </trkpt>
      <trkpt lat="60.809850040823221" lon="6.317234979942441">
        <ele>853.30999999999995</ele>
        <time>2018-10-19T12:31:27Z</time>
      </trkpt>
      <trkpt lat="60.809967974200845" lon="6.317097013816237">
        <ele>849.94000000000005</ele>
        <time>2018-10-19T12:31:33Z</time>
      </trkpt>
      <trkpt lat="60.810050033032894" lon="6.316968016326428">
        <ele>848.98000000000002</ele>
        <time>2018-10-19T12:31:38Z</time>
      </trkpt>
      <trkpt lat="60.810090014711022" lon="6.316927028819919">
        <ele>848.5</ele>
        <time>2018-10-19T12:31:40Z</time>
      </trkpt>
      <trkpt lat="60.810169978067279" lon="6.316981008276343">
        <ele>847.05999999999995</ele>
        <time>2018-10-19T12:31:45Z</time>
      </trkpt>
      <trkpt lat="60.810265028849244" lon="6.316734999418259">
        <ele>844.17999999999995</ele>
        <time>2018-10-19T12:31:54Z</time>
      </trkpt>
      <trkpt lat="60.810431996360421" lon="6.316597033292055">
        <ele>841.28999999999996</ele>
        <time>2018-10-19T12:32:02Z</time>
      </trkpt>
      <trkpt lat="60.810561999678612" lon="6.316617988049984">
        <ele>844.17999999999995</ele>
        <time>2018-10-19T12:32:13Z</time>
      </trkpt>
      <trkpt lat="60.810584966093302" lon="6.316632991656661">
        <ele>844.17999999999995</ele>
        <time>2018-10-19T12:32:15Z</time>
      </trkpt>
      <trkpt lat="60.810653027147055" lon="6.316671967506409">
        <ele>844.17999999999995</ele>
        <time>2018-10-19T12:32:20Z</time>
      </trkpt>
      <trkpt lat="60.810702983289957" lon="6.316669033840299">
        <ele>844.17999999999995</ele>
        <time>2018-10-19T12:32:23Z</time>
      </trkpt>
      <trkpt lat="60.81085997633636" lon="6.316745979711413">
        <ele>844.17999999999995</ele>
        <time>2018-10-19T12:32:31Z</time>
      </trkpt>
      <trkpt lat="60.811023004353046" lon="6.316905990242958">
        <ele>843.69000000000005</ele>
        <time>2018-10-19T12:32:39Z</time>
      </trkpt>
      <trkpt lat="60.811107996851206" lon="6.316988971084356">
        <ele>843.69000000000005</ele>
        <time>2018-10-19T12:32:43Z</time>
      </trkpt>
      <trkpt lat="60.811153007671237" lon="6.316985031589866">
        <ele>843.21000000000004</ele>
        <time>2018-10-19T12:32:45Z</time>
      </trkpt>
      <trkpt lat="60.811221990734339" lon="6.317058959975839">
        <ele>842.73000000000002</ele>
        <time>2018-10-19T12:32:49Z</time>
      </trkpt>
      <trkpt lat="60.811369009315968" lon="6.317144958302379">
        <ele>842.73000000000002</ele>
        <time>2018-10-19T12:32:57Z</time>
      </trkpt>
      <trkpt lat="60.811471017077565" lon="6.317225005477667">
        <ele>842.25</ele>
        <time>2018-10-19T12:33:02Z</time>
      </trkpt>
      <trkpt lat="60.811559027060866" lon="6.31723296828568">
        <ele>842.25</ele>
        <time>2018-10-19T12:33:06Z</time>
      </trkpt>
      <trkpt lat="60.811672015115619" lon="6.31740203127265">
        <ele>842.73000000000002</ele>
        <time>2018-10-19T12:33:13Z</time>
      </trkpt>
      <trkpt lat="60.811786008998752" lon="6.317474031820893">
        <ele>843.21000000000004</ele>
        <time>2018-10-19T12:33:19Z</time>
      </trkpt>
      <trkpt lat="60.811887010931969" lon="6.317536979913712">
        <ele>843.69000000000005</ele>
        <time>2018-10-19T12:33:25Z</time>
      </trkpt>
      <trkpt lat="60.811967980116606" lon="6.317535974085331">
        <ele>843.69000000000005</ele>
        <time>2018-10-19T12:33:29Z</time>
      </trkpt>
      <trkpt lat="60.812101000919938" lon="6.31757402792573">
        <ele>844.17999999999995</ele>
        <time>2018-10-19T12:33:36Z</time>
      </trkpt>
      <trkpt lat="60.812246007844806" lon="6.317605040967464">
        <ele>845.13999999999999</ele>
        <time>2018-10-19T12:33:44Z</time>
      </trkpt>
      <trkpt lat="60.812315996736288" lon="6.317585008218885">
        <ele>846.10000000000002</ele>
        <time>2018-10-19T12:33:48Z</time>
      </trkpt>
      <trkpt lat="60.812368970364332" lon="6.317619038745761">
        <ele>846.10000000000002</ele>
        <time>2018-10-19T12:33:51Z</time>
      </trkpt>
      <trkpt lat="60.812499979510903" lon="6.317616021260619">
        <ele>844.17999999999995</ele>
        <time>2018-10-19T12:33:58Z</time>
      </trkpt>
      <trkpt lat="60.812569968402386" lon="6.317608980461955">
        <ele>842.73000000000002</ele>
        <time>2018-10-19T12:34:02Z</time>
      </trkpt>
      <trkpt lat="60.812693014740944" lon="6.317604035139084">
        <ele>840.80999999999995</ele>
        <time>2018-10-19T12:34:08Z</time>
      </trkpt>
      <trkpt lat="60.81274900585413" lon="6.317637981846929">
        <ele>840.33000000000004</ele>
        <time>2018-10-19T12:34:11Z</time>
      </trkpt>
      <trkpt lat="60.812914967536926" lon="6.317760022357106">
        <ele>840.33000000000004</ele>
        <time>2018-10-19T12:34:20Z</time>
      </trkpt>
      <trkpt lat="60.813090987503529" lon="6.317923972383142">
        <ele>843.21000000000004</ele>
        <time>2018-10-19T12:34:32Z</time>
      </trkpt>
      <trkpt lat="60.81313599832356" lon="6.317976024001837">
        <ele>843.69000000000005</ele>
        <time>2018-10-19T12:34:35Z</time>
      </trkpt>
      <trkpt lat="60.813233982771635" lon="6.31800401955843">
        <ele>844.17999999999995</ele>
        <time>2018-10-19T12:34:41Z</time>
      </trkpt>
      <trkpt lat="60.813425006344914" lon="6.318107033148408">
        <ele>845.13999999999999</ele>
        <time>2018-10-19T12:34:49Z</time>
      </trkpt>
      <trkpt lat="60.813525002449751" lon="6.318185990676284">
        <ele>846.10000000000002</ele>
        <time>2018-10-19T12:34:57Z</time>
      </trkpt>
      <trkpt lat="60.813660034909844" lon="6.318295039236546">
        <ele>846.58000000000004</ele>
        <time>2018-10-19T12:35:04Z</time>
      </trkpt>
      <trkpt lat="60.813770005479455" lon="6.318352036178112">
        <ele>846.58000000000004</ele>
        <time>2018-10-19T12:35:10Z</time>
      </trkpt>
      <trkpt lat="60.813856003805995" lon="6.318439962342382">
        <ele>846.10000000000002</ele>
        <time>2018-10-19T12:35:14Z</time>
      </trkpt>
      <trkpt lat="60.814012996852398" lon="6.318587986752391">
        <ele>847.05999999999995</ele>
        <time>2018-10-19T12:35:22Z</time>
      </trkpt>
      <trkpt lat="60.814140988513827" lon="6.3187360111624">
        <ele>847.53999999999996</ele>
        <time>2018-10-19T12:35:29Z</time>
      </trkpt>
      <trkpt lat="60.814225981011987" lon="6.318826032802463">
        <ele>847.53999999999996</ele>
        <time>2018-10-19T12:35:34Z</time>
      </trkpt>
      <trkpt lat="60.814394038170576" lon="6.319019990041852">
        <ele>846.58000000000004</ele>
        <time>2018-10-19T12:35:42Z</time>
      </trkpt>
      <trkpt lat="60.814477019011974" lon="6.319096013903618">
        <ele>846.58000000000004</ele>
        <time>2018-10-19T12:35:48Z</time>
      </trkpt>
      <trkpt lat="60.814573997631669" lon="6.31923196837306">
        <ele>845.62</ele>
        <time>2018-10-19T12:35:57Z</time>
      </trkpt>
      <trkpt lat="60.814565028995275" lon="6.319054020568728">
        <ele>843.21000000000004</ele>
        <time>2018-10-19T12:36:04Z</time>
      </trkpt>
      <trkpt lat="60.814581960439682" lon="6.319034993648529">
        <ele>841.28999999999996</ele>
        <time>2018-10-19T12:36:06Z</time>
      </trkpt>
      <trkpt lat="60.814625965431333" lon="6.318980008363724">
        <ele>838.88999999999999</ele>
        <time>2018-10-19T12:36:10Z</time>
      </trkpt>
      <trkpt lat="60.814711041748524" lon="6.319017978385091">
        <ele>836.96000000000004</ele>
        <time>2018-10-19T12:36:14Z</time>
      </trkpt>
      <trkpt lat="60.814783964306116" lon="6.319055026397109">
        <ele>834.08000000000004</ele>
        <time>2018-10-19T12:36:18Z</time>
      </trkpt>
      <trkpt lat="60.814854959025979" lon="6.319115962833166">
        <ele>832.15999999999997</ele>
        <time>2018-10-19T12:36:21Z</time>
      </trkpt>
      <trkpt lat="60.81493902951479" lon="6.319181006401777">
        <ele>830.24000000000001</ele>
        <time>2018-10-19T12:36:24Z</time>
      </trkpt>
      <trkpt lat="60.814988985657692" lon="6.319247977808118">
        <ele>828.30999999999995</ele>
        <time>2018-10-19T12:36:27Z</time>
      </trkpt>
      <trkpt lat="60.815072972327471" lon="6.319407988339663">
        <ele>826.87</ele>
        <time>2018-10-19T12:36:33Z</time>
      </trkpt>
      <trkpt lat="60.815208004787564" lon="6.319588031619787">
        <ele>827.35000000000002</ele>
        <time>2018-10-19T12:36:41Z</time>
      </trkpt>
      <trkpt lat="60.815300960093737" lon="6.319651985540986">
        <ele>826.38999999999999</ele>
        <time>2018-10-19T12:36:47Z</time>
      </trkpt>
      <trkpt lat="60.815359968692064" lon="6.319691967219114">
        <ele>825.90999999999997</ele>
        <time>2018-10-19T12:36:52Z</time>
      </trkpt>
      <trkpt lat="60.815386958420277" lon="6.31968199275434">
        <ele>825.90999999999997</ele>
        <time>2018-10-19T12:36:54Z</time>
      </trkpt>
      <trkpt lat="60.815534982830286" lon="6.319678975269198">
        <ele>824.47000000000003</ele>
        <time>2018-10-19T12:37:01Z</time>
      </trkpt>
      <trkpt lat="60.815659034997225" lon="6.319643016904593">
        <ele>823.99000000000001</ele>
        <time>2018-10-19T12:37:06Z</time>
      </trkpt>
      <trkpt lat="60.815697005018592" lon="6.319666989147663">
        <ele>823.99000000000001</ele>
        <time>2018-10-19T12:37:08Z</time>
      </trkpt>
      <trkpt lat="60.815786020830274" lon="6.319816019386053">
        <ele>824.47000000000003</ele>
        <time>2018-10-19T12:37:15Z</time>
      </trkpt>
      <trkpt lat="60.815832959488034" lon="6.319957002997398">
        <ele>825.42999999999995</ele>
        <time>2018-10-19T12:37:23Z</time>
      </trkpt>
      <trkpt lat="60.815889034420252" lon="6.320115001872182">
        <ele>825.90999999999997</ele>
        <time>2018-10-19T12:37:29Z</time>
      </trkpt>
      <trkpt lat="60.816007973626256" lon="6.32017401047051">
        <ele>826.38999999999999</ele>
        <time>2018-10-19T12:37:36Z</time>
      </trkpt>
      <trkpt lat="60.816046027466655" lon="6.320208963006735">
        <ele>826.87</ele>
        <time>2018-10-19T12:37:39Z</time>
      </trkpt>
      <trkpt lat="60.816135965287685" lon="6.320192031562328">
        <ele>827.35000000000002</ele>
        <time>2018-10-19T12:37:44Z</time>
      </trkpt>
      <trkpt lat="60.816244008019567" lon="6.320395963266492">
        <ele>828.30999999999995</ele>
        <time>2018-10-19T12:37:52Z</time>
      </trkpt>
      <trkpt lat="60.81631600856781" lon="6.320582963526249">
        <ele>829.26999999999998</ele>
        <time>2018-10-19T12:38:01Z</time>
      </trkpt>
      <trkpt lat="60.816380968317389" lon="6.320679020136595">
        <ele>829.75999999999999</ele>
        <time>2018-10-19T12:38:06Z</time>
      </trkpt>
      <trkpt lat="60.816466966643929" lon="6.32069100625813">
        <ele>830.24000000000001</ele>
        <time>2018-10-19T12:38:10Z</time>
      </trkpt>
      <trkpt lat="60.816580038517714" lon="6.320749009028077">
        <ele>830.24000000000001</ele>
        <time>2018-10-19T12:38:16Z</time>
      </trkpt>
      <trkpt lat="60.816716998815536" lon="6.320981020107865">
        <ele>830.24000000000001</ele>
        <time>2018-10-19T12:38:25Z</time>
      </trkpt>
      <trkpt lat="60.816796040162444" lon="6.321182018145919">
        <ele>829.26999999999998</ele>
        <time>2018-10-19T12:38:31Z</time>
      </trkpt>
      <trkpt lat="60.816945992410183" lon="6.321382010355592">
        <ele>828.78999999999996</ele>
        <time>2018-10-19T12:38:41Z</time>
      </trkpt>
      <trkpt lat="60.817048000171781" lon="6.321508996188641">
        <ele>829.26999999999998</ele>
        <time>2018-10-19T12:38:48Z</time>
      </trkpt>
      <trkpt lat="60.817123018205166" lon="6.321606980636716">
        <ele>828.78999999999996</ele>
        <time>2018-10-19T12:38:56Z</time>
      </trkpt>
      <trkpt lat="60.817258972674608" lon="6.321746958419681">
        <ele>828.30999999999995</ele>
        <time>2018-10-19T12:39:06Z</time>
      </trkpt>
      <trkpt lat="60.817363997921348" lon="6.32185198366642">
        <ele>826.38999999999999</ele>
        <time>2018-10-19T12:39:17Z</time>
      </trkpt>
      <trkpt lat="60.817443039268255" lon="6.321954997256398">
        <ele>824.47000000000003</ele>
        <time>2018-10-19T12:39:24Z</time>
      </trkpt>
      <trkpt lat="60.817491989582777" lon="6.322000008076429">
        <ele>823.50999999999999</ele>
        <time>2018-10-19T12:39:28Z</time>
      </trkpt>
      <trkpt lat="60.817573964595795" lon="6.322029009461403">
        <ele>820.13999999999999</ele>
        <time>2018-10-19T12:39:36Z</time>
      </trkpt>
      <trkpt lat="60.817687036469579" lon="6.322097992524505">
        <ele>817.25999999999999</ele>
        <time>2018-10-19T12:39:44Z</time>
      </trkpt>
      <trkpt lat="60.817717965692282" lon="6.322123976424336">
        <ele>816.29999999999995</ele>
        <time>2018-10-19T12:39:46Z</time>
      </trkpt>
      <trkpt lat="60.817733975127339" lon="6.322139985859394">
        <ele>815.82000000000005</ele>
        <time>2018-10-19T12:39:47Z</time>
      </trkpt>
      <trkpt lat="60.817890968173742" lon="6.322215003892779">
        <ele>812.45000000000005</ele>
        <time>2018-10-19T12:39:57Z</time>
      </trkpt>
      <trkpt lat="60.817924998700619" lon="6.322192959487438">
        <ele>811.49000000000001</ele>
        <time>2018-10-19T12:39:59Z</time>
      </trkpt>
      <trkpt lat="60.817959029227495" lon="6.322230007499456">
        <ele>810.04999999999995</ele>
        <time>2018-10-19T12:40:02Z</time>
      </trkpt>
      <trkpt lat="60.818089032545686" lon="6.322294967249036">
        <ele>807.63999999999999</ele>
        <time>2018-10-19T12:40:14Z</time>
      </trkpt>
      <trkpt lat="60.818181987851858" lon="6.322326986119151">
        <ele>805.72000000000003</ele>
        <time>2018-10-19T12:40:19Z</time>
      </trkpt>
      <trkpt lat="60.818276032805443" lon="6.322466041892767">
        <ele>803.79999999999995</ele>
        <time>2018-10-19T12:40:25Z</time>
      </trkpt>
      <trkpt lat="60.818435959517956" lon="6.322542987763882">
        <ele>801.88</ele>
        <time>2018-10-19T12:40:33Z</time>
      </trkpt>
      <trkpt lat="60.81857199780643" lon="6.322606019675732">
        <ele>799.47000000000003</ele>
        <time>2018-10-19T12:40:39Z</time>
      </trkpt>
      <trkpt lat="60.818680040538311" lon="6.322783967480063">
        <ele>798.50999999999999</ele>
        <time>2018-10-19T12:40:47Z</time>
      </trkpt>
      <trkpt lat="60.818824963644147" lon="6.322926040738821">
        <ele>799.95000000000005</ele>
        <time>2018-10-19T12:40:58Z</time>
      </trkpt>
      <trkpt lat="60.818905010819435" lon="6.323008015751839">
        <ele>800.91999999999996</ele>
        <time>2018-10-19T12:41:04Z</time>
      </trkpt>
      <trkpt lat="60.819010036066175" lon="6.323144976049662">
        <ele>802.36000000000001</ele>
        <time>2018-10-19T12:41:10Z</time>
      </trkpt>
      <trkpt lat="60.819096034392715" lon="6.323260981589556">
        <ele>802.84000000000003</ele>
        <time>2018-10-19T12:41:16Z</time>
      </trkpt>
      <trkpt lat="60.819199969992042" lon="6.323444964364171">
        <ele>802.84000000000003</ele>
        <time>2018-10-19T12:41:27Z</time>
      </trkpt>
      <trkpt lat="60.819251015782356" lon="6.323453010991216">
        <ele>802.84000000000003</ele>
        <time>2018-10-19T12:41:31Z</time>
      </trkpt>
      <trkpt lat="60.819308012723923" lon="6.323468014597893">
        <ele>803.32000000000005</ele>
        <time>2018-10-19T12:41:36Z</time>
      </trkpt>
      <trkpt lat="60.819399040192366" lon="6.323669012635946">
        <ele>802.84000000000003</ele>
        <time>2018-10-19T12:41:47Z</time>
      </trkpt>
      <trkpt lat="60.819488978013396" lon="6.323916027322412">
        <ele>802.36000000000001</ele>
        <time>2018-10-19T12:41:58Z</time>
      </trkpt>
      <trkpt lat="60.819569025188684" lon="6.323966989293695">
        <ele>802.36000000000001</ele>
        <time>2018-10-19T12:42:05Z</time>
      </trkpt>
      <trkpt lat="60.819638008251786" lon="6.323932958766818">
        <ele>802.84000000000003</ele>
        <time>2018-10-19T12:42:11Z</time>
      </trkpt>
      <trkpt lat="60.819745967164636" lon="6.323965983465314">
        <ele>803.79999999999995</ele>
        <time>2018-10-19T12:42:22Z</time>
      </trkpt>
      <trkpt lat="60.819769017398357" lon="6.323981992900372">
        <ele>803.32000000000005</ele>
        <time>2018-10-19T12:42:23Z</time>
      </trkpt>
      <trkpt lat="60.819825008511543" lon="6.323851989582181">
        <ele>801.88</ele>
        <time>2018-10-19T12:42:29Z</time>
      </trkpt>
      <trkpt lat="60.819863984361291" lon="6.323752999305725">
        <ele>799.95000000000005</ele>
        <time>2018-10-19T12:42:34Z</time>
      </trkpt>
      <trkpt lat="60.819898014888167" lon="6.323690973222256">
        <ele>799.47000000000003</ele>
        <time>2018-10-19T12:42:37Z</time>
      </trkpt>
      <trkpt lat="60.819917963817716" lon="6.323688961565495">
        <ele>798.99000000000001</ele>
        <time>2018-10-19T12:42:49Z</time>
      </trkpt>
      <trkpt lat="60.819927016273141" lon="6.323684016242623">
        <ele>798.50999999999999</ele>
        <time>2018-10-19T12:42:55Z</time>
      </trkpt>
      <trkpt lat="60.819917041808367" lon="6.323645962402225">
        <ele>797.54999999999995</ele>
        <time>2018-10-19T12:42:57Z</time>
      </trkpt>
      <trkpt lat="60.819944031536579" lon="6.323632970452309">
        <ele>796.59000000000003</ele>
        <time>2018-10-19T12:43:00Z</time>
      </trkpt>
      <trkpt lat="60.819960040971637" lon="6.323650991544128">
        <ele>796.11000000000001</ele>
        <time>2018-10-19T12:43:02Z</time>
      </trkpt>
      <trkpt lat="60.819975966587663" lon="6.323640011250973">
        <ele>795.14999999999998</ele>
        <time>2018-10-19T12:43:04Z</time>
      </trkpt>
      <trkpt lat="60.819992981851101" lon="6.323578990995884">
        <ele>794.19000000000005</ele>
        <time>2018-10-19T12:43:07Z</time>
      </trkpt>
      <trkpt lat="60.820002034306526" lon="6.323524005711079">
        <ele>793.71000000000004</ele>
        <time>2018-10-19T12:43:09Z</time>
      </trkpt>
      <trkpt lat="60.820057019591331" lon="6.323475977405906">
        <ele>791.77999999999997</ele>
        <time>2018-10-19T12:43:12Z</time>
      </trkpt>
      <trkpt lat="60.820092977955937" lon="6.323472037911415">
        <ele>789.86000000000001</ele>
        <time>2018-10-19T12:43:14Z</time>
      </trkpt>
      <trkpt lat="60.82022700458765" lon="6.323637999594212">
        <ele>787.46000000000004</ele>
        <time>2018-10-19T12:43:24Z</time>
      </trkpt>
      <trkpt lat="60.820319037884474" lon="6.323749981820583">
        <ele>785.04999999999995</ele>
        <time>2018-10-19T12:43:30Z</time>
      </trkpt>
      <trkpt lat="60.820372011512518" lon="6.323823994025588">
        <ele>784.57000000000005</ele>
        <time>2018-10-19T12:43:35Z</time>
      </trkpt>
      <trkpt lat="60.820449963212013" lon="6.323663983494043">
        <ele>783.13</ele>
        <time>2018-10-19T12:43:44Z</time>
      </trkpt>
      <trkpt lat="60.820531016215682" lon="6.323624001815915">
        <ele>783.61000000000001</ele>
        <time>2018-10-19T12:43:55Z</time>
      </trkpt>
      <trkpt lat="60.82059103064239" lon="6.323670018464327">
        <ele>785.52999999999997</ele>
        <time>2018-10-19T12:44:06Z</time>
      </trkpt>
      <trkpt lat="60.820642998442054" lon="6.323718968778849">
        <ele>786.01999999999998</ele>
        <time>2018-10-19T12:44:24Z</time>
      </trkpt>
      <trkpt lat="60.820703012868762" lon="6.323817959055305">
        <ele>786.98000000000002</ele>
        <time>2018-10-19T12:44:36Z</time>
      </trkpt>
      <trkpt lat="60.820751963183284" lon="6.323886020109057">
        <ele>787.46000000000004</ele>
        <time>2018-10-19T12:44:44Z</time>
      </trkpt>
      <trkpt lat="60.82080502063036" lon="6.323939999565482">
        <ele>790.34000000000003</ele>
        <time>2018-10-19T12:44:55Z</time>
      </trkpt>
      <trkpt lat="60.820831004530191" lon="6.323972018435597">
        <ele>791.29999999999995</ele>
        <time>2018-10-19T12:44:59Z</time>
      </trkpt>
      <trkpt lat="60.820958996191621" lon="6.324118031188846">
        <ele>794.19000000000005</ele>
        <time>2018-10-19T12:45:13Z</time>
      </trkpt>
      <trkpt lat="60.82106402143836" lon="6.324290027841926">
        <ele>795.63</ele>
        <time>2018-10-19T12:45:25Z</time>
      </trkpt>
      <trkpt lat="60.821207016706467" lon="6.324470993131399">
        <ele>796.11000000000001</ele>
        <time>2018-10-19T12:45:39Z</time>
      </trkpt>
      <trkpt lat="60.821295026689768" lon="6.324598984792829">
        <ele>798.02999999999997</ele>
        <time>2018-10-19T12:45:49Z</time>
      </trkpt>
      <trkpt lat="60.821383958682418" lon="6.32479403167963">
        <ele>800.44000000000005</ele>
        <time>2018-10-19T12:46:03Z</time>
      </trkpt>
      <trkpt lat="60.821394016966224" lon="6.32483895868063">
        <ele>800.91999999999996</ele>
        <time>2018-10-19T12:46:06Z</time>
      </trkpt>
      <trkpt lat="60.821402985602617" lon="6.325041968375444">
        <ele>804.27999999999997</ele>
        <time>2018-10-19T12:46:17Z</time>
      </trkpt>
      <trkpt lat="60.821401979774237" lon="6.325056971982122">
        <ele>804.27999999999997</ele>
        <time>2018-10-19T12:46:18Z</time>
      </trkpt>
      <trkpt lat="60.821469034999609" lon="6.325232991948724">
        <ele>805.24000000000001</ele>
        <time>2018-10-19T12:46:27Z</time>
      </trkpt>
      <trkpt lat="60.821500970050693" lon="6.325457962229848">
        <ele>807.15999999999997</ele>
        <time>2018-10-19T12:46:38Z</time>
      </trkpt>
      <trkpt lat="60.821496024727821" lon="6.325621996074915">
        <ele>809.09000000000003</ele>
        <time>2018-10-19T12:46:52Z</time>
      </trkpt>
      <trkpt lat="60.821502981707454" lon="6.325693996623159">
        <ele>808.61000000000001</ele>
        <time>2018-10-19T12:46:54Z</time>
      </trkpt>
      <trkpt lat="60.821625022217631" lon="6.325917039066553">
        <ele>809.57000000000005</ele>
        <time>2018-10-19T12:47:03Z</time>
      </trkpt>
      <trkpt lat="60.821722000837326" lon="6.325984010472894">
        <ele>811.49000000000001</ele>
        <time>2018-10-19T12:47:10Z</time>
      </trkpt>
      <trkpt lat="60.821741027757525" lon="6.325991973280907">
        <ele>811.49000000000001</ele>
        <time>2018-10-19T12:47:11Z</time>
      </trkpt>
      <trkpt lat="60.821856027469039" lon="6.326037989929318">
        <ele>811.97000000000003</ele>
        <time>2018-10-19T12:47:17Z</time>
      </trkpt>
      <trkpt lat="60.821982007473707" lon="6.32614997215569">
        <ele>812.45000000000005</ele>
        <time>2018-10-19T12:47:24Z</time>
      </trkpt>
      <trkpt lat="60.822080997750163" lon="6.326239993795753">
        <ele>812.45000000000005</ele>
        <time>2018-10-19T12:47:30Z</time>
      </trkpt>
      <trkpt lat="60.822184011340141" lon="6.32647099904716">
        <ele>811.49000000000001</ele>
        <time>2018-10-19T12:47:37Z</time>
      </trkpt>
      <trkpt lat="60.82228995859623" lon="6.326657999306917">
        <ele>811.00999999999999</ele>
        <time>2018-10-19T12:47:44Z</time>
      </trkpt>
      <trkpt lat="60.822370005771518" lon="6.32694398984313">
        <ele>810.52999999999997</ele>
        <time>2018-10-19T12:47:52Z</time>
      </trkpt>
      <trkpt lat="60.822448963299394" lon="6.327139958739281">
        <ele>810.52999999999997</ele>
        <time>2018-10-19T12:47:58Z</time>
      </trkpt>
      <trkpt lat="60.822564968839288" lon="6.327277002856135">
        <ele>811.00999999999999</ele>
        <time>2018-10-19T12:48:05Z</time>
      </trkpt>
      <trkpt lat="60.82263202406466" lon="6.327471965923905">
        <ele>811.00999999999999</ele>
        <time>2018-10-19T12:48:12Z</time>
      </trkpt>
      <trkpt lat="60.822712993249297" lon="6.327577996999025">
        <ele>812.45000000000005</ele>
        <time>2018-10-19T12:48:18Z</time>
      </trkpt>
      <trkpt lat="60.822817012667656" lon="6.327728033065796">
        <ele>813.88999999999999</ele>
        <time>2018-10-19T12:48:25Z</time>
      </trkpt>
      <trkpt lat="60.822891024872661" lon="6.327848983928561">
        <ele>814.85000000000002</ele>
        <time>2018-10-19T12:48:31Z</time>
      </trkpt>
      <trkpt lat="60.822916002944112" lon="6.327930958941579">
        <ele>815.82000000000005</ele>
        <time>2018-10-19T12:48:35Z</time>
      </trkpt>
      <trkpt lat="60.822959002107382" lon="6.328157018870115">
        <ele>816.77999999999997</ele>
        <time>2018-10-19T12:48:41Z</time>
      </trkpt>
      <trkpt lat="60.823080036789179" lon="6.328314011916518">
        <ele>817.74000000000001</ele>
        <time>2018-10-19T12:48:50Z</time>
      </trkpt>
      <trkpt lat="60.823147008195519" lon="6.328467987477779">
        <ele>818.70000000000005</ele>
        <time>2018-10-19T12:48:56Z</time>
      </trkpt>
      <trkpt lat="60.823196964338422" lon="6.328676026314497">
        <ele>817.74000000000001</ele>
        <time>2018-10-19T12:49:02Z</time>
      </trkpt>
      <trkpt lat="60.823281034827232" lon="6.328825978562236">
        <ele>815.82000000000005</ele>
        <time>2018-10-19T12:49:07Z</time>
      </trkpt>
      <trkpt lat="60.823384970426559" lon="6.329057989642024">
        <ele>813.88999999999999</ele>
        <time>2018-10-19T12:49:13Z</time>
      </trkpt>
      <trkpt lat="60.823480021208525" lon="6.329204002395272">
        <ele>811.97000000000003</ele>
        <time>2018-10-19T12:49:19Z</time>
      </trkpt>
      <trkpt lat="60.823598960414529" lon="6.329357977956533">
        <ele>810.52999999999997</ele>
        <time>2018-10-19T12:49:26Z</time>
      </trkpt>
      <trkpt lat="60.82377003505826" lon="6.329560987651348">
        <ele>809.57000000000005</ele>
        <time>2018-10-19T12:49:34Z</time>
      </trkpt>
      <trkpt lat="60.823863996192813" lon="6.329734995961189">
        <ele>808.13</ele>
        <time>2018-10-19T12:49:40Z</time>
      </trkpt>
      <trkpt lat="60.823983019217849" lon="6.329927025362849">
        <ele>808.13</ele>
        <time>2018-10-19T12:49:48Z</time>
      </trkpt>
      <trkpt lat="60.824086032807827" lon="6.330134980380535">
        <ele>806.20000000000005</ele>
        <time>2018-10-19T12:49:54Z</time>
      </trkpt>
      <trkpt lat="60.824086032807827" lon="6.330199018120766">
        <ele>805.24000000000001</ele>
        <time>2018-10-19T12:49:56Z</time>
      </trkpt>
      <trkpt lat="60.824129031971097" lon="6.330314017832279">
        <ele>805.72000000000003</ele>
        <time>2018-10-19T12:50:03Z</time>
      </trkpt>
      <trkpt lat="60.824220981448889" lon="6.330461958423257">
        <ele>805.72000000000003</ele>
        <time>2018-10-19T12:50:09Z</time>
      </trkpt>
      <trkpt lat="60.824260041117668" lon="6.330712996423245">
        <ele>805.24000000000001</ele>
        <time>2018-10-19T12:50:16Z</time>
      </trkpt>
      <trkpt lat="60.824113022536039" lon="6.331048021093011">
        <ele>805.24000000000001</ele>
        <time>2018-10-19T12:50:25Z</time>
      </trkpt>
      <trkpt lat="60.823988970369101" lon="6.33126201108098">
        <ele>806.67999999999995</ele>
        <time>2018-10-19T12:50:32Z</time>
      </trkpt>
      <trkpt lat="60.823991987854242" lon="6.331549007445574">
        <ele>807.63999999999999</ele>
        <time>2018-10-19T12:50:39Z</time>
      </trkpt>
      <trkpt lat="60.823999028652906" lon="6.331871962174773">
        <ele>805.24000000000001</ele>
        <time>2018-10-19T12:50:45Z</time>
      </trkpt>
      <trkpt lat="60.823995005339384" lon="6.331915967166424">
        <ele>804.75999999999999</ele>
        <time>2018-10-19T12:50:46Z</time>
      </trkpt>
      <trkpt lat="60.823959968984127" lon="6.332339001819491">
        <ele>803.79999999999995</ele>
        <time>2018-10-19T12:50:54Z</time>
      </trkpt>
      <trkpt lat="60.823861984536052" lon="6.332513010129333">
        <ele>804.27999999999997</ele>
        <time>2018-10-19T12:51:00Z</time>
      </trkpt>
      <trkpt lat="60.823756959289312" lon="6.332411002367735">
        <ele>805.72000000000003</ele>
        <time>2018-10-19T12:51:10Z</time>
      </trkpt>
      <trkpt lat="60.823682025074959" lon="6.332394992932677">
        <ele>806.67999999999995</ele>
        <time>2018-10-19T12:51:18Z</time>
      </trkpt>
      <trkpt lat="60.8235780056566" lon="6.332255015149713">
        <ele>808.13</ele>
        <time>2018-10-19T12:51:28Z</time>
      </trkpt>
      <trkpt lat="60.823407014831901" lon="6.33149997331202">
        <ele>660.55999999999995</ele>
        <time>2018-10-19T13:39:40Z</time>
      </trkpt>
      <trkpt lat="60.823494018986821" lon="6.331011978909373">
        <ele>662.00999999999999</ele>
        <time>2018-10-19T13:39:48Z</time>
      </trkpt>
      <trkpt lat="60.823480021208525" lon="6.33085498586297">
        <ele>664.40999999999997</ele>
        <time>2018-10-19T13:39:54Z</time>
      </trkpt>
      <trkpt lat="60.823576999828219" lon="6.330759013071656">
        <ele>663.92999999999995</ele>
        <time>2018-10-19T13:39:59Z</time>
      </trkpt>
      <trkpt lat="60.823680013418198" lon="6.330571006983519">
        <ele>662.97000000000003</ele>
        <time>2018-10-19T13:40:04Z</time>
      </trkpt>
      <trkpt lat="60.82390196621418" lon="6.330404039472342">
        <ele>662.00999999999999</ele>
        <time>2018-10-19T13:40:12Z</time>
      </trkpt>
      <trkpt lat="60.824040016159415" lon="6.330332960933447">
        <ele>663.45000000000005</ele>
        <time>2018-10-19T13:40:18Z</time>
      </trkpt>
      <trkpt lat="60.824036998674273" lon="6.330279987305403">
        <ele>664.40999999999997</ele>
        <time>2018-10-19T13:40:20Z</time>
      </trkpt>
      <trkpt lat="60.824044039472938" lon="6.330257020890713">
        <ele>664.40999999999997</ele>
        <time>2018-10-19T13:40:26Z</time>
      </trkpt>
      <trkpt lat="60.824001962319016" lon="6.330226007848978">
        <ele>664.40999999999997</ele>
        <time>2018-10-19T13:40:33Z</time>
      </trkpt>
      <trkpt lat="60.824012020602822" lon="6.330170016735792">
        <ele>663.92999999999995</ele>
        <time>2018-10-19T13:40:46Z</time>
      </trkpt>
      <trkpt lat="60.824012020602822" lon="6.330170016735792">
        <ele>663.92999999999995</ele>
        <time>2018-10-19T13:40:52Z</time>
      </trkpt>
      <trkpt lat="60.824025012552738" lon="6.330160964280367">
        <ele>665.37</ele>
        <time>2018-10-19T13:41:00Z</time>
      </trkpt>
      <trkpt lat="60.824034987017512" lon="6.330153001472354">
        <ele>666.33000000000004</ele>
        <time>2018-10-19T13:41:12Z</time>
      </trkpt>
      <trkpt lat="60.824041021987796" lon="6.330140009522438">
        <ele>666.80999999999995</ele>
        <time>2018-10-19T13:41:27Z</time>
      </trkpt>
      <trkpt lat="60.824052002280951" lon="6.330132968723774">
        <ele>667.76999999999998</ele>
        <time>2018-10-19T13:41:39Z</time>
      </trkpt>
      <trkpt lat="60.824058959260583" lon="6.330128023400903">
        <ele>669.22000000000003</ele>
        <time>2018-10-19T13:41:59Z</time>
      </trkpt>
      <trkpt lat="60.824057031422853" lon="6.33012400008738">
        <ele>669.70000000000005</ele>
        <time>2018-10-19T13:42:07Z</time>
      </trkpt>
      <trkpt lat="60.824074968695641" lon="6.330127017572522">
        <ele>669.70000000000005</ele>
        <time>2018-10-19T13:42:11Z</time>
      </trkpt>
      <trkpt lat="60.824024006724358" lon="6.330044036731124">
        <ele>670.17999999999995</ele>
        <time>2018-10-19T13:42:14Z</time>
      </trkpt>
      <trkpt lat="60.824116040021181" lon="6.329915039241314">
        <ele>671.62</ele>
        <time>2018-10-19T13:42:19Z</time>
      </trkpt>
      <trkpt lat="60.824298011139035" lon="6.329796016216278">
        <ele>674.5</ele>
        <time>2018-10-19T13:42:26Z</time>
      </trkpt>
      <trkpt lat="60.824498003348708" lon="6.329874973744154">
        <ele>675.94000000000005</ele>
        <time>2018-10-19T13:42:33Z</time>
      </trkpt>
      <trkpt lat="60.824518036097288" lon="6.329916967079043">
        <ele>675.94000000000005</ele>
        <time>2018-10-19T13:42:34Z</time>
      </trkpt>
      <trkpt lat="60.824608979746699" lon="6.329891989007592">
        <ele>676.90999999999997</ele>
        <time>2018-10-19T13:42:40Z</time>
      </trkpt>
      <trkpt lat="60.824732026085258" lon="6.329747987911105">
        <ele>679.78999999999996</ele>
        <time>2018-10-19T13:42:47Z</time>
      </trkpt>
      <trkpt lat="60.824772007763386" lon="6.329639023169875">
        <ele>682.19000000000005</ele>
        <time>2018-10-19T13:42:55Z</time>
      </trkpt>
      <trkpt lat="60.824776031076908" lon="6.32956400513649">
        <ele>684.12</ele>
        <time>2018-10-19T13:43:00Z</time>
      </trkpt>
      <trkpt lat="60.824796985834837" lon="6.329516982659698">
        <ele>685.55999999999995</ele>
        <time>2018-10-19T13:43:03Z</time>
      </trkpt>
      <trkpt lat="60.824897987768054" lon="6.32949803955853">
        <ele>687.48000000000002</ele>
        <time>2018-10-19T13:43:09Z</time>
      </trkpt>
      <trkpt lat="60.824984991922975" lon="6.329555036500096">
        <ele>689.88</ele>
        <time>2018-10-19T13:43:16Z</time>
      </trkpt>
      <trkpt lat="60.825011981651187" lon="6.329565010964871">
        <ele>690.36000000000001</ele>
        <time>2018-10-19T13:43:18Z</time>
      </trkpt>
      <trkpt lat="60.825053974986076" lon="6.329524023458362">
        <ele>693.73000000000002</ele>
        <time>2018-10-19T13:43:25Z</time>
      </trkpt>
      <trkpt lat="60.825116001069546" lon="6.329484963789582">
        <ele>694.69000000000005</ele>
        <time>2018-10-19T13:43:29Z</time>
      </trkpt>
      <trkpt lat="60.825139973312616" lon="6.329486975446343">
        <ele>696.61000000000001</ele>
        <time>2018-10-19T13:43:31Z</time>
      </trkpt>
      <trkpt lat="60.825199987739325" lon="6.32950097322464">
        <ele>697.09000000000003</ele>
        <time>2018-10-19T13:43:33Z</time>
      </trkpt>
      <trkpt lat="60.825243992730975" lon="6.329542966559529">
        <ele>698.52999999999997</ele>
        <time>2018-10-19T13:43:36Z</time>
      </trkpt>
      <trkpt lat="60.825290009379387" lon="6.329549001529813">
        <ele>699.98000000000002</ele>
        <time>2018-10-19T13:43:40Z</time>
      </trkpt>
      <trkpt lat="60.825397968292236" lon="6.329643968492746">
        <ele>701.89999999999998</ele>
        <time>2018-10-19T13:43:47Z</time>
      </trkpt>
      <trkpt lat="60.8254240360111" lon="6.329669030383229">
        <ele>704.77999999999997</ele>
        <time>2018-10-19T13:43:56Z</time>
      </trkpt>
      <trkpt lat="60.825480027124286" lon="6.329679004848003">
        <ele>707.66999999999996</ele>
        <time>2018-10-19T13:44:07Z</time>
      </trkpt>
      <trkpt lat="60.825622016564012" lon="6.329605998471379">
        <ele>710.54999999999995</ele>
        <time>2018-10-19T13:44:19Z</time>
      </trkpt>
      <trkpt lat="60.825708014890552" lon="6.329468032345176">
        <ele>713.44000000000005</ele>
        <time>2018-10-19T13:44:29Z</time>
      </trkpt>
      <trkpt lat="60.825717989355326" lon="6.329453028738499">
        <ele>714.39999999999998</ele>
        <time>2018-10-19T13:44:31Z</time>
      </trkpt>
      <trkpt lat="60.825731987133622" lon="6.329364012926817">
        <ele>715.84000000000003</ele>
        <time>2018-10-19T13:44:36Z</time>
      </trkpt>
      <trkpt lat="60.825751014053822" lon="6.329180030152202">
        <ele>718.24000000000001</ele>
        <time>2018-10-19T13:44:43Z</time>
      </trkpt>
      <trkpt lat="60.825804993510246" lon="6.329129990190268">
        <ele>719.67999999999995</ele>
        <time>2018-10-19T13:44:47Z</time>
      </trkpt>
      <trkpt lat="60.825862996280193" lon="6.329095037654042">
        <ele>720.64999999999998</ele>
        <time>2018-10-19T13:44:51Z</time>
      </trkpt>
      <trkpt lat="60.825985036790371" lon="6.329280026257038">
        <ele>722.57000000000005</ele>
        <time>2018-10-19T13:45:00Z</time>
      </trkpt>
      <trkpt lat="60.826097019016743" lon="6.329384967684746">
        <ele>724.00999999999999</ele>
        <time>2018-10-19T13:45:07Z</time>
      </trkpt>
      <trkpt lat="60.826158039271832" lon="6.329445987939835">
        <ele>724.49000000000001</ele>
        <time>2018-10-19T13:45:13Z</time>
      </trkpt>
      <trkpt lat="60.826230039820075" lon="6.329482030123472">
        <ele>726.40999999999997</ele>
        <time>2018-10-19T13:45:22Z</time>
      </trkpt>
      <trkpt lat="60.826287036761642" lon="6.329497033730149">
        <ele>727.37</ele>
        <time>2018-10-19T13:45:31Z</time>
      </trkpt>
      <trkpt lat="60.826292987912893" lon="6.329508014023304">
        <ele>727.86000000000001</ele>
        <time>2018-10-19T13:45:32Z</time>
      </trkpt>
      <trkpt lat="60.826351996511221" lon="6.329580014571548">
        <ele>729.77999999999997</ele>
        <time>2018-10-19T13:45:40Z</time>
      </trkpt>
      <trkpt lat="60.826430032029748" lon="6.329503990709782">
        <ele>731.70000000000005</ele>
        <time>2018-10-19T13:45:49Z</time>
      </trkpt>
      <trkpt lat="60.826503960415721" lon="6.329479012638331">
        <ele>734.58000000000004</ele>
        <time>2018-10-19T13:45:56Z</time>
      </trkpt>
      <trkpt lat="60.826514018699527" lon="6.329473983496428">
        <ele>735.54999999999995</ele>
        <time>2018-10-19T13:45:57Z</time>
      </trkpt>
      <trkpt lat="60.826537990942597" lon="6.329494016245008">
        <ele>736.02999999999997</ele>
        <time>2018-10-19T13:45:59Z</time>
      </trkpt>
      <trkpt lat="60.826546959578991" lon="6.329484963789582">
        <ele>736.50999999999999</ele>
        <time>2018-10-19T13:46:00Z</time>
      </trkpt>
      <trkpt lat="60.826530028134584" lon="6.329305004328489">
        <ele>739.38999999999999</ele>
        <time>2018-10-19T13:46:08Z</time>
      </trkpt>
      <trkpt lat="60.826537990942597" lon="6.329280026257038">
        <ele>740.83000000000004</ele>
        <time>2018-10-19T13:46:11Z</time>
      </trkpt>
      <trkpt lat="60.826562969014049" lon="6.329248007386923">
        <ele>741.30999999999995</ele>
        <time>2018-10-19T13:46:13Z</time>
      </trkpt>
      <trkpt lat="60.826566992327571" lon="6.329216994345188">
        <ele>742.75999999999999</ele>
        <time>2018-10-19T13:46:15Z</time>
      </trkpt>
      <trkpt lat="60.826624995097518" lon="6.329151028767228">
        <ele>744.67999999999995</ele>
        <time>2018-10-19T13:46:20Z</time>
      </trkpt>
      <trkpt lat="60.826661959290504" lon="6.329099982976914">
        <ele>746.12</ele>
        <time>2018-10-19T13:46:23Z</time>
      </trkpt>
      <trkpt lat="60.826648967340589" lon="6.329023037105799">
        <ele>747.55999999999995</ele>
        <time>2018-10-19T13:46:26Z</time>
      </trkpt>
      <trkpt lat="60.826662965118885" lon="6.328960005193949">
        <ele>749.49000000000001</ele>
        <time>2018-10-19T13:46:29Z</time>
      </trkpt>
      <trkpt lat="60.826690038666129" lon="6.328992024064064">
        <ele>750.45000000000005</ele>
        <time>2018-10-19T13:46:33Z</time>
      </trkpt>
      <trkpt lat="60.826704036444426" lon="6.328885992988944">
        <ele>751.88999999999999</ele>
        <time>2018-10-19T13:46:37Z</time>
      </trkpt>
      <trkpt lat="60.826734965667129" lon="6.328831007704139">
        <ele>753.33000000000004</ele>
        <time>2018-10-19T13:46:40Z</time>
      </trkpt>
      <trkpt lat="60.826796991750598" lon="6.328758001327515">
        <ele>755.25</ele>
        <time>2018-10-19T13:46:45Z</time>
      </trkpt>
      <trkpt lat="60.826819958165288" lon="6.32872698828578">
        <ele>755.73000000000002</ele>
        <time>2018-10-19T13:46:47Z</time>
      </trkpt>
      <trkpt lat="60.826928000897169" lon="6.328667979687452">
        <ele>757.65999999999997</ele>
        <time>2018-10-19T13:46:55Z</time>
      </trkpt>
      <trkpt lat="60.826935963705182" lon="6.328637972474098">
        <ele>757.65999999999997</ele>
        <time>2018-10-19T13:46:57Z</time>
      </trkpt>
      <trkpt lat="60.826933030039072" lon="6.328621963039041">
        <ele>758.13999999999999</ele>
        <time>2018-10-19T13:47:09Z</time>
      </trkpt>
      <trkpt lat="60.82692900672555" lon="6.328581981360912">
        <ele>758.13999999999999</ele>
        <time>2018-10-19T13:47:25Z</time>
      </trkpt>
      <trkpt lat="60.827021962031722" lon="6.328451978042722">
        <ele>758.13999999999999</ele>
        <time>2018-10-19T13:47:35Z</time>
      </trkpt>
      <trkpt lat="60.827119024470448" lon="6.328381989151239">
        <ele>761.01999999999998</ele>
        <time>2018-10-19T13:47:42Z</time>
      </trkpt>
      <trkpt lat="60.82716696895659" lon="6.328378971666098">
        <ele>762.94000000000005</ele>
        <time>2018-10-19T13:47:46Z</time>
      </trkpt>
      <trkpt lat="60.827202005311847" lon="6.328390035778284">
        <ele>763.89999999999998</ele>
        <time>2018-10-19T13:47:49Z</time>
      </trkpt>
      <trkpt lat="60.827256990596652" lon="6.328401016071439">
        <ele>764.87</ele>
        <time>2018-10-19T13:47:52Z</time>
      </trkpt>
      <trkpt lat="60.827342988923192" lon="6.328363968059421">
        <ele>767.26999999999998</ele>
        <time>2018-10-19T13:47:59Z</time>
      </trkpt>
      <trkpt lat="60.827351035550237" lon="6.328373020514846">
        <ele>767.26999999999998</ele>
        <time>2018-10-19T13:48:00Z</time>
      </trkpt>
      <trkpt lat="60.827386993914843" lon="6.328334966674447">
        <ele>769.19000000000005</ele>
        <time>2018-10-19T13:48:04Z</time>
      </trkpt>
      <trkpt lat="60.827415995299816" lon="6.328242011368275">
        <ele>771.60000000000002</ele>
        <time>2018-10-19T13:48:09Z</time>
      </trkpt>
      <trkpt lat="60.827413983643055" lon="6.328161964192987">
        <ele>772.55999999999995</ele>
        <time>2018-10-19T13:48:13Z</time>
      </trkpt>
      <trkpt lat="60.827354975044727" lon="6.328084012493491">
        <ele>773.51999999999998</ele>
        <time>2018-10-19T13:48:17Z</time>
      </trkpt>
      <trkpt lat="60.827410966157913" lon="6.327906986698508">
        <ele>774.48000000000002</ele>
        <time>2018-10-19T13:48:26Z</time>
      </trkpt>
      <trkpt lat="60.827516997233033" lon="6.327999019995332">
        <ele>776.39999999999998</ele>
        <time>2018-10-19T13:48:35Z</time>
      </trkpt>
      <trkpt lat="60.827548010274768" lon="6.327987033873797">
        <ele>777.36000000000001</ele>
        <time>2018-10-19T13:48:38Z</time>
      </trkpt>
      <trkpt lat="60.827599978074431" lon="6.327962977811694">
        <ele>778.80999999999995</ele>
        <time>2018-10-19T13:48:44Z</time>
      </trkpt>
      <trkpt lat="60.827587991952896" lon="6.328031960874796">
        <ele>779.76999999999998</ele>
        <time>2018-10-19T13:48:47Z</time>
      </trkpt>
      <trkpt lat="60.827725036069751" lon="6.328212004154921">
        <ele>781.69000000000005</ele>
        <time>2018-10-19T13:48:56Z</time>
      </trkpt>
      <trkpt lat="60.827744984999299" lon="6.328237988054752">
        <ele>781.69000000000005</ele>
        <time>2018-10-19T13:48:58Z</time>
      </trkpt>
      <trkpt lat="60.827816985547543" lon="6.328185014426708">
        <ele>780.73000000000002</ele>
        <time>2018-10-19T13:49:04Z</time>
      </trkpt>
      <trkpt lat="60.827822014689445" lon="6.327951997518539">
        <ele>778.32000000000005</ele>
        <time>2018-10-19T13:49:09Z</time>
      </trkpt>
      <trkpt lat="60.827791001647711" lon="6.327785030007362">
        <ele>778.32000000000005</ele>
        <time>2018-10-19T13:49:16Z</time>
      </trkpt>
      <trkpt lat="60.827706009149551" lon="6.327567016705871">
        <ele>779.76999999999998</ele>
        <time>2018-10-19T13:49:25Z</time>
      </trkpt>
      <trkpt lat="60.827654041349888" lon="6.327338023111224">
        <ele>780.73000000000002</ele>
        <time>2018-10-19T13:49:32Z</time>
      </trkpt>
      <trkpt lat="60.82764096558094" lon="6.327054966241121">
        <ele>781.69000000000005</ele>
        <time>2018-10-19T13:49:41Z</time>
      </trkpt>
      <trkpt lat="60.827647000551224" lon="6.326832007616758">
        <ele>784.09000000000003</ele>
        <time>2018-10-19T13:49:50Z</time>
      </trkpt>
      <trkpt lat="60.827609030529857" lon="6.326529001817107">
        <ele>786.98000000000002</ele>
        <time>2018-10-19T13:49:59Z</time>
      </trkpt>
      <trkpt lat="60.82757500000298" lon="6.32631903514266">
        <ele>788.41999999999996</ele>
        <time>2018-10-19T13:50:06Z</time>
      </trkpt>
      <trkpt lat="60.827570976689458" lon="6.326198000460863">
        <ele>789.86000000000001</ele>
        <time>2018-10-19T13:50:09Z</time>
      </trkpt>
      <trkpt lat="60.82759503275156" lon="6.325893988832831">
        <ele>792.74000000000001</ele>
        <time>2018-10-19T13:50:17Z</time>
      </trkpt>
      <trkpt lat="60.827604001387954" lon="6.325666001066566">
        <ele>794.19000000000005</ele>
        <time>2018-10-19T13:50:25Z</time>
      </trkpt>
      <trkpt lat="60.8275549672544" lon="6.325432984158397">
        <ele>797.54999999999995</ele>
        <time>2018-10-19T13:50:36Z</time>
      </trkpt>
      <trkpt lat="60.82753200083971" lon="6.325376993045211">
        <ele>798.99000000000001</ele>
        <time>2018-10-19T13:50:39Z</time>
      </trkpt>
      <trkpt lat="60.827535018324852" lon="6.325296023860574">
        <ele>800.44000000000005</ele>
        <time>2018-10-19T13:50:42Z</time>
      </trkpt>
      <trkpt lat="60.827540969476104" lon="6.325284959748387">
        <ele>801.39999999999998</ele>
        <time>2018-10-19T13:50:43Z</time>
      </trkpt>
      <trkpt lat="60.827602995559573" lon="6.325102988630533">
        <ele>803.79999999999995</ele>
        <time>2018-10-19T13:50:50Z</time>
      </trkpt>
      <trkpt lat="60.827649012207985" lon="6.324873995035887">
        <ele>805.72000000000003</ele>
        <time>2018-10-19T13:50:57Z</time>
      </trkpt>
      <trkpt lat="60.827671978622675" lon="6.324835019186139">
        <ele>805.72000000000003</ele>
        <time>2018-10-19T13:51:04Z</time>
      </trkpt>
      <trkpt lat="60.827678013592958" lon="6.324827978387475">
        <ele>806.67999999999995</ele>
        <time>2018-10-19T13:51:24Z</time>
      </trkpt>
      <trkpt lat="60.827714977785945" lon="6.32473099976778">
        <ele>807.63999999999999</ele>
        <time>2018-10-19T13:51:28Z</time>
      </trkpt>
      <trkpt lat="60.827756971120834" lon="6.324613988399506">
        <ele>809.57000000000005</ele>
        <time>2018-10-19T13:51:32Z</time>
      </trkpt>
      <trkpt lat="60.827800976112485" lon="6.324576018378139">
        <ele>811.49000000000001</ele>
        <time>2018-10-19T13:51:35Z</time>
      </trkpt>
      <trkpt lat="60.827854033559561" lon="6.324513992294669">
        <ele>813.40999999999997</ele>
        <time>2018-10-19T13:51:39Z</time>
      </trkpt>
      <trkpt lat="60.82789502106607" lon="6.324479039758444">
        <ele>814.85000000000002</ele>
        <time>2018-10-19T13:51:42Z</time>
      </trkpt>
      <trkpt lat="60.827968027442694" lon="6.324442997574806">
        <ele>817.25999999999999</ele>
        <time>2018-10-19T13:51:48Z</time>
      </trkpt>
      <trkpt lat="60.828060982748866" lon="6.324426988139749">
        <ele>819.17999999999995</ele>
        <time>2018-10-19T13:51:54Z</time>
      </trkpt>
      <trkpt lat="60.828166007995605" lon="6.324369991198182">
        <ele>821.10000000000002</ele>
        <time>2018-10-19T13:52:01Z</time>
      </trkpt>
      <trkpt lat="60.828171037137508" lon="6.32436303421855">
        <ele>821.58000000000004</ele>
        <time>2018-10-19T13:52:02Z</time>
      </trkpt>
      <trkpt lat="60.828198026865721" lon="6.324370997026563">
        <ele>822.05999999999995</ele>
        <time>2018-10-19T13:52:04Z</time>
      </trkpt>
      <trkpt lat="60.828315038233995" lon="6.32432003505528">
        <ele>824.95000000000005</ele>
        <time>2018-10-19T13:52:12Z</time>
      </trkpt>
      <trkpt lat="60.828410005196929" lon="6.3243000023067">
        <ele>826.87</ele>
        <time>2018-10-19T13:52:18Z</time>
      </trkpt>
      <trkpt lat="60.82845501601696" lon="6.324142003431916">
        <ele>829.26999999999998</ele>
        <time>2018-10-19T13:52:26Z</time>
      </trkpt>
      <trkpt lat="60.828514024615288" lon="6.323989033699036">
        <ele>830.72000000000003</ele>
        <time>2018-10-19T13:52:35Z</time>
      </trkpt>
      <trkpt lat="60.82858401350677" lon="6.323776971548796">
        <ele>833.12</ele>
        <time>2018-10-19T13:52:43Z</time>
      </trkpt>
      <trkpt lat="60.828643022105098" lon="6.323745958507061">
        <ele>834.08000000000004</ele>
        <time>2018-10-19T13:52:48Z</time>
      </trkpt>
      <trkpt lat="60.828690966591239" lon="6.323586031794548">
        <ele>836.96000000000004</ele>
        <time>2018-10-19T13:52:58Z</time>
      </trkpt>
      <trkpt lat="60.828702030703425" lon="6.323582008481026">
        <ele>836.96000000000004</ele>
        <time>2018-10-19T13:53:00Z</time>
      </trkpt>
      <trkpt lat="60.828724997118115" lon="6.323584020137787">
        <ele>836.96000000000004</ele>
        <time>2018-10-19T13:53:02Z</time>
      </trkpt>
      <trkpt lat="60.828721979632974" lon="6.32348402403295">
        <ele>835.51999999999998</ele>
        <time>2018-10-19T13:53:08Z</time>
      </trkpt>
      <trkpt lat="60.828748969361186" lon="6.323343962430954">
        <ele>836.96000000000004</ele>
        <time>2018-10-19T13:53:16Z</time>
      </trkpt>
      <trkpt lat="60.82875601015985" lon="6.323343040421605">
        <ele>837.45000000000005</ele>
        <time>2018-10-19T13:53:17Z</time>
      </trkpt>
      <trkpt lat="60.82877897657454" lon="6.323357960209251">
        <ele>838.40999999999997</ele>
        <time>2018-10-19T13:53:20Z</time>
      </trkpt>
      <trkpt lat="60.828795991837978" lon="6.323328958824277">
        <ele>838.88999999999999</ele>
        <time>2018-10-19T13:53:22Z</time>
      </trkpt>
      <trkpt lat="60.828873021528125" lon="6.323281014338136">
        <ele>842.73000000000002</ele>
        <time>2018-10-19T13:53:31Z</time>
      </trkpt>
      <trkpt lat="60.828880984336138" lon="6.323275985196233">
        <ele>843.21000000000004</ele>
        <time>2018-10-19T13:53:32Z</time>
      </trkpt>
      <trkpt lat="60.828919038176537" lon="6.323271039873362">
        <ele>844.65999999999997</ele>
        <time>2018-10-19T13:53:36Z</time>
      </trkpt>
      <trkpt lat="60.828945022076368" lon="6.323253018781543">
        <ele>846.58000000000004</ele>
        <time>2018-10-19T13:53:40Z</time>
      </trkpt>
      <trkpt lat="60.828951979056001" lon="6.323185963556171">
        <ele>848.01999999999998</ele>
        <time>2018-10-19T13:53:44Z</time>
      </trkpt>
      <trkpt lat="60.828999001532793" lon="6.323063001036644">
        <ele>850.89999999999998</ele>
        <time>2018-10-19T13:53:51Z</time>
      </trkpt>
      <trkpt lat="60.829028002917767" lon="6.323041962459683">
        <ele>852.35000000000002</ele>
        <time>2018-10-19T13:53:54Z</time>
      </trkpt>
      <trkpt lat="60.829049041494727" lon="6.322956969961524">
        <ele>855.23000000000002</ele>
        <time>2018-10-19T13:54:00Z</time>
      </trkpt>
      <trkpt lat="60.829032026231289" lon="6.322854962199926">
        <ele>856.19000000000005</ele>
        <time>2018-10-19T13:54:05Z</time>
      </trkpt>
      <trkpt lat="60.829129004850984" lon="6.322798971086741">
        <ele>858.59000000000003</ele>
        <time>2018-10-19T13:54:13Z</time>
      </trkpt>
      <trkpt lat="60.829137973487377" lon="6.322527984157205">
        <ele>862.44000000000005</ele>
        <time>2018-10-19T13:54:24Z</time>
      </trkpt>
      <trkpt lat="60.829188013449311" lon="6.322360010817647">
        <ele>862.91999999999996</ele>
        <time>2018-10-19T13:54:32Z</time>
      </trkpt>
      <trkpt lat="60.829235035926104" lon="6.322225984185934">
        <ele>865.79999999999995</ele>
        <time>2018-10-19T13:54:44Z</time>
      </trkpt>
      <trkpt lat="60.829264037311077" lon="6.322114001959562">
        <ele>868.21000000000004</ele>
        <time>2018-10-19T13:54:52Z</time>
      </trkpt>
      <trkpt lat="60.829355986788869" lon="6.321849972009659">
        <ele>867.73000000000002</ele>
        <time>2018-10-19T13:55:06Z</time>
      </trkpt>
      <trkpt lat="60.829408960416913" lon="6.321576973423362">
        <ele>866.28999999999996</ele>
        <time>2018-10-19T13:55:15Z</time>
      </trkpt>
      <trkpt lat="60.829466041177511" lon="6.321388967335224">
        <ele>866.28999999999996</ele>
        <time>2018-10-19T13:55:24Z</time>
      </trkpt>
      <trkpt lat="60.829476015642285" lon="6.321344040334225">
        <ele>866.28999999999996</ele>
        <time>2018-10-19T13:55:31Z</time>
      </trkpt>
      <trkpt lat="60.829605013132095" lon="6.321302969008684">
        <ele>866.76999999999998</ele>
        <time>2018-10-19T13:55:44Z</time>
      </trkpt>
      <trkpt lat="60.82961599342525" lon="6.321285031735897">
        <ele>867.73000000000002</ele>
        <time>2018-10-19T13:55:46Z</time>
      </trkpt>
      <trkpt lat="60.829653963446617" lon="6.321237003430724">
        <ele>869.16999999999996</ele>
        <time>2018-10-19T13:55:50Z</time>
      </trkpt>
      <trkpt lat="60.829700985923409" lon="6.321218982338905">
        <ele>871.09000000000003</ele>
        <time>2018-10-19T13:55:55Z</time>
      </trkpt>
      <trkpt lat="60.8298309892416" lon="6.321174977347255">
        <ele>869.16999999999996</ele>
        <time>2018-10-19T13:56:08Z</time>
      </trkpt>
      <trkpt lat="60.829869965091348" lon="6.321171959862113">
        <ele>868.21000000000004</ele>
        <time>2018-10-19T13:56:12Z</time>
      </trkpt>
      <trkpt lat="60.829969039186835" lon="6.321158967912197">
        <ele>865.32000000000005</ele>
        <time>2018-10-19T13:56:19Z</time>
      </trkpt>
      <trkpt lat="60.830056965351105" lon="6.321026030927897">
        <ele>864.84000000000003</ele>
        <time>2018-10-19T13:56:28Z</time>
      </trkpt>
      <trkpt lat="60.830166013911366" lon="6.321043968200684">
        <ele>864.84000000000003</ele>
        <time>2018-10-19T13:56:39Z</time>
      </trkpt>
      <trkpt lat="60.830216975882649" lon="6.321061989292502">
        <ele>864.84000000000003</ele>
        <time>2018-10-19T13:56:54Z</time>
      </trkpt>
      <trkpt lat="60.830298028886318" lon="6.321079004555941">
        <ele>862.44000000000005</ele>
        <time>2018-10-19T13:57:03Z</time>
      </trkpt>
      <trkpt lat="60.830365000292659" lon="6.321085961535573">
        <ele>861</ele>
        <time>2018-10-19T13:57:15Z</time>
      </trkpt>
      <trkpt lat="60.830407999455929" lon="6.321071963757277">
        <ele>858.59000000000003</ele>
        <time>2018-10-19T13:57:28Z</time>
      </trkpt>
      <trkpt lat="60.83043297752738" lon="6.321052014827728">
        <ele>856.19000000000005</ele>
        <time>2018-10-19T13:57:34Z</time>
      </trkpt>
      <trkpt lat="60.83043297752738" lon="6.321027036756277">
        <ele>854.26999999999998</ele>
        <time>2018-10-19T13:57:46Z</time>
      </trkpt>
      <trkpt lat="60.830444963648915" lon="6.32099200040102">
        <ele>853.78999999999996</ele>
        <time>2018-10-19T13:57:48Z</time>
      </trkpt>
      <trkpt lat="60.830450998619199" lon="6.320900972932577">
        <ele>850.41999999999996</ele>
        <time>2018-10-19T13:57:55Z</time>
      </trkpt>
      <trkpt lat="60.830492991954088" lon="6.320682959631085">
        <ele>847.53999999999996</ele>
        <time>2018-10-19T13:58:01Z</time>
      </trkpt>
      <trkpt lat="60.830530039966106" lon="6.320639960467815">
        <ele>846.10000000000002</ele>
        <time>2018-10-19T13:58:04Z</time>
      </trkpt>
      <trkpt lat="60.8305390086025" lon="6.320636020973325">
        <ele>845.62</ele>
        <time>2018-10-19T13:58:05Z</time>
      </trkpt>
      <trkpt lat="60.830579996109009" lon="6.320676002651453">
        <ele>845.13999999999999</ele>
        <time>2018-10-19T13:58:09Z</time>
      </trkpt>
      <trkpt lat="60.830701030790806" lon="6.320748003199697">
        <ele>846.10000000000002</ele>
        <time>2018-10-19T13:58:21Z</time>
      </trkpt>
      <trkpt lat="60.830742018297315" lon="6.320736017078161">
        <ele>845.62</ele>
        <time>2018-10-19T13:58:24Z</time>
      </trkpt>
      <trkpt lat="60.83077697083354" lon="6.320779016241431">
        <ele>844.65999999999997</ele>
        <time>2018-10-19T13:58:28Z</time>
      </trkpt>
      <trkpt lat="60.830809995532036" lon="6.320787984877825">
        <ele>843.69000000000005</ele>
        <time>2018-10-19T13:58:31Z</time>
      </trkpt>
      <trkpt lat="60.830813013017178" lon="6.32058396935463">
        <ele>842.25</ele>
        <time>2018-10-19T13:58:39Z</time>
      </trkpt>
      <trkpt lat="60.830963971093297" lon="6.320532001554966">
        <ele>840.80999999999995</ele>
        <time>2018-10-19T13:58:48Z</time>
      </trkpt>
      <trkpt lat="60.831062961369753" lon="6.320556979626417">
        <ele>839.85000000000002</ele>
        <time>2018-10-19T13:58:54Z</time>
      </trkpt>
      <trkpt lat="60.831171004101634" lon="6.32064800709486">
        <ele>838.88999999999999</ele>
        <time>2018-10-19T13:59:01Z</time>
      </trkpt>
      <trkpt lat="60.831218026578426" lon="6.320760995149612">
        <ele>836.96000000000004</ele>
        <time>2018-10-19T13:59:07Z</time>
      </trkpt>
      <trkpt lat="60.831245016306639" lon="6.32066803984344">
        <ele>835.03999999999996</ele>
        <time>2018-10-19T13:59:11Z</time>
      </trkpt>
      <trkpt lat="60.831298995763063" lon="6.320744985714555">
        <ele>833.12</ele>
        <time>2018-10-19T13:59:15Z</time>
      </trkpt>
      <trkpt lat="60.831423969939351" lon="6.320872977375984">
        <ele>830.72000000000003</ele>
        <time>2018-10-19T13:59:23Z</time>
      </trkpt>
      <trkpt lat="60.831480966880918" lon="6.320935003459454">
        <ele>829.26999999999998</ele>
        <time>2018-10-19T13:59:32Z</time>
      </trkpt>
      <trkpt lat="60.831493036821485" lon="6.320945983752608">
        <ele>829.26999999999998</ele>
        <time>2018-10-19T13:59:34Z</time>
      </trkpt>
      <trkpt lat="60.831556990742683" lon="6.32090600207448">
        <ele>828.30999999999995</ele>
        <time>2018-10-19T13:59:39Z</time>
      </trkpt>
      <trkpt lat="60.831618010997772" lon="6.321064000949264">
        <ele>825.90999999999997</ele>
        <time>2018-10-19T13:59:45Z</time>
      </trkpt>
      <trkpt lat="60.831694034859538" lon="6.321039022877812">
        <ele>823.02999999999997</ele>
        <time>2018-10-19T13:59:49Z</time>
      </trkpt>
      <trkpt lat="60.831717001274228" lon="6.32109803147614">
        <ele>821.10000000000002</ele>
        <time>2018-10-19T13:59:53Z</time>
      </trkpt>
      <trkpt lat="60.831824960187078" lon="6.321288971230388">
        <ele>819.17999999999995</ele>
        <time>2018-10-19T14:00:03Z</time>
      </trkpt>
      <trkpt lat="60.831844992935658" lon="6.321444036439061">
        <ele>818.22000000000003</ele>
        <time>2018-10-19T14:00:08Z</time>
      </trkpt>
      <trkpt lat="60.831875000149012" lon="6.321447975933552">
        <ele>817.25999999999999</ele>
        <time>2018-10-19T14:00:11Z</time>
      </trkpt>
      <trkpt lat="60.831920010969043" lon="6.321427021175623">
        <ele>815.82000000000005</ele>
        <time>2018-10-19T14:00:15Z</time>
      </trkpt>
      <trkpt lat="60.832013972103596" lon="6.321396008133888">
        <ele>812.45000000000005</ele>
        <time>2018-10-19T14:00:23Z</time>
      </trkpt>
      <trkpt lat="60.832020007073879" lon="6.32140195928514">
        <ele>812.45000000000005</ele>
        <time>2018-10-19T14:00:24Z</time>
      </trkpt>
      <trkpt lat="60.832079015672207" lon="6.321415035054088">
        <ele>809.57000000000005</ele>
        <time>2018-10-19T14:00:30Z</time>
      </trkpt>
      <trkpt lat="60.8321070112288" lon="6.321387961506844">
        <ele>809.09000000000003</ele>
        <time>2018-10-19T14:00:32Z</time>
      </trkpt>
      <trkpt lat="60.832145987078547" lon="6.321398019790649">
        <ele>808.13</ele>
        <time>2018-10-19T14:00:34Z</time>
      </trkpt>
      <trkpt lat="60.832174988463521" lon="6.321411011740565">
        <ele>806.20000000000005</ele>
        <time>2018-10-19T14:00:38Z</time>
      </trkpt>
      <trkpt lat="60.83219300955534" lon="6.321425009518862">
        <ele>805.24000000000001</ele>
        <time>2018-10-19T14:00:41Z</time>
      </trkpt>
      <trkpt lat="60.83228001371026" lon="6.321534980088472">
        <ele>803.79999999999995</ele>
        <time>2018-10-19T14:00:48Z</time>
      </trkpt>
      <trkpt lat="60.832296023145318" lon="6.321548977866769">
        <ele>803.32000000000005</ele>
        <time>2018-10-19T14:00:50Z</time>
      </trkpt>
      <trkpt lat="60.832393001765013" lon="6.321534980088472">
        <ele>801.39999999999998</ele>
        <time>2018-10-19T14:00:58Z</time>
      </trkpt>
      <trkpt lat="60.832438012585044" lon="6.321597006171942">
        <ele>799.95000000000005</ele>
        <time>2018-10-19T14:01:05Z</time>
      </trkpt>
      <trkpt lat="60.83247103728354" lon="6.321646040305495">
        <ele>799.47000000000003</ele>
        <time>2018-10-19T14:01:09Z</time>
      </trkpt>
      <trkpt lat="60.832567010074854" lon="6.32167998701334">
        <ele>797.07000000000005</ele>
        <time>2018-10-19T14:01:18Z</time>
      </trkpt>
      <trkpt lat="60.832586036995053" lon="6.321690967306495">
        <ele>796.59000000000003</ele>
        <time>2018-10-19T14:01:20Z</time>
      </trkpt>
      <trkpt lat="60.83266700617969" lon="6.321804961189628">
        <ele>793.71000000000004</ele>
        <time>2018-10-19T14:01:27Z</time>
      </trkpt>
      <trkpt lat="60.832671029493213" lon="6.321802027523518">
        <ele>792.74000000000001</ele>
        <time>2018-10-19T14:01:29Z</time>
      </trkpt>
      <trkpt lat="60.832702964544296" lon="6.321746958419681">
        <ele>791.77999999999997</ele>
        <time>2018-10-19T14:01:32Z</time>
      </trkpt>
      <trkpt lat="60.832802038639784" lon="6.321780988946557">
        <ele>788.89999999999998</ele>
        <time>2018-10-19T14:01:41Z</time>
      </trkpt>
      <trkpt lat="60.832833973690867" lon="6.321790041401982">
        <ele>787.46000000000004</ele>
        <time>2018-10-19T14:01:45Z</time>
      </trkpt>
      <trkpt lat="60.832919972017407" lon="6.321764979511499">
        <ele>786.01999999999998</ele>
        <time>2018-10-19T14:01:51Z</time>
      </trkpt>
      <trkpt lat="60.832995995879173" lon="6.321804039180279">
        <ele>784.57000000000005</ele>
        <time>2018-10-19T14:01:55Z</time>
      </trkpt>
      <trkpt lat="60.83309699781239" lon="6.321861958131194">
        <ele>781.21000000000004</ele>
        <time>2018-10-19T14:02:03Z</time>
      </trkpt>
      <trkpt lat="60.833161035552621" lon="6.321857012808323">
        <ele>779.76999999999998</ele>
        <time>2018-10-19T14:02:10Z</time>
      </trkpt>
      <trkpt lat="60.833216020837426" lon="6.321843015030026">
        <ele>778.32000000000005</ele>
        <time>2018-10-19T14:02:21Z</time>
      </trkpt>
      <trkpt lat="60.833259020000696" lon="6.321637993678451">
        <ele>776.88</ele>
        <time>2018-10-19T14:02:30Z</time>
      </trkpt>
      <trkpt lat="60.833368990570307" lon="6.321642016991973">
        <ele>776.39999999999998</ele>
        <time>2018-10-19T14:02:39Z</time>
      </trkpt>
      <trkpt lat="60.833463035523891" lon="6.32174301892519">
        <ele>773.51999999999998</ele>
        <time>2018-10-19T14:02:52Z</time>
      </trkpt>
      <trkpt lat="60.833567976951599" lon="6.321750981733203">
        <ele>770.14999999999998</ele>
        <time>2018-10-19T14:03:03Z</time>
      </trkpt>
      <trkpt lat="60.833599995821714" lon="6.321787023916841">
        <ele>769.19000000000005</ele>
        <time>2018-10-19T14:03:11Z</time>
      </trkpt>
      <trkpt lat="60.833646012470126" lon="6.321940999478102">
        <ele>765.83000000000004</ele>
        <time>2018-10-19T14:03:22Z</time>
      </trkpt>
      <trkpt lat="60.833708038553596" lon="6.322034960612655">
        <ele>764.38999999999999</ele>
        <time>2018-10-19T14:03:33Z</time>
      </trkpt>
      <trkpt lat="60.83369798026979" lon="6.322011994197965">
        <ele>763.41999999999996</ele>
        <time>2018-10-19T14:03:39Z</time>
      </trkpt>
      <trkpt lat="60.833695968613029" lon="6.321982992812991">
        <ele>763.41999999999996</ele>
        <time>2018-10-19T14:03:42Z</time>
      </trkpt>
      <trkpt lat="60.833738967776299" lon="6.322093969210982">
        <ele>760.05999999999995</ele>
        <time>2018-10-19T14:03:54Z</time>
      </trkpt>
      <trkpt lat="60.833736034110188" lon="6.322064967826009">
        <ele>759.58000000000004</ele>
        <time>2018-10-19T14:03:57Z</time>
      </trkpt>
      <trkpt lat="60.833752965554595" lon="6.322034038603306">
        <ele>759.10000000000002</ele>
        <time>2018-10-19T14:04:03Z</time>
      </trkpt>
      <trkpt lat="60.833776015788317" lon="6.322058010846376">
        <ele>758.13999999999999</ele>
        <time>2018-10-19T14:04:06Z</time>
      </trkpt>
      <trkpt lat="60.833838963881135" lon="6.322059016674757">
        <ele>755.73000000000002</ele>
        <time>2018-10-19T14:04:13Z</time>
      </trkpt>
      <trkpt lat="60.833882968872786" lon="6.321952985599637">
        <ele>752.85000000000002</ele>
        <time>2018-10-19T14:04:21Z</time>
      </trkpt>
      <trkpt lat="60.833887998014688" lon="6.321948040276766">
        <ele>751.88999999999999</ele>
        <time>2018-10-19T14:04:22Z</time>
      </trkpt>
      <trkpt lat="60.833901995792985" lon="6.321964971721172">
        <ele>751.40999999999997</ele>
        <time>2018-10-19T14:04:24Z</time>
      </trkpt>
      <trkpt lat="60.833948012441397" lon="6.321892971172929">
        <ele>748.03999999999996</ele>
        <time>2018-10-19T14:04:33Z</time>
      </trkpt>
      <trkpt lat="60.83395597524941" lon="6.321876961737871">
        <ele>747.55999999999995</ele>
        <time>2018-10-19T14:04:34Z</time>
      </trkpt>
      <trkpt lat="60.834022024646401" lon="6.321905963122845">
        <ele>745.15999999999997</ele>
        <time>2018-10-19T14:04:43Z</time>
      </trkpt>
      <trkpt lat="60.834177006036043" lon="6.321815019473434">
        <ele>741.78999999999996</ele>
        <time>2018-10-19T14:04:52Z</time>
      </trkpt>
      <trkpt lat="60.834246994927526" lon="6.321762967854738">
        <ele>740.35000000000002</ele>
        <time>2018-10-19T14:05:03Z</time>
      </trkpt>
      <trkpt lat="60.834329975768924" lon="6.321626007556915">
        <ele>737.47000000000003</ele>
        <time>2018-10-19T14:05:10Z</time>
      </trkpt>
      <trkpt lat="60.83436300046742" lon="6.321583008393645">
        <ele>736.02999999999997</ele>
        <time>2018-10-19T14:05:13Z</time>
      </trkpt>
      <trkpt lat="60.83438596688211" lon="6.321566998958588">
        <ele>735.54999999999995</ele>
        <time>2018-10-19T14:05:15Z</time>
      </trkpt>
      <trkpt lat="60.834474982693791" lon="6.321608992293477">
        <ele>736.02999999999997</ele>
        <time>2018-10-19T14:05:23Z</time>
      </trkpt>
      <trkpt lat="60.834595011547208" lon="6.321463985368609">
        <ele>735.54999999999995</ele>
        <time>2018-10-19T14:05:36Z</time>
      </trkpt>
      <trkpt lat="60.834677992388606" lon="6.321377987042069">
        <ele>733.62</ele>
        <time>2018-10-19T14:05:41Z</time>
      </trkpt>
      <trkpt lat="60.834830040112138" lon="6.321410005912185">
        <ele>730.74000000000001</ele>
        <time>2018-10-19T14:05:50Z</time>
      </trkpt>
      <trkpt lat="60.835006982088089" lon="6.321465997025371">
        <ele>730.74000000000001</ele>
        <time>2018-10-19T14:06:04Z</time>
      </trkpt>
      <trkpt lat="60.83507495932281" lon="6.321501033380628">
        <ele>730.74000000000001</ele>
        <time>2018-10-19T14:06:09Z</time>
      </trkpt>
      <trkpt lat="60.835205968469381" lon="6.321617038920522">
        <ele>731.22000000000003</ele>
        <time>2018-10-19T14:06:21Z</time>
      </trkpt>
      <trkpt lat="60.835272017866373" lon="6.321703959256411">
        <ele>731.22000000000003</ele>
        <time>2018-10-19T14:06:28Z</time>
      </trkpt>
      <trkpt lat="60.835301019251347" lon="6.321688033640385">
        <ele>730.74000000000001</ele>
        <time>2018-10-19T14:06:30Z</time>
      </trkpt>
      <trkpt lat="60.83535198122263" lon="6.321693984791637">
        <ele>730.74000000000001</ele>
        <time>2018-10-19T14:06:34Z</time>
      </trkpt>
      <trkpt lat="60.835533030331135" lon="6.32178601808846">
        <ele>731.22000000000003</ele>
        <time>2018-10-19T14:06:49Z</time>
      </trkpt>
      <trkpt lat="60.835753977298737" lon="6.321773026138544">
        <ele>731.22000000000003</ele>
        <time>2018-10-19T14:07:06Z</time>
      </trkpt>
      <trkpt lat="60.835902001708746" lon="6.321757016703486">
        <ele>731.22000000000003</ele>
        <time>2018-10-19T14:07:18Z</time>
      </trkpt>
      <trkpt lat="60.836050026118755" lon="6.321649979799986">
        <ele>730.25999999999999</ele>
        <time>2018-10-19T14:07:35Z</time>
      </trkpt>
      <trkpt lat="60.836057988926768" lon="6.32165702059865">
        <ele>729.77999999999997</ele>
        <time>2018-10-19T14:07:36Z</time>
      </trkpt>
      <trkpt lat="60.836077015846968" lon="6.321666995063424">
        <ele>729.77999999999997</ele>
        <time>2018-10-19T14:07:38Z</time>
      </trkpt>
      <trkpt lat="60.836122026666999" lon="6.321643022820354">
        <ele>728.82000000000005</ele>
        <time>2018-10-19T14:07:48Z</time>
      </trkpt>
      <trkpt lat="60.836130995303392" lon="6.321651991456747">
        <ele>728.82000000000005</ele>
        <time>2018-10-19T14:07:49Z</time>
      </trkpt>
      <trkpt lat="60.836225040256977" lon="6.321747964248061">
        <ele>726.88999999999999</ele>
        <time>2018-10-19T14:07:58Z</time>
      </trkpt>
      <trkpt lat="60.83634196780622" lon="6.321799010038376">
        <ele>724.49000000000001</ele>
        <time>2018-10-19T14:08:08Z</time>
      </trkpt>
      <trkpt lat="60.83638203330338" lon="6.321817031130195">
        <ele>723.52999999999997</ele>
        <time>2018-10-19T14:08:12Z</time>
      </trkpt>
      <trkpt lat="60.836431989446282" lon="6.321791969239712">
        <ele>722.57000000000005</ele>
        <time>2018-10-19T14:08:16Z</time>
      </trkpt>
      <trkpt lat="60.836541960015893" lon="6.321855001151562">
        <ele>720.64999999999998</ele>
        <time>2018-10-19T14:08:25Z</time>
      </trkpt>
      <trkpt lat="60.836596023291349" lon="6.321865981444717">
        <ele>718.72000000000003</ele>
        <time>2018-10-19T14:08:30Z</time>
      </trkpt>
      <trkpt lat="60.836632987484336" lon="6.321866987273097">
        <ele>718.24000000000001</ele>
        <time>2018-10-19T14:08:32Z</time>
      </trkpt>
      <trkpt lat="60.836739018559456" lon="6.321758022531867">
        <ele>714.39999999999998</ele>
        <time>2018-10-19T14:08:42Z</time>
      </trkpt>
      <trkpt lat="60.836766008287668" lon="6.321734972298145">
        <ele>713.91999999999996</ele>
        <time>2018-10-19T14:08:44Z</time>
      </trkpt>
      <trkpt lat="60.836852006614208" lon="6.321699013933539">
        <ele>711.99000000000001</ele>
        <time>2018-10-19T14:08:50Z</time>
      </trkpt>
      <trkpt lat="60.836914032697678" lon="6.321762967854738">
        <ele>711.50999999999999</ele>
        <time>2018-10-19T14:08:56Z</time>
      </trkpt>
      <trkpt lat="60.836981004104018" lon="6.321727009490132">
        <ele>711.50999999999999</ele>
        <time>2018-10-19T14:09:02Z</time>
      </trkpt>
      <trkpt lat="60.837133973836899" lon="6.321784006431699">
        <ele>710.54999999999995</ele>
        <time>2018-10-19T14:09:14Z</time>
      </trkpt>
      <trkpt lat="60.837284009903669" lon="6.321721980348229">
        <ele>710.07000000000005</ele>
        <time>2018-10-19T14:09:26Z</time>
      </trkpt>
      <trkpt lat="60.837353998795152" lon="6.321715023368597">
        <ele>708.63</ele>
        <time>2018-10-19T14:09:36Z</time>
      </trkpt>
      <trkpt lat="60.837476961314678" lon="6.321489969268441">
        <ele>710.07000000000005</ele>
        <time>2018-10-19T14:09:50Z</time>
      </trkpt>
      <trkpt lat="60.837538987398148" lon="6.321429032832384">
        <ele>709.59000000000003</ele>
        <time>2018-10-19T14:09:55Z</time>
      </trkpt>
      <trkpt lat="60.837707966566086" lon="6.321348985657096">
        <ele>711.02999999999997</ele>
        <time>2018-10-19T14:10:10Z</time>
      </trkpt>
      <trkpt lat="60.837812991812825" lon="6.321192998439074">
        <ele>712.95000000000005</ele>
        <time>2018-10-19T14:10:23Z</time>
      </trkpt>
      <trkpt lat="60.837847022339702" lon="6.321074981242418">
        <ele>714.39999999999998</ele>
        <time>2018-10-19T14:10:29Z</time>
      </trkpt>
      <trkpt lat="60.837947018444538" lon="6.321148993447423">
        <ele>716.32000000000005</ele>
        <time>2018-10-19T14:10:40Z</time>
      </trkpt>
      <trkpt lat="60.838035028427839" lon="6.321096019819379">
        <ele>719.67999999999995</ele>
        <time>2018-10-19T14:10:50Z</time>
      </trkpt>
      <trkpt lat="60.838043997064233" lon="6.321094008162618">
        <ele>719.67999999999995</ele>
        <time>2018-10-19T14:10:51Z</time>
      </trkpt>
      <trkpt lat="60.838076015934348" lon="6.32109803147614">
        <ele>720.64999999999998</ele>
        <time>2018-10-19T14:10:54Z</time>
      </trkpt>
      <trkpt lat="60.838176012039185" lon="6.321048997342587">
        <ele>724.00999999999999</ele>
        <time>2018-10-19T14:11:07Z</time>
      </trkpt>
      <trkpt lat="60.838253041729331" lon="6.321025025099516">
        <ele>726.40999999999997</ele>
        <time>2018-10-19T14:11:16Z</time>
      </trkpt>
      <trkpt lat="60.83831699565053" lon="6.321064000949264">
        <ele>727.86000000000001</ele>
        <time>2018-10-19T14:11:23Z</time>
      </trkpt>
      <trkpt lat="60.838353037834167" lon="6.321069030091167">
        <ele>729.29999999999995</ele>
        <time>2018-10-19T14:11:27Z</time>
      </trkpt>
      <trkpt lat="60.838422020897269" lon="6.321030976250768">
        <ele>730.74000000000001</ele>
        <time>2018-10-19T14:11:34Z</time>
      </trkpt>
      <trkpt lat="60.838482035323977" lon="6.321008009836078">
        <ele>732.17999999999995</ele>
        <time>2018-10-19T14:11:39Z</time>
      </trkpt>
      <trkpt lat="60.838521011173725" lon="6.320967022329569">
        <ele>733.13999999999999</ele>
        <time>2018-10-19T14:11:44Z</time>
      </trkpt>
      <trkpt lat="60.838643973693252" lon="6.32092603482306">
        <ele>735.54999999999995</ele>
        <time>2018-10-19T14:11:55Z</time>
      </trkpt>
      <trkpt lat="60.838693007826805" lon="6.320918994024396">
        <ele>737.47000000000003</ele>
        <time>2018-10-19T14:12:01Z</time>
      </trkpt>
      <trkpt lat="60.838825022801757" lon="6.320951012894511">
        <ele>739.87</ele>
        <time>2018-10-19T14:12:13Z</time>
      </trkpt>
      <trkpt lat="60.838842038065195" lon="6.320957969874144">
        <ele>739.87</ele>
        <time>2018-10-19T14:12:14Z</time>
      </trkpt>
      <trkpt lat="60.838913032785058" lon="6.32097196765244">
        <ele>739.38999999999999</ele>
        <time>2018-10-19T14:12:20Z</time>
      </trkpt>
      <trkpt lat="60.838935999199748" lon="6.320967022329569">
        <ele>739.38999999999999</ele>
        <time>2018-10-19T14:12:22Z</time>
      </trkpt>
      <trkpt lat="60.839042030274868" lon="6.320938020944595">
        <ele>740.35000000000002</ele>
        <time>2018-10-19T14:12:32Z</time>
      </trkpt>
      <trkpt lat="60.839204974472523" lon="6.320728976279497">
        <ele>743.24000000000001</ele>
        <time>2018-10-19T14:12:47Z</time>
      </trkpt>
      <trkpt lat="60.83939197473228" lon="6.320573994889855">
        <ele>743.24000000000001</ele>
        <time>2018-10-19T14:13:02Z</time>
      </trkpt>
      <trkpt lat="60.839440003037453" lon="6.32056200876832">
        <ele>742.75999999999999</ele>
        <time>2018-10-19T14:13:06Z</time>
      </trkpt>
      <trkpt lat="60.839625997468829" lon="6.320658987388015">
        <ele>740.35000000000002</ele>
        <time>2018-10-19T14:13:19Z</time>
      </trkpt>
      <trkpt lat="60.839637983590364" lon="6.320660999044776">
        <ele>740.35000000000002</ele>
        <time>2018-10-19T14:13:20Z</time>
      </trkpt>
      <trkpt lat="60.839761029928923" lon="6.320758983492851">
        <ele>738.90999999999997</ele>
        <time>2018-10-19T14:13:30Z</time>
      </trkpt>
      <trkpt lat="60.839919028803706" lon="6.320869959890842">
        <ele>736.50999999999999</ele>
        <time>2018-10-19T14:13:42Z</time>
      </trkpt>
      <trkpt lat="60.840105023235083" lon="6.321004992350936">
        <ele>734.58000000000004</ele>
        <time>2018-10-19T14:13:55Z</time>
      </trkpt>
      <trkpt lat="60.840282971039414" lon="6.320663010701537">
        <ele>736.02999999999997</ele>
        <time>2018-10-19T14:14:12Z</time>
      </trkpt>
      <trkpt lat="60.840391013771296" lon="6.320351958274841">
        <ele>736.99000000000001</ele>
        <time>2018-10-19T14:14:25Z</time>
      </trkpt>
      <trkpt lat="60.840490004047751" lon="6.320049036294222">
        <ele>736.99000000000001</ele>
        <time>2018-10-19T14:14:38Z</time>
      </trkpt>
      <trkpt lat="60.840640962123871" lon="6.319592976942658">
        <ele>737.95000000000005</ele>
        <time>2018-10-19T14:14:58Z</time>
      </trkpt>
      <trkpt lat="60.840728972107172" lon="6.319175977259874">
        <ele>737.95000000000005</ele>
        <time>2018-10-19T14:15:16Z</time>
      </trkpt>
      <trkpt lat="60.840714974328876" lon="6.318766018375754">
        <ele>738.90999999999997</ele>
        <time>2018-10-19T14:15:31Z</time>
      </trkpt>
      <trkpt lat="60.840715980157256" lon="6.318418001756072">
        <ele>738.42999999999995</ele>
        <time>2018-10-19T14:15:44Z</time>
      </trkpt>
      <trkpt lat="60.840736012905836" lon="6.317869992926717">
        <ele>739.38999999999999</ele>
        <time>2018-10-19T14:16:04Z</time>
      </trkpt>
      <trkpt lat="60.840749004855752" lon="6.317349979653955">
        <ele>739.87</ele>
        <time>2018-10-19T14:16:23Z</time>
      </trkpt>
      <trkpt lat="60.840754033997655" lon="6.316858967766166">
        <ele>740.83000000000004</ele>
        <time>2018-10-19T14:16:40Z</time>
      </trkpt>
      <trkpt lat="60.840696031227708" lon="6.316431993618608">
        <ele>740.83000000000004</ele>
        <time>2018-10-19T14:16:56Z</time>
      </trkpt>
      <trkpt lat="60.840635010972619" lon="6.316047012805939">
        <ele>741.78999999999996</ele>
        <time>2018-10-19T14:17:11Z</time>
      </trkpt>
      <trkpt lat="60.840581031516194" lon="6.315729003399611">
        <ele>741.78999999999996</ele>
        <time>2018-10-19T14:17:25Z</time>
      </trkpt>
      <trkpt lat="60.840513976290822" lon="6.315620960667729">
        <ele>741.78999999999996</ele>
        <time>2018-10-19T14:17:32Z</time>
      </trkpt>
      <trkpt lat="60.840430995449424" lon="6.315679969266057">
        <ele>741.30999999999995</ele>
        <time>2018-10-19T14:17:39Z</time>
      </trkpt>
      <trkpt lat="60.840285988524556" lon="6.315853977575898">
        <ele>739.87</ele>
        <time>2018-10-19T14:17:49Z</time>
      </trkpt>
      <trkpt lat="60.840084990486503" lon="6.315941987559199">
        <ele>736.50999999999999</ele>
        <time>2018-10-19T14:18:01Z</time>
      </trkpt>
      <trkpt lat="60.839998992159963" lon="6.315916003659368">
        <ele>734.58000000000004</ele>
        <time>2018-10-19T14:18:06Z</time>
      </trkpt>
      <trkpt lat="60.83990603685379" lon="6.315837968140841">
        <ele>733.13999999999999</ele>
        <time>2018-10-19T14:18:13Z</time>
      </trkpt>
      <trkpt lat="60.839782990515232" lon="6.31568499840796">
        <ele>731.70000000000005</ele>
        <time>2018-10-19T14:18:21Z</time>
      </trkpt>
      <trkpt lat="60.83969104103744" lon="6.315497998148203">
        <ele>731.22000000000003</ele>
        <time>2018-10-19T14:18:28Z</time>
      </trkpt>
      <trkpt lat="60.839576041325927" lon="6.315332958474755">
        <ele>728.82000000000005</ele>
        <time>2018-10-19T14:18:37Z</time>
      </trkpt>
      <trkpt lat="60.839427011087537" lon="6.315357014536858">
        <ele>727.86000000000001</ele>
        <time>2018-10-19T14:18:49Z</time>
      </trkpt>
      <trkpt lat="60.839377976953983" lon="6.315622972324491">
        <ele>726.88999999999999</ele>
        <time>2018-10-19T14:18:59Z</time>
      </trkpt>
      <trkpt lat="60.839404966682196" lon="6.31600602529943">
        <ele>724.97000000000003</ele>
        <time>2018-10-19T14:19:11Z</time>
      </trkpt>
      <trkpt lat="60.839343024417758" lon="6.316321017220616">
        <ele>723.04999999999995</ele>
        <time>2018-10-19T14:19:23Z</time>
      </trkpt>
      <trkpt lat="60.83915401250124" lon="6.316163018345833">
        <ele>719.67999999999995</ele>
        <time>2018-10-19T14:19:35Z</time>
      </trkpt>
      <trkpt lat="60.83906902000308" lon="6.316064028069377">
        <ele>718.24000000000001</ele>
        <time>2018-10-19T14:19:40Z</time>
      </trkpt>
      <trkpt lat="60.838931975886226" lon="6.315934024751186">
        <ele>716.32000000000005</ele>
        <time>2018-10-19T14:19:48Z</time>
      </trkpt>
      <trkpt lat="60.838823011144996" lon="6.315816007554531">
        <ele>714.39999999999998</ele>
        <time>2018-10-19T14:19:56Z</time>
      </trkpt>
      <trkpt lat="60.838670041412115" lon="6.315676029771566">
        <ele>713.91999999999996</ele>
        <time>2018-10-19T14:20:05Z</time>
      </trkpt>
      <trkpt lat="60.838530985638499" lon="6.315548960119486">
        <ele>712.47000000000003</ele>
        <time>2018-10-19T14:20:13Z</time>
      </trkpt>
      <trkpt lat="60.838450016453862" lon="6.315446030348539">
        <ele>711.50999999999999</ele>
        <time>2018-10-19T14:20:19Z</time>
      </trkpt>
      <trkpt lat="60.838283970952034" lon="6.315276967361569">
        <ele>710.07000000000005</ele>
        <time>2018-10-19T14:20:31Z</time>
      </trkpt>
      <trkpt lat="60.838174000382423" lon="6.315074041485786">
        <ele>709.11000000000001</ele>
        <time>2018-10-19T14:20:40Z</time>
      </trkpt>
      <trkpt lat="60.83808297291398" lon="6.314924005419016">
        <ele>707.66999999999996</ele>
        <time>2018-10-19T14:20:47Z</time>
      </trkpt>
      <trkpt lat="60.838020024821162" lon="6.314685959368944">
        <ele>706.71000000000004</ele>
        <time>2018-10-19T14:20:54Z</time>
      </trkpt>
      <trkpt lat="60.83790997043252" lon="6.314440034329891">
        <ele>705.75</ele>
        <time>2018-10-19T14:21:02Z</time>
      </trkpt>
      <trkpt lat="60.837833024561405" lon="6.314139040187001">
        <ele>704.77999999999997</ele>
        <time>2018-10-19T14:21:11Z</time>
      </trkpt>
      <trkpt lat="60.837764041498303" lon="6.31396796554327">
        <ele>704.29999999999995</ele>
        <time>2018-10-19T14:21:16Z</time>
      </trkpt>
      <trkpt lat="60.837648035958409" lon="6.313680969178677">
        <ele>703.82000000000005</ele>
        <time>2018-10-19T14:21:25Z</time>
      </trkpt>
      <trkpt lat="60.837593972682953" lon="6.313404031097889">
        <ele>701.41999999999996</ele>
        <time>2018-10-19T14:21:33Z</time>
      </trkpt>
      <trkpt lat="60.837444020435214" lon="6.313066994771361">
        <ele>699.5</ele>
        <time>2018-10-19T14:21:45Z</time>
      </trkpt>
      <trkpt lat="60.837360033765435" lon="6.312840012833476">
        <ele>698.52999999999997</ele>
        <time>2018-10-19T14:21:52Z</time>
      </trkpt>
      <trkpt lat="60.837283004075289" lon="6.312563996762037">
        <ele>697.09000000000003</ele>
        <time>2018-10-19T14:22:00Z</time>
      </trkpt>
      <trkpt lat="60.83726498298347" lon="6.312278006225824">
        <ele>696.61000000000001</ele>
        <time>2018-10-19T14:22:08Z</time>
      </trkpt>
      <trkpt lat="60.837236987426877" lon="6.311952034011483">
        <ele>695.64999999999998</ele>
        <time>2018-10-19T14:22:17Z</time>
      </trkpt>
      <trkpt lat="60.837275041267276" lon="6.311738966032863">
        <ele>694.69000000000005</ele>
        <time>2018-10-19T14:22:23Z</time>
      </trkpt>
      <trkpt lat="60.837301025167108" lon="6.311531011015177">
        <ele>693.73000000000002</ele>
        <time>2018-10-19T14:22:29Z</time>
      </trkpt>
      <trkpt lat="60.83737101405859" lon="6.311263041570783">
        <ele>691.80999999999995</ele>
        <time>2018-10-19T14:22:37Z</time>
      </trkpt>
      <trkpt lat="60.837449971586466" lon="6.311076963320375">
        <ele>690.84000000000003</ele>
        <time>2018-10-19T14:22:44Z</time>
      </trkpt>
      <trkpt lat="60.837535969913006" lon="6.310963975265622">
        <ele>690.36000000000001</ele>
        <time>2018-10-19T14:22:50Z</time>
      </trkpt>
      <trkpt lat="60.837658010423183" lon="6.310860039666295">
        <ele>688.44000000000005</ele>
        <time>2018-10-19T14:22:58Z</time>
      </trkpt>
      <trkpt lat="60.837690029293299" lon="6.310817962512374">
        <ele>687.96000000000004</ele>
        <time>2018-10-19T14:23:00Z</time>
      </trkpt>
      <trkpt lat="60.837766975164413" lon="6.310790972784162">
        <ele>687.96000000000004</ele>
        <time>2018-10-19T14:23:04Z</time>
      </trkpt>
      <trkpt lat="60.837795976549387" lon="6.310774963349104">
        <ele>687.96000000000004</ele>
        <time>2018-10-19T14:23:06Z</time>
      </trkpt>
      <trkpt lat="60.837940983474255" lon="6.310703968629241">
        <ele>687</ele>
        <time>2018-10-19T14:23:15Z</time>
      </trkpt>
      <trkpt lat="60.838037962093949" lon="6.310513028874993">
        <ele>685.55999999999995</ele>
        <time>2018-10-19T14:23:22Z</time>
      </trkpt>
      <trkpt lat="60.838046008720994" lon="6.310089994221926">
        <ele>686.03999999999996</ele>
        <time>2018-10-19T14:23:33Z</time>
      </trkpt>
      <trkpt lat="60.83803603425622" lon="6.309893019497395">
        <ele>685.08000000000004</ele>
        <time>2018-10-19T14:23:42Z</time>
      </trkpt>
      <trkpt lat="60.838022036477923" lon="6.309849014505744">
        <ele>686.03999999999996</ele>
        <time>2018-10-19T14:24:07Z</time>
      </trkpt>
      <trkpt lat="60.837918017059565" lon="6.309471996501088">
        <ele>685.55999999999995</ele>
        <time>2018-10-19T14:24:17Z</time>
      </trkpt>
      <trkpt lat="60.837863031774759" lon="6.309244008734822">
        <ele>685.55999999999995</ele>
        <time>2018-10-19T14:24:24Z</time>
      </trkpt>
      <trkpt lat="60.837895972654223" lon="6.308964975178242">
        <ele>685.08000000000004</ele>
        <time>2018-10-19T14:24:31Z</time>
      </trkpt>
      <trkpt lat="60.83793100900948" lon="6.308673033490777">
        <ele>683.63</ele>
        <time>2018-10-19T14:24:39Z</time>
      </trkpt>
      <trkpt lat="60.837947018444538" lon="6.308441022410989">
        <ele>682.66999999999996</ele>
        <time>2018-10-19T14:24:46Z</time>
      </trkpt>
      <trkpt lat="60.837968979030848" lon="6.308115972205997">
        <ele>679.78999999999996</ele>
        <time>2018-10-19T14:24:55Z</time>
      </trkpt>
      <trkpt lat="60.83790703676641" lon="6.307787988334894">
        <ele>677.38999999999999</ele>
        <time>2018-10-19T14:25:03Z</time>
      </trkpt>
      <trkpt lat="60.837829001247883" lon="6.307704001665115">
        <ele>675.94000000000005</ele>
        <time>2018-10-19T14:25:06Z</time>
      </trkpt>
      <trkpt lat="60.83767301402986" lon="6.307610040530562">
        <ele>674.5</ele>
        <time>2018-10-19T14:25:12Z</time>
      </trkpt>
      <trkpt lat="60.837589027360082" lon="6.30749998614192">
        <ele>674.98000000000002</ele>
        <time>2018-10-19T14:25:18Z</time>
      </trkpt>
      <trkpt lat="60.837506968528032" lon="6.307187005877495">
        <ele>674.5</ele>
        <time>2018-10-19T14:25:26Z</time>
      </trkpt>
      <trkpt lat="60.837476039305329" lon="6.30694099701941">
        <ele>674.5</ele>
        <time>2018-10-19T14:25:32Z</time>
      </trkpt>
      <trkpt lat="60.837463969364762" lon="6.30670303478837">
        <ele>674.5</ele>
        <time>2018-10-19T14:25:38Z</time>
      </trkpt>
      <trkpt lat="60.837452989071608" lon="6.306320987641811">
        <ele>674.01999999999998</ele>
        <time>2018-10-19T14:25:48Z</time>
      </trkpt>
      <trkpt lat="60.837390962988138" lon="6.30597397685051">
        <ele>673.05999999999995</ele>
        <time>2018-10-19T14:25:57Z</time>
      </trkpt>
      <trkpt lat="60.837321979925036" lon="6.305683040991426">
        <ele>672.58000000000004</ele>
        <time>2018-10-19T14:26:04Z</time>
      </trkpt>
      <trkpt lat="60.837244028225541" lon="6.305395038798451">
        <ele>671.13999999999999</ele>
        <time>2018-10-19T14:26:12Z</time>
      </trkpt>
      <trkpt lat="60.837184013798833" lon="6.305152969434857">
        <ele>671.13999999999999</ele>
        <time>2018-10-19T14:26:19Z</time>
      </trkpt>
      <trkpt lat="60.837106984108686" lon="6.304955994710326">
        <ele>670.17999999999995</ele>
        <time>2018-10-19T14:26:25Z</time>
      </trkpt>
      <trkpt lat="60.836981004104018" lon="6.304674027487636">
        <ele>669.22000000000003</ele>
        <time>2018-10-19T14:26:34Z</time>
      </trkpt>
      <trkpt lat="60.836896011605859" lon="6.304476968944073">
        <ele>667.28999999999996</ele>
        <time>2018-10-19T14:26:40Z</time>
      </trkpt>
      <trkpt lat="60.836802972480655" lon="6.30425401031971">
        <ele>666.80999999999995</ele>
        <time>2018-10-19T14:26:47Z</time>
      </trkpt>
      <trkpt lat="60.836679004132748" lon="6.303896019235253">
        <ele>664.40999999999997</ele>
        <time>2018-10-19T14:26:58Z</time>
      </trkpt>
      <trkpt lat="60.836587976664305" lon="6.3035240303725">
        <ele>662.00999999999999</ele>
        <time>2018-10-19T14:27:08Z</time>
      </trkpt>
      <trkpt lat="60.836500972509384" lon="6.30343995988369">
        <ele>661.03999999999996</ele>
        <time>2018-10-19T14:27:12Z</time>
      </trkpt>
      <trkpt lat="60.836327970027924" lon="6.303165033459663">
        <ele>658.63999999999999</ele>
        <time>2018-10-19T14:27:23Z</time>
      </trkpt>
      <trkpt lat="60.836120015010238" lon="6.302932016551495">
        <ele>656.72000000000003</ele>
        <time>2018-10-19T14:27:35Z</time>
      </trkpt>
      <trkpt lat="60.835874006152153" lon="6.302672009915113">
        <ele>654.30999999999995</ele>
        <time>2018-10-19T14:27:50Z</time>
      </trkpt>
      <trkpt lat="60.835689017549157" lon="6.302327010780573">
        <ele>652.87</ele>
        <time>2018-10-19T14:28:02Z</time>
      </trkpt>
      <trkpt lat="60.835535963997245" lon="6.30178595893085">
        <ele>650.47000000000003</ele>
        <time>2018-10-19T14:28:14Z</time>
      </trkpt>
      <trkpt lat="60.835341000929475" lon="6.301362002268434">
        <ele>648.07000000000005</ele>
        <time>2018-10-19T14:28:27Z</time>
      </trkpt>
      <trkpt lat="60.83520001731813" lon="6.30100904032588">
        <ele>647.59000000000003</ele>
        <time>2018-10-19T14:28:38Z</time>
      </trkpt>
      <trkpt lat="60.835036989301443" lon="6.300453990697861">
        <ele>647.10000000000002</ele>
        <time>2018-10-19T14:28:50Z</time>
      </trkpt>
      <trkpt lat="60.835004970431328" lon="6.300004972144961">
        <ele>645.17999999999995</ele>
        <time>2018-10-19T14:28:59Z</time>
      </trkpt>
      <trkpt lat="60.835032965987921" lon="6.299588978290558">
        <ele>643.25999999999999</ele>
        <time>2018-10-19T14:29:08Z</time>
      </trkpt>
      <trkpt lat="60.835043024271727" lon="6.299286978319287">
        <ele>643.25999999999999</ele>
        <time>2018-10-19T14:29:14Z</time>
      </trkpt>
      <trkpt lat="60.83505098707974" lon="6.29896997474134">
        <ele>643.25999999999999</ele>
        <time>2018-10-19T14:29:21Z</time>
      </trkpt>
      <trkpt lat="60.835035983473063" lon="6.298642996698618">
        <ele>642.29999999999995</ele>
        <time>2018-10-19T14:29:28Z</time>
      </trkpt>
      <trkpt lat="60.835027014836669" lon="6.298256004229188">
        <ele>640.38</ele>
        <time>2018-10-19T14:29:37Z</time>
      </trkpt>
      <trkpt lat="60.835077976807952" lon="6.297805979847908">
        <ele>638.92999999999995</ele>
        <time>2018-10-19T14:29:48Z</time>
      </trkpt>
      <trkpt lat="60.835089040920138" lon="6.297407001256943">
        <ele>638.92999999999995</ele>
        <time>2018-10-19T14:29:57Z</time>
      </trkpt>
      <trkpt lat="60.835060039535165" lon="6.297055967152119">
        <ele>638.45000000000005</ele>
        <time>2018-10-19T14:30:06Z</time>
      </trkpt>
      <trkpt lat="60.835027014836669" lon="6.296709962189198">
        <ele>637.49000000000001</ele>
        <time>2018-10-19T14:30:14Z</time>
      </trkpt>
      <trkpt lat="60.834989966824651" lon="6.296435035765171">
        <ele>636.52999999999997</ele>
        <time>2018-10-19T14:30:21Z</time>
      </trkpt>
      <trkpt lat="60.83490002900362" lon="6.296105962246656">
        <ele>635.57000000000005</ele>
        <time>2018-10-19T14:30:29Z</time>
      </trkpt>
      <trkpt lat="60.834846971556544" lon="6.295773033052683">
        <ele>634.61000000000001</ele>
        <time>2018-10-19T14:30:37Z</time>
      </trkpt>
      <trkpt lat="60.834772037342191" lon="6.295502968132496">
        <ele>634.61000000000001</ele>
        <time>2018-10-19T14:30:44Z</time>
      </trkpt>
      <trkpt lat="60.834724009037018" lon="6.295276992022991">
        <ele>633.64999999999998</ele>
        <time>2018-10-19T14:30:50Z</time>
      </trkpt>
      <trkpt lat="60.834595011547208" lon="6.294974992051721">
        <ele>632.20000000000005</ele>
        <time>2018-10-19T14:30:59Z</time>
      </trkpt>
      <trkpt lat="60.83447196520865" lon="6.294638961553574">
        <ele>631.24000000000001</ele>
        <time>2018-10-19T14:31:09Z</time>
      </trkpt>
      <trkpt lat="60.834339028224349" lon="6.294437041506171">
        <ele>631.72000000000003</ele>
        <time>2018-10-19T14:31:16Z</time>
      </trkpt>
      <trkpt lat="60.834224028512836" lon="6.294202012941241">
        <ele>631.72000000000003</ele>
        <time>2018-10-19T14:31:23Z</time>
      </trkpt>
      <trkpt lat="60.834124032407999" lon="6.293978970497847">
        <ele>631.24000000000001</ele>
        <time>2018-10-19T14:31:30Z</time>
      </trkpt>
      <trkpt lat="60.83399604074657" lon="6.293780989944935">
        <ele>630.27999999999997</ele>
        <time>2018-10-19T14:31:37Z</time>
      </trkpt>
      <trkpt lat="60.833880035206676" lon="6.293565994128585">
        <ele>628.84000000000003</ele>
        <time>2018-10-19T14:31:44Z</time>
      </trkpt>
      <trkpt lat="60.833760006353259" lon="6.293334988877177">
        <ele>627.88</ele>
        <time>2018-10-19T14:31:51Z</time>
      </trkpt>
      <trkpt lat="60.833630003035069" lon="6.293065007776022">
        <ele>625.47000000000003</ele>
        <time>2018-10-19T14:32:00Z</time>
      </trkpt>
      <trkpt lat="60.833488013595343" lon="6.292834002524614">
        <ele>623.54999999999995</ele>
        <time>2018-10-19T14:32:09Z</time>
      </trkpt>
      <trkpt lat="60.833283998072147" lon="6.292514987289906">
        <ele>623.54999999999995</ele>
        <time>2018-10-19T14:32:21Z</time>
      </trkpt>
      <trkpt lat="60.833110995590687" lon="6.292078960686922">
        <ele>624.02999999999997</ele>
        <time>2018-10-19T14:32:34Z</time>
      </trkpt>
      <trkpt lat="60.832964982837439" lon="6.291693979874253">
        <ele>624.99000000000001</ele>
        <time>2018-10-19T14:32:45Z</time>
      </trkpt>
      <trkpt lat="60.8327960036695" lon="6.291344035416842">
        <ele>624.99000000000001</ele>
        <time>2018-10-19T14:32:56Z</time>
      </trkpt>
      <trkpt lat="60.832618977874517" lon="6.290999036282301">
        <ele>624.50999999999999</ele>
        <time>2018-10-19T14:33:08Z</time>
      </trkpt>
      <trkpt lat="60.832529962062836" lon="6.290757972747088">
        <ele>624.02999999999997</ele>
        <time>2018-10-19T14:33:15Z</time>
      </trkpt>
      <trkpt lat="60.832381015643477" lon="6.290471982210875">
        <ele>622.11000000000001</ele>
        <time>2018-10-19T14:33:25Z</time>
      </trkpt>
      <trkpt lat="60.832204995676875" lon="6.290110973641276">
        <ele>620.66999999999996</ele>
        <time>2018-10-19T14:33:36Z</time>
      </trkpt>
      <trkpt lat="60.83206401206553" lon="6.289786007255316">
        <ele>621.14999999999998</ele>
        <time>2018-10-19T14:33:46Z</time>
      </trkpt>
      <trkpt lat="60.831838035956025" lon="6.289361966773868">
        <ele>620.66999999999996</ele>
        <time>2018-10-19T14:34:00Z</time>
      </trkpt>
      <trkpt lat="60.831676013767719" lon="6.289040017873049">
        <ele>619.71000000000004</ele>
        <time>2018-10-19T14:34:11Z</time>
      </trkpt>
      <trkpt lat="60.831539975479245" lon="6.288731982931495">
        <ele>617.77999999999997</ele>
        <time>2018-10-19T14:34:22Z</time>
      </trkpt>
      <trkpt lat="60.831354986876249" lon="6.288429982960224">
        <ele>615.86000000000001</ele>
        <time>2018-10-19T14:34:33Z</time>
      </trkpt>
      <trkpt lat="60.831159017980099" lon="6.288038967177272">
        <ele>616.34000000000003</ele>
        <time>2018-10-19T14:34:45Z</time>
      </trkpt>
      <trkpt lat="60.831000013276935" lon="6.287693968042731">
        <ele>615.86000000000001</ele>
        <time>2018-10-19T14:34:55Z</time>
      </trkpt>
      <trkpt lat="60.830803960561752" lon="6.287329019978643">
        <ele>615.38</ele>
        <time>2018-10-19T14:35:07Z</time>
      </trkpt>
      <trkpt lat="60.830670017749071" lon="6.287096003070474">
        <ele>614.41999999999996</ele>
        <time>2018-10-19T14:35:17Z</time>
      </trkpt>
      <trkpt lat="60.830594999715686" lon="6.286919983103871">
        <ele>613.46000000000004</ele>
        <time>2018-10-19T14:35:27Z</time>
      </trkpt>
      <trkpt lat="60.830478994175792" lon="6.286647990345955">
        <ele>612.98000000000002</ele>
        <time>2018-10-19T14:35:39Z</time>
      </trkpt>
      <trkpt lat="60.830322001129389" lon="6.28637901507318">
        <ele>610.57000000000005</ele>
        <time>2018-10-19T14:35:53Z</time>
      </trkpt>
      <trkpt lat="60.830165008082986" lon="6.286024041473866">
        <ele>608.64999999999998</ele>
        <time>2018-10-19T14:36:10Z</time>
      </trkpt>
      <trkpt lat="60.830017989501357" lon="6.2857770267874">
        <ele>607.21000000000004</ele>
        <time>2018-10-19T14:36:24Z</time>
      </trkpt>
      <trkpt lat="60.82985102199018" lon="6.285477038472891">
        <ele>607.21000000000004</ele>
        <time>2018-10-19T14:36:41Z</time>
      </trkpt>
      <trkpt lat="60.829671984538436" lon="6.285175960510969">
        <ele>607.21000000000004</ele>
        <time>2018-10-19T14:36:57Z</time>
      </trkpt>
      <trkpt lat="60.829504011198878" lon="6.284759966656566">
        <ele>606.25</ele>
        <time>2018-10-19T14:37:16Z</time>
      </trkpt>
      <trkpt lat="60.829356992617249" lon="6.284413039684296">
        <ele>606.25</ele>
        <time>2018-10-19T14:37:32Z</time>
      </trkpt>
      <trkpt lat="60.829231012612581" lon="6.284140041097999">
        <ele>604.80999999999995</ele>
        <time>2018-10-19T14:37:46Z</time>
      </trkpt>
      <trkpt lat="60.829074019566178" lon="6.283841980621219">
        <ele>603.85000000000002</ele>
        <time>2018-10-19T14:38:02Z</time>
      </trkpt>
      <trkpt lat="60.829009981825948" lon="6.283698985353112">
        <ele>602.88</ele>
        <time>2018-10-19T14:38:12Z</time>
      </trkpt>
      <trkpt lat="60.829063039273024" lon="6.283604018390179">
        <ele>602.39999999999998</ele>
        <time>2018-10-19T14:38:20Z</time>
      </trkpt>
      <trkpt lat="60.829088017344475" lon="6.283551966771483">
        <ele>602.88</ele>
        <time>2018-10-19T14:38:23Z</time>
      </trkpt>
      <trkpt lat="60.829104026779532" lon="6.283562025055289">
        <ele>602.88</ele>
        <time>2018-10-19T14:38:29Z</time>
      </trkpt>
    </trkseg>
  </trk>

</gpx>